<?xml version="1.0" encoding="UTF-8" standalone="no" ?>
<gpx xmlns="http://www.topografix.com/GPX/1/1" xmlns:xsi="http://www.w3.org/2001/XMLSchema-instance" xsi:schemaLocation="http://www.topografix.com/GPX/1/1 http://www.topografix.com/GPX/1/1/gpx.xsd" version="1.1" creator="VisuGPX - https://www.visugpx.com">
  <metadata>
    <name>fort de dormillouse</name>
    <desc><![CDATA[christian,corinne, emmanuelle,bejanin belle boucle descente delicate par le pr la montagnette]]></desc>
  </metadata>
  <trk>
    <name><![CDATA[fort de dormillouse_1]]></name>
    <trkseg>
      <trkpt lat="44.4068" lon="6.3499">
        <ele>1332</ele>
        <time>2015-08-26T08:22:30.1Z</time>
      </trkpt>
      <trkpt lat="44.40675" lon="6.34987">
        <ele>1332</ele>
        <time>2015-08-26T08:22:36.1Z</time>
      </trkpt>
      <trkpt lat="44.4067" lon="6.34989">
        <ele>1333</ele>
        <time>2015-08-26T08:22:41.1Z</time>
      </trkpt>
      <trkpt lat="44.40664" lon="6.3499">
        <ele>1334</ele>
        <time>2015-08-26T08:22:47.1Z</time>
      </trkpt>
      <trkpt lat="44.40659" lon="6.34993">
        <ele>1334</ele>
        <time>2015-08-26T08:22:53.1Z</time>
      </trkpt>
      <trkpt lat="44.40655" lon="6.34994">
        <ele>1335</ele>
        <time>2015-08-26T08:22:58.1Z</time>
      </trkpt>
      <trkpt lat="44.4065" lon="6.34997">
        <ele>1336</ele>
        <time>2015-08-26T08:23:04.1Z</time>
      </trkpt>
      <trkpt lat="44.40646" lon="6.35">
        <ele>1337</ele>
        <time>2015-08-26T08:23:10.1Z</time>
      </trkpt>
      <trkpt lat="44.40643" lon="6.35002">
        <ele>1338</ele>
        <time>2015-08-26T08:23:16.1Z</time>
      </trkpt>
      <trkpt lat="44.40639" lon="6.35003">
        <ele>1339</ele>
        <time>2015-08-26T08:23:21.1Z</time>
      </trkpt>
      <trkpt lat="44.40635" lon="6.35005">
        <ele>1339</ele>
        <time>2015-08-26T08:23:27.1Z</time>
      </trkpt>
      <trkpt lat="44.40633" lon="6.35006">
        <ele>1340</ele>
        <time>2015-08-26T08:23:32.1Z</time>
      </trkpt>
      <trkpt lat="44.40628" lon="6.35007">
        <ele>1341</ele>
        <time>2015-08-26T08:23:38.1Z</time>
      </trkpt>
      <trkpt lat="44.40625" lon="6.35008">
        <ele>1342</ele>
        <time>2015-08-26T08:23:43.1Z</time>
      </trkpt>
      <trkpt lat="44.40622" lon="6.35009">
        <ele>1342</ele>
        <time>2015-08-26T08:23:48.1Z</time>
      </trkpt>
      <trkpt lat="44.40619" lon="6.35013">
        <ele>1343</ele>
        <time>2015-08-26T08:23:54.1Z</time>
      </trkpt>
      <trkpt lat="44.40615" lon="6.35014">
        <ele>1344</ele>
        <time>2015-08-26T08:23:59.1Z</time>
      </trkpt>
      <trkpt lat="44.40613" lon="6.35016">
        <ele>1345</ele>
        <time>2015-08-26T08:24:05.1Z</time>
      </trkpt>
      <trkpt lat="44.40611" lon="6.35017">
        <ele>1346</ele>
        <time>2015-08-26T08:24:10.1Z</time>
      </trkpt>
      <trkpt lat="44.40606" lon="6.35018">
        <ele>1347</ele>
        <time>2015-08-26T08:24:16.1Z</time>
      </trkpt>
      <trkpt lat="44.40601" lon="6.35021">
        <ele>1348</ele>
        <time>2015-08-26T08:24:22.1Z</time>
      </trkpt>
      <trkpt lat="44.40598" lon="6.35024">
        <ele>1349</ele>
        <time>2015-08-26T08:24:28.1Z</time>
      </trkpt>
      <trkpt lat="44.40594" lon="6.35028">
        <ele>1350</ele>
        <time>2015-08-26T08:24:33.1Z</time>
      </trkpt>
      <trkpt lat="44.4059" lon="6.35032">
        <ele>1352</ele>
        <time>2015-08-26T08:24:39.1Z</time>
      </trkpt>
      <trkpt lat="44.40589" lon="6.35037">
        <ele>1353</ele>
        <time>2015-08-26T08:24:44.1Z</time>
      </trkpt>
      <trkpt lat="44.40589" lon="6.35038">
        <ele>1353</ele>
        <time>2015-08-26T08:24:50.1Z</time>
      </trkpt>
      <trkpt lat="44.40588" lon="6.35036">
        <ele>1353</ele>
        <time>2015-08-26T08:24:55.1Z</time>
      </trkpt>
      <trkpt lat="44.40588" lon="6.35032">
        <ele>1353</ele>
        <time>2015-08-26T08:25:00.1Z</time>
      </trkpt>
      <trkpt lat="44.40589" lon="6.35032">
        <ele>1354</ele>
        <time>2015-08-26T08:25:06.1Z</time>
      </trkpt>
      <trkpt lat="44.40593" lon="6.35038">
        <ele>1354</ele>
        <time>2015-08-26T08:25:12.1Z</time>
      </trkpt>
      <trkpt lat="44.40596" lon="6.35044">
        <ele>1355</ele>
        <time>2015-08-26T08:25:18.1Z</time>
      </trkpt>
      <trkpt lat="44.40598" lon="6.35049">
        <ele>1356</ele>
        <time>2015-08-26T08:25:23.1Z</time>
      </trkpt>
      <trkpt lat="44.40598" lon="6.35057">
        <ele>1357</ele>
        <time>2015-08-26T08:25:29.1Z</time>
      </trkpt>
      <trkpt lat="44.40596" lon="6.35061">
        <ele>1358</ele>
        <time>2015-08-26T08:25:34.1Z</time>
      </trkpt>
      <trkpt lat="44.40599" lon="6.35067">
        <ele>1359</ele>
        <time>2015-08-26T08:25:40.1Z</time>
      </trkpt>
      <trkpt lat="44.406" lon="6.35073">
        <ele>1360</ele>
        <time>2015-08-26T08:25:46.1Z</time>
      </trkpt>
      <trkpt lat="44.40602" lon="6.35077">
        <ele>1360</ele>
        <time>2015-08-26T08:25:51.1Z</time>
      </trkpt>
      <trkpt lat="44.40603" lon="6.35083">
        <ele>1360</ele>
        <time>2015-08-26T08:25:56.1Z</time>
      </trkpt>
      <trkpt lat="44.40605" lon="6.3509">
        <ele>1361</ele>
        <time>2015-08-26T08:26:02.1Z</time>
      </trkpt>
      <trkpt lat="44.40607" lon="6.35096">
        <ele>1362</ele>
        <time>2015-08-26T08:26:07.1Z</time>
      </trkpt>
      <trkpt lat="44.40607" lon="6.35102">
        <ele>1363</ele>
        <time>2015-08-26T08:26:13.1Z</time>
      </trkpt>
      <trkpt lat="44.40609" lon="6.35108">
        <ele>1364</ele>
        <time>2015-08-26T08:26:19.1Z</time>
      </trkpt>
      <trkpt lat="44.40609" lon="6.35112">
        <ele>1365</ele>
        <time>2015-08-26T08:26:25.1Z</time>
      </trkpt>
      <trkpt lat="44.40607" lon="6.35117">
        <ele>1366</ele>
        <time>2015-08-26T08:26:30.1Z</time>
      </trkpt>
      <trkpt lat="44.40604" lon="6.35124">
        <ele>1367</ele>
        <time>2015-08-26T08:26:36.1Z</time>
      </trkpt>
      <trkpt lat="44.40602" lon="6.35129">
        <ele>1368</ele>
        <time>2015-08-26T08:26:41.1Z</time>
      </trkpt>
      <trkpt lat="44.40601" lon="6.35136">
        <ele>1368</ele>
        <time>2015-08-26T08:26:47.1Z</time>
      </trkpt>
      <trkpt lat="44.40601" lon="6.35141">
        <ele>1369</ele>
        <time>2015-08-26T08:26:52.1Z</time>
      </trkpt>
      <trkpt lat="44.406" lon="6.35147">
        <ele>1370</ele>
        <time>2015-08-26T08:26:58.1Z</time>
      </trkpt>
      <trkpt lat="44.40602" lon="6.35151">
        <ele>1371</ele>
        <time>2015-08-26T08:27:03.1Z</time>
      </trkpt>
      <trkpt lat="44.40605" lon="6.35158">
        <ele>1372</ele>
        <time>2015-08-26T08:27:09.1Z</time>
      </trkpt>
      <trkpt lat="44.40607" lon="6.35162">
        <ele>1373</ele>
        <time>2015-08-26T08:27:14.1Z</time>
      </trkpt>
      <trkpt lat="44.40607" lon="6.35168">
        <ele>1373</ele>
        <time>2015-08-26T08:27:19.1Z</time>
      </trkpt>
      <trkpt lat="44.40603" lon="6.35171">
        <ele>1374</ele>
        <time>2015-08-26T08:27:24.1Z</time>
      </trkpt>
      <trkpt lat="44.40596" lon="6.35173">
        <ele>1375</ele>
        <time>2015-08-26T08:27:30.1Z</time>
      </trkpt>
      <trkpt lat="44.4059" lon="6.35174">
        <ele>1376</ele>
        <time>2015-08-26T08:27:36.1Z</time>
      </trkpt>
      <trkpt lat="44.40585" lon="6.35175">
        <ele>1376</ele>
        <time>2015-08-26T08:27:42.1Z</time>
      </trkpt>
      <trkpt lat="44.40582" lon="6.35174">
        <ele>1377</ele>
        <time>2015-08-26T08:27:47.1Z</time>
      </trkpt>
      <trkpt lat="44.4058" lon="6.35171">
        <ele>1378</ele>
        <time>2015-08-26T08:27:52.1Z</time>
      </trkpt>
      <trkpt lat="44.40577" lon="6.35171">
        <ele>1378</ele>
        <time>2015-08-26T08:27:57.1Z</time>
      </trkpt>
      <trkpt lat="44.40571" lon="6.3517">
        <ele>1379</ele>
        <time>2015-08-26T08:28:03.1Z</time>
      </trkpt>
      <trkpt lat="44.40565" lon="6.3517">
        <ele>1380</ele>
        <time>2015-08-26T08:28:08.1Z</time>
      </trkpt>
      <trkpt lat="44.40562" lon="6.35172">
        <ele>1382</ele>
        <time>2015-08-26T08:28:14.1Z</time>
      </trkpt>
      <trkpt lat="44.40559" lon="6.35173">
        <ele>1382</ele>
        <time>2015-08-26T08:28:19.1Z</time>
      </trkpt>
      <trkpt lat="44.40556" lon="6.35173">
        <ele>1383</ele>
        <time>2015-08-26T08:28:24.1Z</time>
      </trkpt>
      <trkpt lat="44.40552" lon="6.35174">
        <ele>1384</ele>
        <time>2015-08-26T08:28:30.1Z</time>
      </trkpt>
      <trkpt lat="44.40546" lon="6.35175">
        <ele>1385</ele>
        <time>2015-08-26T08:28:36.1Z</time>
      </trkpt>
      <trkpt lat="44.40541" lon="6.35176">
        <ele>1386</ele>
        <time>2015-08-26T08:28:42.1Z</time>
      </trkpt>
      <trkpt lat="44.40538" lon="6.35177">
        <ele>1387</ele>
        <time>2015-08-26T08:28:48.1Z</time>
      </trkpt>
      <trkpt lat="44.40534" lon="6.35179">
        <ele>1387</ele>
        <time>2015-08-26T08:28:53.1Z</time>
      </trkpt>
      <trkpt lat="44.4053" lon="6.35182">
        <ele>1389</ele>
        <time>2015-08-26T08:28:58.1Z</time>
      </trkpt>
      <trkpt lat="44.40528" lon="6.35187">
        <ele>1390</ele>
        <time>2015-08-26T08:29:03.1Z</time>
      </trkpt>
      <trkpt lat="44.40527" lon="6.35193">
        <ele>1391</ele>
        <time>2015-08-26T08:29:08.1Z</time>
      </trkpt>
      <trkpt lat="44.40527" lon="6.35197">
        <ele>1391</ele>
        <time>2015-08-26T08:29:13.1Z</time>
      </trkpt>
      <trkpt lat="44.40529" lon="6.35204">
        <ele>1392</ele>
        <time>2015-08-26T08:29:19.1Z</time>
      </trkpt>
      <trkpt lat="44.40532" lon="6.35206">
        <ele>1393</ele>
        <time>2015-08-26T08:29:24.1Z</time>
      </trkpt>
      <trkpt lat="44.40537" lon="6.3521">
        <ele>1393</ele>
        <time>2015-08-26T08:29:30.1Z</time>
      </trkpt>
      <trkpt lat="44.4054" lon="6.35213">
        <ele>1394</ele>
        <time>2015-08-26T08:29:35.1Z</time>
      </trkpt>
      <trkpt lat="44.40545" lon="6.35216">
        <ele>1395</ele>
        <time>2015-08-26T08:29:40.1Z</time>
      </trkpt>
      <trkpt lat="44.40547" lon="6.35219">
        <ele>1395</ele>
        <time>2015-08-26T08:29:45.1Z</time>
      </trkpt>
      <trkpt lat="44.40548" lon="6.35222">
        <ele>1396</ele>
        <time>2015-08-26T08:29:50.1Z</time>
      </trkpt>
      <trkpt lat="44.40548" lon="6.35227">
        <ele>1397</ele>
        <time>2015-08-26T08:29:55.1Z</time>
      </trkpt>
      <trkpt lat="44.40548" lon="6.35232">
        <ele>1397</ele>
        <time>2015-08-26T08:30:01.1Z</time>
      </trkpt>
      <trkpt lat="44.40548" lon="6.35238">
        <ele>1398</ele>
        <time>2015-08-26T08:30:07.1Z</time>
      </trkpt>
      <trkpt lat="44.40548" lon="6.35243">
        <ele>1399</ele>
        <time>2015-08-26T08:30:12.1Z</time>
      </trkpt>
      <trkpt lat="44.40548" lon="6.35248">
        <ele>1400</ele>
        <time>2015-08-26T08:30:18.1Z</time>
      </trkpt>
      <trkpt lat="44.40546" lon="6.35254">
        <ele>1401</ele>
        <time>2015-08-26T08:30:24.1Z</time>
      </trkpt>
      <trkpt lat="44.40545" lon="6.35258">
        <ele>1401</ele>
        <time>2015-08-26T08:30:30.1Z</time>
      </trkpt>
      <trkpt lat="44.40544" lon="6.35263">
        <ele>1402</ele>
        <time>2015-08-26T08:30:35.1Z</time>
      </trkpt>
      <trkpt lat="44.40546" lon="6.35268">
        <ele>1403</ele>
        <time>2015-08-26T08:30:41.1Z</time>
      </trkpt>
      <trkpt lat="44.40546" lon="6.35272">
        <ele>1403</ele>
        <time>2015-08-26T08:30:46.1Z</time>
      </trkpt>
      <trkpt lat="44.40546" lon="6.35277">
        <ele>1404</ele>
        <time>2015-08-26T08:30:51.1Z</time>
      </trkpt>
      <trkpt lat="44.40546" lon="6.35282">
        <ele>1405</ele>
        <time>2015-08-26T08:30:57.1Z</time>
      </trkpt>
      <trkpt lat="44.40543" lon="6.35285">
        <ele>1406</ele>
        <time>2015-08-26T08:31:02.1Z</time>
      </trkpt>
      <trkpt lat="44.4054" lon="6.35288">
        <ele>1407</ele>
        <time>2015-08-26T08:31:08.1Z</time>
      </trkpt>
      <trkpt lat="44.40536" lon="6.3529">
        <ele>1408</ele>
        <time>2015-08-26T08:31:14.1Z</time>
      </trkpt>
      <trkpt lat="44.40532" lon="6.35294">
        <ele>1409</ele>
        <time>2015-08-26T08:31:20.1Z</time>
      </trkpt>
      <trkpt lat="44.4053" lon="6.35298">
        <ele>1409</ele>
        <time>2015-08-26T08:31:25.1Z</time>
      </trkpt>
      <trkpt lat="44.40528" lon="6.35303">
        <ele>1410</ele>
        <time>2015-08-26T08:31:30.1Z</time>
      </trkpt>
      <trkpt lat="44.40524" lon="6.35309">
        <ele>1411</ele>
        <time>2015-08-26T08:31:36.1Z</time>
      </trkpt>
      <trkpt lat="44.40521" lon="6.35314">
        <ele>1412</ele>
        <time>2015-08-26T08:31:41.1Z</time>
      </trkpt>
      <trkpt lat="44.40519" lon="6.35321">
        <ele>1412</ele>
        <time>2015-08-26T08:31:47.1Z</time>
      </trkpt>
      <trkpt lat="44.40517" lon="6.35325">
        <ele>1413</ele>
        <time>2015-08-26T08:31:52.1Z</time>
      </trkpt>
      <trkpt lat="44.40515" lon="6.35331">
        <ele>1414</ele>
        <time>2015-08-26T08:31:58.1Z</time>
      </trkpt>
      <trkpt lat="44.40514" lon="6.35337">
        <ele>1414</ele>
        <time>2015-08-26T08:32:03.1Z</time>
      </trkpt>
      <trkpt lat="44.40515" lon="6.35343">
        <ele>1415</ele>
        <time>2015-08-26T08:32:08.1Z</time>
      </trkpt>
      <trkpt lat="44.40516" lon="6.35348">
        <ele>1416</ele>
        <time>2015-08-26T08:32:14.1Z</time>
      </trkpt>
      <trkpt lat="44.40517" lon="6.35355">
        <ele>1417</ele>
        <time>2015-08-26T08:32:20.1Z</time>
      </trkpt>
      <trkpt lat="44.40517" lon="6.3536">
        <ele>1418</ele>
        <time>2015-08-26T08:32:25.1Z</time>
      </trkpt>
      <trkpt lat="44.40516" lon="6.35365">
        <ele>1418</ele>
        <time>2015-08-26T08:32:30.1Z</time>
      </trkpt>
      <trkpt lat="44.40513" lon="6.35367">
        <ele>1419</ele>
        <time>2015-08-26T08:32:35.1Z</time>
      </trkpt>
      <trkpt lat="44.40511" lon="6.35368">
        <ele>1420</ele>
        <time>2015-08-26T08:32:40.1Z</time>
      </trkpt>
      <trkpt lat="44.40505" lon="6.35364">
        <ele>1420</ele>
        <time>2015-08-26T08:32:46.1Z</time>
      </trkpt>
      <trkpt lat="44.40504" lon="6.3536">
        <ele>1420</ele>
        <time>2015-08-26T08:32:51.1Z</time>
      </trkpt>
      <trkpt lat="44.40503" lon="6.35359">
        <ele>1420</ele>
        <time>2015-08-26T08:32:57.1Z</time>
      </trkpt>
      <trkpt lat="44.405" lon="6.35363">
        <ele>1420</ele>
        <time>2015-08-26T08:33:03.1Z</time>
      </trkpt>
      <trkpt lat="44.40498" lon="6.35368">
        <ele>1421</ele>
        <time>2015-08-26T08:33:09.1Z</time>
      </trkpt>
      <trkpt lat="44.40493" lon="6.35373">
        <ele>1421</ele>
        <time>2015-08-26T08:33:15.1Z</time>
      </trkpt>
      <trkpt lat="44.4049" lon="6.35377">
        <ele>1423</ele>
        <time>2015-08-26T08:33:21.1Z</time>
      </trkpt>
      <trkpt lat="44.40488" lon="6.3538">
        <ele>1423</ele>
        <time>2015-08-26T08:33:27.1Z</time>
      </trkpt>
      <trkpt lat="44.40485" lon="6.35386">
        <ele>1423</ele>
        <time>2015-08-26T08:33:32.1Z</time>
      </trkpt>
      <trkpt lat="44.40482" lon="6.35392">
        <ele>1424</ele>
        <time>2015-08-26T08:33:37.1Z</time>
      </trkpt>
      <trkpt lat="44.4048" lon="6.35397">
        <ele>1424</ele>
        <time>2015-08-26T08:33:42.1Z</time>
      </trkpt>
      <trkpt lat="44.40474" lon="6.35404">
        <ele>1424</ele>
        <time>2015-08-26T08:33:48.1Z</time>
      </trkpt>
      <trkpt lat="44.4047" lon="6.35411">
        <ele>1425</ele>
        <time>2015-08-26T08:33:54.1Z</time>
      </trkpt>
      <trkpt lat="44.40467" lon="6.35417">
        <ele>1426</ele>
        <time>2015-08-26T08:33:59.1Z</time>
      </trkpt>
      <trkpt lat="44.40464" lon="6.3542">
        <ele>1427</ele>
        <time>2015-08-26T08:34:04.1Z</time>
      </trkpt>
      <trkpt lat="44.40461" lon="6.35427">
        <ele>1427</ele>
        <time>2015-08-26T08:34:10.1Z</time>
      </trkpt>
      <trkpt lat="44.40461" lon="6.35429">
        <ele>1427</ele>
        <time>2015-08-26T08:34:15.1Z</time>
      </trkpt>
      <trkpt lat="44.4046" lon="6.35431">
        <ele>1427</ele>
        <time>2015-08-26T08:34:20.1Z</time>
      </trkpt>
      <trkpt lat="44.40456" lon="6.35438">
        <ele>1427</ele>
        <time>2015-08-26T08:34:26.1Z</time>
      </trkpt>
      <trkpt lat="44.40455" lon="6.35444">
        <ele>1427</ele>
        <time>2015-08-26T08:34:31.1Z</time>
      </trkpt>
      <trkpt lat="44.40451" lon="6.35452">
        <ele>1428</ele>
        <time>2015-08-26T08:34:37.1Z</time>
      </trkpt>
      <trkpt lat="44.40452" lon="6.3546">
        <ele>1429</ele>
        <time>2015-08-26T08:34:43.1Z</time>
      </trkpt>
      <trkpt lat="44.40452" lon="6.35466">
        <ele>1430</ele>
        <time>2015-08-26T08:34:49.1Z</time>
      </trkpt>
      <trkpt lat="44.40451" lon="6.35472">
        <ele>1431</ele>
        <time>2015-08-26T08:34:54.1Z</time>
      </trkpt>
      <trkpt lat="44.40449" lon="6.35476">
        <ele>1432</ele>
        <time>2015-08-26T08:35:00.1Z</time>
      </trkpt>
      <trkpt lat="44.40448" lon="6.3548">
        <ele>1433</ele>
        <time>2015-08-26T08:35:06.1Z</time>
      </trkpt>
      <trkpt lat="44.40448" lon="6.35483">
        <ele>1435</ele>
        <time>2015-08-26T08:35:11.1Z</time>
      </trkpt>
      <trkpt lat="44.40449" lon="6.35486">
        <ele>1436</ele>
        <time>2015-08-26T08:35:17.1Z</time>
      </trkpt>
      <trkpt lat="44.40447" lon="6.35488">
        <ele>1437</ele>
        <time>2015-08-26T08:35:22.1Z</time>
      </trkpt>
      <trkpt lat="44.40445" lon="6.35489">
        <ele>1438</ele>
        <time>2015-08-26T08:35:27.1Z</time>
      </trkpt>
      <trkpt lat="44.40439" lon="6.35492">
        <ele>1440</ele>
        <time>2015-08-26T08:35:33.1Z</time>
      </trkpt>
      <trkpt lat="44.40434" lon="6.35497">
        <ele>1440</ele>
        <time>2015-08-26T08:35:39.1Z</time>
      </trkpt>
      <trkpt lat="44.4043" lon="6.35499">
        <ele>1440</ele>
        <time>2015-08-26T08:35:44.1Z</time>
      </trkpt>
      <trkpt lat="44.40427" lon="6.35502">
        <ele>1441</ele>
        <time>2015-08-26T08:35:49.1Z</time>
      </trkpt>
      <trkpt lat="44.40423" lon="6.35506">
        <ele>1443</ele>
        <time>2015-08-26T08:35:55.1Z</time>
      </trkpt>
      <trkpt lat="44.40421" lon="6.35509">
        <ele>1444</ele>
        <time>2015-08-26T08:36:01.1Z</time>
      </trkpt>
      <trkpt lat="44.40419" lon="6.35511">
        <ele>1445</ele>
        <time>2015-08-26T08:36:06.1Z</time>
      </trkpt>
      <trkpt lat="44.40417" lon="6.35516">
        <ele>1446</ele>
        <time>2015-08-26T08:36:11.1Z</time>
      </trkpt>
      <trkpt lat="44.40414" lon="6.3552">
        <ele>1447</ele>
        <time>2015-08-26T08:36:17.1Z</time>
      </trkpt>
      <trkpt lat="44.40415" lon="6.35524">
        <ele>1448</ele>
        <time>2015-08-26T08:36:23.1Z</time>
      </trkpt>
      <trkpt lat="44.40419" lon="6.35525">
        <ele>1449</ele>
        <time>2015-08-26T08:36:28.1Z</time>
      </trkpt>
      <trkpt lat="44.40421" lon="6.35528">
        <ele>1450</ele>
        <time>2015-08-26T08:36:34.1Z</time>
      </trkpt>
      <trkpt lat="44.40424" lon="6.35531">
        <ele>1451</ele>
        <time>2015-08-26T08:36:40.1Z</time>
      </trkpt>
      <trkpt lat="44.40424" lon="6.35534">
        <ele>1451</ele>
        <time>2015-08-26T08:36:45.1Z</time>
      </trkpt>
      <trkpt lat="44.40426" lon="6.35537">
        <ele>1452</ele>
        <time>2015-08-26T08:36:51.1Z</time>
      </trkpt>
      <trkpt lat="44.40428" lon="6.35542">
        <ele>1452</ele>
        <time>2015-08-26T08:36:57.1Z</time>
      </trkpt>
      <trkpt lat="44.4043" lon="6.35546">
        <ele>1453</ele>
        <time>2015-08-26T08:37:02.1Z</time>
      </trkpt>
      <trkpt lat="44.40432" lon="6.35552">
        <ele>1453</ele>
        <time>2015-08-26T08:37:08.1Z</time>
      </trkpt>
      <trkpt lat="44.40434" lon="6.35557">
        <ele>1454</ele>
        <time>2015-08-26T08:37:13.1Z</time>
      </trkpt>
      <trkpt lat="44.40436" lon="6.35563">
        <ele>1454</ele>
        <time>2015-08-26T08:37:18.1Z</time>
      </trkpt>
      <trkpt lat="44.40437" lon="6.3557">
        <ele>1455</ele>
        <time>2015-08-26T08:37:24.1Z</time>
      </trkpt>
      <trkpt lat="44.40437" lon="6.35576">
        <ele>1456</ele>
        <time>2015-08-26T08:37:30.1Z</time>
      </trkpt>
      <trkpt lat="44.40436" lon="6.35582">
        <ele>1456</ele>
        <time>2015-08-26T08:37:36.1Z</time>
      </trkpt>
      <trkpt lat="44.40433" lon="6.35588">
        <ele>1456</ele>
        <time>2015-08-26T08:37:42.1Z</time>
      </trkpt>
      <trkpt lat="44.40433" lon="6.35591">
        <ele>1457</ele>
        <time>2015-08-26T08:37:48.1Z</time>
      </trkpt>
      <trkpt lat="44.40433" lon="6.35595">
        <ele>1458</ele>
        <time>2015-08-26T08:37:53.1Z</time>
      </trkpt>
      <trkpt lat="44.4043" lon="6.35602">
        <ele>1459</ele>
        <time>2015-08-26T08:37:59.1Z</time>
      </trkpt>
      <trkpt lat="44.40427" lon="6.35605">
        <ele>1459</ele>
        <time>2015-08-26T08:38:05.1Z</time>
      </trkpt>
      <trkpt lat="44.40422" lon="6.35605">
        <ele>1460</ele>
        <time>2015-08-26T08:38:11.1Z</time>
      </trkpt>
      <trkpt lat="44.40418" lon="6.35604">
        <ele>1461</ele>
        <time>2015-08-26T08:38:16.1Z</time>
      </trkpt>
      <trkpt lat="44.40414" lon="6.35602">
        <ele>1463</ele>
        <time>2015-08-26T08:38:22.1Z</time>
      </trkpt>
      <trkpt lat="44.40409" lon="6.35602">
        <ele>1465</ele>
        <time>2015-08-26T08:38:28.1Z</time>
      </trkpt>
      <trkpt lat="44.40405" lon="6.35604">
        <ele>1465</ele>
        <time>2015-08-26T08:38:33.1Z</time>
      </trkpt>
      <trkpt lat="44.40402" lon="6.3561">
        <ele>1466</ele>
        <time>2015-08-26T08:38:39.1Z</time>
      </trkpt>
      <trkpt lat="44.404" lon="6.35616">
        <ele>1466</ele>
        <time>2015-08-26T08:38:45.1Z</time>
      </trkpt>
      <trkpt lat="44.404" lon="6.3562">
        <ele>1467</ele>
        <time>2015-08-26T08:38:51.1Z</time>
      </trkpt>
      <trkpt lat="44.40402" lon="6.35627">
        <ele>1467</ele>
        <time>2015-08-26T08:38:57.1Z</time>
      </trkpt>
      <trkpt lat="44.40403" lon="6.3563">
        <ele>1467</ele>
        <time>2015-08-26T08:39:02.1Z</time>
      </trkpt>
      <trkpt lat="44.40405" lon="6.35633">
        <ele>1468</ele>
        <time>2015-08-26T08:39:08.1Z</time>
      </trkpt>
      <trkpt lat="44.40406" lon="6.35637">
        <ele>1469</ele>
        <time>2015-08-26T08:39:14.1Z</time>
      </trkpt>
      <trkpt lat="44.40404" lon="6.3564">
        <ele>1469</ele>
        <time>2015-08-26T08:39:19.1Z</time>
      </trkpt>
      <trkpt lat="44.40401" lon="6.3564">
        <ele>1470</ele>
        <time>2015-08-26T08:39:25.1Z</time>
      </trkpt>
      <trkpt lat="44.40399" lon="6.35637">
        <ele>1470</ele>
        <time>2015-08-26T08:39:31.1Z</time>
      </trkpt>
      <trkpt lat="44.40398" lon="6.35634">
        <ele>1471</ele>
        <time>2015-08-26T08:39:37.1Z</time>
      </trkpt>
      <trkpt lat="44.40395" lon="6.35633">
        <ele>1472</ele>
        <time>2015-08-26T08:39:42.1Z</time>
      </trkpt>
      <trkpt lat="44.40392" lon="6.35637">
        <ele>1473</ele>
        <time>2015-08-26T08:39:48.1Z</time>
      </trkpt>
      <trkpt lat="44.40392" lon="6.35641">
        <ele>1474</ele>
        <time>2015-08-26T08:39:54.1Z</time>
      </trkpt>
      <trkpt lat="44.4039" lon="6.35645">
        <ele>1476</ele>
        <time>2015-08-26T08:40:00.1Z</time>
      </trkpt>
      <trkpt lat="44.40388" lon="6.35647">
        <ele>1476</ele>
        <time>2015-08-26T08:40:05.1Z</time>
      </trkpt>
      <trkpt lat="44.40386" lon="6.3565">
        <ele>1478</ele>
        <time>2015-08-26T08:40:11.1Z</time>
      </trkpt>
      <trkpt lat="44.40384" lon="6.35652">
        <ele>1479</ele>
        <time>2015-08-26T08:40:16.1Z</time>
      </trkpt>
      <trkpt lat="44.40382" lon="6.35658">
        <ele>1479</ele>
        <time>2015-08-26T08:40:22.1Z</time>
      </trkpt>
      <trkpt lat="44.40382" lon="6.35662">
        <ele>1481</ele>
        <time>2015-08-26T08:40:27.1Z</time>
      </trkpt>
      <trkpt lat="44.40379" lon="6.35666">
        <ele>1482</ele>
        <time>2015-08-26T08:40:33.1Z</time>
      </trkpt>
      <trkpt lat="44.40377" lon="6.3567">
        <ele>1483</ele>
        <time>2015-08-26T08:40:39.1Z</time>
      </trkpt>
      <trkpt lat="44.40377" lon="6.35674">
        <ele>1484</ele>
        <time>2015-08-26T08:40:45.1Z</time>
      </trkpt>
      <trkpt lat="44.40378" lon="6.35677">
        <ele>1486</ele>
        <time>2015-08-26T08:40:51.1Z</time>
      </trkpt>
      <trkpt lat="44.4038" lon="6.35677">
        <ele>1486</ele>
        <time>2015-08-26T08:40:56.1Z</time>
      </trkpt>
      <trkpt lat="44.40383" lon="6.3568">
        <ele>1488</ele>
        <time>2015-08-26T08:41:02.1Z</time>
      </trkpt>
      <trkpt lat="44.40384" lon="6.35685">
        <ele>1488</ele>
        <time>2015-08-26T08:41:08.1Z</time>
      </trkpt>
      <trkpt lat="44.40387" lon="6.35687">
        <ele>1489</ele>
        <time>2015-08-26T08:41:13.1Z</time>
      </trkpt>
      <trkpt lat="44.40393" lon="6.3569">
        <ele>1489</ele>
        <time>2015-08-26T08:41:19.1Z</time>
      </trkpt>
      <trkpt lat="44.40394" lon="6.35694">
        <ele>1490</ele>
        <time>2015-08-26T08:41:24.1Z</time>
      </trkpt>
      <trkpt lat="44.40395" lon="6.35698">
        <ele>1491</ele>
        <time>2015-08-26T08:41:29.1Z</time>
      </trkpt>
      <trkpt lat="44.40395" lon="6.35705">
        <ele>1491</ele>
        <time>2015-08-26T08:41:35.1Z</time>
      </trkpt>
      <trkpt lat="44.40396" lon="6.3571">
        <ele>1493</ele>
        <time>2015-08-26T08:41:40.1Z</time>
      </trkpt>
      <trkpt lat="44.40397" lon="6.35716">
        <ele>1494</ele>
        <time>2015-08-26T08:41:46.1Z</time>
      </trkpt>
      <trkpt lat="44.40396" lon="6.3572">
        <ele>1495</ele>
        <time>2015-08-26T08:41:51.1Z</time>
      </trkpt>
      <trkpt lat="44.40396" lon="6.35724">
        <ele>1496</ele>
        <time>2015-08-26T08:41:56.1Z</time>
      </trkpt>
      <trkpt lat="44.40398" lon="6.35729">
        <ele>1497</ele>
        <time>2015-08-26T08:42:02.1Z</time>
      </trkpt>
      <trkpt lat="44.40399" lon="6.35733">
        <ele>1497</ele>
        <time>2015-08-26T08:42:07.1Z</time>
      </trkpt>
      <trkpt lat="44.40399" lon="6.35735">
        <ele>1498</ele>
        <time>2015-08-26T08:42:12.1Z</time>
      </trkpt>
      <trkpt lat="44.404" lon="6.35736">
        <ele>1497</ele>
        <time>2015-08-26T08:42:18.1Z</time>
      </trkpt>
      <trkpt lat="44.40398" lon="6.35738">
        <ele>1497</ele>
        <time>2015-08-26T08:42:24.1Z</time>
      </trkpt>
      <trkpt lat="44.40396" lon="6.35744">
        <ele>1498</ele>
        <time>2015-08-26T08:42:30.1Z</time>
      </trkpt>
      <trkpt lat="44.40393" lon="6.35747">
        <ele>1498</ele>
        <time>2015-08-26T08:42:36.1Z</time>
      </trkpt>
      <trkpt lat="44.40391" lon="6.3575">
        <ele>1499</ele>
        <time>2015-08-26T08:42:42.1Z</time>
      </trkpt>
      <trkpt lat="44.4039" lon="6.35751">
        <ele>1500</ele>
        <time>2015-08-26T08:42:48.1Z</time>
      </trkpt>
      <trkpt lat="44.40388" lon="6.3575">
        <ele>1501</ele>
        <time>2015-08-26T08:42:54.1Z</time>
      </trkpt>
      <trkpt lat="44.40384" lon="6.35751">
        <ele>1502</ele>
        <time>2015-08-26T08:42:59.1Z</time>
      </trkpt>
      <trkpt lat="44.40378" lon="6.35755">
        <ele>1503</ele>
        <time>2015-08-26T08:43:05.1Z</time>
      </trkpt>
      <trkpt lat="44.40373" lon="6.35756">
        <ele>1504</ele>
        <time>2015-08-26T08:43:11.1Z</time>
      </trkpt>
      <trkpt lat="44.40366" lon="6.3576">
        <ele>1504</ele>
        <time>2015-08-26T08:43:17.1Z</time>
      </trkpt>
      <trkpt lat="44.40362" lon="6.35764">
        <ele>1505</ele>
        <time>2015-08-26T08:43:23.1Z</time>
      </trkpt>
      <trkpt lat="44.40359" lon="6.35768">
        <ele>1506</ele>
        <time>2015-08-26T08:43:29.1Z</time>
      </trkpt>
      <trkpt lat="44.40356" lon="6.35772">
        <ele>1507</ele>
        <time>2015-08-26T08:43:35.1Z</time>
      </trkpt>
      <trkpt lat="44.40353" lon="6.35777">
        <ele>1508</ele>
        <time>2015-08-26T08:43:41.1Z</time>
      </trkpt>
      <trkpt lat="44.40353" lon="6.35781">
        <ele>1509</ele>
        <time>2015-08-26T08:43:46.1Z</time>
      </trkpt>
      <trkpt lat="44.40351" lon="6.35786">
        <ele>1510</ele>
        <time>2015-08-26T08:43:52.1Z</time>
      </trkpt>
      <trkpt lat="44.4035" lon="6.35788">
        <ele>1511</ele>
        <time>2015-08-26T08:43:57.1Z</time>
      </trkpt>
      <trkpt lat="44.40348" lon="6.35792">
        <ele>1512</ele>
        <time>2015-08-26T08:44:03.1Z</time>
      </trkpt>
      <trkpt lat="44.40345" lon="6.35795">
        <ele>1513</ele>
        <time>2015-08-26T08:44:08.1Z</time>
      </trkpt>
      <trkpt lat="44.40343" lon="6.35797">
        <ele>1514</ele>
        <time>2015-08-26T08:44:13.1Z</time>
      </trkpt>
      <trkpt lat="44.4034" lon="6.35798">
        <ele>1515</ele>
        <time>2015-08-26T08:44:18.1Z</time>
      </trkpt>
      <trkpt lat="44.40335" lon="6.35799">
        <ele>1516</ele>
        <time>2015-08-26T08:44:24.1Z</time>
      </trkpt>
      <trkpt lat="44.4033" lon="6.35799">
        <ele>1517</ele>
        <time>2015-08-26T08:44:30.1Z</time>
      </trkpt>
      <trkpt lat="44.40324" lon="6.35799">
        <ele>1518</ele>
        <time>2015-08-26T08:44:36.1Z</time>
      </trkpt>
      <trkpt lat="44.40319" lon="6.35799">
        <ele>1518</ele>
        <time>2015-08-26T08:44:41.1Z</time>
      </trkpt>
      <trkpt lat="44.40312" lon="6.358">
        <ele>1518</ele>
        <time>2015-08-26T08:44:47.1Z</time>
      </trkpt>
      <trkpt lat="44.40306" lon="6.35802">
        <ele>1519</ele>
        <time>2015-08-26T08:44:53.1Z</time>
      </trkpt>
      <trkpt lat="44.40303" lon="6.35802">
        <ele>1519</ele>
        <time>2015-08-26T08:44:59.1Z</time>
      </trkpt>
      <trkpt lat="44.403" lon="6.35803">
        <ele>1520</ele>
        <time>2015-08-26T08:45:05.1Z</time>
      </trkpt>
      <trkpt lat="44.40295" lon="6.35807">
        <ele>1520</ele>
        <time>2015-08-26T08:45:11.1Z</time>
      </trkpt>
      <trkpt lat="44.4029" lon="6.35812">
        <ele>1521</ele>
        <time>2015-08-26T08:45:17.1Z</time>
      </trkpt>
      <trkpt lat="44.40287" lon="6.35818">
        <ele>1522</ele>
        <time>2015-08-26T08:45:23.1Z</time>
      </trkpt>
      <trkpt lat="44.40285" lon="6.35822">
        <ele>1522</ele>
        <time>2015-08-26T08:45:28.1Z</time>
      </trkpt>
      <trkpt lat="44.40284" lon="6.35827">
        <ele>1523</ele>
        <time>2015-08-26T08:45:34.1Z</time>
      </trkpt>
      <trkpt lat="44.40283" lon="6.3583">
        <ele>1524</ele>
        <time>2015-08-26T08:45:39.1Z</time>
      </trkpt>
      <trkpt lat="44.40284" lon="6.35831">
        <ele>1524</ele>
        <time>2015-08-26T08:45:44.1Z</time>
      </trkpt>
      <trkpt lat="44.40281" lon="6.35829">
        <ele>1524</ele>
        <time>2015-08-26T08:45:50.1Z</time>
      </trkpt>
      <trkpt lat="44.40277" lon="6.35828">
        <ele>1524</ele>
        <time>2015-08-26T08:45:55.1Z</time>
      </trkpt>
      <trkpt lat="44.40274" lon="6.35829">
        <ele>1524</ele>
        <time>2015-08-26T08:46:01.1Z</time>
      </trkpt>
      <trkpt lat="44.40268" lon="6.3583">
        <ele>1525</ele>
        <time>2015-08-26T08:46:07.1Z</time>
      </trkpt>
      <trkpt lat="44.40265" lon="6.35833">
        <ele>1526</ele>
        <time>2015-08-26T08:46:12.1Z</time>
      </trkpt>
      <trkpt lat="44.40264" lon="6.35837">
        <ele>1526</ele>
        <time>2015-08-26T08:46:18.1Z</time>
      </trkpt>
      <trkpt lat="44.40262" lon="6.35841">
        <ele>1527</ele>
        <time>2015-08-26T08:46:24.1Z</time>
      </trkpt>
      <trkpt lat="44.4026" lon="6.35845">
        <ele>1529</ele>
        <time>2015-08-26T08:46:29.1Z</time>
      </trkpt>
      <trkpt lat="44.40256" lon="6.35852">
        <ele>1529</ele>
        <time>2015-08-26T08:46:35.1Z</time>
      </trkpt>
      <trkpt lat="44.40253" lon="6.35859">
        <ele>1529</ele>
        <time>2015-08-26T08:46:40.1Z</time>
      </trkpt>
      <trkpt lat="44.40251" lon="6.35865">
        <ele>1529</ele>
        <time>2015-08-26T08:46:45.1Z</time>
      </trkpt>
      <trkpt lat="44.40249" lon="6.35872">
        <ele>1531</ele>
        <time>2015-08-26T08:46:51.1Z</time>
      </trkpt>
      <trkpt lat="44.40248" lon="6.35877">
        <ele>1532</ele>
        <time>2015-08-26T08:46:57.1Z</time>
      </trkpt>
      <trkpt lat="44.40248" lon="6.35883">
        <ele>1533</ele>
        <time>2015-08-26T08:47:03.1Z</time>
      </trkpt>
      <trkpt lat="44.40248" lon="6.35887">
        <ele>1535</ele>
        <time>2015-08-26T08:47:09.1Z</time>
      </trkpt>
      <trkpt lat="44.40248" lon="6.3589">
        <ele>1536</ele>
        <time>2015-08-26T08:47:15.1Z</time>
      </trkpt>
      <trkpt lat="44.40247" lon="6.35893">
        <ele>1537</ele>
        <time>2015-08-26T08:47:20.1Z</time>
      </trkpt>
      <trkpt lat="44.40247" lon="6.35895">
        <ele>1538</ele>
        <time>2015-08-26T08:47:26.1Z</time>
      </trkpt>
      <trkpt lat="44.40247" lon="6.35899">
        <ele>1540</ele>
        <time>2015-08-26T08:47:31.1Z</time>
      </trkpt>
      <trkpt lat="44.40249" lon="6.35902">
        <ele>1541</ele>
        <time>2015-08-26T08:47:37.1Z</time>
      </trkpt>
      <trkpt lat="44.40249" lon="6.35906">
        <ele>1541</ele>
        <time>2015-08-26T08:47:43.1Z</time>
      </trkpt>
      <trkpt lat="44.40248" lon="6.35911">
        <ele>1542</ele>
        <time>2015-08-26T08:47:49.1Z</time>
      </trkpt>
      <trkpt lat="44.40248" lon="6.35916">
        <ele>1543</ele>
        <time>2015-08-26T08:47:55.1Z</time>
      </trkpt>
      <trkpt lat="44.40249" lon="6.35919">
        <ele>1545</ele>
        <time>2015-08-26T08:48:00.1Z</time>
      </trkpt>
      <trkpt lat="44.40249" lon="6.35923">
        <ele>1546</ele>
        <time>2015-08-26T08:48:06.1Z</time>
      </trkpt>
      <trkpt lat="44.4025" lon="6.35927">
        <ele>1547</ele>
        <time>2015-08-26T08:48:12.1Z</time>
      </trkpt>
      <trkpt lat="44.4025" lon="6.35932">
        <ele>1548</ele>
        <time>2015-08-26T08:48:18.1Z</time>
      </trkpt>
      <trkpt lat="44.40251" lon="6.35936">
        <ele>1550</ele>
        <time>2015-08-26T08:48:24.1Z</time>
      </trkpt>
      <trkpt lat="44.40252" lon="6.35938">
        <ele>1551</ele>
        <time>2015-08-26T08:48:29.1Z</time>
      </trkpt>
      <trkpt lat="44.40254" lon="6.35942">
        <ele>1552</ele>
        <time>2015-08-26T08:48:35.1Z</time>
      </trkpt>
      <trkpt lat="44.40255" lon="6.35945">
        <ele>1553</ele>
        <time>2015-08-26T08:48:40.1Z</time>
      </trkpt>
      <trkpt lat="44.40254" lon="6.3595">
        <ele>1553</ele>
        <time>2015-08-26T08:48:45.1Z</time>
      </trkpt>
      <trkpt lat="44.40254" lon="6.35954">
        <ele>1554</ele>
        <time>2015-08-26T08:48:50.1Z</time>
      </trkpt>
      <trkpt lat="44.40255" lon="6.35959">
        <ele>1555</ele>
        <time>2015-08-26T08:48:56.1Z</time>
      </trkpt>
      <trkpt lat="44.40257" lon="6.35962">
        <ele>1555</ele>
        <time>2015-08-26T08:49:01.1Z</time>
      </trkpt>
      <trkpt lat="44.40257" lon="6.35966">
        <ele>1556</ele>
        <time>2015-08-26T08:49:06.1Z</time>
      </trkpt>
      <trkpt lat="44.40258" lon="6.35969">
        <ele>1556</ele>
        <time>2015-08-26T08:49:12.1Z</time>
      </trkpt>
      <trkpt lat="44.40258" lon="6.35973">
        <ele>1557</ele>
        <time>2015-08-26T08:49:18.1Z</time>
      </trkpt>
      <trkpt lat="44.40257" lon="6.35978">
        <ele>1558</ele>
        <time>2015-08-26T08:49:23.1Z</time>
      </trkpt>
      <trkpt lat="44.40255" lon="6.35984">
        <ele>1558</ele>
        <time>2015-08-26T08:49:29.1Z</time>
      </trkpt>
      <trkpt lat="44.40251" lon="6.35988">
        <ele>1559</ele>
        <time>2015-08-26T08:49:34.1Z</time>
      </trkpt>
      <trkpt lat="44.4025" lon="6.35991">
        <ele>1560</ele>
        <time>2015-08-26T08:49:39.1Z</time>
      </trkpt>
      <trkpt lat="44.40251" lon="6.35994">
        <ele>1562</ele>
        <time>2015-08-26T08:49:45.1Z</time>
      </trkpt>
      <trkpt lat="44.40255" lon="6.35992">
        <ele>1562</ele>
        <time>2015-08-26T08:49:50.1Z</time>
      </trkpt>
      <trkpt lat="44.40257" lon="6.3599">
        <ele>1562</ele>
        <time>2015-08-26T08:49:55.1Z</time>
      </trkpt>
      <trkpt lat="44.4026" lon="6.35988">
        <ele>1562</ele>
        <time>2015-08-26T08:50:00.1Z</time>
      </trkpt>
      <trkpt lat="44.40263" lon="6.35985">
        <ele>1563</ele>
        <time>2015-08-26T08:50:06.1Z</time>
      </trkpt>
      <trkpt lat="44.40266" lon="6.35984">
        <ele>1563</ele>
        <time>2015-08-26T08:50:11.1Z</time>
      </trkpt>
      <trkpt lat="44.4027" lon="6.35983">
        <ele>1564</ele>
        <time>2015-08-26T08:50:16.1Z</time>
      </trkpt>
      <trkpt lat="44.40274" lon="6.35983">
        <ele>1565</ele>
        <time>2015-08-26T08:50:21.1Z</time>
      </trkpt>
      <trkpt lat="44.40278" lon="6.35985">
        <ele>1565</ele>
        <time>2015-08-26T08:50:27.1Z</time>
      </trkpt>
      <trkpt lat="44.40283" lon="6.35989">
        <ele>1565</ele>
        <time>2015-08-26T08:50:33.1Z</time>
      </trkpt>
      <trkpt lat="44.40287" lon="6.35993">
        <ele>1565</ele>
        <time>2015-08-26T08:50:38.1Z</time>
      </trkpt>
      <trkpt lat="44.40292" lon="6.35999">
        <ele>1566</ele>
        <time>2015-08-26T08:50:44.1Z</time>
      </trkpt>
      <trkpt lat="44.40295" lon="6.36004">
        <ele>1566</ele>
        <time>2015-08-26T08:50:49.1Z</time>
      </trkpt>
      <trkpt lat="44.40297" lon="6.36011">
        <ele>1566</ele>
        <time>2015-08-26T08:50:55.1Z</time>
      </trkpt>
      <trkpt lat="44.403" lon="6.36019">
        <ele>1567</ele>
        <time>2015-08-26T08:51:01.1Z</time>
      </trkpt>
      <trkpt lat="44.40303" lon="6.36023">
        <ele>1567</ele>
        <time>2015-08-26T08:51:07.1Z</time>
      </trkpt>
      <trkpt lat="44.40305" lon="6.36026">
        <ele>1568</ele>
        <time>2015-08-26T08:51:12.1Z</time>
      </trkpt>
      <trkpt lat="44.40308" lon="6.36031">
        <ele>1568</ele>
        <time>2015-08-26T08:51:17.1Z</time>
      </trkpt>
      <trkpt lat="44.40311" lon="6.36035">
        <ele>1569</ele>
        <time>2015-08-26T08:51:23.1Z</time>
      </trkpt>
      <trkpt lat="44.40314" lon="6.36039">
        <ele>1569</ele>
        <time>2015-08-26T08:51:28.1Z</time>
      </trkpt>
      <trkpt lat="44.40319" lon="6.36044">
        <ele>1570</ele>
        <time>2015-08-26T08:51:34.1Z</time>
      </trkpt>
      <trkpt lat="44.40323" lon="6.36047">
        <ele>1570</ele>
        <time>2015-08-26T08:51:39.1Z</time>
      </trkpt>
      <trkpt lat="44.40327" lon="6.36051">
        <ele>1571</ele>
        <time>2015-08-26T08:51:44.1Z</time>
      </trkpt>
      <trkpt lat="44.40331" lon="6.36057">
        <ele>1572</ele>
        <time>2015-08-26T08:51:50.1Z</time>
      </trkpt>
      <trkpt lat="44.40334" lon="6.36065">
        <ele>1572</ele>
        <time>2015-08-26T08:51:56.1Z</time>
      </trkpt>
      <trkpt lat="44.40337" lon="6.36071">
        <ele>1572</ele>
        <time>2015-08-26T08:52:01.1Z</time>
      </trkpt>
      <trkpt lat="44.4034" lon="6.36078">
        <ele>1572</ele>
        <time>2015-08-26T08:52:06.1Z</time>
      </trkpt>
      <trkpt lat="44.40345" lon="6.36084">
        <ele>1573</ele>
        <time>2015-08-26T08:52:12.1Z</time>
      </trkpt>
      <trkpt lat="44.40348" lon="6.3609">
        <ele>1574</ele>
        <time>2015-08-26T08:52:18.1Z</time>
      </trkpt>
      <trkpt lat="44.40348" lon="6.36097">
        <ele>1574</ele>
        <time>2015-08-26T08:52:24.1Z</time>
      </trkpt>
      <trkpt lat="44.40348" lon="6.36104">
        <ele>1576</ele>
        <time>2015-08-26T08:52:30.1Z</time>
      </trkpt>
      <trkpt lat="44.40347" lon="6.36109">
        <ele>1576</ele>
        <time>2015-08-26T08:52:35.1Z</time>
      </trkpt>
      <trkpt lat="44.40348" lon="6.36116">
        <ele>1577</ele>
        <time>2015-08-26T08:52:41.1Z</time>
      </trkpt>
      <trkpt lat="44.40349" lon="6.36123">
        <ele>1578</ele>
        <time>2015-08-26T08:52:47.1Z</time>
      </trkpt>
      <trkpt lat="44.40353" lon="6.36131">
        <ele>1579</ele>
        <time>2015-08-26T08:52:53.1Z</time>
      </trkpt>
      <trkpt lat="44.40357" lon="6.36136">
        <ele>1580</ele>
        <time>2015-08-26T08:52:58.1Z</time>
      </trkpt>
      <trkpt lat="44.40359" lon="6.36141">
        <ele>1580</ele>
        <time>2015-08-26T08:53:03.1Z</time>
      </trkpt>
      <trkpt lat="44.40363" lon="6.36148">
        <ele>1581</ele>
        <time>2015-08-26T08:53:09.1Z</time>
      </trkpt>
      <trkpt lat="44.40366" lon="6.36153">
        <ele>1581</ele>
        <time>2015-08-26T08:53:14.1Z</time>
      </trkpt>
      <trkpt lat="44.40366" lon="6.36154">
        <ele>1581</ele>
        <time>2015-08-26T08:53:19.1Z</time>
      </trkpt>
      <trkpt lat="44.40372" lon="6.36159">
        <ele>1581</ele>
        <time>2015-08-26T08:53:25.1Z</time>
      </trkpt>
      <trkpt lat="44.40375" lon="6.36165">
        <ele>1582</ele>
        <time>2015-08-26T08:53:31.1Z</time>
      </trkpt>
      <trkpt lat="44.40377" lon="6.36169">
        <ele>1582</ele>
        <time>2015-08-26T08:53:36.1Z</time>
      </trkpt>
      <trkpt lat="44.40377" lon="6.36174">
        <ele>1583</ele>
        <time>2015-08-26T08:53:42.1Z</time>
      </trkpt>
      <trkpt lat="44.40379" lon="6.36178">
        <ele>1583</ele>
        <time>2015-08-26T08:53:47.1Z</time>
      </trkpt>
      <trkpt lat="44.40378" lon="6.36182">
        <ele>1584</ele>
        <time>2015-08-26T08:53:53.1Z</time>
      </trkpt>
      <trkpt lat="44.40378" lon="6.36188">
        <ele>1585</ele>
        <time>2015-08-26T08:53:58.1Z</time>
      </trkpt>
      <trkpt lat="44.4038" lon="6.36195">
        <ele>1585</ele>
        <time>2015-08-26T08:54:04.1Z</time>
      </trkpt>
      <trkpt lat="44.4038" lon="6.36201">
        <ele>1586</ele>
        <time>2015-08-26T08:54:10.1Z</time>
      </trkpt>
      <trkpt lat="44.4038" lon="6.36205">
        <ele>1587</ele>
        <time>2015-08-26T08:54:15.1Z</time>
      </trkpt>
      <trkpt lat="44.4038" lon="6.36212">
        <ele>1588</ele>
        <time>2015-08-26T08:54:21.1Z</time>
      </trkpt>
      <trkpt lat="44.40382" lon="6.36219">
        <ele>1589</ele>
        <time>2015-08-26T08:54:27.1Z</time>
      </trkpt>
      <trkpt lat="44.40382" lon="6.36223">
        <ele>1590</ele>
        <time>2015-08-26T08:54:32.1Z</time>
      </trkpt>
      <trkpt lat="44.4038" lon="6.36228">
        <ele>1591</ele>
        <time>2015-08-26T08:54:37.1Z</time>
      </trkpt>
      <trkpt lat="44.40381" lon="6.36231">
        <ele>1591</ele>
        <time>2015-08-26T08:54:43.1Z</time>
      </trkpt>
      <trkpt lat="44.4038" lon="6.36234">
        <ele>1592</ele>
        <time>2015-08-26T08:54:48.1Z</time>
      </trkpt>
      <trkpt lat="44.40378" lon="6.36239">
        <ele>1594</ele>
        <time>2015-08-26T08:54:54.1Z</time>
      </trkpt>
      <trkpt lat="44.40376" lon="6.36244">
        <ele>1595</ele>
        <time>2015-08-26T08:54:59.1Z</time>
      </trkpt>
      <trkpt lat="44.40374" lon="6.36248">
        <ele>1596</ele>
        <time>2015-08-26T08:55:05.1Z</time>
      </trkpt>
      <trkpt lat="44.40371" lon="6.3625">
        <ele>1597</ele>
        <time>2015-08-26T08:55:10.1Z</time>
      </trkpt>
      <trkpt lat="44.40366" lon="6.36252">
        <ele>1598</ele>
        <time>2015-08-26T08:55:16.1Z</time>
      </trkpt>
      <trkpt lat="44.40363" lon="6.36254">
        <ele>1599</ele>
        <time>2015-08-26T08:55:22.1Z</time>
      </trkpt>
      <trkpt lat="44.40358" lon="6.36255">
        <ele>1600</ele>
        <time>2015-08-26T08:55:28.1Z</time>
      </trkpt>
      <trkpt lat="44.40353" lon="6.36256">
        <ele>1601</ele>
        <time>2015-08-26T08:55:34.1Z</time>
      </trkpt>
      <trkpt lat="44.40348" lon="6.36259">
        <ele>1602</ele>
        <time>2015-08-26T08:55:40.1Z</time>
      </trkpt>
      <trkpt lat="44.40342" lon="6.36261">
        <ele>1604</ele>
        <time>2015-08-26T08:55:46.1Z</time>
      </trkpt>
      <trkpt lat="44.40337" lon="6.36263">
        <ele>1605</ele>
        <time>2015-08-26T08:55:52.1Z</time>
      </trkpt>
      <trkpt lat="44.40336" lon="6.36266">
        <ele>1606</ele>
        <time>2015-08-26T08:55:57.1Z</time>
      </trkpt>
      <trkpt lat="44.40332" lon="6.3627">
        <ele>1607</ele>
        <time>2015-08-26T08:56:03.1Z</time>
      </trkpt>
      <trkpt lat="44.4033" lon="6.36273">
        <ele>1608</ele>
        <time>2015-08-26T08:56:08.1Z</time>
      </trkpt>
      <trkpt lat="44.40327" lon="6.36278">
        <ele>1609</ele>
        <time>2015-08-26T08:56:14.1Z</time>
      </trkpt>
      <trkpt lat="44.40327" lon="6.36282">
        <ele>1610</ele>
        <time>2015-08-26T08:56:19.1Z</time>
      </trkpt>
      <trkpt lat="44.40328" lon="6.36283">
        <ele>1610</ele>
        <time>2015-08-26T08:56:24.1Z</time>
      </trkpt>
      <trkpt lat="44.40332" lon="6.36288">
        <ele>1611</ele>
        <time>2015-08-26T08:56:30.1Z</time>
      </trkpt>
      <trkpt lat="44.40337" lon="6.36292">
        <ele>1611</ele>
        <time>2015-08-26T08:56:35.1Z</time>
      </trkpt>
      <trkpt lat="44.40342" lon="6.36297">
        <ele>1611</ele>
        <time>2015-08-26T08:56:41.1Z</time>
      </trkpt>
      <trkpt lat="44.40347" lon="6.36302">
        <ele>1612</ele>
        <time>2015-08-26T08:56:47.1Z</time>
      </trkpt>
      <trkpt lat="44.4035" lon="6.36305">
        <ele>1612</ele>
        <time>2015-08-26T08:56:53.1Z</time>
      </trkpt>
      <trkpt lat="44.40351" lon="6.36308">
        <ele>1613</ele>
        <time>2015-08-26T08:56:59.1Z</time>
      </trkpt>
      <trkpt lat="44.40353" lon="6.36312">
        <ele>1614</ele>
        <time>2015-08-26T08:57:05.1Z</time>
      </trkpt>
      <trkpt lat="44.40357" lon="6.36316">
        <ele>1615</ele>
        <time>2015-08-26T08:57:11.1Z</time>
      </trkpt>
      <trkpt lat="44.40361" lon="6.3632">
        <ele>1615</ele>
        <time>2015-08-26T08:57:17.1Z</time>
      </trkpt>
      <trkpt lat="44.40365" lon="6.36324">
        <ele>1616</ele>
        <time>2015-08-26T08:57:23.1Z</time>
      </trkpt>
      <trkpt lat="44.4037" lon="6.36329">
        <ele>1616</ele>
        <time>2015-08-26T08:57:29.1Z</time>
      </trkpt>
      <trkpt lat="44.40374" lon="6.36334">
        <ele>1616</ele>
        <time>2015-08-26T08:57:34.1Z</time>
      </trkpt>
      <trkpt lat="44.40376" lon="6.3634">
        <ele>1617</ele>
        <time>2015-08-26T08:57:39.1Z</time>
      </trkpt>
      <trkpt lat="44.40379" lon="6.36347">
        <ele>1617</ele>
        <time>2015-08-26T08:57:45.1Z</time>
      </trkpt>
      <trkpt lat="44.40381" lon="6.36354">
        <ele>1618</ele>
        <time>2015-08-26T08:57:51.1Z</time>
      </trkpt>
      <trkpt lat="44.40383" lon="6.36361">
        <ele>1618</ele>
        <time>2015-08-26T08:57:57.1Z</time>
      </trkpt>
      <trkpt lat="44.40386" lon="6.36366">
        <ele>1619</ele>
        <time>2015-08-26T08:58:02.1Z</time>
      </trkpt>
      <trkpt lat="44.40388" lon="6.36373">
        <ele>1619</ele>
        <time>2015-08-26T08:58:08.1Z</time>
      </trkpt>
      <trkpt lat="44.4039" lon="6.36381">
        <ele>1619</ele>
        <time>2015-08-26T08:58:14.1Z</time>
      </trkpt>
      <trkpt lat="44.40395" lon="6.36389">
        <ele>1619</ele>
        <time>2015-08-26T08:58:20.1Z</time>
      </trkpt>
      <trkpt lat="44.40398" lon="6.36396">
        <ele>1620</ele>
        <time>2015-08-26T08:58:26.1Z</time>
      </trkpt>
      <trkpt lat="44.40401" lon="6.36402">
        <ele>1620</ele>
        <time>2015-08-26T08:58:32.1Z</time>
      </trkpt>
      <trkpt lat="44.40405" lon="6.36409">
        <ele>1621</ele>
        <time>2015-08-26T08:58:38.1Z</time>
      </trkpt>
      <trkpt lat="44.40406" lon="6.36413">
        <ele>1622</ele>
        <time>2015-08-26T08:58:43.1Z</time>
      </trkpt>
      <trkpt lat="44.40408" lon="6.36418">
        <ele>1623</ele>
        <time>2015-08-26T08:58:48.1Z</time>
      </trkpt>
      <trkpt lat="44.40411" lon="6.36423">
        <ele>1624</ele>
        <time>2015-08-26T08:58:54.1Z</time>
      </trkpt>
      <trkpt lat="44.40412" lon="6.36428">
        <ele>1624</ele>
        <time>2015-08-26T08:58:59.1Z</time>
      </trkpt>
      <trkpt lat="44.40412" lon="6.36436">
        <ele>1625</ele>
        <time>2015-08-26T08:59:05.1Z</time>
      </trkpt>
      <trkpt lat="44.40413" lon="6.36441">
        <ele>1626</ele>
        <time>2015-08-26T08:59:10.1Z</time>
      </trkpt>
      <trkpt lat="44.40414" lon="6.36447">
        <ele>1627</ele>
        <time>2015-08-26T08:59:15.1Z</time>
      </trkpt>
      <trkpt lat="44.40417" lon="6.36452">
        <ele>1628</ele>
        <time>2015-08-26T08:59:20.1Z</time>
      </trkpt>
      <trkpt lat="44.40419" lon="6.36459">
        <ele>1629</ele>
        <time>2015-08-26T08:59:26.1Z</time>
      </trkpt>
      <trkpt lat="44.40421" lon="6.36464">
        <ele>1630</ele>
        <time>2015-08-26T08:59:31.1Z</time>
      </trkpt>
      <trkpt lat="44.40425" lon="6.36469">
        <ele>1631</ele>
        <time>2015-08-26T08:59:36.1Z</time>
      </trkpt>
      <trkpt lat="44.40429" lon="6.36475">
        <ele>1632</ele>
        <time>2015-08-26T08:59:42.1Z</time>
      </trkpt>
      <trkpt lat="44.40429" lon="6.36479">
        <ele>1633</ele>
        <time>2015-08-26T08:59:47.1Z</time>
      </trkpt>
      <trkpt lat="44.40431" lon="6.36483">
        <ele>1634</ele>
        <time>2015-08-26T08:59:53.1Z</time>
      </trkpt>
      <trkpt lat="44.4043" lon="6.36488">
        <ele>1635</ele>
        <time>2015-08-26T08:59:59.1Z</time>
      </trkpt>
      <trkpt lat="44.40428" lon="6.36494">
        <ele>1636</ele>
        <time>2015-08-26T09:00:05.1Z</time>
      </trkpt>
      <trkpt lat="44.4043" lon="6.365">
        <ele>1637</ele>
        <time>2015-08-26T09:00:11.1Z</time>
      </trkpt>
      <trkpt lat="44.40428" lon="6.36504">
        <ele>1638</ele>
        <time>2015-08-26T09:00:16.1Z</time>
      </trkpt>
      <trkpt lat="44.40427" lon="6.3651">
        <ele>1639</ele>
        <time>2015-08-26T09:00:22.1Z</time>
      </trkpt>
      <trkpt lat="44.40429" lon="6.36514">
        <ele>1639</ele>
        <time>2015-08-26T09:00:27.1Z</time>
      </trkpt>
      <trkpt lat="44.40432" lon="6.36521">
        <ele>1640</ele>
        <time>2015-08-26T09:00:33.1Z</time>
      </trkpt>
      <trkpt lat="44.40433" lon="6.36524">
        <ele>1641</ele>
        <time>2015-08-26T09:00:38.1Z</time>
      </trkpt>
      <trkpt lat="44.40432" lon="6.36529">
        <ele>1641</ele>
        <time>2015-08-26T09:00:43.1Z</time>
      </trkpt>
      <trkpt lat="44.40434" lon="6.36534">
        <ele>1642</ele>
        <time>2015-08-26T09:00:48.1Z</time>
      </trkpt>
      <trkpt lat="44.40436" lon="6.3654">
        <ele>1643</ele>
        <time>2015-08-26T09:00:54.1Z</time>
      </trkpt>
      <trkpt lat="44.40439" lon="6.36545">
        <ele>1643</ele>
        <time>2015-08-26T09:00:59.1Z</time>
      </trkpt>
      <trkpt lat="44.40443" lon="6.36548">
        <ele>1644</ele>
        <time>2015-08-26T09:01:04.1Z</time>
      </trkpt>
      <trkpt lat="44.40446" lon="6.36552">
        <ele>1645</ele>
        <time>2015-08-26T09:01:09.1Z</time>
      </trkpt>
      <trkpt lat="44.40448" lon="6.36554">
        <ele>1646</ele>
        <time>2015-08-26T09:01:14.1Z</time>
      </trkpt>
      <trkpt lat="44.40449" lon="6.36558">
        <ele>1647</ele>
        <time>2015-08-26T09:01:20.1Z</time>
      </trkpt>
      <trkpt lat="44.40451" lon="6.36561">
        <ele>1647</ele>
        <time>2015-08-26T09:01:25.1Z</time>
      </trkpt>
      <trkpt lat="44.40455" lon="6.36566">
        <ele>1648</ele>
        <time>2015-08-26T09:01:31.1Z</time>
      </trkpt>
      <trkpt lat="44.40457" lon="6.36571">
        <ele>1649</ele>
        <time>2015-08-26T09:01:37.1Z</time>
      </trkpt>
      <trkpt lat="44.4046" lon="6.36576">
        <ele>1650</ele>
        <time>2015-08-26T09:01:42.1Z</time>
      </trkpt>
      <trkpt lat="44.40461" lon="6.36581">
        <ele>1651</ele>
        <time>2015-08-26T09:01:47.1Z</time>
      </trkpt>
      <trkpt lat="44.40461" lon="6.36587">
        <ele>1652</ele>
        <time>2015-08-26T09:01:53.1Z</time>
      </trkpt>
      <trkpt lat="44.40464" lon="6.36593">
        <ele>1652</ele>
        <time>2015-08-26T09:01:59.1Z</time>
      </trkpt>
      <trkpt lat="44.40466" lon="6.36598">
        <ele>1653</ele>
        <time>2015-08-26T09:02:05.1Z</time>
      </trkpt>
      <trkpt lat="44.40468" lon="6.36604">
        <ele>1654</ele>
        <time>2015-08-26T09:02:11.1Z</time>
      </trkpt>
      <trkpt lat="44.40469" lon="6.36609">
        <ele>1655</ele>
        <time>2015-08-26T09:02:16.1Z</time>
      </trkpt>
      <trkpt lat="44.40471" lon="6.36614">
        <ele>1655</ele>
        <time>2015-08-26T09:02:21.1Z</time>
      </trkpt>
      <trkpt lat="44.40472" lon="6.36621">
        <ele>1656</ele>
        <time>2015-08-26T09:02:27.1Z</time>
      </trkpt>
      <trkpt lat="44.40474" lon="6.36626">
        <ele>1657</ele>
        <time>2015-08-26T09:02:33.1Z</time>
      </trkpt>
      <trkpt lat="44.40474" lon="6.3663">
        <ele>1658</ele>
        <time>2015-08-26T09:02:38.1Z</time>
      </trkpt>
      <trkpt lat="44.40475" lon="6.36636">
        <ele>1659</ele>
        <time>2015-08-26T09:02:44.1Z</time>
      </trkpt>
      <trkpt lat="44.40477" lon="6.36641">
        <ele>1660</ele>
        <time>2015-08-26T09:02:49.1Z</time>
      </trkpt>
      <trkpt lat="44.40477" lon="6.36647">
        <ele>1661</ele>
        <time>2015-08-26T09:02:55.1Z</time>
      </trkpt>
      <trkpt lat="44.40477" lon="6.3665">
        <ele>1662</ele>
        <time>2015-08-26T09:03:00.1Z</time>
      </trkpt>
      <trkpt lat="44.40479" lon="6.36655">
        <ele>1663</ele>
        <time>2015-08-26T09:03:05.1Z</time>
      </trkpt>
      <trkpt lat="44.4048" lon="6.36659">
        <ele>1664</ele>
        <time>2015-08-26T09:03:10.1Z</time>
      </trkpt>
      <trkpt lat="44.40483" lon="6.36663">
        <ele>1665</ele>
        <time>2015-08-26T09:03:16.1Z</time>
      </trkpt>
      <trkpt lat="44.40485" lon="6.36668">
        <ele>1666</ele>
        <time>2015-08-26T09:03:21.1Z</time>
      </trkpt>
      <trkpt lat="44.4049" lon="6.36674">
        <ele>1666</ele>
        <time>2015-08-26T09:03:27.1Z</time>
      </trkpt>
      <trkpt lat="44.40492" lon="6.36678">
        <ele>1668</ele>
        <time>2015-08-26T09:03:33.1Z</time>
      </trkpt>
      <trkpt lat="44.40492" lon="6.36683">
        <ele>1669</ele>
        <time>2015-08-26T09:03:39.1Z</time>
      </trkpt>
      <trkpt lat="44.40492" lon="6.36687">
        <ele>1670</ele>
        <time>2015-08-26T09:03:45.1Z</time>
      </trkpt>
      <trkpt lat="44.40491" lon="6.36692">
        <ele>1671</ele>
        <time>2015-08-26T09:03:51.1Z</time>
      </trkpt>
      <trkpt lat="44.40493" lon="6.36695">
        <ele>1671</ele>
        <time>2015-08-26T09:03:57.1Z</time>
      </trkpt>
      <trkpt lat="44.40493" lon="6.36699">
        <ele>1672</ele>
        <time>2015-08-26T09:04:03.1Z</time>
      </trkpt>
      <trkpt lat="44.40493" lon="6.36703">
        <ele>1673</ele>
        <time>2015-08-26T09:04:08.1Z</time>
      </trkpt>
      <trkpt lat="44.40493" lon="6.36709">
        <ele>1674</ele>
        <time>2015-08-26T09:04:14.1Z</time>
      </trkpt>
      <trkpt lat="44.40494" lon="6.36713">
        <ele>1675</ele>
        <time>2015-08-26T09:04:20.1Z</time>
      </trkpt>
      <trkpt lat="44.40497" lon="6.36717">
        <ele>1676</ele>
        <time>2015-08-26T09:04:26.1Z</time>
      </trkpt>
      <trkpt lat="44.405" lon="6.36721">
        <ele>1676</ele>
        <time>2015-08-26T09:04:32.1Z</time>
      </trkpt>
      <trkpt lat="44.405" lon="6.36725">
        <ele>1677</ele>
        <time>2015-08-26T09:04:38.1Z</time>
      </trkpt>
      <trkpt lat="44.40505" lon="6.36728">
        <ele>1678</ele>
        <time>2015-08-26T09:04:44.1Z</time>
      </trkpt>
      <trkpt lat="44.40509" lon="6.36729">
        <ele>1679</ele>
        <time>2015-08-26T09:04:49.1Z</time>
      </trkpt>
      <trkpt lat="44.40511" lon="6.36728">
        <ele>1679</ele>
        <time>2015-08-26T09:04:55.1Z</time>
      </trkpt>
      <trkpt lat="44.40513" lon="6.36731">
        <ele>1680</ele>
        <time>2015-08-26T09:05:01.1Z</time>
      </trkpt>
      <trkpt lat="44.40514" lon="6.36733">
        <ele>1681</ele>
        <time>2015-08-26T09:05:06.1Z</time>
      </trkpt>
      <trkpt lat="44.40517" lon="6.36737">
        <ele>1682</ele>
        <time>2015-08-26T09:05:12.1Z</time>
      </trkpt>
      <trkpt lat="44.4052" lon="6.3674">
        <ele>1684</ele>
        <time>2015-08-26T09:05:17.1Z</time>
      </trkpt>
      <trkpt lat="44.40523" lon="6.36741">
        <ele>1685</ele>
        <time>2015-08-26T09:05:22.1Z</time>
      </trkpt>
      <trkpt lat="44.40526" lon="6.36743">
        <ele>1685</ele>
        <time>2015-08-26T09:05:28.1Z</time>
      </trkpt>
      <trkpt lat="44.40529" lon="6.36745">
        <ele>1686</ele>
        <time>2015-08-26T09:05:33.1Z</time>
      </trkpt>
      <trkpt lat="44.40533" lon="6.36747">
        <ele>1687</ele>
        <time>2015-08-26T09:05:38.1Z</time>
      </trkpt>
      <trkpt lat="44.40539" lon="6.36748">
        <ele>1688</ele>
        <time>2015-08-26T09:05:44.1Z</time>
      </trkpt>
      <trkpt lat="44.40543" lon="6.36749">
        <ele>1688</ele>
        <time>2015-08-26T09:05:49.1Z</time>
      </trkpt>
      <trkpt lat="44.40548" lon="6.36751">
        <ele>1690</ele>
        <time>2015-08-26T09:05:55.1Z</time>
      </trkpt>
      <trkpt lat="44.40551" lon="6.36754">
        <ele>1691</ele>
        <time>2015-08-26T09:06:00.1Z</time>
      </trkpt>
      <trkpt lat="44.40556" lon="6.36755">
        <ele>1691</ele>
        <time>2015-08-26T09:06:05.1Z</time>
      </trkpt>
      <trkpt lat="44.40559" lon="6.36756">
        <ele>1692</ele>
        <time>2015-08-26T09:06:11.1Z</time>
      </trkpt>
      <trkpt lat="44.40561" lon="6.36757">
        <ele>1692</ele>
        <time>2015-08-26T09:06:17.1Z</time>
      </trkpt>
      <trkpt lat="44.40562" lon="6.36758">
        <ele>1692</ele>
        <time>2015-08-26T09:06:23.1Z</time>
      </trkpt>
      <trkpt lat="44.40563" lon="6.36759">
        <ele>1691</ele>
        <time>2015-08-26T09:06:28.1Z</time>
      </trkpt>
      <trkpt lat="44.40564" lon="6.3676">
        <ele>1691</ele>
        <time>2015-08-26T09:06:33.1Z</time>
      </trkpt>
      <trkpt lat="44.40565" lon="6.36762">
        <ele>1692</ele>
        <time>2015-08-26T09:06:39.1Z</time>
      </trkpt>
      <trkpt lat="44.40567" lon="6.36764">
        <ele>1691</ele>
        <time>2015-08-26T09:06:44.1Z</time>
      </trkpt>
      <trkpt lat="44.40572" lon="6.36767">
        <ele>1691</ele>
        <time>2015-08-26T09:06:50.1Z</time>
      </trkpt>
      <trkpt lat="44.40577" lon="6.36769">
        <ele>1691</ele>
        <time>2015-08-26T09:06:56.1Z</time>
      </trkpt>
      <trkpt lat="44.40582" lon="6.36772">
        <ele>1691</ele>
        <time>2015-08-26T09:07:02.1Z</time>
      </trkpt>
      <trkpt lat="44.40585" lon="6.36775">
        <ele>1692</ele>
        <time>2015-08-26T09:07:07.1Z</time>
      </trkpt>
      <trkpt lat="44.40586" lon="6.36781">
        <ele>1693</ele>
        <time>2015-08-26T09:07:12.1Z</time>
      </trkpt>
      <trkpt lat="44.40586" lon="6.36786">
        <ele>1694</ele>
        <time>2015-08-26T09:07:17.1Z</time>
      </trkpt>
      <trkpt lat="44.40586" lon="6.36793">
        <ele>1694</ele>
        <time>2015-08-26T09:07:23.1Z</time>
      </trkpt>
      <trkpt lat="44.40586" lon="6.36799">
        <ele>1695</ele>
        <time>2015-08-26T09:07:29.1Z</time>
      </trkpt>
      <trkpt lat="44.40585" lon="6.36804">
        <ele>1696</ele>
        <time>2015-08-26T09:07:34.1Z</time>
      </trkpt>
      <trkpt lat="44.40583" lon="6.36809">
        <ele>1697</ele>
        <time>2015-08-26T09:07:39.1Z</time>
      </trkpt>
      <trkpt lat="44.40583" lon="6.36814">
        <ele>1697</ele>
        <time>2015-08-26T09:07:45.1Z</time>
      </trkpt>
      <trkpt lat="44.40583" lon="6.36819">
        <ele>1698</ele>
        <time>2015-08-26T09:07:50.1Z</time>
      </trkpt>
      <trkpt lat="44.40581" lon="6.36823">
        <ele>1699</ele>
        <time>2015-08-26T09:07:55.1Z</time>
      </trkpt>
      <trkpt lat="44.40583" lon="6.36827">
        <ele>1700</ele>
        <time>2015-08-26T09:08:00.1Z</time>
      </trkpt>
      <trkpt lat="44.40585" lon="6.36833">
        <ele>1701</ele>
        <time>2015-08-26T09:08:06.1Z</time>
      </trkpt>
      <trkpt lat="44.40585" lon="6.36839">
        <ele>1702</ele>
        <time>2015-08-26T09:08:11.1Z</time>
      </trkpt>
      <trkpt lat="44.40582" lon="6.36844">
        <ele>1703</ele>
        <time>2015-08-26T09:08:16.1Z</time>
      </trkpt>
      <trkpt lat="44.4058" lon="6.3685">
        <ele>1703</ele>
        <time>2015-08-26T09:08:21.1Z</time>
      </trkpt>
      <trkpt lat="44.40577" lon="6.36857">
        <ele>1705</ele>
        <time>2015-08-26T09:08:27.1Z</time>
      </trkpt>
      <trkpt lat="44.40577" lon="6.36863">
        <ele>1706</ele>
        <time>2015-08-26T09:08:33.1Z</time>
      </trkpt>
      <trkpt lat="44.40579" lon="6.36868">
        <ele>1706</ele>
        <time>2015-08-26T09:08:38.1Z</time>
      </trkpt>
      <trkpt lat="44.40579" lon="6.36873">
        <ele>1707</ele>
        <time>2015-08-26T09:08:43.1Z</time>
      </trkpt>
      <trkpt lat="44.4058" lon="6.36877">
        <ele>1708</ele>
        <time>2015-08-26T09:08:48.1Z</time>
      </trkpt>
      <trkpt lat="44.40581" lon="6.36882">
        <ele>1709</ele>
        <time>2015-08-26T09:08:53.1Z</time>
      </trkpt>
      <trkpt lat="44.40582" lon="6.36887">
        <ele>1710</ele>
        <time>2015-08-26T09:08:59.1Z</time>
      </trkpt>
      <trkpt lat="44.40582" lon="6.36891">
        <ele>1711</ele>
        <time>2015-08-26T09:09:04.1Z</time>
      </trkpt>
      <trkpt lat="44.40584" lon="6.36895">
        <ele>1713</ele>
        <time>2015-08-26T09:09:10.1Z</time>
      </trkpt>
      <trkpt lat="44.40586" lon="6.36898">
        <ele>1714</ele>
        <time>2015-08-26T09:09:15.1Z</time>
      </trkpt>
      <trkpt lat="44.40585" lon="6.36901">
        <ele>1715</ele>
        <time>2015-08-26T09:09:21.1Z</time>
      </trkpt>
      <trkpt lat="44.40586" lon="6.36905">
        <ele>1716</ele>
        <time>2015-08-26T09:09:26.1Z</time>
      </trkpt>
      <trkpt lat="44.40587" lon="6.36908">
        <ele>1716</ele>
        <time>2015-08-26T09:09:32.1Z</time>
      </trkpt>
      <trkpt lat="44.40586" lon="6.3691">
        <ele>1718</ele>
        <time>2015-08-26T09:09:37.1Z</time>
      </trkpt>
      <trkpt lat="44.40585" lon="6.3691">
        <ele>1718</ele>
        <time>2015-08-26T09:09:43.1Z</time>
      </trkpt>
      <trkpt lat="44.40584" lon="6.3691">
        <ele>1718</ele>
        <time>2015-08-26T09:09:48.1Z</time>
      </trkpt>
      <trkpt lat="44.40583" lon="6.36912">
        <ele>1718</ele>
        <time>2015-08-26T09:09:53.1Z</time>
      </trkpt>
      <trkpt lat="44.40582" lon="6.36915">
        <ele>1719</ele>
        <time>2015-08-26T09:09:58.1Z</time>
      </trkpt>
      <trkpt lat="44.4058" lon="6.36919">
        <ele>1721</ele>
        <time>2015-08-26T09:10:04.1Z</time>
      </trkpt>
      <trkpt lat="44.40578" lon="6.36922">
        <ele>1722</ele>
        <time>2015-08-26T09:10:09.1Z</time>
      </trkpt>
      <trkpt lat="44.40575" lon="6.36926">
        <ele>1723</ele>
        <time>2015-08-26T09:10:14.1Z</time>
      </trkpt>
      <trkpt lat="44.40573" lon="6.3693">
        <ele>1724</ele>
        <time>2015-08-26T09:10:19.1Z</time>
      </trkpt>
      <trkpt lat="44.4057" lon="6.36934">
        <ele>1725</ele>
        <time>2015-08-26T09:10:25.1Z</time>
      </trkpt>
      <trkpt lat="44.40568" lon="6.36937">
        <ele>1726</ele>
        <time>2015-08-26T09:10:30.1Z</time>
      </trkpt>
      <trkpt lat="44.40565" lon="6.36941">
        <ele>1728</ele>
        <time>2015-08-26T09:10:36.1Z</time>
      </trkpt>
      <trkpt lat="44.40564" lon="6.36945">
        <ele>1729</ele>
        <time>2015-08-26T09:10:41.1Z</time>
      </trkpt>
      <trkpt lat="44.40563" lon="6.36948">
        <ele>1729</ele>
        <time>2015-08-26T09:10:46.1Z</time>
      </trkpt>
      <trkpt lat="44.40562" lon="6.36953">
        <ele>1730</ele>
        <time>2015-08-26T09:10:52.1Z</time>
      </trkpt>
      <trkpt lat="44.40561" lon="6.36957">
        <ele>1731</ele>
        <time>2015-08-26T09:10:57.1Z</time>
      </trkpt>
      <trkpt lat="44.40562" lon="6.36962">
        <ele>1731</ele>
        <time>2015-08-26T09:11:03.1Z</time>
      </trkpt>
      <trkpt lat="44.4056" lon="6.36966">
        <ele>1733</ele>
        <time>2015-08-26T09:11:09.1Z</time>
      </trkpt>
      <trkpt lat="44.40558" lon="6.36968">
        <ele>1732</ele>
        <time>2015-08-26T09:11:14.1Z</time>
      </trkpt>
      <trkpt lat="44.40556" lon="6.3697">
        <ele>1733</ele>
        <time>2015-08-26T09:11:20.1Z</time>
      </trkpt>
      <trkpt lat="44.40555" lon="6.36971">
        <ele>1733</ele>
        <time>2015-08-26T09:11:25.1Z</time>
      </trkpt>
      <trkpt lat="44.40554" lon="6.36975">
        <ele>1733</ele>
        <time>2015-08-26T09:11:31.1Z</time>
      </trkpt>
      <trkpt lat="44.40551" lon="6.36979">
        <ele>1733</ele>
        <time>2015-08-26T09:11:36.1Z</time>
      </trkpt>
      <trkpt lat="44.40547" lon="6.36983">
        <ele>1733</ele>
        <time>2015-08-26T09:11:41.1Z</time>
      </trkpt>
      <trkpt lat="44.40543" lon="6.36988">
        <ele>1733</ele>
        <time>2015-08-26T09:11:47.1Z</time>
      </trkpt>
      <trkpt lat="44.4054" lon="6.36993">
        <ele>1734</ele>
        <time>2015-08-26T09:11:52.1Z</time>
      </trkpt>
      <trkpt lat="44.40537" lon="6.36993">
        <ele>1734</ele>
        <time>2015-08-26T09:11:58.1Z</time>
      </trkpt>
      <trkpt lat="44.40535" lon="6.36993">
        <ele>1734</ele>
        <time>2015-08-26T09:12:03.1Z</time>
      </trkpt>
      <trkpt lat="44.40535" lon="6.36992">
        <ele>1734</ele>
        <time>2015-08-26T09:12:08.1Z</time>
      </trkpt>
      <trkpt lat="44.40533" lon="6.36992">
        <ele>1734</ele>
        <time>2015-08-26T09:12:14.1Z</time>
      </trkpt>
      <trkpt lat="44.40533" lon="6.36992">
        <ele>1734</ele>
        <time>2015-08-26T09:12:19.1Z</time>
      </trkpt>
      <trkpt lat="44.40533" lon="6.36995">
        <ele>1734</ele>
        <time>2015-08-26T09:12:25.1Z</time>
      </trkpt>
      <trkpt lat="44.4053" lon="6.37001">
        <ele>1735</ele>
        <time>2015-08-26T09:12:30.1Z</time>
      </trkpt>
      <trkpt lat="44.4053" lon="6.37008">
        <ele>1736</ele>
        <time>2015-08-26T09:12:36.1Z</time>
      </trkpt>
      <trkpt lat="44.40533" lon="6.37015">
        <ele>1737</ele>
        <time>2015-08-26T09:12:42.1Z</time>
      </trkpt>
      <trkpt lat="44.40536" lon="6.37021">
        <ele>1737</ele>
        <time>2015-08-26T09:12:47.1Z</time>
      </trkpt>
      <trkpt lat="44.40539" lon="6.37028">
        <ele>1738</ele>
        <time>2015-08-26T09:12:53.1Z</time>
      </trkpt>
      <trkpt lat="44.40541" lon="6.37034">
        <ele>1739</ele>
        <time>2015-08-26T09:12:59.1Z</time>
      </trkpt>
      <trkpt lat="44.40544" lon="6.37039">
        <ele>1739</ele>
        <time>2015-08-26T09:13:04.1Z</time>
      </trkpt>
      <trkpt lat="44.40544" lon="6.37044">
        <ele>1740</ele>
        <time>2015-08-26T09:13:10.1Z</time>
      </trkpt>
      <trkpt lat="44.40543" lon="6.3705">
        <ele>1741</ele>
        <time>2015-08-26T09:13:15.1Z</time>
      </trkpt>
      <trkpt lat="44.40543" lon="6.37056">
        <ele>1742</ele>
        <time>2015-08-26T09:13:21.1Z</time>
      </trkpt>
      <trkpt lat="44.40542" lon="6.37062">
        <ele>1743</ele>
        <time>2015-08-26T09:13:27.1Z</time>
      </trkpt>
      <trkpt lat="44.40545" lon="6.37068">
        <ele>1744</ele>
        <time>2015-08-26T09:13:32.1Z</time>
      </trkpt>
      <trkpt lat="44.40543" lon="6.37073">
        <ele>1744</ele>
        <time>2015-08-26T09:13:38.1Z</time>
      </trkpt>
      <trkpt lat="44.40545" lon="6.3708">
        <ele>1745</ele>
        <time>2015-08-26T09:13:43.1Z</time>
      </trkpt>
      <trkpt lat="44.40543" lon="6.37085">
        <ele>1746</ele>
        <time>2015-08-26T09:13:48.1Z</time>
      </trkpt>
      <trkpt lat="44.40544" lon="6.37091">
        <ele>1746</ele>
        <time>2015-08-26T09:13:53.1Z</time>
      </trkpt>
      <trkpt lat="44.40543" lon="6.37095">
        <ele>1747</ele>
        <time>2015-08-26T09:13:59.1Z</time>
      </trkpt>
      <trkpt lat="44.40546" lon="6.371">
        <ele>1748</ele>
        <time>2015-08-26T09:14:04.1Z</time>
      </trkpt>
      <trkpt lat="44.40549" lon="6.37106">
        <ele>1749</ele>
        <time>2015-08-26T09:14:09.1Z</time>
      </trkpt>
      <trkpt lat="44.40554" lon="6.37111">
        <ele>1750</ele>
        <time>2015-08-26T09:14:15.1Z</time>
      </trkpt>
      <trkpt lat="44.40559" lon="6.37114">
        <ele>1750</ele>
        <time>2015-08-26T09:14:20.1Z</time>
      </trkpt>
      <trkpt lat="44.40563" lon="6.37118">
        <ele>1751</ele>
        <time>2015-08-26T09:14:26.1Z</time>
      </trkpt>
      <trkpt lat="44.40564" lon="6.3712">
        <ele>1752</ele>
        <time>2015-08-26T09:14:31.1Z</time>
      </trkpt>
      <trkpt lat="44.40559" lon="6.3712">
        <ele>1753</ele>
        <time>2015-08-26T09:14:36.1Z</time>
      </trkpt>
      <trkpt lat="44.4055" lon="6.37117">
        <ele>1754</ele>
        <time>2015-08-26T09:14:42.1Z</time>
      </trkpt>
      <trkpt lat="44.40534" lon="6.37114">
        <ele>1754</ele>
        <time>2015-08-26T09:14:48.1Z</time>
      </trkpt>
      <trkpt lat="44.40523" lon="6.3711">
        <ele>1755</ele>
        <time>2015-08-26T09:14:53.1Z</time>
      </trkpt>
      <trkpt lat="44.40512" lon="6.37105">
        <ele>1756</ele>
        <time>2015-08-26T09:14:59.1Z</time>
      </trkpt>
      <trkpt lat="44.40507" lon="6.37101">
        <ele>1756</ele>
        <time>2015-08-26T09:15:04.1Z</time>
      </trkpt>
      <trkpt lat="44.40506" lon="6.37096">
        <ele>1756</ele>
        <time>2015-08-26T09:15:09.1Z</time>
      </trkpt>
      <trkpt lat="44.40506" lon="6.37092">
        <ele>1757</ele>
        <time>2015-08-26T09:15:15.1Z</time>
      </trkpt>
      <trkpt lat="44.40512" lon="6.3709">
        <ele>1757</ele>
        <time>2015-08-26T09:15:21.1Z</time>
      </trkpt>
      <trkpt lat="44.40515" lon="6.37088">
        <ele>1757</ele>
        <time>2015-08-26T09:15:26.1Z</time>
      </trkpt>
      <trkpt lat="44.40513" lon="6.37083">
        <ele>1758</ele>
        <time>2015-08-26T09:15:31.1Z</time>
      </trkpt>
      <trkpt lat="44.40503" lon="6.37075">
        <ele>1759</ele>
        <time>2015-08-26T09:15:37.1Z</time>
      </trkpt>
      <trkpt lat="44.40496" lon="6.37069">
        <ele>1760</ele>
        <time>2015-08-26T09:15:42.1Z</time>
      </trkpt>
      <trkpt lat="44.40488" lon="6.37064">
        <ele>1761</ele>
        <time>2015-08-26T09:15:47.1Z</time>
      </trkpt>
      <trkpt lat="44.40488" lon="6.37061">
        <ele>1762</ele>
        <time>2015-08-26T09:15:52.1Z</time>
      </trkpt>
      <trkpt lat="44.40483" lon="6.37056">
        <ele>1763</ele>
        <time>2015-08-26T09:15:58.1Z</time>
      </trkpt>
      <trkpt lat="44.40472" lon="6.3705">
        <ele>1763</ele>
        <time>2015-08-26T09:16:03.1Z</time>
      </trkpt>
      <trkpt lat="44.40463" lon="6.37044">
        <ele>1764</ele>
        <time>2015-08-26T09:16:08.1Z</time>
      </trkpt>
      <trkpt lat="44.40462" lon="6.37041">
        <ele>1764</ele>
        <time>2015-08-26T09:16:14.1Z</time>
      </trkpt>
      <trkpt lat="44.40467" lon="6.37038">
        <ele>1765</ele>
        <time>2015-08-26T09:16:20.1Z</time>
      </trkpt>
      <trkpt lat="44.40478" lon="6.37037">
        <ele>1766</ele>
        <time>2015-08-26T09:16:25.1Z</time>
      </trkpt>
      <trkpt lat="44.4048" lon="6.37033">
        <ele>1767</ele>
        <time>2015-08-26T09:16:31.1Z</time>
      </trkpt>
      <trkpt lat="44.40476" lon="6.37028">
        <ele>1768</ele>
        <time>2015-08-26T09:16:36.1Z</time>
      </trkpt>
      <trkpt lat="44.40466" lon="6.37018">
        <ele>1768</ele>
        <time>2015-08-26T09:16:42.1Z</time>
      </trkpt>
      <trkpt lat="44.40457" lon="6.3701">
        <ele>1769</ele>
        <time>2015-08-26T09:16:47.1Z</time>
      </trkpt>
      <trkpt lat="44.4045" lon="6.37001">
        <ele>1770</ele>
        <time>2015-08-26T09:16:53.1Z</time>
      </trkpt>
      <trkpt lat="44.40444" lon="6.36994">
        <ele>1771</ele>
        <time>2015-08-26T09:16:58.1Z</time>
      </trkpt>
      <trkpt lat="44.4044" lon="6.36989">
        <ele>1772</ele>
        <time>2015-08-26T09:17:03.1Z</time>
      </trkpt>
      <trkpt lat="44.40432" lon="6.36981">
        <ele>1772</ele>
        <time>2015-08-26T09:17:09.1Z</time>
      </trkpt>
      <trkpt lat="44.40429" lon="6.36976">
        <ele>1773</ele>
        <time>2015-08-26T09:17:14.1Z</time>
      </trkpt>
      <trkpt lat="44.40427" lon="6.3697">
        <ele>1773</ele>
        <time>2015-08-26T09:17:19.1Z</time>
      </trkpt>
      <trkpt lat="44.40424" lon="6.36962">
        <ele>1774</ele>
        <time>2015-08-26T09:17:25.1Z</time>
      </trkpt>
      <trkpt lat="44.40419" lon="6.36955">
        <ele>1774</ele>
        <time>2015-08-26T09:17:30.1Z</time>
      </trkpt>
      <trkpt lat="44.40415" lon="6.36948">
        <ele>1776</ele>
        <time>2015-08-26T09:17:35.1Z</time>
      </trkpt>
      <trkpt lat="44.40412" lon="6.36941">
        <ele>1776</ele>
        <time>2015-08-26T09:17:40.1Z</time>
      </trkpt>
      <trkpt lat="44.4041" lon="6.36936">
        <ele>1776</ele>
        <time>2015-08-26T09:17:45.1Z</time>
      </trkpt>
      <trkpt lat="44.40405" lon="6.3693">
        <ele>1778</ele>
        <time>2015-08-26T09:17:51.1Z</time>
      </trkpt>
      <trkpt lat="44.40399" lon="6.36924">
        <ele>1778</ele>
        <time>2015-08-26T09:17:56.1Z</time>
      </trkpt>
      <trkpt lat="44.40393" lon="6.36918">
        <ele>1779</ele>
        <time>2015-08-26T09:18:02.1Z</time>
      </trkpt>
      <trkpt lat="44.40388" lon="6.36915">
        <ele>1780</ele>
        <time>2015-08-26T09:18:07.1Z</time>
      </trkpt>
      <trkpt lat="44.40382" lon="6.36908">
        <ele>1781</ele>
        <time>2015-08-26T09:18:13.1Z</time>
      </trkpt>
      <trkpt lat="44.40377" lon="6.36905">
        <ele>1782</ele>
        <time>2015-08-26T09:18:18.1Z</time>
      </trkpt>
      <trkpt lat="44.40371" lon="6.36901">
        <ele>1782</ele>
        <time>2015-08-26T09:18:24.1Z</time>
      </trkpt>
      <trkpt lat="44.40367" lon="6.36898">
        <ele>1783</ele>
        <time>2015-08-26T09:18:29.1Z</time>
      </trkpt>
      <trkpt lat="44.40362" lon="6.36896">
        <ele>1783</ele>
        <time>2015-08-26T09:18:34.1Z</time>
      </trkpt>
      <trkpt lat="44.40356" lon="6.36894">
        <ele>1784</ele>
        <time>2015-08-26T09:18:40.1Z</time>
      </trkpt>
      <trkpt lat="44.40351" lon="6.36893">
        <ele>1785</ele>
        <time>2015-08-26T09:18:45.1Z</time>
      </trkpt>
      <trkpt lat="44.40347" lon="6.36891">
        <ele>1786</ele>
        <time>2015-08-26T09:18:50.1Z</time>
      </trkpt>
      <trkpt lat="44.40341" lon="6.36889">
        <ele>1786</ele>
        <time>2015-08-26T09:18:56.1Z</time>
      </trkpt>
      <trkpt lat="44.40335" lon="6.36887">
        <ele>1787</ele>
        <time>2015-08-26T09:19:02.1Z</time>
      </trkpt>
      <trkpt lat="44.40331" lon="6.36885">
        <ele>1788</ele>
        <time>2015-08-26T09:19:07.1Z</time>
      </trkpt>
      <trkpt lat="44.40326" lon="6.36883">
        <ele>1789</ele>
        <time>2015-08-26T09:19:12.1Z</time>
      </trkpt>
      <trkpt lat="44.40322" lon="6.36882">
        <ele>1790</ele>
        <time>2015-08-26T09:19:17.1Z</time>
      </trkpt>
      <trkpt lat="44.40318" lon="6.36879">
        <ele>1791</ele>
        <time>2015-08-26T09:19:22.1Z</time>
      </trkpt>
      <trkpt lat="44.40312" lon="6.36875">
        <ele>1791</ele>
        <time>2015-08-26T09:19:28.1Z</time>
      </trkpt>
      <trkpt lat="44.40307" lon="6.36873">
        <ele>1792</ele>
        <time>2015-08-26T09:19:34.1Z</time>
      </trkpt>
      <trkpt lat="44.40303" lon="6.3687">
        <ele>1792</ele>
        <time>2015-08-26T09:19:39.1Z</time>
      </trkpt>
      <trkpt lat="44.40298" lon="6.36867">
        <ele>1793</ele>
        <time>2015-08-26T09:19:44.1Z</time>
      </trkpt>
      <trkpt lat="44.40294" lon="6.36865">
        <ele>1793</ele>
        <time>2015-08-26T09:19:49.1Z</time>
      </trkpt>
      <trkpt lat="44.40289" lon="6.36864">
        <ele>1794</ele>
        <time>2015-08-26T09:19:55.1Z</time>
      </trkpt>
      <trkpt lat="44.40285" lon="6.36864">
        <ele>1794</ele>
        <time>2015-08-26T09:20:00.1Z</time>
      </trkpt>
      <trkpt lat="44.4028" lon="6.36865">
        <ele>1795</ele>
        <time>2015-08-26T09:20:06.1Z</time>
      </trkpt>
      <trkpt lat="44.40275" lon="6.36866">
        <ele>1795</ele>
        <time>2015-08-26T09:20:11.1Z</time>
      </trkpt>
      <trkpt lat="44.40271" lon="6.36869">
        <ele>1796</ele>
        <time>2015-08-26T09:20:17.1Z</time>
      </trkpt>
      <trkpt lat="44.40266" lon="6.36872">
        <ele>1798</ele>
        <time>2015-08-26T09:20:23.1Z</time>
      </trkpt>
      <trkpt lat="44.40262" lon="6.36876">
        <ele>1798</ele>
        <time>2015-08-26T09:20:29.1Z</time>
      </trkpt>
      <trkpt lat="44.40258" lon="6.36879">
        <ele>1798</ele>
        <time>2015-08-26T09:20:34.1Z</time>
      </trkpt>
      <trkpt lat="44.40253" lon="6.36884">
        <ele>1800</ele>
        <time>2015-08-26T09:20:40.1Z</time>
      </trkpt>
      <trkpt lat="44.4025" lon="6.36887">
        <ele>1800</ele>
        <time>2015-08-26T09:20:45.1Z</time>
      </trkpt>
      <trkpt lat="44.40245" lon="6.36889">
        <ele>1801</ele>
        <time>2015-08-26T09:20:51.1Z</time>
      </trkpt>
      <trkpt lat="44.40242" lon="6.36892">
        <ele>1802</ele>
        <time>2015-08-26T09:20:56.1Z</time>
      </trkpt>
      <trkpt lat="44.4024" lon="6.36896">
        <ele>1803</ele>
        <time>2015-08-26T09:21:01.1Z</time>
      </trkpt>
      <trkpt lat="44.4024" lon="6.369">
        <ele>1803</ele>
        <time>2015-08-26T09:21:07.1Z</time>
      </trkpt>
      <trkpt lat="44.40238" lon="6.36908">
        <ele>1804</ele>
        <time>2015-08-26T09:21:13.1Z</time>
      </trkpt>
      <trkpt lat="44.40235" lon="6.36914">
        <ele>1804</ele>
        <time>2015-08-26T09:21:18.1Z</time>
      </trkpt>
      <trkpt lat="44.40233" lon="6.36914">
        <ele>1804</ele>
        <time>2015-08-26T09:21:24.1Z</time>
      </trkpt>
      <trkpt lat="44.40236" lon="6.36917">
        <ele>1804</ele>
        <time>2015-08-26T09:21:29.1Z</time>
      </trkpt>
      <trkpt lat="44.40234" lon="6.36925">
        <ele>1804</ele>
        <time>2015-08-26T09:21:35.1Z</time>
      </trkpt>
      <trkpt lat="44.40232" lon="6.3693">
        <ele>1804</ele>
        <time>2015-08-26T09:21:40.1Z</time>
      </trkpt>
      <trkpt lat="44.40227" lon="6.36934">
        <ele>1805</ele>
        <time>2015-08-26T09:21:46.1Z</time>
      </trkpt>
      <trkpt lat="44.40224" lon="6.36939">
        <ele>1805</ele>
        <time>2015-08-26T09:21:52.1Z</time>
      </trkpt>
      <trkpt lat="44.4022" lon="6.36945">
        <ele>1806</ele>
        <time>2015-08-26T09:21:58.1Z</time>
      </trkpt>
      <trkpt lat="44.40217" lon="6.3695">
        <ele>1806</ele>
        <time>2015-08-26T09:22:03.1Z</time>
      </trkpt>
      <trkpt lat="44.40214" lon="6.36958">
        <ele>1805</ele>
        <time>2015-08-26T09:22:09.1Z</time>
      </trkpt>
      <trkpt lat="44.4021" lon="6.36963">
        <ele>1806</ele>
        <time>2015-08-26T09:22:14.1Z</time>
      </trkpt>
      <trkpt lat="44.40207" lon="6.36969">
        <ele>1806</ele>
        <time>2015-08-26T09:22:19.1Z</time>
      </trkpt>
      <trkpt lat="44.40202" lon="6.36975">
        <ele>1806</ele>
        <time>2015-08-26T09:22:25.1Z</time>
      </trkpt>
      <trkpt lat="44.40199" lon="6.36982">
        <ele>1806</ele>
        <time>2015-08-26T09:22:30.1Z</time>
      </trkpt>
      <trkpt lat="44.40195" lon="6.36987">
        <ele>1806</ele>
        <time>2015-08-26T09:22:35.1Z</time>
      </trkpt>
      <trkpt lat="44.40191" lon="6.36993">
        <ele>1807</ele>
        <time>2015-08-26T09:22:41.1Z</time>
      </trkpt>
      <trkpt lat="44.40187" lon="6.36998">
        <ele>1807</ele>
        <time>2015-08-26T09:22:46.1Z</time>
      </trkpt>
      <trkpt lat="44.40181" lon="6.37005">
        <ele>1807</ele>
        <time>2015-08-26T09:22:52.1Z</time>
      </trkpt>
      <trkpt lat="44.40179" lon="6.37012">
        <ele>1808</ele>
        <time>2015-08-26T09:22:57.1Z</time>
      </trkpt>
      <trkpt lat="44.40174" lon="6.37019">
        <ele>1808</ele>
        <time>2015-08-26T09:23:03.1Z</time>
      </trkpt>
      <trkpt lat="44.4017" lon="6.37024">
        <ele>1808</ele>
        <time>2015-08-26T09:23:08.1Z</time>
      </trkpt>
      <trkpt lat="44.40166" lon="6.37031">
        <ele>1809</ele>
        <time>2015-08-26T09:23:14.1Z</time>
      </trkpt>
      <trkpt lat="44.40162" lon="6.37037">
        <ele>1809</ele>
        <time>2015-08-26T09:23:20.1Z</time>
      </trkpt>
      <trkpt lat="44.40158" lon="6.37042">
        <ele>1810</ele>
        <time>2015-08-26T09:23:25.1Z</time>
      </trkpt>
      <trkpt lat="44.40155" lon="6.37049">
        <ele>1810</ele>
        <time>2015-08-26T09:23:31.1Z</time>
      </trkpt>
      <trkpt lat="44.40153" lon="6.37056">
        <ele>1810</ele>
        <time>2015-08-26T09:23:37.1Z</time>
      </trkpt>
      <trkpt lat="44.4015" lon="6.37062">
        <ele>1811</ele>
        <time>2015-08-26T09:23:42.1Z</time>
      </trkpt>
      <trkpt lat="44.40147" lon="6.37066">
        <ele>1811</ele>
        <time>2015-08-26T09:23:47.1Z</time>
      </trkpt>
      <trkpt lat="44.40143" lon="6.37071">
        <ele>1811</ele>
        <time>2015-08-26T09:23:53.1Z</time>
      </trkpt>
      <trkpt lat="44.40139" lon="6.37077">
        <ele>1812</ele>
        <time>2015-08-26T09:23:59.1Z</time>
      </trkpt>
      <trkpt lat="44.40136" lon="6.37083">
        <ele>1812</ele>
        <time>2015-08-26T09:24:04.1Z</time>
      </trkpt>
      <trkpt lat="44.40134" lon="6.37089">
        <ele>1813</ele>
        <time>2015-08-26T09:24:09.1Z</time>
      </trkpt>
      <trkpt lat="44.40131" lon="6.37096">
        <ele>1814</ele>
        <time>2015-08-26T09:24:15.1Z</time>
      </trkpt>
      <trkpt lat="44.40129" lon="6.37101">
        <ele>1814</ele>
        <time>2015-08-26T09:24:20.1Z</time>
      </trkpt>
      <trkpt lat="44.40127" lon="6.37106">
        <ele>1815</ele>
        <time>2015-08-26T09:24:25.1Z</time>
      </trkpt>
      <trkpt lat="44.40124" lon="6.3711">
        <ele>1816</ele>
        <time>2015-08-26T09:24:31.1Z</time>
      </trkpt>
      <trkpt lat="44.40123" lon="6.37114">
        <ele>1816</ele>
        <time>2015-08-26T09:24:36.1Z</time>
      </trkpt>
      <trkpt lat="44.40122" lon="6.3712">
        <ele>1816</ele>
        <time>2015-08-26T09:24:42.1Z</time>
      </trkpt>
      <trkpt lat="44.40123" lon="6.37124">
        <ele>1817</ele>
        <time>2015-08-26T09:24:47.1Z</time>
      </trkpt>
      <trkpt lat="44.40121" lon="6.3713">
        <ele>1818</ele>
        <time>2015-08-26T09:24:53.1Z</time>
      </trkpt>
      <trkpt lat="44.4012" lon="6.37135">
        <ele>1819</ele>
        <time>2015-08-26T09:24:58.1Z</time>
      </trkpt>
      <trkpt lat="44.40119" lon="6.3714">
        <ele>1820</ele>
        <time>2015-08-26T09:25:03.1Z</time>
      </trkpt>
      <trkpt lat="44.40118" lon="6.37146">
        <ele>1821</ele>
        <time>2015-08-26T09:25:09.1Z</time>
      </trkpt>
      <trkpt lat="44.40116" lon="6.37151">
        <ele>1822</ele>
        <time>2015-08-26T09:25:14.1Z</time>
      </trkpt>
      <trkpt lat="44.40114" lon="6.37156">
        <ele>1823</ele>
        <time>2015-08-26T09:25:19.1Z</time>
      </trkpt>
      <trkpt lat="44.40113" lon="6.37162">
        <ele>1824</ele>
        <time>2015-08-26T09:25:25.1Z</time>
      </trkpt>
      <trkpt lat="44.4011" lon="6.37167">
        <ele>1825</ele>
        <time>2015-08-26T09:25:31.1Z</time>
      </trkpt>
      <trkpt lat="44.40108" lon="6.37172">
        <ele>1826</ele>
        <time>2015-08-26T09:25:37.1Z</time>
      </trkpt>
      <trkpt lat="44.40105" lon="6.37177">
        <ele>1828</ele>
        <time>2015-08-26T09:25:42.1Z</time>
      </trkpt>
      <trkpt lat="44.40103" lon="6.37182">
        <ele>1828</ele>
        <time>2015-08-26T09:25:47.1Z</time>
      </trkpt>
      <trkpt lat="44.401" lon="6.37186">
        <ele>1829</ele>
        <time>2015-08-26T09:25:53.1Z</time>
      </trkpt>
      <trkpt lat="44.40097" lon="6.3719">
        <ele>1830</ele>
        <time>2015-08-26T09:25:58.1Z</time>
      </trkpt>
      <trkpt lat="44.40095" lon="6.37195">
        <ele>1831</ele>
        <time>2015-08-26T09:26:04.1Z</time>
      </trkpt>
      <trkpt lat="44.40093" lon="6.37199">
        <ele>1832</ele>
        <time>2015-08-26T09:26:10.1Z</time>
      </trkpt>
      <trkpt lat="44.40091" lon="6.37201">
        <ele>1833</ele>
        <time>2015-08-26T09:26:15.1Z</time>
      </trkpt>
      <trkpt lat="44.40089" lon="6.37207">
        <ele>1833</ele>
        <time>2015-08-26T09:26:21.1Z</time>
      </trkpt>
      <trkpt lat="44.40086" lon="6.37212">
        <ele>1835</ele>
        <time>2015-08-26T09:26:27.1Z</time>
      </trkpt>
      <trkpt lat="44.40084" lon="6.37217">
        <ele>1835</ele>
        <time>2015-08-26T09:26:32.1Z</time>
      </trkpt>
      <trkpt lat="44.40081" lon="6.37223">
        <ele>1836</ele>
        <time>2015-08-26T09:26:38.1Z</time>
      </trkpt>
      <trkpt lat="44.4008" lon="6.37228">
        <ele>1837</ele>
        <time>2015-08-26T09:26:43.1Z</time>
      </trkpt>
      <trkpt lat="44.40077" lon="6.37233">
        <ele>1839</ele>
        <time>2015-08-26T09:26:48.1Z</time>
      </trkpt>
      <trkpt lat="44.40075" lon="6.3724">
        <ele>1840</ele>
        <time>2015-08-26T09:26:54.1Z</time>
      </trkpt>
      <trkpt lat="44.40072" lon="6.37246">
        <ele>1840</ele>
        <time>2015-08-26T09:26:59.1Z</time>
      </trkpt>
      <trkpt lat="44.4007" lon="6.37252">
        <ele>1841</ele>
        <time>2015-08-26T09:27:05.1Z</time>
      </trkpt>
      <trkpt lat="44.40066" lon="6.37259">
        <ele>1841</ele>
        <time>2015-08-26T09:27:11.1Z</time>
      </trkpt>
      <trkpt lat="44.40063" lon="6.37263">
        <ele>1842</ele>
        <time>2015-08-26T09:27:16.1Z</time>
      </trkpt>
      <trkpt lat="44.4006" lon="6.37268">
        <ele>1843</ele>
        <time>2015-08-26T09:27:22.1Z</time>
      </trkpt>
      <trkpt lat="44.40058" lon="6.37273">
        <ele>1844</ele>
        <time>2015-08-26T09:27:27.1Z</time>
      </trkpt>
      <trkpt lat="44.40056" lon="6.37278">
        <ele>1844</ele>
        <time>2015-08-26T09:27:32.1Z</time>
      </trkpt>
      <trkpt lat="44.40055" lon="6.37284">
        <ele>1846</ele>
        <time>2015-08-26T09:27:37.1Z</time>
      </trkpt>
      <trkpt lat="44.40052" lon="6.37289">
        <ele>1846</ele>
        <time>2015-08-26T09:27:43.1Z</time>
      </trkpt>
      <trkpt lat="44.4005" lon="6.37294">
        <ele>1847</ele>
        <time>2015-08-26T09:27:48.1Z</time>
      </trkpt>
      <trkpt lat="44.40047" lon="6.37299">
        <ele>1847</ele>
        <time>2015-08-26T09:27:54.1Z</time>
      </trkpt>
      <trkpt lat="44.40044" lon="6.37305">
        <ele>1849</ele>
        <time>2015-08-26T09:28:00.1Z</time>
      </trkpt>
      <trkpt lat="44.40043" lon="6.3731">
        <ele>1850</ele>
        <time>2015-08-26T09:28:05.1Z</time>
      </trkpt>
      <trkpt lat="44.4004" lon="6.37317">
        <ele>1850</ele>
        <time>2015-08-26T09:28:11.1Z</time>
      </trkpt>
      <trkpt lat="44.40038" lon="6.37322">
        <ele>1851</ele>
        <time>2015-08-26T09:28:16.1Z</time>
      </trkpt>
      <trkpt lat="44.40036" lon="6.37326">
        <ele>1852</ele>
        <time>2015-08-26T09:28:23.1Z</time>
      </trkpt>
      <trkpt lat="44.40036" lon="6.37327">
        <ele>1852</ele>
        <time>2015-08-26T09:28:28.1Z</time>
      </trkpt>
      <trkpt lat="44.40035" lon="6.37327">
        <ele>1852</ele>
        <time>2015-08-26T09:28:34.1Z</time>
      </trkpt>
      <trkpt lat="44.40034" lon="6.37331">
        <ele>1852</ele>
        <time>2015-08-26T09:28:40.1Z</time>
      </trkpt>
      <trkpt lat="44.40031" lon="6.37337">
        <ele>1853</ele>
        <time>2015-08-26T09:28:45.1Z</time>
      </trkpt>
      <trkpt lat="44.4003" lon="6.37342">
        <ele>1853</ele>
        <time>2015-08-26T09:28:50.1Z</time>
      </trkpt>
      <trkpt lat="44.40028" lon="6.37349">
        <ele>1853</ele>
        <time>2015-08-26T09:28:56.1Z</time>
      </trkpt>
      <trkpt lat="44.40027" lon="6.37355">
        <ele>1854</ele>
        <time>2015-08-26T09:29:01.1Z</time>
      </trkpt>
      <trkpt lat="44.40026" lon="6.37362">
        <ele>1854</ele>
        <time>2015-08-26T09:29:06.1Z</time>
      </trkpt>
      <trkpt lat="44.40026" lon="6.37368">
        <ele>1854</ele>
        <time>2015-08-26T09:29:11.1Z</time>
      </trkpt>
      <trkpt lat="44.40023" lon="6.37376">
        <ele>1855</ele>
        <time>2015-08-26T09:29:17.1Z</time>
      </trkpt>
      <trkpt lat="44.40021" lon="6.37382">
        <ele>1856</ele>
        <time>2015-08-26T09:29:22.1Z</time>
      </trkpt>
      <trkpt lat="44.40018" lon="6.37389">
        <ele>1856</ele>
        <time>2015-08-26T09:29:28.1Z</time>
      </trkpt>
      <trkpt lat="44.40015" lon="6.37396">
        <ele>1857</ele>
        <time>2015-08-26T09:29:34.1Z</time>
      </trkpt>
      <trkpt lat="44.40012" lon="6.37403">
        <ele>1857</ele>
        <time>2015-08-26T09:29:40.1Z</time>
      </trkpt>
      <trkpt lat="44.4001" lon="6.37411">
        <ele>1857</ele>
        <time>2015-08-26T09:29:46.1Z</time>
      </trkpt>
      <trkpt lat="44.40007" lon="6.37417">
        <ele>1858</ele>
        <time>2015-08-26T09:29:51.1Z</time>
      </trkpt>
      <trkpt lat="44.40005" lon="6.37423">
        <ele>1858</ele>
        <time>2015-08-26T09:29:56.1Z</time>
      </trkpt>
      <trkpt lat="44.40004" lon="6.37429">
        <ele>1859</ele>
        <time>2015-08-26T09:30:01.1Z</time>
      </trkpt>
      <trkpt lat="44.40001" lon="6.37433">
        <ele>1860</ele>
        <time>2015-08-26T09:30:07.1Z</time>
      </trkpt>
      <trkpt lat="44.39998" lon="6.37439">
        <ele>1861</ele>
        <time>2015-08-26T09:30:13.1Z</time>
      </trkpt>
      <trkpt lat="44.39996" lon="6.37446">
        <ele>1861</ele>
        <time>2015-08-26T09:30:19.1Z</time>
      </trkpt>
      <trkpt lat="44.39991" lon="6.3745">
        <ele>1861</ele>
        <time>2015-08-26T09:30:24.1Z</time>
      </trkpt>
      <trkpt lat="44.39986" lon="6.37455">
        <ele>1862</ele>
        <time>2015-08-26T09:30:29.1Z</time>
      </trkpt>
      <trkpt lat="44.39982" lon="6.3746">
        <ele>1863</ele>
        <time>2015-08-26T09:30:34.1Z</time>
      </trkpt>
      <trkpt lat="44.39979" lon="6.37466">
        <ele>1863</ele>
        <time>2015-08-26T09:30:40.1Z</time>
      </trkpt>
      <trkpt lat="44.39976" lon="6.37471">
        <ele>1864</ele>
        <time>2015-08-26T09:30:45.1Z</time>
      </trkpt>
      <trkpt lat="44.39975" lon="6.37478">
        <ele>1865</ele>
        <time>2015-08-26T09:30:50.1Z</time>
      </trkpt>
      <trkpt lat="44.39975" lon="6.37485">
        <ele>1865</ele>
        <time>2015-08-26T09:30:56.1Z</time>
      </trkpt>
      <trkpt lat="44.39975" lon="6.37493">
        <ele>1865</ele>
        <time>2015-08-26T09:31:01.1Z</time>
      </trkpt>
      <trkpt lat="44.39972" lon="6.375">
        <ele>1866</ele>
        <time>2015-08-26T09:31:07.1Z</time>
      </trkpt>
      <trkpt lat="44.3997" lon="6.37506">
        <ele>1866</ele>
        <time>2015-08-26T09:31:12.1Z</time>
      </trkpt>
      <trkpt lat="44.39968" lon="6.37513">
        <ele>1866</ele>
        <time>2015-08-26T09:31:17.1Z</time>
      </trkpt>
      <trkpt lat="44.39967" lon="6.37523">
        <ele>1866</ele>
        <time>2015-08-26T09:31:23.1Z</time>
      </trkpt>
      <trkpt lat="44.39967" lon="6.37531">
        <ele>1866</ele>
        <time>2015-08-26T09:31:28.1Z</time>
      </trkpt>
      <trkpt lat="44.39965" lon="6.37539">
        <ele>1867</ele>
        <time>2015-08-26T09:31:34.1Z</time>
      </trkpt>
      <trkpt lat="44.39964" lon="6.37545">
        <ele>1868</ele>
        <time>2015-08-26T09:31:39.1Z</time>
      </trkpt>
      <trkpt lat="44.39962" lon="6.37553">
        <ele>1869</ele>
        <time>2015-08-26T09:31:45.1Z</time>
      </trkpt>
      <trkpt lat="44.39961" lon="6.3756">
        <ele>1870</ele>
        <time>2015-08-26T09:31:50.1Z</time>
      </trkpt>
      <trkpt lat="44.3996" lon="6.37569">
        <ele>1871</ele>
        <time>2015-08-26T09:31:56.1Z</time>
      </trkpt>
      <trkpt lat="44.39958" lon="6.37576">
        <ele>1871</ele>
        <time>2015-08-26T09:32:01.1Z</time>
      </trkpt>
      <trkpt lat="44.39956" lon="6.37585">
        <ele>1871</ele>
        <time>2015-08-26T09:32:06.1Z</time>
      </trkpt>
      <trkpt lat="44.39955" lon="6.37591">
        <ele>1872</ele>
        <time>2015-08-26T09:32:12.1Z</time>
      </trkpt>
      <trkpt lat="44.39954" lon="6.376">
        <ele>1872</ele>
        <time>2015-08-26T09:32:18.1Z</time>
      </trkpt>
      <trkpt lat="44.39953" lon="6.37606">
        <ele>1873</ele>
        <time>2015-08-26T09:32:23.1Z</time>
      </trkpt>
      <trkpt lat="44.39953" lon="6.37613">
        <ele>1874</ele>
        <time>2015-08-26T09:32:29.1Z</time>
      </trkpt>
      <trkpt lat="44.39952" lon="6.37619">
        <ele>1874</ele>
        <time>2015-08-26T09:32:34.1Z</time>
      </trkpt>
      <trkpt lat="44.3995" lon="6.37627">
        <ele>1875</ele>
        <time>2015-08-26T09:32:40.1Z</time>
      </trkpt>
      <trkpt lat="44.39948" lon="6.37635">
        <ele>1876</ele>
        <time>2015-08-26T09:32:45.1Z</time>
      </trkpt>
      <trkpt lat="44.39947" lon="6.37642">
        <ele>1877</ele>
        <time>2015-08-26T09:32:51.1Z</time>
      </trkpt>
      <trkpt lat="44.39945" lon="6.37649">
        <ele>1878</ele>
        <time>2015-08-26T09:32:57.1Z</time>
      </trkpt>
      <trkpt lat="44.39943" lon="6.37656">
        <ele>1878</ele>
        <time>2015-08-26T09:33:02.1Z</time>
      </trkpt>
      <trkpt lat="44.39942" lon="6.37663">
        <ele>1879</ele>
        <time>2015-08-26T09:33:07.1Z</time>
      </trkpt>
      <trkpt lat="44.3994" lon="6.3767">
        <ele>1879</ele>
        <time>2015-08-26T09:33:13.1Z</time>
      </trkpt>
      <trkpt lat="44.39938" lon="6.37678">
        <ele>1880</ele>
        <time>2015-08-26T09:33:19.1Z</time>
      </trkpt>
      <trkpt lat="44.39936" lon="6.37685">
        <ele>1880</ele>
        <time>2015-08-26T09:33:24.1Z</time>
      </trkpt>
      <trkpt lat="44.39935" lon="6.37692">
        <ele>1881</ele>
        <time>2015-08-26T09:33:30.1Z</time>
      </trkpt>
      <trkpt lat="44.39933" lon="6.377">
        <ele>1882</ele>
        <time>2015-08-26T09:33:36.1Z</time>
      </trkpt>
      <trkpt lat="44.39932" lon="6.37707">
        <ele>1883</ele>
        <time>2015-08-26T09:33:41.1Z</time>
      </trkpt>
      <trkpt lat="44.39931" lon="6.37714">
        <ele>1883</ele>
        <time>2015-08-26T09:33:47.1Z</time>
      </trkpt>
      <trkpt lat="44.3993" lon="6.37719">
        <ele>1884</ele>
        <time>2015-08-26T09:33:52.1Z</time>
      </trkpt>
      <trkpt lat="44.39929" lon="6.37724">
        <ele>1885</ele>
        <time>2015-08-26T09:33:57.1Z</time>
      </trkpt>
      <trkpt lat="44.39928" lon="6.3773">
        <ele>1886</ele>
        <time>2015-08-26T09:34:03.1Z</time>
      </trkpt>
      <trkpt lat="44.39926" lon="6.37737">
        <ele>1887</ele>
        <time>2015-08-26T09:34:09.1Z</time>
      </trkpt>
      <trkpt lat="44.39925" lon="6.37744">
        <ele>1888</ele>
        <time>2015-08-26T09:34:15.1Z</time>
      </trkpt>
      <trkpt lat="44.39925" lon="6.37751">
        <ele>1888</ele>
        <time>2015-08-26T09:34:20.1Z</time>
      </trkpt>
      <trkpt lat="44.39922" lon="6.37759">
        <ele>1888</ele>
        <time>2015-08-26T09:34:26.1Z</time>
      </trkpt>
      <trkpt lat="44.39919" lon="6.37765">
        <ele>1887</ele>
        <time>2015-08-26T09:34:32.1Z</time>
      </trkpt>
      <trkpt lat="44.39918" lon="6.37765">
        <ele>1886</ele>
        <time>2015-08-26T09:34:38.1Z</time>
      </trkpt>
      <trkpt lat="44.39917" lon="6.37764">
        <ele>1886</ele>
        <time>2015-08-26T09:34:44.1Z</time>
      </trkpt>
      <trkpt lat="44.39917" lon="6.37762">
        <ele>1886</ele>
        <time>2015-08-26T09:34:50.1Z</time>
      </trkpt>
      <trkpt lat="44.39916" lon="6.3776">
        <ele>1886</ele>
        <time>2015-08-26T09:34:56.1Z</time>
      </trkpt>
      <trkpt lat="44.39916" lon="6.3776">
        <ele>1887</ele>
        <time>2015-08-26T09:35:02.1Z</time>
      </trkpt>
      <trkpt lat="44.39917" lon="6.37759">
        <ele>1887</ele>
        <time>2015-08-26T09:35:10.1Z</time>
      </trkpt>
      <trkpt lat="44.39917" lon="6.37759">
        <ele>1887</ele>
        <time>2015-08-26T09:35:16.1Z</time>
      </trkpt>
      <trkpt lat="44.39916" lon="6.37764">
        <ele>1887</ele>
        <time>2015-08-26T09:35:22.1Z</time>
      </trkpt>
      <trkpt lat="44.39915" lon="6.37771">
        <ele>1887</ele>
        <time>2015-08-26T09:35:27.1Z</time>
      </trkpt>
      <trkpt lat="44.39913" lon="6.37776">
        <ele>1889</ele>
        <time>2015-08-26T09:35:32.1Z</time>
      </trkpt>
      <trkpt lat="44.39911" lon="6.37781">
        <ele>1889</ele>
        <time>2015-08-26T09:35:38.1Z</time>
      </trkpt>
      <trkpt lat="44.39909" lon="6.37786">
        <ele>1890</ele>
        <time>2015-08-26T09:35:43.1Z</time>
      </trkpt>
      <trkpt lat="44.39907" lon="6.37791">
        <ele>1891</ele>
        <time>2015-08-26T09:35:48.1Z</time>
      </trkpt>
      <trkpt lat="44.39904" lon="6.37797">
        <ele>1892</ele>
        <time>2015-08-26T09:35:54.1Z</time>
      </trkpt>
      <trkpt lat="44.39902" lon="6.37803">
        <ele>1893</ele>
        <time>2015-08-26T09:35:59.1Z</time>
      </trkpt>
      <trkpt lat="44.399" lon="6.3781">
        <ele>1894</ele>
        <time>2015-08-26T09:36:05.1Z</time>
      </trkpt>
      <trkpt lat="44.39898" lon="6.37816">
        <ele>1895</ele>
        <time>2015-08-26T09:36:10.1Z</time>
      </trkpt>
      <trkpt lat="44.39895" lon="6.37823">
        <ele>1895</ele>
        <time>2015-08-26T09:36:16.1Z</time>
      </trkpt>
      <trkpt lat="44.39893" lon="6.3783">
        <ele>1896</ele>
        <time>2015-08-26T09:36:21.1Z</time>
      </trkpt>
      <trkpt lat="44.39891" lon="6.37836">
        <ele>1897</ele>
        <time>2015-08-26T09:36:26.1Z</time>
      </trkpt>
      <trkpt lat="44.39889" lon="6.37843">
        <ele>1897</ele>
        <time>2015-08-26T09:36:32.1Z</time>
      </trkpt>
      <trkpt lat="44.39887" lon="6.3785">
        <ele>1898</ele>
        <time>2015-08-26T09:36:38.1Z</time>
      </trkpt>
      <trkpt lat="44.39884" lon="6.37855">
        <ele>1899</ele>
        <time>2015-08-26T09:36:43.1Z</time>
      </trkpt>
      <trkpt lat="44.39882" lon="6.37861">
        <ele>1899</ele>
        <time>2015-08-26T09:36:48.1Z</time>
      </trkpt>
      <trkpt lat="44.39879" lon="6.37867">
        <ele>1900</ele>
        <time>2015-08-26T09:36:54.1Z</time>
      </trkpt>
      <trkpt lat="44.39877" lon="6.37873">
        <ele>1900</ele>
        <time>2015-08-26T09:37:00.1Z</time>
      </trkpt>
      <trkpt lat="44.39875" lon="6.37877">
        <ele>1901</ele>
        <time>2015-08-26T09:37:05.1Z</time>
      </trkpt>
      <trkpt lat="44.39872" lon="6.37884">
        <ele>1902</ele>
        <time>2015-08-26T09:37:11.1Z</time>
      </trkpt>
      <trkpt lat="44.39869" lon="6.37891">
        <ele>1903</ele>
        <time>2015-08-26T09:37:16.1Z</time>
      </trkpt>
      <trkpt lat="44.39867" lon="6.37896">
        <ele>1903</ele>
        <time>2015-08-26T09:37:21.1Z</time>
      </trkpt>
      <trkpt lat="44.39864" lon="6.37902">
        <ele>1904</ele>
        <time>2015-08-26T09:37:27.1Z</time>
      </trkpt>
      <trkpt lat="44.39859" lon="6.37908">
        <ele>1904</ele>
        <time>2015-08-26T09:37:33.1Z</time>
      </trkpt>
      <trkpt lat="44.39854" lon="6.37913">
        <ele>1905</ele>
        <time>2015-08-26T09:37:39.1Z</time>
      </trkpt>
      <trkpt lat="44.39849" lon="6.37917">
        <ele>1906</ele>
        <time>2015-08-26T09:37:44.1Z</time>
      </trkpt>
      <trkpt lat="44.39844" lon="6.37919">
        <ele>1906</ele>
        <time>2015-08-26T09:37:49.1Z</time>
      </trkpt>
      <trkpt lat="44.3984" lon="6.3792">
        <ele>1907</ele>
        <time>2015-08-26T09:37:55.1Z</time>
      </trkpt>
      <trkpt lat="44.39835" lon="6.37921">
        <ele>1908</ele>
        <time>2015-08-26T09:38:00.1Z</time>
      </trkpt>
      <trkpt lat="44.3983" lon="6.37924">
        <ele>1908</ele>
        <time>2015-08-26T09:38:06.1Z</time>
      </trkpt>
      <trkpt lat="44.39824" lon="6.37925">
        <ele>1909</ele>
        <time>2015-08-26T09:38:11.1Z</time>
      </trkpt>
      <trkpt lat="44.3982" lon="6.37927">
        <ele>1910</ele>
        <time>2015-08-26T09:38:17.1Z</time>
      </trkpt>
      <trkpt lat="44.39814" lon="6.37927">
        <ele>1910</ele>
        <time>2015-08-26T09:38:22.1Z</time>
      </trkpt>
      <trkpt lat="44.39808" lon="6.37927">
        <ele>1911</ele>
        <time>2015-08-26T09:38:29.1Z</time>
      </trkpt>
      <trkpt lat="44.39802" lon="6.37927">
        <ele>1912</ele>
        <time>2015-08-26T09:38:34.1Z</time>
      </trkpt>
      <trkpt lat="44.39798" lon="6.37929">
        <ele>1912</ele>
        <time>2015-08-26T09:38:40.1Z</time>
      </trkpt>
      <trkpt lat="44.39794" lon="6.37929">
        <ele>1912</ele>
        <time>2015-08-26T09:38:45.1Z</time>
      </trkpt>
      <trkpt lat="44.39789" lon="6.37931">
        <ele>1913</ele>
        <time>2015-08-26T09:38:52.1Z</time>
      </trkpt>
      <trkpt lat="44.39784" lon="6.37934">
        <ele>1914</ele>
        <time>2015-08-26T09:38:57.1Z</time>
      </trkpt>
      <trkpt lat="44.39779" lon="6.37936">
        <ele>1914</ele>
        <time>2015-08-26T09:39:03.1Z</time>
      </trkpt>
      <trkpt lat="44.39775" lon="6.37938">
        <ele>1915</ele>
        <time>2015-08-26T09:39:09.1Z</time>
      </trkpt>
      <trkpt lat="44.3977" lon="6.37943">
        <ele>1915</ele>
        <time>2015-08-26T09:39:14.1Z</time>
      </trkpt>
      <trkpt lat="44.39766" lon="6.37946">
        <ele>1916</ele>
        <time>2015-08-26T09:39:19.1Z</time>
      </trkpt>
      <trkpt lat="44.39762" lon="6.3795">
        <ele>1917</ele>
        <time>2015-08-26T09:39:25.1Z</time>
      </trkpt>
      <trkpt lat="44.39757" lon="6.37955">
        <ele>1918</ele>
        <time>2015-08-26T09:39:30.1Z</time>
      </trkpt>
      <trkpt lat="44.39753" lon="6.37959">
        <ele>1919</ele>
        <time>2015-08-26T09:39:35.1Z</time>
      </trkpt>
      <trkpt lat="44.3975" lon="6.37962">
        <ele>1919</ele>
        <time>2015-08-26T09:39:40.1Z</time>
      </trkpt>
      <trkpt lat="44.39746" lon="6.37967">
        <ele>1920</ele>
        <time>2015-08-26T09:39:46.1Z</time>
      </trkpt>
      <trkpt lat="44.39743" lon="6.37972">
        <ele>1920</ele>
        <time>2015-08-26T09:39:51.1Z</time>
      </trkpt>
      <trkpt lat="44.3974" lon="6.37977">
        <ele>1920</ele>
        <time>2015-08-26T09:39:57.1Z</time>
      </trkpt>
      <trkpt lat="44.39738" lon="6.37983">
        <ele>1921</ele>
        <time>2015-08-26T09:40:02.1Z</time>
      </trkpt>
      <trkpt lat="44.39734" lon="6.37988">
        <ele>1921</ele>
        <time>2015-08-26T09:40:07.1Z</time>
      </trkpt>
      <trkpt lat="44.39731" lon="6.37995">
        <ele>1922</ele>
        <time>2015-08-26T09:40:12.1Z</time>
      </trkpt>
      <trkpt lat="44.39728" lon="6.38">
        <ele>1923</ele>
        <time>2015-08-26T09:40:18.1Z</time>
      </trkpt>
      <trkpt lat="44.39725" lon="6.38007">
        <ele>1924</ele>
        <time>2015-08-26T09:40:23.1Z</time>
      </trkpt>
      <trkpt lat="44.39722" lon="6.38011">
        <ele>1924</ele>
        <time>2015-08-26T09:40:29.1Z</time>
      </trkpt>
      <trkpt lat="44.39719" lon="6.38016">
        <ele>1925</ele>
        <time>2015-08-26T09:40:34.1Z</time>
      </trkpt>
      <trkpt lat="44.39716" lon="6.38022">
        <ele>1926</ele>
        <time>2015-08-26T09:40:40.1Z</time>
      </trkpt>
      <trkpt lat="44.39714" lon="6.38027">
        <ele>1927</ele>
        <time>2015-08-26T09:40:45.1Z</time>
      </trkpt>
      <trkpt lat="44.39712" lon="6.38032">
        <ele>1927</ele>
        <time>2015-08-26T09:40:50.1Z</time>
      </trkpt>
      <trkpt lat="44.3971" lon="6.38038">
        <ele>1928</ele>
        <time>2015-08-26T09:40:55.1Z</time>
      </trkpt>
      <trkpt lat="44.39708" lon="6.38045">
        <ele>1930</ele>
        <time>2015-08-26T09:41:02.1Z</time>
      </trkpt>
      <trkpt lat="44.39705" lon="6.38051">
        <ele>1930</ele>
        <time>2015-08-26T09:41:08.1Z</time>
      </trkpt>
      <trkpt lat="44.39702" lon="6.38055">
        <ele>1932</ele>
        <time>2015-08-26T09:41:13.1Z</time>
      </trkpt>
      <trkpt lat="44.397" lon="6.38058">
        <ele>1932</ele>
        <time>2015-08-26T09:41:18.1Z</time>
      </trkpt>
      <trkpt lat="44.39703" lon="6.38059">
        <ele>1933</ele>
        <time>2015-08-26T09:41:23.1Z</time>
      </trkpt>
      <trkpt lat="44.39704" lon="6.38061">
        <ele>1934</ele>
        <time>2015-08-26T09:41:29.1Z</time>
      </trkpt>
      <trkpt lat="44.39704" lon="6.38063">
        <ele>1935</ele>
        <time>2015-08-26T09:41:34.1Z</time>
      </trkpt>
      <trkpt lat="44.39705" lon="6.38064">
        <ele>1936</ele>
        <time>2015-08-26T09:41:40.1Z</time>
      </trkpt>
      <trkpt lat="44.39707" lon="6.38068">
        <ele>1937</ele>
        <time>2015-08-26T09:41:46.1Z</time>
      </trkpt>
      <trkpt lat="44.39708" lon="6.38071">
        <ele>1937</ele>
        <time>2015-08-26T09:41:51.1Z</time>
      </trkpt>
      <trkpt lat="44.39708" lon="6.38074">
        <ele>1938</ele>
        <time>2015-08-26T09:41:56.1Z</time>
      </trkpt>
      <trkpt lat="44.39709" lon="6.38078">
        <ele>1939</ele>
        <time>2015-08-26T09:42:01.1Z</time>
      </trkpt>
      <trkpt lat="44.39709" lon="6.38084">
        <ele>1940</ele>
        <time>2015-08-26T09:42:07.1Z</time>
      </trkpt>
      <trkpt lat="44.39711" lon="6.38089">
        <ele>1942</ele>
        <time>2015-08-26T09:42:12.1Z</time>
      </trkpt>
      <trkpt lat="44.39713" lon="6.38092">
        <ele>1943</ele>
        <time>2015-08-26T09:42:17.1Z</time>
      </trkpt>
      <trkpt lat="44.39714" lon="6.38093">
        <ele>1944</ele>
        <time>2015-08-26T09:42:22.1Z</time>
      </trkpt>
      <trkpt lat="44.39716" lon="6.38093">
        <ele>1944</ele>
        <time>2015-08-26T09:42:27.1Z</time>
      </trkpt>
      <trkpt lat="44.39719" lon="6.38092">
        <ele>1945</ele>
        <time>2015-08-26T09:42:33.1Z</time>
      </trkpt>
      <trkpt lat="44.39723" lon="6.38091">
        <ele>1944</ele>
        <time>2015-08-26T09:42:38.1Z</time>
      </trkpt>
      <trkpt lat="44.39724" lon="6.38089">
        <ele>1944</ele>
        <time>2015-08-26T09:42:43.1Z</time>
      </trkpt>
      <trkpt lat="44.39723" lon="6.38089">
        <ele>1945</ele>
        <time>2015-08-26T09:42:48.1Z</time>
      </trkpt>
      <trkpt lat="44.39719" lon="6.38095">
        <ele>1945</ele>
        <time>2015-08-26T09:42:54.1Z</time>
      </trkpt>
      <trkpt lat="44.39713" lon="6.38101">
        <ele>1944</ele>
        <time>2015-08-26T09:42:59.1Z</time>
      </trkpt>
      <trkpt lat="44.39706" lon="6.38106">
        <ele>1944</ele>
        <time>2015-08-26T09:43:05.1Z</time>
      </trkpt>
      <trkpt lat="44.39697" lon="6.38112">
        <ele>1944</ele>
        <time>2015-08-26T09:43:10.1Z</time>
      </trkpt>
      <trkpt lat="44.3969" lon="6.38115">
        <ele>1943</ele>
        <time>2015-08-26T09:43:16.1Z</time>
      </trkpt>
      <trkpt lat="44.39684" lon="6.38121">
        <ele>1943</ele>
        <time>2015-08-26T09:43:21.1Z</time>
      </trkpt>
      <trkpt lat="44.39678" lon="6.38125">
        <ele>1943</ele>
        <time>2015-08-26T09:43:26.1Z</time>
      </trkpt>
      <trkpt lat="44.39673" lon="6.38129">
        <ele>1943</ele>
        <time>2015-08-26T09:43:31.1Z</time>
      </trkpt>
      <trkpt lat="44.39674" lon="6.38128">
        <ele>1943</ele>
        <time>2015-08-26T09:43:37.1Z</time>
      </trkpt>
      <trkpt lat="44.39673" lon="6.38124">
        <ele>1943</ele>
        <time>2015-08-26T09:43:42.1Z</time>
      </trkpt>
      <trkpt lat="44.39675" lon="6.38119">
        <ele>1943</ele>
        <time>2015-08-26T09:43:48.1Z</time>
      </trkpt>
      <trkpt lat="44.39677" lon="6.38113">
        <ele>1942</ele>
        <time>2015-08-26T09:43:53.1Z</time>
      </trkpt>
      <trkpt lat="44.39681" lon="6.3811">
        <ele>1943</ele>
        <time>2015-08-26T09:43:58.1Z</time>
      </trkpt>
      <trkpt lat="44.39685" lon="6.38106">
        <ele>1944</ele>
        <time>2015-08-26T09:44:03.1Z</time>
      </trkpt>
      <trkpt lat="44.39689" lon="6.38103">
        <ele>1944</ele>
        <time>2015-08-26T09:44:08.1Z</time>
      </trkpt>
      <trkpt lat="44.39693" lon="6.38101">
        <ele>1944</ele>
        <time>2015-08-26T09:44:14.1Z</time>
      </trkpt>
      <trkpt lat="44.39698" lon="6.38097">
        <ele>1944</ele>
        <time>2015-08-26T09:44:19.1Z</time>
      </trkpt>
      <trkpt lat="44.39704" lon="6.38094">
        <ele>1945</ele>
        <time>2015-08-26T09:44:24.1Z</time>
      </trkpt>
      <trkpt lat="44.39709" lon="6.38093">
        <ele>1945</ele>
        <time>2015-08-26T09:44:29.1Z</time>
      </trkpt>
      <trkpt lat="44.39717" lon="6.38093">
        <ele>1945</ele>
        <time>2015-08-26T09:44:35.1Z</time>
      </trkpt>
      <trkpt lat="44.39723" lon="6.38093">
        <ele>1945</ele>
        <time>2015-08-26T09:44:42.1Z</time>
      </trkpt>
      <trkpt lat="44.39729" lon="6.38093">
        <ele>1945</ele>
        <time>2015-08-26T09:44:47.1Z</time>
      </trkpt>
      <trkpt lat="44.39735" lon="6.38094">
        <ele>1946</ele>
        <time>2015-08-26T09:44:53.1Z</time>
      </trkpt>
      <trkpt lat="44.39738" lon="6.38091">
        <ele>1946</ele>
        <time>2015-08-26T09:44:58.1Z</time>
      </trkpt>
      <trkpt lat="44.39743" lon="6.38089">
        <ele>1946</ele>
        <time>2015-08-26T09:45:03.1Z</time>
      </trkpt>
      <trkpt lat="44.39748" lon="6.38084">
        <ele>1946</ele>
        <time>2015-08-26T09:45:10.1Z</time>
      </trkpt>
      <trkpt lat="44.39752" lon="6.3808">
        <ele>1946</ele>
        <time>2015-08-26T09:45:15.1Z</time>
      </trkpt>
      <trkpt lat="44.39759" lon="6.38076">
        <ele>1947</ele>
        <time>2015-08-26T09:45:22.1Z</time>
      </trkpt>
      <trkpt lat="44.39765" lon="6.38074">
        <ele>1947</ele>
        <time>2015-08-26T09:45:27.1Z</time>
      </trkpt>
      <trkpt lat="44.39771" lon="6.38073">
        <ele>1947</ele>
        <time>2015-08-26T09:45:32.1Z</time>
      </trkpt>
      <trkpt lat="44.39777" lon="6.38073">
        <ele>1947</ele>
        <time>2015-08-26T09:45:37.1Z</time>
      </trkpt>
      <trkpt lat="44.39782" lon="6.38072">
        <ele>1947</ele>
        <time>2015-08-26T09:45:42.1Z</time>
      </trkpt>
      <trkpt lat="44.39786" lon="6.38071">
        <ele>1948</ele>
        <time>2015-08-26T09:45:47.1Z</time>
      </trkpt>
      <trkpt lat="44.39791" lon="6.38069">
        <ele>1948</ele>
        <time>2015-08-26T09:45:53.1Z</time>
      </trkpt>
      <trkpt lat="44.39794" lon="6.38068">
        <ele>1948</ele>
        <time>2015-08-26T09:45:58.1Z</time>
      </trkpt>
      <trkpt lat="44.39799" lon="6.38065">
        <ele>1948</ele>
        <time>2015-08-26T09:46:03.1Z</time>
      </trkpt>
      <trkpt lat="44.39806" lon="6.38062">
        <ele>1949</ele>
        <time>2015-08-26T09:46:09.1Z</time>
      </trkpt>
      <trkpt lat="44.39811" lon="6.3806">
        <ele>1949</ele>
        <time>2015-08-26T09:46:14.1Z</time>
      </trkpt>
      <trkpt lat="44.39816" lon="6.38059">
        <ele>1949</ele>
        <time>2015-08-26T09:46:19.1Z</time>
      </trkpt>
      <trkpt lat="44.39819" lon="6.38059">
        <ele>1949</ele>
        <time>2015-08-26T09:46:25.1Z</time>
      </trkpt>
      <trkpt lat="44.39819" lon="6.38056">
        <ele>1949</ele>
        <time>2015-08-26T09:46:32.1Z</time>
      </trkpt>
      <trkpt lat="44.39819" lon="6.38051">
        <ele>1949</ele>
        <time>2015-08-26T09:46:37.1Z</time>
      </trkpt>
      <trkpt lat="44.39818" lon="6.38047">
        <ele>1949</ele>
        <time>2015-08-26T09:46:42.1Z</time>
      </trkpt>
      <trkpt lat="44.39818" lon="6.38044">
        <ele>1949</ele>
        <time>2015-08-26T09:46:47.1Z</time>
      </trkpt>
      <trkpt lat="44.39819" lon="6.38045">
        <ele>1949</ele>
        <time>2015-08-26T09:46:53.1Z</time>
      </trkpt>
      <trkpt lat="44.39821" lon="6.38048">
        <ele>1949</ele>
        <time>2015-08-26T09:46:58.1Z</time>
      </trkpt>
      <trkpt lat="44.39822" lon="6.38051">
        <ele>1949</ele>
        <time>2015-08-26T09:47:03.1Z</time>
      </trkpt>
      <trkpt lat="44.39823" lon="6.38053">
        <ele>1949</ele>
        <time>2015-08-26T09:47:08.1Z</time>
      </trkpt>
      <trkpt lat="44.39823" lon="6.38052">
        <ele>1949</ele>
        <time>2015-08-26T09:47:13.1Z</time>
      </trkpt>
      <trkpt lat="44.39825" lon="6.38054">
        <ele>1949</ele>
        <time>2015-08-26T09:47:19.1Z</time>
      </trkpt>
      <trkpt lat="44.39829" lon="6.38056">
        <ele>1949</ele>
        <time>2015-08-26T09:47:24.1Z</time>
      </trkpt>
      <trkpt lat="44.39836" lon="6.38058">
        <ele>1949</ele>
        <time>2015-08-26T09:47:30.1Z</time>
      </trkpt>
      <trkpt lat="44.3984" lon="6.38059">
        <ele>1949</ele>
        <time>2015-08-26T09:47:35.1Z</time>
      </trkpt>
      <trkpt lat="44.39845" lon="6.38058">
        <ele>1949</ele>
        <time>2015-08-26T09:47:40.1Z</time>
      </trkpt>
      <trkpt lat="44.39851" lon="6.38058">
        <ele>1950</ele>
        <time>2015-08-26T09:47:45.1Z</time>
      </trkpt>
      <trkpt lat="44.39855" lon="6.38056">
        <ele>1950</ele>
        <time>2015-08-26T09:47:50.1Z</time>
      </trkpt>
      <trkpt lat="44.39861" lon="6.38055">
        <ele>1950</ele>
        <time>2015-08-26T09:47:56.1Z</time>
      </trkpt>
      <trkpt lat="44.39866" lon="6.38054">
        <ele>1950</ele>
        <time>2015-08-26T09:48:01.1Z</time>
      </trkpt>
      <trkpt lat="44.39872" lon="6.38054">
        <ele>1951</ele>
        <time>2015-08-26T09:48:07.1Z</time>
      </trkpt>
      <trkpt lat="44.39877" lon="6.38053">
        <ele>1950</ele>
        <time>2015-08-26T09:48:12.1Z</time>
      </trkpt>
      <trkpt lat="44.39883" lon="6.38052">
        <ele>1950</ele>
        <time>2015-08-26T09:48:17.1Z</time>
      </trkpt>
      <trkpt lat="44.3989" lon="6.38049">
        <ele>1951</ele>
        <time>2015-08-26T09:48:23.1Z</time>
      </trkpt>
      <trkpt lat="44.39896" lon="6.38045">
        <ele>1951</ele>
        <time>2015-08-26T09:48:29.1Z</time>
      </trkpt>
      <trkpt lat="44.39902" lon="6.38041">
        <ele>1951</ele>
        <time>2015-08-26T09:48:34.1Z</time>
      </trkpt>
      <trkpt lat="44.39909" lon="6.38036">
        <ele>1952</ele>
        <time>2015-08-26T09:48:40.1Z</time>
      </trkpt>
      <trkpt lat="44.39915" lon="6.38033">
        <ele>1952</ele>
        <time>2015-08-26T09:48:46.1Z</time>
      </trkpt>
      <trkpt lat="44.39923" lon="6.38032">
        <ele>1953</ele>
        <time>2015-08-26T09:48:52.1Z</time>
      </trkpt>
      <trkpt lat="44.39927" lon="6.38031">
        <ele>1953</ele>
        <time>2015-08-26T09:48:57.1Z</time>
      </trkpt>
      <trkpt lat="44.39933" lon="6.38031">
        <ele>1953</ele>
        <time>2015-08-26T09:49:03.1Z</time>
      </trkpt>
      <trkpt lat="44.39939" lon="6.38029">
        <ele>1953</ele>
        <time>2015-08-26T09:49:09.1Z</time>
      </trkpt>
      <trkpt lat="44.39943" lon="6.38025">
        <ele>1953</ele>
        <time>2015-08-26T09:49:14.1Z</time>
      </trkpt>
      <trkpt lat="44.39949" lon="6.38022">
        <ele>1954</ele>
        <time>2015-08-26T09:49:20.1Z</time>
      </trkpt>
      <trkpt lat="44.39954" lon="6.38019">
        <ele>1955</ele>
        <time>2015-08-26T09:49:25.1Z</time>
      </trkpt>
      <trkpt lat="44.39961" lon="6.38017">
        <ele>1956</ele>
        <time>2015-08-26T09:49:31.1Z</time>
      </trkpt>
      <trkpt lat="44.39968" lon="6.38017">
        <ele>1955</ele>
        <time>2015-08-26T09:49:38.1Z</time>
      </trkpt>
      <trkpt lat="44.39973" lon="6.38016">
        <ele>1956</ele>
        <time>2015-08-26T09:49:43.1Z</time>
      </trkpt>
      <trkpt lat="44.39979" lon="6.38012">
        <ele>1956</ele>
        <time>2015-08-26T09:49:49.1Z</time>
      </trkpt>
      <trkpt lat="44.39986" lon="6.38009">
        <ele>1957</ele>
        <time>2015-08-26T09:49:55.1Z</time>
      </trkpt>
      <trkpt lat="44.39992" lon="6.38005">
        <ele>1958</ele>
        <time>2015-08-26T09:50:01.1Z</time>
      </trkpt>
      <trkpt lat="44.39998" lon="6.38001">
        <ele>1959</ele>
        <time>2015-08-26T09:50:07.1Z</time>
      </trkpt>
      <trkpt lat="44.40003" lon="6.37994">
        <ele>1959</ele>
        <time>2015-08-26T09:50:13.1Z</time>
      </trkpt>
      <trkpt lat="44.40008" lon="6.3799">
        <ele>1959</ele>
        <time>2015-08-26T09:50:18.1Z</time>
      </trkpt>
      <trkpt lat="44.40014" lon="6.37988">
        <ele>1960</ele>
        <time>2015-08-26T09:50:23.1Z</time>
      </trkpt>
      <trkpt lat="44.40019" lon="6.37985">
        <ele>1960</ele>
        <time>2015-08-26T09:50:28.1Z</time>
      </trkpt>
      <trkpt lat="44.40024" lon="6.37982">
        <ele>1960</ele>
        <time>2015-08-26T09:50:34.1Z</time>
      </trkpt>
      <trkpt lat="44.4003" lon="6.37977">
        <ele>1961</ele>
        <time>2015-08-26T09:50:39.1Z</time>
      </trkpt>
      <trkpt lat="44.40033" lon="6.37972">
        <ele>1961</ele>
        <time>2015-08-26T09:50:45.1Z</time>
      </trkpt>
      <trkpt lat="44.40039" lon="6.37968">
        <ele>1962</ele>
        <time>2015-08-26T09:50:50.1Z</time>
      </trkpt>
      <trkpt lat="44.40044" lon="6.37962">
        <ele>1962</ele>
        <time>2015-08-26T09:50:56.1Z</time>
      </trkpt>
      <trkpt lat="44.40051" lon="6.37959">
        <ele>1963</ele>
        <time>2015-08-26T09:51:02.1Z</time>
      </trkpt>
      <trkpt lat="44.40056" lon="6.37957">
        <ele>1963</ele>
        <time>2015-08-26T09:51:07.1Z</time>
      </trkpt>
      <trkpt lat="44.40061" lon="6.37956">
        <ele>1964</ele>
        <time>2015-08-26T09:51:13.1Z</time>
      </trkpt>
      <trkpt lat="44.40066" lon="6.37958">
        <ele>1966</ele>
        <time>2015-08-26T09:51:19.1Z</time>
      </trkpt>
      <trkpt lat="44.40066" lon="6.37965">
        <ele>1966</ele>
        <time>2015-08-26T09:51:25.1Z</time>
      </trkpt>
      <trkpt lat="44.40066" lon="6.37968">
        <ele>1967</ele>
        <time>2015-08-26T09:51:30.1Z</time>
      </trkpt>
      <trkpt lat="44.40065" lon="6.37975">
        <ele>1968</ele>
        <time>2015-08-26T09:51:36.1Z</time>
      </trkpt>
      <trkpt lat="44.40063" lon="6.37982">
        <ele>1969</ele>
        <time>2015-08-26T09:51:42.1Z</time>
      </trkpt>
      <trkpt lat="44.40062" lon="6.37987">
        <ele>1970</ele>
        <time>2015-08-26T09:51:47.1Z</time>
      </trkpt>
      <trkpt lat="44.40061" lon="6.37994">
        <ele>1971</ele>
        <time>2015-08-26T09:51:52.1Z</time>
      </trkpt>
      <trkpt lat="44.4006" lon="6.38002">
        <ele>1972</ele>
        <time>2015-08-26T09:51:58.1Z</time>
      </trkpt>
      <trkpt lat="44.40058" lon="6.38006">
        <ele>1973</ele>
        <time>2015-08-26T09:52:03.1Z</time>
      </trkpt>
      <trkpt lat="44.40056" lon="6.38011">
        <ele>1974</ele>
        <time>2015-08-26T09:52:08.1Z</time>
      </trkpt>
      <trkpt lat="44.40053" lon="6.38015">
        <ele>1975</ele>
        <time>2015-08-26T09:52:14.1Z</time>
      </trkpt>
      <trkpt lat="44.40051" lon="6.38018">
        <ele>1975</ele>
        <time>2015-08-26T09:52:19.1Z</time>
      </trkpt>
      <trkpt lat="44.40049" lon="6.38024">
        <ele>1976</ele>
        <time>2015-08-26T09:52:25.1Z</time>
      </trkpt>
      <trkpt lat="44.40047" lon="6.38029">
        <ele>1977</ele>
        <time>2015-08-26T09:52:30.1Z</time>
      </trkpt>
      <trkpt lat="44.40046" lon="6.38036">
        <ele>1978</ele>
        <time>2015-08-26T09:52:36.1Z</time>
      </trkpt>
      <trkpt lat="44.40044" lon="6.38043">
        <ele>1979</ele>
        <time>2015-08-26T09:52:42.1Z</time>
      </trkpt>
      <trkpt lat="44.40044" lon="6.38049">
        <ele>1980</ele>
        <time>2015-08-26T09:52:47.1Z</time>
      </trkpt>
      <trkpt lat="44.40041" lon="6.38057">
        <ele>1981</ele>
        <time>2015-08-26T09:52:53.1Z</time>
      </trkpt>
      <trkpt lat="44.4004" lon="6.38062">
        <ele>1982</ele>
        <time>2015-08-26T09:52:58.1Z</time>
      </trkpt>
      <trkpt lat="44.40039" lon="6.38067">
        <ele>1982</ele>
        <time>2015-08-26T09:53:03.1Z</time>
      </trkpt>
      <trkpt lat="44.40035" lon="6.38071">
        <ele>1983</ele>
        <time>2015-08-26T09:53:09.1Z</time>
      </trkpt>
      <trkpt lat="44.40031" lon="6.38073">
        <ele>1984</ele>
        <time>2015-08-26T09:53:14.1Z</time>
      </trkpt>
      <trkpt lat="44.40027" lon="6.38075">
        <ele>1984</ele>
        <time>2015-08-26T09:53:19.1Z</time>
      </trkpt>
      <trkpt lat="44.40023" lon="6.38077">
        <ele>1985</ele>
        <time>2015-08-26T09:53:25.1Z</time>
      </trkpt>
      <trkpt lat="44.40019" lon="6.3808">
        <ele>1986</ele>
        <time>2015-08-26T09:53:30.1Z</time>
      </trkpt>
      <trkpt lat="44.40017" lon="6.38084">
        <ele>1987</ele>
        <time>2015-08-26T09:53:36.1Z</time>
      </trkpt>
      <trkpt lat="44.40016" lon="6.38089">
        <ele>1988</ele>
        <time>2015-08-26T09:53:41.1Z</time>
      </trkpt>
      <trkpt lat="44.40015" lon="6.38094">
        <ele>1988</ele>
        <time>2015-08-26T09:53:46.1Z</time>
      </trkpt>
      <trkpt lat="44.40013" lon="6.38099">
        <ele>1990</ele>
        <time>2015-08-26T09:53:51.1Z</time>
      </trkpt>
      <trkpt lat="44.40009" lon="6.38101">
        <ele>1990</ele>
        <time>2015-08-26T09:53:57.1Z</time>
      </trkpt>
      <trkpt lat="44.40008" lon="6.38102">
        <ele>1991</ele>
        <time>2015-08-26T09:54:03.1Z</time>
      </trkpt>
      <trkpt lat="44.40007" lon="6.38104">
        <ele>1990</ele>
        <time>2015-08-26T09:54:09.1Z</time>
      </trkpt>
      <trkpt lat="44.40005" lon="6.38104">
        <ele>1991</ele>
        <time>2015-08-26T09:54:14.1Z</time>
      </trkpt>
      <trkpt lat="44.40003" lon="6.38105">
        <ele>1991</ele>
        <time>2015-08-26T09:54:20.1Z</time>
      </trkpt>
      <trkpt lat="44.40001" lon="6.38106">
        <ele>1991</ele>
        <time>2015-08-26T09:54:25.1Z</time>
      </trkpt>
      <trkpt lat="44.4" lon="6.38107">
        <ele>1992</ele>
        <time>2015-08-26T09:54:30.1Z</time>
      </trkpt>
      <trkpt lat="44.39998" lon="6.38113">
        <ele>1992</ele>
        <time>2015-08-26T09:54:35.1Z</time>
      </trkpt>
      <trkpt lat="44.39996" lon="6.38117">
        <ele>1993</ele>
        <time>2015-08-26T09:54:40.1Z</time>
      </trkpt>
      <trkpt lat="44.39994" lon="6.38122">
        <ele>1994</ele>
        <time>2015-08-26T09:54:46.1Z</time>
      </trkpt>
      <trkpt lat="44.39991" lon="6.38128">
        <ele>1995</ele>
        <time>2015-08-26T09:54:52.1Z</time>
      </trkpt>
      <trkpt lat="44.39989" lon="6.38132">
        <ele>1997</ele>
        <time>2015-08-26T09:54:58.1Z</time>
      </trkpt>
      <trkpt lat="44.39985" lon="6.38134">
        <ele>1997</ele>
        <time>2015-08-26T09:55:03.1Z</time>
      </trkpt>
      <trkpt lat="44.39981" lon="6.38134">
        <ele>1998</ele>
        <time>2015-08-26T09:55:09.1Z</time>
      </trkpt>
      <trkpt lat="44.39978" lon="6.38137">
        <ele>1998</ele>
        <time>2015-08-26T09:55:14.1Z</time>
      </trkpt>
      <trkpt lat="44.39975" lon="6.38139">
        <ele>1999</ele>
        <time>2015-08-26T09:55:20.1Z</time>
      </trkpt>
      <trkpt lat="44.39973" lon="6.38141">
        <ele>2000</ele>
        <time>2015-08-26T09:55:25.1Z</time>
      </trkpt>
      <trkpt lat="44.39971" lon="6.38143">
        <ele>2001</ele>
        <time>2015-08-26T09:55:31.1Z</time>
      </trkpt>
      <trkpt lat="44.39968" lon="6.38146">
        <ele>2002</ele>
        <time>2015-08-26T09:55:36.1Z</time>
      </trkpt>
      <trkpt lat="44.39965" lon="6.38151">
        <ele>2003</ele>
        <time>2015-08-26T09:55:42.1Z</time>
      </trkpt>
      <trkpt lat="44.39962" lon="6.38154">
        <ele>2004</ele>
        <time>2015-08-26T09:55:47.1Z</time>
      </trkpt>
      <trkpt lat="44.39958" lon="6.38158">
        <ele>2005</ele>
        <time>2015-08-26T09:55:53.1Z</time>
      </trkpt>
      <trkpt lat="44.39953" lon="6.38162">
        <ele>2005</ele>
        <time>2015-08-26T09:55:59.1Z</time>
      </trkpt>
      <trkpt lat="44.39951" lon="6.38164">
        <ele>2005</ele>
        <time>2015-08-26T09:56:04.1Z</time>
      </trkpt>
      <trkpt lat="44.39949" lon="6.38169">
        <ele>2006</ele>
        <time>2015-08-26T09:56:10.1Z</time>
      </trkpt>
      <trkpt lat="44.39946" lon="6.38173">
        <ele>2007</ele>
        <time>2015-08-26T09:56:15.1Z</time>
      </trkpt>
      <trkpt lat="44.39944" lon="6.38177">
        <ele>2008</ele>
        <time>2015-08-26T09:56:20.1Z</time>
      </trkpt>
      <trkpt lat="44.39943" lon="6.3818">
        <ele>2009</ele>
        <time>2015-08-26T09:56:25.1Z</time>
      </trkpt>
      <trkpt lat="44.39938" lon="6.38184">
        <ele>2010</ele>
        <time>2015-08-26T09:56:31.1Z</time>
      </trkpt>
      <trkpt lat="44.39933" lon="6.38187">
        <ele>2011</ele>
        <time>2015-08-26T09:56:37.1Z</time>
      </trkpt>
      <trkpt lat="44.39929" lon="6.38189">
        <ele>2012</ele>
        <time>2015-08-26T09:56:43.1Z</time>
      </trkpt>
      <trkpt lat="44.39925" lon="6.38193">
        <ele>2012</ele>
        <time>2015-08-26T09:56:49.1Z</time>
      </trkpt>
      <trkpt lat="44.39922" lon="6.38197">
        <ele>2013</ele>
        <time>2015-08-26T09:56:54.1Z</time>
      </trkpt>
      <trkpt lat="44.39919" lon="6.38201">
        <ele>2014</ele>
        <time>2015-08-26T09:56:59.1Z</time>
      </trkpt>
      <trkpt lat="44.39916" lon="6.38206">
        <ele>2015</ele>
        <time>2015-08-26T09:57:05.1Z</time>
      </trkpt>
      <trkpt lat="44.39914" lon="6.38208">
        <ele>2016</ele>
        <time>2015-08-26T09:57:10.1Z</time>
      </trkpt>
      <trkpt lat="44.39911" lon="6.38209">
        <ele>2017</ele>
        <time>2015-08-26T09:57:16.1Z</time>
      </trkpt>
      <trkpt lat="44.39908" lon="6.38213">
        <ele>2017</ele>
        <time>2015-08-26T09:57:21.1Z</time>
      </trkpt>
      <trkpt lat="44.39905" lon="6.38216">
        <ele>2018</ele>
        <time>2015-08-26T09:57:26.1Z</time>
      </trkpt>
      <trkpt lat="44.39901" lon="6.3822">
        <ele>2019</ele>
        <time>2015-08-26T09:57:32.1Z</time>
      </trkpt>
      <trkpt lat="44.39898" lon="6.38225">
        <ele>2020</ele>
        <time>2015-08-26T09:57:37.1Z</time>
      </trkpt>
      <trkpt lat="44.39895" lon="6.38231">
        <ele>2021</ele>
        <time>2015-08-26T09:57:44.1Z</time>
      </trkpt>
      <trkpt lat="44.39892" lon="6.38237">
        <ele>2021</ele>
        <time>2015-08-26T09:57:49.1Z</time>
      </trkpt>
      <trkpt lat="44.3989" lon="6.38242">
        <ele>2022</ele>
        <time>2015-08-26T09:57:55.1Z</time>
      </trkpt>
      <trkpt lat="44.39888" lon="6.38246">
        <ele>2023</ele>
        <time>2015-08-26T09:58:00.1Z</time>
      </trkpt>
      <trkpt lat="44.39886" lon="6.3825">
        <ele>2024</ele>
        <time>2015-08-26T09:58:05.1Z</time>
      </trkpt>
      <trkpt lat="44.39883" lon="6.38253">
        <ele>2025</ele>
        <time>2015-08-26T09:58:10.1Z</time>
      </trkpt>
      <trkpt lat="44.3988" lon="6.38256">
        <ele>2026</ele>
        <time>2015-08-26T09:58:16.1Z</time>
      </trkpt>
      <trkpt lat="44.39876" lon="6.38259">
        <ele>2026</ele>
        <time>2015-08-26T09:58:22.1Z</time>
      </trkpt>
      <trkpt lat="44.39874" lon="6.38263">
        <ele>2027</ele>
        <time>2015-08-26T09:58:27.1Z</time>
      </trkpt>
      <trkpt lat="44.39871" lon="6.38267">
        <ele>2028</ele>
        <time>2015-08-26T09:58:32.1Z</time>
      </trkpt>
      <trkpt lat="44.39869" lon="6.38272">
        <ele>2029</ele>
        <time>2015-08-26T09:58:37.1Z</time>
      </trkpt>
      <trkpt lat="44.39867" lon="6.38275">
        <ele>2030</ele>
        <time>2015-08-26T09:58:43.1Z</time>
      </trkpt>
      <trkpt lat="44.39864" lon="6.38276">
        <ele>2031</ele>
        <time>2015-08-26T09:58:49.1Z</time>
      </trkpt>
      <trkpt lat="44.3986" lon="6.38277">
        <ele>2032</ele>
        <time>2015-08-26T09:58:55.1Z</time>
      </trkpt>
      <trkpt lat="44.39857" lon="6.3828">
        <ele>2033</ele>
        <time>2015-08-26T09:59:01.1Z</time>
      </trkpt>
      <trkpt lat="44.39852" lon="6.38282">
        <ele>2033</ele>
        <time>2015-08-26T09:59:07.1Z</time>
      </trkpt>
      <trkpt lat="44.39851" lon="6.38284">
        <ele>2034</ele>
        <time>2015-08-26T09:59:12.1Z</time>
      </trkpt>
      <trkpt lat="44.39848" lon="6.38288">
        <ele>2035</ele>
        <time>2015-08-26T09:59:17.1Z</time>
      </trkpt>
      <trkpt lat="44.39845" lon="6.38292">
        <ele>2036</ele>
        <time>2015-08-26T09:59:23.1Z</time>
      </trkpt>
      <trkpt lat="44.39841" lon="6.38297">
        <ele>2037</ele>
        <time>2015-08-26T09:59:29.1Z</time>
      </trkpt>
      <trkpt lat="44.39838" lon="6.38302">
        <ele>2037</ele>
        <time>2015-08-26T09:59:35.1Z</time>
      </trkpt>
      <trkpt lat="44.39836" lon="6.38307">
        <ele>2038</ele>
        <time>2015-08-26T09:59:41.1Z</time>
      </trkpt>
      <trkpt lat="44.39834" lon="6.38313">
        <ele>2039</ele>
        <time>2015-08-26T09:59:47.1Z</time>
      </trkpt>
      <trkpt lat="44.39832" lon="6.38316">
        <ele>2040</ele>
        <time>2015-08-26T09:59:52.1Z</time>
      </trkpt>
      <trkpt lat="44.39828" lon="6.38318">
        <ele>2041</ele>
        <time>2015-08-26T09:59:58.1Z</time>
      </trkpt>
      <trkpt lat="44.39823" lon="6.38319">
        <ele>2042</ele>
        <time>2015-08-26T10:00:04.1Z</time>
      </trkpt>
      <trkpt lat="44.39819" lon="6.38319">
        <ele>2043</ele>
        <time>2015-08-26T10:00:09.1Z</time>
      </trkpt>
      <trkpt lat="44.39814" lon="6.3832">
        <ele>2043</ele>
        <time>2015-08-26T10:00:15.1Z</time>
      </trkpt>
      <trkpt lat="44.3981" lon="6.3832">
        <ele>2044</ele>
        <time>2015-08-26T10:00:20.1Z</time>
      </trkpt>
      <trkpt lat="44.39807" lon="6.38321">
        <ele>2045</ele>
        <time>2015-08-26T10:00:25.1Z</time>
      </trkpt>
      <trkpt lat="44.39803" lon="6.38323">
        <ele>2045</ele>
        <time>2015-08-26T10:00:31.1Z</time>
      </trkpt>
      <trkpt lat="44.398" lon="6.38324">
        <ele>2047</ele>
        <time>2015-08-26T10:00:37.1Z</time>
      </trkpt>
      <trkpt lat="44.39797" lon="6.38327">
        <ele>2048</ele>
        <time>2015-08-26T10:00:42.1Z</time>
      </trkpt>
      <trkpt lat="44.39796" lon="6.3833">
        <ele>2049</ele>
        <time>2015-08-26T10:00:48.1Z</time>
      </trkpt>
      <trkpt lat="44.39793" lon="6.38332">
        <ele>2049</ele>
        <time>2015-08-26T10:00:53.1Z</time>
      </trkpt>
      <trkpt lat="44.3979" lon="6.38335">
        <ele>2050</ele>
        <time>2015-08-26T10:00:59.1Z</time>
      </trkpt>
      <trkpt lat="44.39786" lon="6.38337">
        <ele>2051</ele>
        <time>2015-08-26T10:01:05.1Z</time>
      </trkpt>
      <trkpt lat="44.39781" lon="6.3834">
        <ele>2051</ele>
        <time>2015-08-26T10:01:11.1Z</time>
      </trkpt>
      <trkpt lat="44.39777" lon="6.38343">
        <ele>2052</ele>
        <time>2015-08-26T10:01:16.1Z</time>
      </trkpt>
      <trkpt lat="44.39774" lon="6.38347">
        <ele>2054</ele>
        <time>2015-08-26T10:01:22.1Z</time>
      </trkpt>
      <trkpt lat="44.39769" lon="6.3835">
        <ele>2054</ele>
        <time>2015-08-26T10:01:27.1Z</time>
      </trkpt>
      <trkpt lat="44.39765" lon="6.38353">
        <ele>2055</ele>
        <time>2015-08-26T10:01:33.1Z</time>
      </trkpt>
      <trkpt lat="44.39762" lon="6.38357">
        <ele>2056</ele>
        <time>2015-08-26T10:01:38.1Z</time>
      </trkpt>
      <trkpt lat="44.39759" lon="6.38359">
        <ele>2057</ele>
        <time>2015-08-26T10:01:44.1Z</time>
      </trkpt>
      <trkpt lat="44.39755" lon="6.38361">
        <ele>2058</ele>
        <time>2015-08-26T10:01:49.1Z</time>
      </trkpt>
      <trkpt lat="44.39752" lon="6.38364">
        <ele>2059</ele>
        <time>2015-08-26T10:01:54.1Z</time>
      </trkpt>
      <trkpt lat="44.39749" lon="6.38367">
        <ele>2059</ele>
        <time>2015-08-26T10:01:59.1Z</time>
      </trkpt>
      <trkpt lat="44.39746" lon="6.3837">
        <ele>2059</ele>
        <time>2015-08-26T10:02:04.1Z</time>
      </trkpt>
      <trkpt lat="44.39742" lon="6.38374">
        <ele>2061</ele>
        <time>2015-08-26T10:02:10.1Z</time>
      </trkpt>
      <trkpt lat="44.39742" lon="6.38377">
        <ele>2061</ele>
        <time>2015-08-26T10:02:15.1Z</time>
      </trkpt>
      <trkpt lat="44.39743" lon="6.38378">
        <ele>2062</ele>
        <time>2015-08-26T10:02:21.1Z</time>
      </trkpt>
      <trkpt lat="44.39743" lon="6.38377">
        <ele>2063</ele>
        <time>2015-08-26T10:02:27.1Z</time>
      </trkpt>
      <trkpt lat="44.39742" lon="6.38376">
        <ele>2063</ele>
        <time>2015-08-26T10:02:32.1Z</time>
      </trkpt>
      <trkpt lat="44.3974" lon="6.38376">
        <ele>2063</ele>
        <time>2015-08-26T10:02:37.1Z</time>
      </trkpt>
      <trkpt lat="44.3974" lon="6.38376">
        <ele>2064</ele>
        <time>2015-08-26T10:02:43.1Z</time>
      </trkpt>
      <trkpt lat="44.3974" lon="6.38376">
        <ele>2064</ele>
        <time>2015-08-26T10:02:48.1Z</time>
      </trkpt>
      <trkpt lat="44.3974" lon="6.38377">
        <ele>2064</ele>
        <time>2015-08-26T10:02:53.1Z</time>
      </trkpt>
      <trkpt lat="44.3974" lon="6.38378">
        <ele>2064</ele>
        <time>2015-08-26T10:02:58.1Z</time>
      </trkpt>
      <trkpt lat="44.39743" lon="6.3838">
        <ele>2063</ele>
        <time>2015-08-26T10:03:04.1Z</time>
      </trkpt>
      <trkpt lat="44.39746" lon="6.3838">
        <ele>2064</ele>
        <time>2015-08-26T10:03:10.1Z</time>
      </trkpt>
      <trkpt lat="44.3975" lon="6.38378">
        <ele>2065</ele>
        <time>2015-08-26T10:03:16.1Z</time>
      </trkpt>
      <trkpt lat="44.39754" lon="6.38376">
        <ele>2066</ele>
        <time>2015-08-26T10:03:21.1Z</time>
      </trkpt>
      <trkpt lat="44.39756" lon="6.38374">
        <ele>2066</ele>
        <time>2015-08-26T10:03:26.1Z</time>
      </trkpt>
      <trkpt lat="44.39759" lon="6.38373">
        <ele>2067</ele>
        <time>2015-08-26T10:03:32.1Z</time>
      </trkpt>
      <trkpt lat="44.39763" lon="6.38375">
        <ele>2068</ele>
        <time>2015-08-26T10:03:37.1Z</time>
      </trkpt>
      <trkpt lat="44.39768" lon="6.38376">
        <ele>2068</ele>
        <time>2015-08-26T10:03:43.1Z</time>
      </trkpt>
      <trkpt lat="44.39772" lon="6.38377">
        <ele>2069</ele>
        <time>2015-08-26T10:03:49.1Z</time>
      </trkpt>
      <trkpt lat="44.39775" lon="6.38376">
        <ele>2070</ele>
        <time>2015-08-26T10:03:54.1Z</time>
      </trkpt>
      <trkpt lat="44.39778" lon="6.38377">
        <ele>2071</ele>
        <time>2015-08-26T10:03:59.1Z</time>
      </trkpt>
      <trkpt lat="44.39782" lon="6.38376">
        <ele>2072</ele>
        <time>2015-08-26T10:04:05.1Z</time>
      </trkpt>
      <trkpt lat="44.39787" lon="6.38376">
        <ele>2072</ele>
        <time>2015-08-26T10:04:11.1Z</time>
      </trkpt>
      <trkpt lat="44.39792" lon="6.38376">
        <ele>2074</ele>
        <time>2015-08-26T10:04:17.1Z</time>
      </trkpt>
      <trkpt lat="44.39796" lon="6.38374">
        <ele>2075</ele>
        <time>2015-08-26T10:04:23.1Z</time>
      </trkpt>
      <trkpt lat="44.398" lon="6.38371">
        <ele>2076</ele>
        <time>2015-08-26T10:04:29.1Z</time>
      </trkpt>
      <trkpt lat="44.39804" lon="6.38369">
        <ele>2076</ele>
        <time>2015-08-26T10:04:34.1Z</time>
      </trkpt>
      <trkpt lat="44.39808" lon="6.3837">
        <ele>2077</ele>
        <time>2015-08-26T10:04:39.1Z</time>
      </trkpt>
      <trkpt lat="44.39812" lon="6.38372">
        <ele>2078</ele>
        <time>2015-08-26T10:04:45.1Z</time>
      </trkpt>
      <trkpt lat="44.39816" lon="6.38375">
        <ele>2079</ele>
        <time>2015-08-26T10:04:50.1Z</time>
      </trkpt>
      <trkpt lat="44.3982" lon="6.38377">
        <ele>2079</ele>
        <time>2015-08-26T10:04:55.1Z</time>
      </trkpt>
      <trkpt lat="44.39826" lon="6.38379">
        <ele>2080</ele>
        <time>2015-08-26T10:05:01.1Z</time>
      </trkpt>
      <trkpt lat="44.39831" lon="6.38384">
        <ele>2081</ele>
        <time>2015-08-26T10:05:07.1Z</time>
      </trkpt>
      <trkpt lat="44.39835" lon="6.38389">
        <ele>2082</ele>
        <time>2015-08-26T10:05:12.1Z</time>
      </trkpt>
      <trkpt lat="44.3984" lon="6.38393">
        <ele>2083</ele>
        <time>2015-08-26T10:05:18.1Z</time>
      </trkpt>
      <trkpt lat="44.39844" lon="6.38391">
        <ele>2083</ele>
        <time>2015-08-26T10:05:24.1Z</time>
      </trkpt>
      <trkpt lat="44.39846" lon="6.3839">
        <ele>2083</ele>
        <time>2015-08-26T10:05:29.1Z</time>
      </trkpt>
      <trkpt lat="44.39849" lon="6.3839">
        <ele>2084</ele>
        <time>2015-08-26T10:05:34.1Z</time>
      </trkpt>
      <trkpt lat="44.39852" lon="6.38389">
        <ele>2085</ele>
        <time>2015-08-26T10:05:39.1Z</time>
      </trkpt>
      <trkpt lat="44.39855" lon="6.38388">
        <ele>2085</ele>
        <time>2015-08-26T10:05:44.1Z</time>
      </trkpt>
      <trkpt lat="44.39857" lon="6.38388">
        <ele>2086</ele>
        <time>2015-08-26T10:05:50.1Z</time>
      </trkpt>
      <trkpt lat="44.3986" lon="6.38387">
        <ele>2087</ele>
        <time>2015-08-26T10:05:55.1Z</time>
      </trkpt>
      <trkpt lat="44.39864" lon="6.38387">
        <ele>2088</ele>
        <time>2015-08-26T10:06:01.1Z</time>
      </trkpt>
      <trkpt lat="44.39869" lon="6.38387">
        <ele>2089</ele>
        <time>2015-08-26T10:06:07.1Z</time>
      </trkpt>
      <trkpt lat="44.39872" lon="6.38388">
        <ele>2090</ele>
        <time>2015-08-26T10:06:12.1Z</time>
      </trkpt>
      <trkpt lat="44.39875" lon="6.38388">
        <ele>2091</ele>
        <time>2015-08-26T10:06:17.1Z</time>
      </trkpt>
      <trkpt lat="44.39878" lon="6.38387">
        <ele>2091</ele>
        <time>2015-08-26T10:06:22.1Z</time>
      </trkpt>
      <trkpt lat="44.39882" lon="6.38387">
        <ele>2092</ele>
        <time>2015-08-26T10:06:27.1Z</time>
      </trkpt>
      <trkpt lat="44.39885" lon="6.38387">
        <ele>2093</ele>
        <time>2015-08-26T10:06:32.1Z</time>
      </trkpt>
      <trkpt lat="44.3989" lon="6.38388">
        <ele>2094</ele>
        <time>2015-08-26T10:06:38.1Z</time>
      </trkpt>
      <trkpt lat="44.39895" lon="6.38387">
        <ele>2095</ele>
        <time>2015-08-26T10:06:44.1Z</time>
      </trkpt>
      <trkpt lat="44.39899" lon="6.38386">
        <ele>2095</ele>
        <time>2015-08-26T10:06:50.1Z</time>
      </trkpt>
      <trkpt lat="44.39904" lon="6.38385">
        <ele>2096</ele>
        <time>2015-08-26T10:06:56.1Z</time>
      </trkpt>
      <trkpt lat="44.39907" lon="6.38385">
        <ele>2097</ele>
        <time>2015-08-26T10:07:01.1Z</time>
      </trkpt>
      <trkpt lat="44.39912" lon="6.38386">
        <ele>2098</ele>
        <time>2015-08-26T10:07:07.1Z</time>
      </trkpt>
      <trkpt lat="44.39915" lon="6.38387">
        <ele>2099</ele>
        <time>2015-08-26T10:07:13.1Z</time>
      </trkpt>
      <trkpt lat="44.39919" lon="6.38387">
        <ele>2100</ele>
        <time>2015-08-26T10:07:18.1Z</time>
      </trkpt>
      <trkpt lat="44.39923" lon="6.38387">
        <ele>2101</ele>
        <time>2015-08-26T10:07:24.1Z</time>
      </trkpt>
      <trkpt lat="44.39926" lon="6.38386">
        <ele>2102</ele>
        <time>2015-08-26T10:07:29.1Z</time>
      </trkpt>
      <trkpt lat="44.39929" lon="6.38387">
        <ele>2103</ele>
        <time>2015-08-26T10:07:34.1Z</time>
      </trkpt>
      <trkpt lat="44.39933" lon="6.38387">
        <ele>2104</ele>
        <time>2015-08-26T10:07:39.1Z</time>
      </trkpt>
      <trkpt lat="44.39937" lon="6.38387">
        <ele>2104</ele>
        <time>2015-08-26T10:07:45.1Z</time>
      </trkpt>
      <trkpt lat="44.39941" lon="6.38388">
        <ele>2105</ele>
        <time>2015-08-26T10:07:51.1Z</time>
      </trkpt>
      <trkpt lat="44.39944" lon="6.38387">
        <ele>2106</ele>
        <time>2015-08-26T10:07:56.1Z</time>
      </trkpt>
      <trkpt lat="44.39949" lon="6.38387">
        <ele>2107</ele>
        <time>2015-08-26T10:08:02.1Z</time>
      </trkpt>
      <trkpt lat="44.39952" lon="6.38387">
        <ele>2108</ele>
        <time>2015-08-26T10:08:07.1Z</time>
      </trkpt>
      <trkpt lat="44.39957" lon="6.38387">
        <ele>2109</ele>
        <time>2015-08-26T10:08:13.1Z</time>
      </trkpt>
      <trkpt lat="44.3996" lon="6.38388">
        <ele>2110</ele>
        <time>2015-08-26T10:08:18.1Z</time>
      </trkpt>
      <trkpt lat="44.39961" lon="6.38388">
        <ele>2110</ele>
        <time>2015-08-26T10:08:23.1Z</time>
      </trkpt>
      <trkpt lat="44.39962" lon="6.38389">
        <ele>2109</ele>
        <time>2015-08-26T10:08:29.1Z</time>
      </trkpt>
      <trkpt lat="44.39962" lon="6.38389">
        <ele>2110</ele>
        <time>2015-08-26T10:08:34.1Z</time>
      </trkpt>
      <trkpt lat="44.39962" lon="6.38389">
        <ele>2110</ele>
        <time>2015-08-26T10:08:40.1Z</time>
      </trkpt>
      <trkpt lat="44.39964" lon="6.38389">
        <ele>2110</ele>
        <time>2015-08-26T10:08:46.1Z</time>
      </trkpt>
      <trkpt lat="44.39965" lon="6.38389">
        <ele>2110</ele>
        <time>2015-08-26T10:08:52.1Z</time>
      </trkpt>
      <trkpt lat="44.39966" lon="6.3839">
        <ele>2111</ele>
        <time>2015-08-26T10:08:57.1Z</time>
      </trkpt>
      <trkpt lat="44.39966" lon="6.3839">
        <ele>2111</ele>
        <time>2015-08-26T10:09:05.1Z</time>
      </trkpt>
      <trkpt lat="44.39967" lon="6.3839">
        <ele>2111</ele>
        <time>2015-08-26T10:09:11.1Z</time>
      </trkpt>
      <trkpt lat="44.39968" lon="6.3839">
        <ele>2111</ele>
        <time>2015-08-26T10:09:16.1Z</time>
      </trkpt>
      <trkpt lat="44.39969" lon="6.38392">
        <ele>2111</ele>
        <time>2015-08-26T10:09:22.1Z</time>
      </trkpt>
      <trkpt lat="44.3997" lon="6.38393">
        <ele>2110</ele>
        <time>2015-08-26T10:09:28.1Z</time>
      </trkpt>
      <trkpt lat="44.39971" lon="6.38393">
        <ele>2111</ele>
        <time>2015-08-26T10:09:33.1Z</time>
      </trkpt>
      <trkpt lat="44.39975" lon="6.38393">
        <ele>2111</ele>
        <time>2015-08-26T10:09:39.1Z</time>
      </trkpt>
      <trkpt lat="44.39977" lon="6.38392">
        <ele>2113</ele>
        <time>2015-08-26T10:09:45.1Z</time>
      </trkpt>
      <trkpt lat="44.3998" lon="6.38392">
        <ele>2113</ele>
        <time>2015-08-26T10:09:51.1Z</time>
      </trkpt>
      <trkpt lat="44.39983" lon="6.38391">
        <ele>2115</ele>
        <time>2015-08-26T10:09:56.1Z</time>
      </trkpt>
      <trkpt lat="44.39986" lon="6.3839">
        <ele>2115</ele>
        <time>2015-08-26T10:10:01.1Z</time>
      </trkpt>
      <trkpt lat="44.39989" lon="6.38389">
        <ele>2116</ele>
        <time>2015-08-26T10:10:06.1Z</time>
      </trkpt>
      <trkpt lat="44.39991" lon="6.38389">
        <ele>2117</ele>
        <time>2015-08-26T10:10:13.1Z</time>
      </trkpt>
      <trkpt lat="44.39993" lon="6.38391">
        <ele>2117</ele>
        <time>2015-08-26T10:10:19.1Z</time>
      </trkpt>
      <trkpt lat="44.39994" lon="6.38391">
        <ele>2117</ele>
        <time>2015-08-26T10:10:25.1Z</time>
      </trkpt>
      <trkpt lat="44.39997" lon="6.38391">
        <ele>2117</ele>
        <time>2015-08-26T10:10:30.1Z</time>
      </trkpt>
      <trkpt lat="44.4" lon="6.38391">
        <ele>2118</ele>
        <time>2015-08-26T10:10:35.1Z</time>
      </trkpt>
      <trkpt lat="44.40004" lon="6.3839">
        <ele>2119</ele>
        <time>2015-08-26T10:10:40.1Z</time>
      </trkpt>
      <trkpt lat="44.40008" lon="6.38388">
        <ele>2120</ele>
        <time>2015-08-26T10:10:46.1Z</time>
      </trkpt>
      <trkpt lat="44.40011" lon="6.38388">
        <ele>2121</ele>
        <time>2015-08-26T10:10:51.1Z</time>
      </trkpt>
      <trkpt lat="44.40014" lon="6.38386">
        <ele>2122</ele>
        <time>2015-08-26T10:10:57.1Z</time>
      </trkpt>
      <trkpt lat="44.40017" lon="6.38386">
        <ele>2122</ele>
        <time>2015-08-26T10:11:02.1Z</time>
      </trkpt>
      <trkpt lat="44.4002" lon="6.38385">
        <ele>2123</ele>
        <time>2015-08-26T10:11:07.1Z</time>
      </trkpt>
      <trkpt lat="44.40023" lon="6.38383">
        <ele>2124</ele>
        <time>2015-08-26T10:11:13.1Z</time>
      </trkpt>
      <trkpt lat="44.40027" lon="6.38382">
        <ele>2125</ele>
        <time>2015-08-26T10:11:19.1Z</time>
      </trkpt>
      <trkpt lat="44.40031" lon="6.38381">
        <ele>2126</ele>
        <time>2015-08-26T10:11:25.1Z</time>
      </trkpt>
      <trkpt lat="44.40034" lon="6.3838">
        <ele>2127</ele>
        <time>2015-08-26T10:11:30.1Z</time>
      </trkpt>
      <trkpt lat="44.40039" lon="6.38381">
        <ele>2127</ele>
        <time>2015-08-26T10:11:36.1Z</time>
      </trkpt>
      <trkpt lat="44.40042" lon="6.38382">
        <ele>2128</ele>
        <time>2015-08-26T10:11:41.1Z</time>
      </trkpt>
      <trkpt lat="44.40046" lon="6.38383">
        <ele>2129</ele>
        <time>2015-08-26T10:11:46.1Z</time>
      </trkpt>
      <trkpt lat="44.40048" lon="6.38383">
        <ele>2130</ele>
        <time>2015-08-26T10:11:52.1Z</time>
      </trkpt>
      <trkpt lat="44.40051" lon="6.38385">
        <ele>2130</ele>
        <time>2015-08-26T10:11:57.1Z</time>
      </trkpt>
      <trkpt lat="44.40055" lon="6.38385">
        <ele>2131</ele>
        <time>2015-08-26T10:12:03.1Z</time>
      </trkpt>
      <trkpt lat="44.40058" lon="6.38384">
        <ele>2132</ele>
        <time>2015-08-26T10:12:08.1Z</time>
      </trkpt>
      <trkpt lat="44.40062" lon="6.38382">
        <ele>2132</ele>
        <time>2015-08-26T10:12:14.1Z</time>
      </trkpt>
      <trkpt lat="44.40065" lon="6.38381">
        <ele>2132</ele>
        <time>2015-08-26T10:12:19.1Z</time>
      </trkpt>
      <trkpt lat="44.40067" lon="6.3838">
        <ele>2134</ele>
        <time>2015-08-26T10:12:24.1Z</time>
      </trkpt>
      <trkpt lat="44.4007" lon="6.3838">
        <ele>2133</ele>
        <time>2015-08-26T10:12:30.1Z</time>
      </trkpt>
      <trkpt lat="44.40073" lon="6.3838">
        <ele>2135</ele>
        <time>2015-08-26T10:12:35.1Z</time>
      </trkpt>
      <trkpt lat="44.40077" lon="6.38379">
        <ele>2136</ele>
        <time>2015-08-26T10:12:40.1Z</time>
      </trkpt>
      <trkpt lat="44.4008" lon="6.38379">
        <ele>2137</ele>
        <time>2015-08-26T10:12:46.1Z</time>
      </trkpt>
      <trkpt lat="44.40083" lon="6.38379">
        <ele>2138</ele>
        <time>2015-08-26T10:12:51.1Z</time>
      </trkpt>
      <trkpt lat="44.40087" lon="6.38378">
        <ele>2138</ele>
        <time>2015-08-26T10:12:57.1Z</time>
      </trkpt>
      <trkpt lat="44.4009" lon="6.38378">
        <ele>2139</ele>
        <time>2015-08-26T10:13:02.1Z</time>
      </trkpt>
      <trkpt lat="44.40094" lon="6.38378">
        <ele>2140</ele>
        <time>2015-08-26T10:13:08.1Z</time>
      </trkpt>
      <trkpt lat="44.40097" lon="6.38377">
        <ele>2141</ele>
        <time>2015-08-26T10:13:13.1Z</time>
      </trkpt>
      <trkpt lat="44.40099" lon="6.38377">
        <ele>2142</ele>
        <time>2015-08-26T10:13:19.1Z</time>
      </trkpt>
      <trkpt lat="44.40102" lon="6.38376">
        <ele>2142</ele>
        <time>2015-08-26T10:13:25.1Z</time>
      </trkpt>
      <trkpt lat="44.40106" lon="6.38377">
        <ele>2143</ele>
        <time>2015-08-26T10:13:31.1Z</time>
      </trkpt>
      <trkpt lat="44.40109" lon="6.38378">
        <ele>2144</ele>
        <time>2015-08-26T10:13:37.1Z</time>
      </trkpt>
      <trkpt lat="44.40112" lon="6.38378">
        <ele>2144</ele>
        <time>2015-08-26T10:13:42.1Z</time>
      </trkpt>
      <trkpt lat="44.40115" lon="6.38378">
        <ele>2145</ele>
        <time>2015-08-26T10:13:48.1Z</time>
      </trkpt>
      <trkpt lat="44.40119" lon="6.38379">
        <ele>2146</ele>
        <time>2015-08-26T10:13:53.1Z</time>
      </trkpt>
      <trkpt lat="44.40122" lon="6.38378">
        <ele>2147</ele>
        <time>2015-08-26T10:13:59.1Z</time>
      </trkpt>
      <trkpt lat="44.40126" lon="6.38377">
        <ele>2148</ele>
        <time>2015-08-26T10:14:05.1Z</time>
      </trkpt>
      <trkpt lat="44.40128" lon="6.38376">
        <ele>2149</ele>
        <time>2015-08-26T10:14:10.1Z</time>
      </trkpt>
      <trkpt lat="44.40132" lon="6.38375">
        <ele>2149</ele>
        <time>2015-08-26T10:14:16.1Z</time>
      </trkpt>
      <trkpt lat="44.40136" lon="6.38373">
        <ele>2149</ele>
        <time>2015-08-26T10:14:21.1Z</time>
      </trkpt>
      <trkpt lat="44.40139" lon="6.38372">
        <ele>2150</ele>
        <time>2015-08-26T10:14:26.1Z</time>
      </trkpt>
      <trkpt lat="44.40143" lon="6.3837">
        <ele>2151</ele>
        <time>2015-08-26T10:14:32.1Z</time>
      </trkpt>
      <trkpt lat="44.40146" lon="6.3837">
        <ele>2152</ele>
        <time>2015-08-26T10:14:37.1Z</time>
      </trkpt>
      <trkpt lat="44.40149" lon="6.3837">
        <ele>2153</ele>
        <time>2015-08-26T10:14:43.1Z</time>
      </trkpt>
      <trkpt lat="44.40152" lon="6.38369">
        <ele>2154</ele>
        <time>2015-08-26T10:14:48.1Z</time>
      </trkpt>
      <trkpt lat="44.40156" lon="6.38366">
        <ele>2155</ele>
        <time>2015-08-26T10:14:53.1Z</time>
      </trkpt>
      <trkpt lat="44.4016" lon="6.38365">
        <ele>2155</ele>
        <time>2015-08-26T10:14:59.1Z</time>
      </trkpt>
      <trkpt lat="44.40163" lon="6.38365">
        <ele>2156</ele>
        <time>2015-08-26T10:15:05.1Z</time>
      </trkpt>
      <trkpt lat="44.40167" lon="6.38364">
        <ele>2157</ele>
        <time>2015-08-26T10:15:10.1Z</time>
      </trkpt>
      <trkpt lat="44.4017" lon="6.38364">
        <ele>2158</ele>
        <time>2015-08-26T10:15:15.1Z</time>
      </trkpt>
      <trkpt lat="44.40174" lon="6.38363">
        <ele>2159</ele>
        <time>2015-08-26T10:15:21.1Z</time>
      </trkpt>
      <trkpt lat="44.40177" lon="6.38362">
        <ele>2159</ele>
        <time>2015-08-26T10:15:27.1Z</time>
      </trkpt>
      <trkpt lat="44.40179" lon="6.38361">
        <ele>2160</ele>
        <time>2015-08-26T10:15:32.1Z</time>
      </trkpt>
      <trkpt lat="44.40182" lon="6.38359">
        <ele>2161</ele>
        <time>2015-08-26T10:15:38.1Z</time>
      </trkpt>
      <trkpt lat="44.40185" lon="6.3836">
        <ele>2161</ele>
        <time>2015-08-26T10:15:44.1Z</time>
      </trkpt>
      <trkpt lat="44.40189" lon="6.3836">
        <ele>2162</ele>
        <time>2015-08-26T10:15:50.1Z</time>
      </trkpt>
      <trkpt lat="44.40193" lon="6.38361">
        <ele>2162</ele>
        <time>2015-08-26T10:15:55.1Z</time>
      </trkpt>
      <trkpt lat="44.40196" lon="6.38359">
        <ele>2163</ele>
        <time>2015-08-26T10:16:00.1Z</time>
      </trkpt>
      <trkpt lat="44.402" lon="6.38358">
        <ele>2164</ele>
        <time>2015-08-26T10:16:06.1Z</time>
      </trkpt>
      <trkpt lat="44.40204" lon="6.38358">
        <ele>2165</ele>
        <time>2015-08-26T10:16:11.1Z</time>
      </trkpt>
      <trkpt lat="44.40207" lon="6.38358">
        <ele>2166</ele>
        <time>2015-08-26T10:16:16.1Z</time>
      </trkpt>
      <trkpt lat="44.40211" lon="6.3836">
        <ele>2166</ele>
        <time>2015-08-26T10:16:22.1Z</time>
      </trkpt>
      <trkpt lat="44.40215" lon="6.38361">
        <ele>2167</ele>
        <time>2015-08-26T10:16:28.1Z</time>
      </trkpt>
      <trkpt lat="44.40218" lon="6.38363">
        <ele>2169</ele>
        <time>2015-08-26T10:16:33.1Z</time>
      </trkpt>
      <trkpt lat="44.40221" lon="6.38364">
        <ele>2169</ele>
        <time>2015-08-26T10:16:39.1Z</time>
      </trkpt>
      <trkpt lat="44.40223" lon="6.38366">
        <ele>2170</ele>
        <time>2015-08-26T10:16:44.1Z</time>
      </trkpt>
      <trkpt lat="44.40226" lon="6.38365">
        <ele>2170</ele>
        <time>2015-08-26T10:16:50.1Z</time>
      </trkpt>
      <trkpt lat="44.4023" lon="6.38364">
        <ele>2171</ele>
        <time>2015-08-26T10:16:55.1Z</time>
      </trkpt>
      <trkpt lat="44.40235" lon="6.38363">
        <ele>2172</ele>
        <time>2015-08-26T10:17:01.1Z</time>
      </trkpt>
      <trkpt lat="44.40239" lon="6.38363">
        <ele>2172</ele>
        <time>2015-08-26T10:17:07.1Z</time>
      </trkpt>
      <trkpt lat="44.40241" lon="6.38362">
        <ele>2173</ele>
        <time>2015-08-26T10:17:12.1Z</time>
      </trkpt>
      <trkpt lat="44.40245" lon="6.3836">
        <ele>2174</ele>
        <time>2015-08-26T10:17:17.1Z</time>
      </trkpt>
      <trkpt lat="44.40247" lon="6.38357">
        <ele>2174</ele>
        <time>2015-08-26T10:17:22.1Z</time>
      </trkpt>
      <trkpt lat="44.40249" lon="6.38353">
        <ele>2175</ele>
        <time>2015-08-26T10:17:27.1Z</time>
      </trkpt>
      <trkpt lat="44.40251" lon="6.38348">
        <ele>2176</ele>
        <time>2015-08-26T10:17:32.1Z</time>
      </trkpt>
      <trkpt lat="44.40254" lon="6.38345">
        <ele>2176</ele>
        <time>2015-08-26T10:17:37.1Z</time>
      </trkpt>
      <trkpt lat="44.40257" lon="6.38343">
        <ele>2177</ele>
        <time>2015-08-26T10:17:43.1Z</time>
      </trkpt>
      <trkpt lat="44.40261" lon="6.38341">
        <ele>2178</ele>
        <time>2015-08-26T10:17:49.1Z</time>
      </trkpt>
      <trkpt lat="44.40265" lon="6.3834">
        <ele>2179</ele>
        <time>2015-08-26T10:17:54.1Z</time>
      </trkpt>
      <trkpt lat="44.40269" lon="6.38338">
        <ele>2179</ele>
        <time>2015-08-26T10:18:00.1Z</time>
      </trkpt>
      <trkpt lat="44.40272" lon="6.38336">
        <ele>2180</ele>
        <time>2015-08-26T10:18:05.1Z</time>
      </trkpt>
      <trkpt lat="44.40275" lon="6.38334">
        <ele>2181</ele>
        <time>2015-08-26T10:18:11.1Z</time>
      </trkpt>
      <trkpt lat="44.40278" lon="6.38332">
        <ele>2183</ele>
        <time>2015-08-26T10:18:17.1Z</time>
      </trkpt>
      <trkpt lat="44.40281" lon="6.38332">
        <ele>2183</ele>
        <time>2015-08-26T10:18:23.1Z</time>
      </trkpt>
      <trkpt lat="44.40285" lon="6.38331">
        <ele>2184</ele>
        <time>2015-08-26T10:18:29.1Z</time>
      </trkpt>
      <trkpt lat="44.40288" lon="6.38329">
        <ele>2184</ele>
        <time>2015-08-26T10:18:34.1Z</time>
      </trkpt>
      <trkpt lat="44.40292" lon="6.38329">
        <ele>2185</ele>
        <time>2015-08-26T10:18:40.1Z</time>
      </trkpt>
      <trkpt lat="44.40295" lon="6.3833">
        <ele>2186</ele>
        <time>2015-08-26T10:18:45.1Z</time>
      </trkpt>
      <trkpt lat="44.40298" lon="6.38329">
        <ele>2187</ele>
        <time>2015-08-26T10:18:51.1Z</time>
      </trkpt>
      <trkpt lat="44.40301" lon="6.38328">
        <ele>2187</ele>
        <time>2015-08-26T10:18:56.1Z</time>
      </trkpt>
      <trkpt lat="44.40305" lon="6.38328">
        <ele>2189</ele>
        <time>2015-08-26T10:19:01.1Z</time>
      </trkpt>
      <trkpt lat="44.4031" lon="6.38326">
        <ele>2190</ele>
        <time>2015-08-26T10:19:07.1Z</time>
      </trkpt>
      <trkpt lat="44.40314" lon="6.38324">
        <ele>2190</ele>
        <time>2015-08-26T10:19:13.1Z</time>
      </trkpt>
      <trkpt lat="44.40318" lon="6.38323">
        <ele>2191</ele>
        <time>2015-08-26T10:19:19.1Z</time>
      </trkpt>
      <trkpt lat="44.40321" lon="6.38323">
        <ele>2192</ele>
        <time>2015-08-26T10:19:25.1Z</time>
      </trkpt>
      <trkpt lat="44.40324" lon="6.38322">
        <ele>2192</ele>
        <time>2015-08-26T10:19:30.1Z</time>
      </trkpt>
      <trkpt lat="44.40328" lon="6.38321">
        <ele>2193</ele>
        <time>2015-08-26T10:19:36.1Z</time>
      </trkpt>
      <trkpt lat="44.4033" lon="6.3832">
        <ele>2194</ele>
        <time>2015-08-26T10:19:41.1Z</time>
      </trkpt>
      <trkpt lat="44.40333" lon="6.3832">
        <ele>2194</ele>
        <time>2015-08-26T10:19:47.1Z</time>
      </trkpt>
      <trkpt lat="44.40335" lon="6.38322">
        <ele>2195</ele>
        <time>2015-08-26T10:19:52.1Z</time>
      </trkpt>
      <trkpt lat="44.40338" lon="6.38324">
        <ele>2197</ele>
        <time>2015-08-26T10:19:58.1Z</time>
      </trkpt>
      <trkpt lat="44.4034" lon="6.38325">
        <ele>2197</ele>
        <time>2015-08-26T10:20:04.1Z</time>
      </trkpt>
      <trkpt lat="44.40342" lon="6.38325">
        <ele>2198</ele>
        <time>2015-08-26T10:20:09.1Z</time>
      </trkpt>
      <trkpt lat="44.40344" lon="6.38323">
        <ele>2199</ele>
        <time>2015-08-26T10:20:14.1Z</time>
      </trkpt>
      <trkpt lat="44.40347" lon="6.3832">
        <ele>2200</ele>
        <time>2015-08-26T10:20:20.1Z</time>
      </trkpt>
      <trkpt lat="44.40351" lon="6.3832">
        <ele>2200</ele>
        <time>2015-08-26T10:20:25.1Z</time>
      </trkpt>
      <trkpt lat="44.40356" lon="6.38319">
        <ele>2201</ele>
        <time>2015-08-26T10:20:31.1Z</time>
      </trkpt>
      <trkpt lat="44.40359" lon="6.38318">
        <ele>2201</ele>
        <time>2015-08-26T10:20:36.1Z</time>
      </trkpt>
      <trkpt lat="44.40363" lon="6.38316">
        <ele>2202</ele>
        <time>2015-08-26T10:20:42.1Z</time>
      </trkpt>
      <trkpt lat="44.40368" lon="6.38314">
        <ele>2203</ele>
        <time>2015-08-26T10:20:48.1Z</time>
      </trkpt>
      <trkpt lat="44.4037" lon="6.38313">
        <ele>2204</ele>
        <time>2015-08-26T10:20:53.1Z</time>
      </trkpt>
      <trkpt lat="44.40374" lon="6.38311">
        <ele>2204</ele>
        <time>2015-08-26T10:20:59.1Z</time>
      </trkpt>
      <trkpt lat="44.40377" lon="6.3831">
        <ele>2205</ele>
        <time>2015-08-26T10:21:04.1Z</time>
      </trkpt>
      <trkpt lat="44.40381" lon="6.3831">
        <ele>2206</ele>
        <time>2015-08-26T10:21:10.1Z</time>
      </trkpt>
      <trkpt lat="44.40385" lon="6.38311">
        <ele>2206</ele>
        <time>2015-08-26T10:21:16.1Z</time>
      </trkpt>
      <trkpt lat="44.40389" lon="6.3831">
        <ele>2208</ele>
        <time>2015-08-26T10:21:22.1Z</time>
      </trkpt>
      <trkpt lat="44.40392" lon="6.38308">
        <ele>2208</ele>
        <time>2015-08-26T10:21:27.1Z</time>
      </trkpt>
      <trkpt lat="44.40395" lon="6.38306">
        <ele>2209</ele>
        <time>2015-08-26T10:21:33.1Z</time>
      </trkpt>
      <trkpt lat="44.40397" lon="6.38303">
        <ele>2210</ele>
        <time>2015-08-26T10:21:38.1Z</time>
      </trkpt>
      <trkpt lat="44.40398" lon="6.383">
        <ele>2211</ele>
        <time>2015-08-26T10:21:44.1Z</time>
      </trkpt>
      <trkpt lat="44.404" lon="6.38295">
        <ele>2211</ele>
        <time>2015-08-26T10:21:50.1Z</time>
      </trkpt>
      <trkpt lat="44.40402" lon="6.38293">
        <ele>2211</ele>
        <time>2015-08-26T10:21:55.1Z</time>
      </trkpt>
      <trkpt lat="44.40404" lon="6.3829">
        <ele>2212</ele>
        <time>2015-08-26T10:22:00.1Z</time>
      </trkpt>
      <trkpt lat="44.40407" lon="6.38287">
        <ele>2213</ele>
        <time>2015-08-26T10:22:05.1Z</time>
      </trkpt>
      <trkpt lat="44.40411" lon="6.38284">
        <ele>2214</ele>
        <time>2015-08-26T10:22:11.1Z</time>
      </trkpt>
      <trkpt lat="44.40414" lon="6.38282">
        <ele>2214</ele>
        <time>2015-08-26T10:22:16.1Z</time>
      </trkpt>
      <trkpt lat="44.40416" lon="6.38278">
        <ele>2215</ele>
        <time>2015-08-26T10:22:22.1Z</time>
      </trkpt>
      <trkpt lat="44.40418" lon="6.38276">
        <ele>2216</ele>
        <time>2015-08-26T10:22:27.1Z</time>
      </trkpt>
      <trkpt lat="44.40421" lon="6.38276">
        <ele>2216</ele>
        <time>2015-08-26T10:22:32.1Z</time>
      </trkpt>
      <trkpt lat="44.40424" lon="6.38274">
        <ele>2217</ele>
        <time>2015-08-26T10:22:37.1Z</time>
      </trkpt>
      <trkpt lat="44.40425" lon="6.38274">
        <ele>2218</ele>
        <time>2015-08-26T10:22:44.1Z</time>
      </trkpt>
      <trkpt lat="44.40427" lon="6.38275">
        <ele>2217</ele>
        <time>2015-08-26T10:22:49.1Z</time>
      </trkpt>
      <trkpt lat="44.40432" lon="6.38275">
        <ele>2217</ele>
        <time>2015-08-26T10:22:55.1Z</time>
      </trkpt>
      <trkpt lat="44.40436" lon="6.38274">
        <ele>2218</ele>
        <time>2015-08-26T10:23:01.1Z</time>
      </trkpt>
      <trkpt lat="44.40439" lon="6.38272">
        <ele>2219</ele>
        <time>2015-08-26T10:23:06.1Z</time>
      </trkpt>
      <trkpt lat="44.40443" lon="6.38269">
        <ele>2220</ele>
        <time>2015-08-26T10:23:11.1Z</time>
      </trkpt>
      <trkpt lat="44.40446" lon="6.38266">
        <ele>2220</ele>
        <time>2015-08-26T10:23:17.1Z</time>
      </trkpt>
      <trkpt lat="44.4045" lon="6.38263">
        <ele>2220</ele>
        <time>2015-08-26T10:23:23.1Z</time>
      </trkpt>
      <trkpt lat="44.40454" lon="6.38261">
        <ele>2221</ele>
        <time>2015-08-26T10:23:28.1Z</time>
      </trkpt>
      <trkpt lat="44.40458" lon="6.3826">
        <ele>2222</ele>
        <time>2015-08-26T10:23:33.1Z</time>
      </trkpt>
      <trkpt lat="44.40462" lon="6.3826">
        <ele>2222</ele>
        <time>2015-08-26T10:23:39.1Z</time>
      </trkpt>
      <trkpt lat="44.40467" lon="6.38261">
        <ele>2223</ele>
        <time>2015-08-26T10:23:45.1Z</time>
      </trkpt>
      <trkpt lat="44.4047" lon="6.3826">
        <ele>2223</ele>
        <time>2015-08-26T10:23:50.1Z</time>
      </trkpt>
      <trkpt lat="44.40474" lon="6.3826">
        <ele>2224</ele>
        <time>2015-08-26T10:23:55.1Z</time>
      </trkpt>
      <trkpt lat="44.40478" lon="6.38259">
        <ele>2225</ele>
        <time>2015-08-26T10:24:00.1Z</time>
      </trkpt>
      <trkpt lat="44.40482" lon="6.38257">
        <ele>2225</ele>
        <time>2015-08-26T10:24:05.1Z</time>
      </trkpt>
      <trkpt lat="44.40485" lon="6.38253">
        <ele>2226</ele>
        <time>2015-08-26T10:24:10.1Z</time>
      </trkpt>
      <trkpt lat="44.40489" lon="6.38247">
        <ele>2227</ele>
        <time>2015-08-26T10:24:16.1Z</time>
      </trkpt>
      <trkpt lat="44.40493" lon="6.38242">
        <ele>2227</ele>
        <time>2015-08-26T10:24:22.1Z</time>
      </trkpt>
      <trkpt lat="44.40496" lon="6.38239">
        <ele>2228</ele>
        <time>2015-08-26T10:24:27.1Z</time>
      </trkpt>
      <trkpt lat="44.40501" lon="6.38239">
        <ele>2228</ele>
        <time>2015-08-26T10:24:33.1Z</time>
      </trkpt>
      <trkpt lat="44.40506" lon="6.38241">
        <ele>2229</ele>
        <time>2015-08-26T10:24:39.1Z</time>
      </trkpt>
      <trkpt lat="44.4051" lon="6.38243">
        <ele>2230</ele>
        <time>2015-08-26T10:24:44.1Z</time>
      </trkpt>
      <trkpt lat="44.40515" lon="6.38242">
        <ele>2230</ele>
        <time>2015-08-26T10:24:50.1Z</time>
      </trkpt>
      <trkpt lat="44.40519" lon="6.38242">
        <ele>2230</ele>
        <time>2015-08-26T10:24:55.1Z</time>
      </trkpt>
      <trkpt lat="44.40523" lon="6.38239">
        <ele>2231</ele>
        <time>2015-08-26T10:25:00.1Z</time>
      </trkpt>
      <trkpt lat="44.40527" lon="6.38238">
        <ele>2231</ele>
        <time>2015-08-26T10:25:05.1Z</time>
      </trkpt>
      <trkpt lat="44.40531" lon="6.38237">
        <ele>2232</ele>
        <time>2015-08-26T10:25:10.1Z</time>
      </trkpt>
      <trkpt lat="44.40535" lon="6.38236">
        <ele>2232</ele>
        <time>2015-08-26T10:25:15.1Z</time>
      </trkpt>
      <trkpt lat="44.40539" lon="6.38237">
        <ele>2233</ele>
        <time>2015-08-26T10:25:21.1Z</time>
      </trkpt>
      <trkpt lat="44.40543" lon="6.38236">
        <ele>2234</ele>
        <time>2015-08-26T10:25:26.1Z</time>
      </trkpt>
      <trkpt lat="44.40546" lon="6.38234">
        <ele>2235</ele>
        <time>2015-08-26T10:25:32.1Z</time>
      </trkpt>
      <trkpt lat="44.40546" lon="6.38232">
        <ele>2235</ele>
        <time>2015-08-26T10:25:38.1Z</time>
      </trkpt>
      <trkpt lat="44.4055" lon="6.38232">
        <ele>2235</ele>
        <time>2015-08-26T10:25:44.1Z</time>
      </trkpt>
      <trkpt lat="44.40554" lon="6.38233">
        <ele>2236</ele>
        <time>2015-08-26T10:25:49.1Z</time>
      </trkpt>
      <trkpt lat="44.40558" lon="6.38237">
        <ele>2236</ele>
        <time>2015-08-26T10:25:54.1Z</time>
      </trkpt>
      <trkpt lat="44.40561" lon="6.38241">
        <ele>2237</ele>
        <time>2015-08-26T10:25:59.1Z</time>
      </trkpt>
      <trkpt lat="44.40566" lon="6.38241">
        <ele>2237</ele>
        <time>2015-08-26T10:26:04.1Z</time>
      </trkpt>
      <trkpt lat="44.4057" lon="6.38239">
        <ele>2238</ele>
        <time>2015-08-26T10:26:10.1Z</time>
      </trkpt>
      <trkpt lat="44.40574" lon="6.38236">
        <ele>2238</ele>
        <time>2015-08-26T10:26:15.1Z</time>
      </trkpt>
      <trkpt lat="44.40579" lon="6.38233">
        <ele>2239</ele>
        <time>2015-08-26T10:26:21.1Z</time>
      </trkpt>
      <trkpt lat="44.40582" lon="6.3823">
        <ele>2240</ele>
        <time>2015-08-26T10:26:26.1Z</time>
      </trkpt>
      <trkpt lat="44.40585" lon="6.38226">
        <ele>2240</ele>
        <time>2015-08-26T10:26:31.1Z</time>
      </trkpt>
      <trkpt lat="44.40589" lon="6.38224">
        <ele>2241</ele>
        <time>2015-08-26T10:26:37.1Z</time>
      </trkpt>
      <trkpt lat="44.40593" lon="6.38223">
        <ele>2242</ele>
        <time>2015-08-26T10:26:43.1Z</time>
      </trkpt>
      <trkpt lat="44.40598" lon="6.38222">
        <ele>2242</ele>
        <time>2015-08-26T10:26:49.1Z</time>
      </trkpt>
      <trkpt lat="44.40601" lon="6.3822">
        <ele>2243</ele>
        <time>2015-08-26T10:26:54.1Z</time>
      </trkpt>
      <trkpt lat="44.40605" lon="6.38218">
        <ele>2244</ele>
        <time>2015-08-26T10:26:59.1Z</time>
      </trkpt>
      <trkpt lat="44.4061" lon="6.38216">
        <ele>2244</ele>
        <time>2015-08-26T10:27:05.1Z</time>
      </trkpt>
      <trkpt lat="44.40614" lon="6.38215">
        <ele>2245</ele>
        <time>2015-08-26T10:27:11.1Z</time>
      </trkpt>
      <trkpt lat="44.40618" lon="6.38213">
        <ele>2245</ele>
        <time>2015-08-26T10:27:16.1Z</time>
      </trkpt>
      <trkpt lat="44.40622" lon="6.38213">
        <ele>2246</ele>
        <time>2015-08-26T10:27:21.1Z</time>
      </trkpt>
      <trkpt lat="44.40621" lon="6.38219">
        <ele>2246</ele>
        <time>2015-08-26T10:27:27.1Z</time>
      </trkpt>
      <trkpt lat="44.40618" lon="6.38222">
        <ele>2247</ele>
        <time>2015-08-26T10:27:32.1Z</time>
      </trkpt>
      <trkpt lat="44.40616" lon="6.38225">
        <ele>2248</ele>
        <time>2015-08-26T10:27:37.1Z</time>
      </trkpt>
      <trkpt lat="44.40613" lon="6.38228">
        <ele>2249</ele>
        <time>2015-08-26T10:27:43.1Z</time>
      </trkpt>
      <trkpt lat="44.40609" lon="6.38232">
        <ele>2250</ele>
        <time>2015-08-26T10:27:49.1Z</time>
      </trkpt>
      <trkpt lat="44.40607" lon="6.38235">
        <ele>2250</ele>
        <time>2015-08-26T10:27:55.1Z</time>
      </trkpt>
      <trkpt lat="44.40605" lon="6.38237">
        <ele>2251</ele>
        <time>2015-08-26T10:28:01.1Z</time>
      </trkpt>
      <trkpt lat="44.40604" lon="6.38239">
        <ele>2252</ele>
        <time>2015-08-26T10:28:06.1Z</time>
      </trkpt>
      <trkpt lat="44.40606" lon="6.38238">
        <ele>2252</ele>
        <time>2015-08-26T10:28:11.1Z</time>
      </trkpt>
      <trkpt lat="44.40609" lon="6.38236">
        <ele>2253</ele>
        <time>2015-08-26T10:28:17.1Z</time>
      </trkpt>
      <trkpt lat="44.40613" lon="6.38235">
        <ele>2253</ele>
        <time>2015-08-26T10:28:23.1Z</time>
      </trkpt>
      <trkpt lat="44.40617" lon="6.38234">
        <ele>2254</ele>
        <time>2015-08-26T10:28:28.1Z</time>
      </trkpt>
      <trkpt lat="44.4062" lon="6.38233">
        <ele>2254</ele>
        <time>2015-08-26T10:28:33.1Z</time>
      </trkpt>
      <trkpt lat="44.40625" lon="6.38231">
        <ele>2255</ele>
        <time>2015-08-26T10:28:39.1Z</time>
      </trkpt>
      <trkpt lat="44.40628" lon="6.3823">
        <ele>2255</ele>
        <time>2015-08-26T10:28:44.1Z</time>
      </trkpt>
      <trkpt lat="44.40631" lon="6.38229">
        <ele>2256</ele>
        <time>2015-08-26T10:28:49.1Z</time>
      </trkpt>
      <trkpt lat="44.40634" lon="6.38229">
        <ele>2256</ele>
        <time>2015-08-26T10:28:54.1Z</time>
      </trkpt>
      <trkpt lat="44.40631" lon="6.38233">
        <ele>2257</ele>
        <time>2015-08-26T10:29:00.1Z</time>
      </trkpt>
      <trkpt lat="44.40628" lon="6.38235">
        <ele>2258</ele>
        <time>2015-08-26T10:29:06.1Z</time>
      </trkpt>
      <trkpt lat="44.40626" lon="6.38236">
        <ele>2258</ele>
        <time>2015-08-26T10:29:12.1Z</time>
      </trkpt>
      <trkpt lat="44.40624" lon="6.38236">
        <ele>2259</ele>
        <time>2015-08-26T10:29:17.1Z</time>
      </trkpt>
      <trkpt lat="44.40624" lon="6.38236">
        <ele>2259</ele>
        <time>2015-08-26T10:29:23.1Z</time>
      </trkpt>
      <trkpt lat="44.40625" lon="6.38234">
        <ele>2259</ele>
        <time>2015-08-26T10:29:28.1Z</time>
      </trkpt>
      <trkpt lat="44.40625" lon="6.38235">
        <ele>2259</ele>
        <time>2015-08-26T10:29:34.1Z</time>
      </trkpt>
      <trkpt lat="44.40621" lon="6.38239">
        <ele>2259</ele>
        <time>2015-08-26T10:29:40.1Z</time>
      </trkpt>
      <trkpt lat="44.40618" lon="6.38243">
        <ele>2260</ele>
        <time>2015-08-26T10:29:46.1Z</time>
      </trkpt>
      <trkpt lat="44.40616" lon="6.38247">
        <ele>2261</ele>
        <time>2015-08-26T10:29:51.1Z</time>
      </trkpt>
      <trkpt lat="44.40617" lon="6.38251">
        <ele>2261</ele>
        <time>2015-08-26T10:29:56.1Z</time>
      </trkpt>
      <trkpt lat="44.40619" lon="6.38249">
        <ele>2261</ele>
        <time>2015-08-26T10:30:01.1Z</time>
      </trkpt>
      <trkpt lat="44.40621" lon="6.38246">
        <ele>2262</ele>
        <time>2015-08-26T10:30:07.1Z</time>
      </trkpt>
      <trkpt lat="44.40624" lon="6.38244">
        <ele>2263</ele>
        <time>2015-08-26T10:30:13.1Z</time>
      </trkpt>
      <trkpt lat="44.40627" lon="6.38242">
        <ele>2264</ele>
        <time>2015-08-26T10:30:18.1Z</time>
      </trkpt>
      <trkpt lat="44.40631" lon="6.38241">
        <ele>2265</ele>
        <time>2015-08-26T10:30:23.1Z</time>
      </trkpt>
      <trkpt lat="44.40636" lon="6.3824">
        <ele>2265</ele>
        <time>2015-08-26T10:30:29.1Z</time>
      </trkpt>
      <trkpt lat="44.4064" lon="6.38239">
        <ele>2266</ele>
        <time>2015-08-26T10:30:35.1Z</time>
      </trkpt>
      <trkpt lat="44.40643" lon="6.38235">
        <ele>2266</ele>
        <time>2015-08-26T10:30:41.1Z</time>
      </trkpt>
      <trkpt lat="44.40644" lon="6.38232">
        <ele>2266</ele>
        <time>2015-08-26T10:30:46.1Z</time>
      </trkpt>
      <trkpt lat="44.40647" lon="6.38228">
        <ele>2267</ele>
        <time>2015-08-26T10:30:52.1Z</time>
      </trkpt>
      <trkpt lat="44.40649" lon="6.38223">
        <ele>2267</ele>
        <time>2015-08-26T10:30:58.1Z</time>
      </trkpt>
      <trkpt lat="44.40652" lon="6.38219">
        <ele>2269</ele>
        <time>2015-08-26T10:31:04.1Z</time>
      </trkpt>
      <trkpt lat="44.40656" lon="6.38213">
        <ele>2269</ele>
        <time>2015-08-26T10:31:10.1Z</time>
      </trkpt>
      <trkpt lat="44.40659" lon="6.38209">
        <ele>2269</ele>
        <time>2015-08-26T10:31:15.1Z</time>
      </trkpt>
      <trkpt lat="44.40662" lon="6.38206">
        <ele>2270</ele>
        <time>2015-08-26T10:31:20.1Z</time>
      </trkpt>
      <trkpt lat="44.40666" lon="6.38205">
        <ele>2271</ele>
        <time>2015-08-26T10:31:26.1Z</time>
      </trkpt>
      <trkpt lat="44.40668" lon="6.38206">
        <ele>2271</ele>
        <time>2015-08-26T10:31:31.1Z</time>
      </trkpt>
      <trkpt lat="44.40667" lon="6.3821">
        <ele>2272</ele>
        <time>2015-08-26T10:31:37.1Z</time>
      </trkpt>
      <trkpt lat="44.40666" lon="6.38214">
        <ele>2272</ele>
        <time>2015-08-26T10:31:43.1Z</time>
      </trkpt>
      <trkpt lat="44.40666" lon="6.38216">
        <ele>2273</ele>
        <time>2015-08-26T10:31:48.1Z</time>
      </trkpt>
      <trkpt lat="44.40665" lon="6.38222">
        <ele>2273</ele>
        <time>2015-08-26T10:31:54.1Z</time>
      </trkpt>
      <trkpt lat="44.40664" lon="6.38226">
        <ele>2273</ele>
        <time>2015-08-26T10:31:59.1Z</time>
      </trkpt>
      <trkpt lat="44.40668" lon="6.38227">
        <ele>2274</ele>
        <time>2015-08-26T10:32:05.1Z</time>
      </trkpt>
      <trkpt lat="44.4067" lon="6.38225">
        <ele>2275</ele>
        <time>2015-08-26T10:32:11.1Z</time>
      </trkpt>
      <trkpt lat="44.40673" lon="6.38224">
        <ele>2276</ele>
        <time>2015-08-26T10:32:16.1Z</time>
      </trkpt>
      <trkpt lat="44.40676" lon="6.38225">
        <ele>2278</ele>
        <time>2015-08-26T10:32:21.1Z</time>
      </trkpt>
      <trkpt lat="44.4068" lon="6.38227">
        <ele>2279</ele>
        <time>2015-08-26T10:32:27.1Z</time>
      </trkpt>
      <trkpt lat="44.40683" lon="6.38228">
        <ele>2281</ele>
        <time>2015-08-26T10:32:33.1Z</time>
      </trkpt>
      <trkpt lat="44.40686" lon="6.38228">
        <ele>2283</ele>
        <time>2015-08-26T10:32:39.1Z</time>
      </trkpt>
      <trkpt lat="44.40687" lon="6.38229">
        <ele>2285</ele>
        <time>2015-08-26T10:32:44.1Z</time>
      </trkpt>
      <trkpt lat="44.40687" lon="6.38228">
        <ele>2286</ele>
        <time>2015-08-26T10:32:49.1Z</time>
      </trkpt>
      <trkpt lat="44.40688" lon="6.3823">
        <ele>2286</ele>
        <time>2015-08-26T10:32:54.1Z</time>
      </trkpt>
      <trkpt lat="44.40689" lon="6.38229">
        <ele>2286</ele>
        <time>2015-08-26T10:32:59.1Z</time>
      </trkpt>
      <trkpt lat="44.40689" lon="6.3823">
        <ele>2286</ele>
        <time>2015-08-26T10:33:06.1Z</time>
      </trkpt>
      <trkpt lat="44.40688" lon="6.38231">
        <ele>2286</ele>
        <time>2015-08-26T10:33:11.1Z</time>
      </trkpt>
      <trkpt lat="44.40687" lon="6.38232">
        <ele>2285</ele>
        <time>2015-08-26T10:33:17.1Z</time>
      </trkpt>
      <trkpt lat="44.40686" lon="6.38232">
        <ele>2286</ele>
        <time>2015-08-26T10:33:22.1Z</time>
      </trkpt>
      <trkpt lat="44.40686" lon="6.38232">
        <ele>2286</ele>
        <time>2015-08-26T10:33:27.1Z</time>
      </trkpt>
      <trkpt lat="44.40685" lon="6.38232">
        <ele>2286</ele>
        <time>2015-08-26T10:33:32.1Z</time>
      </trkpt>
      <trkpt lat="44.40685" lon="6.38231">
        <ele>2286</ele>
        <time>2015-08-26T10:33:38.1Z</time>
      </trkpt>
      <trkpt lat="44.40686" lon="6.38231">
        <ele>2286</ele>
        <time>2015-08-26T10:33:43.1Z</time>
      </trkpt>
      <trkpt lat="44.40686" lon="6.38232">
        <ele>2286</ele>
        <time>2015-08-26T10:33:52.1Z</time>
      </trkpt>
      <trkpt lat="44.40686" lon="6.38231">
        <ele>2286</ele>
        <time>2015-08-26T10:33:58.1Z</time>
      </trkpt>
      <trkpt lat="44.40686" lon="6.38231">
        <ele>2286</ele>
        <time>2015-08-26T10:34:04.1Z</time>
      </trkpt>
      <trkpt lat="44.40686" lon="6.38231">
        <ele>2286</ele>
        <time>2015-08-26T10:34:09.1Z</time>
      </trkpt>
      <trkpt lat="44.40686" lon="6.38231">
        <ele>2286</ele>
        <time>2015-08-26T10:34:14.1Z</time>
      </trkpt>
      <trkpt lat="44.40686" lon="6.38231">
        <ele>2286</ele>
        <time>2015-08-26T10:34:20.1Z</time>
      </trkpt>
      <trkpt lat="44.40686" lon="6.3823">
        <ele>2286</ele>
        <time>2015-08-26T10:34:25.1Z</time>
      </trkpt>
      <trkpt lat="44.40685" lon="6.38233">
        <ele>2286</ele>
        <time>2015-08-26T10:34:31.1Z</time>
      </trkpt>
      <trkpt lat="44.40684" lon="6.38233">
        <ele>2287</ele>
        <time>2015-08-26T10:34:39.1Z</time>
      </trkpt>
      <trkpt lat="44.40684" lon="6.38231">
        <ele>2286</ele>
        <time>2015-08-26T10:34:47.1Z</time>
      </trkpt>
      <trkpt lat="44.40685" lon="6.38232">
        <ele>2287</ele>
        <time>2015-08-26T10:34:53.1Z</time>
      </trkpt>
      <trkpt lat="44.40685" lon="6.38232">
        <ele>2287</ele>
        <time>2015-08-26T10:34:58.1Z</time>
      </trkpt>
      <trkpt lat="44.40685" lon="6.38232">
        <ele>2287</ele>
        <time>2015-08-26T10:35:04.1Z</time>
      </trkpt>
      <trkpt lat="44.40685" lon="6.38232">
        <ele>2287</ele>
        <time>2015-08-26T10:35:09.1Z</time>
      </trkpt>
      <trkpt lat="44.40686" lon="6.38233">
        <ele>2287</ele>
        <time>2015-08-26T10:35:14.1Z</time>
      </trkpt>
      <trkpt lat="44.40686" lon="6.38235">
        <ele>2287</ele>
        <time>2015-08-26T10:35:20.1Z</time>
      </trkpt>
      <trkpt lat="44.40686" lon="6.38235">
        <ele>2288</ele>
        <time>2015-08-26T10:35:26.1Z</time>
      </trkpt>
      <trkpt lat="44.40685" lon="6.38235">
        <ele>2287</ele>
        <time>2015-08-26T10:35:31.1Z</time>
      </trkpt>
      <trkpt lat="44.40684" lon="6.38235">
        <ele>2287</ele>
        <time>2015-08-26T10:35:37.1Z</time>
      </trkpt>
      <trkpt lat="44.40683" lon="6.38234">
        <ele>2287</ele>
        <time>2015-08-26T10:35:42.1Z</time>
      </trkpt>
      <trkpt lat="44.40683" lon="6.38234">
        <ele>2287</ele>
        <time>2015-08-26T10:35:47.1Z</time>
      </trkpt>
      <trkpt lat="44.40683" lon="6.38233">
        <ele>2287</ele>
        <time>2015-08-26T10:35:52.1Z</time>
      </trkpt>
      <trkpt lat="44.40683" lon="6.38232">
        <ele>2287</ele>
        <time>2015-08-26T10:35:58.1Z</time>
      </trkpt>
      <trkpt lat="44.40683" lon="6.38233">
        <ele>2287</ele>
        <time>2015-08-26T10:36:03.1Z</time>
      </trkpt>
      <trkpt lat="44.40683" lon="6.38234">
        <ele>2287</ele>
        <time>2015-08-26T10:36:09.1Z</time>
      </trkpt>
      <trkpt lat="44.40683" lon="6.38235">
        <ele>2287</ele>
        <time>2015-08-26T10:36:15.1Z</time>
      </trkpt>
      <trkpt lat="44.40683" lon="6.38235">
        <ele>2287</ele>
        <time>2015-08-26T10:36:20.1Z</time>
      </trkpt>
      <trkpt lat="44.40683" lon="6.38235">
        <ele>2287</ele>
        <time>2015-08-26T10:36:27.1Z</time>
      </trkpt>
      <trkpt lat="44.40682" lon="6.38235">
        <ele>2287</ele>
        <time>2015-08-26T10:36:33.1Z</time>
      </trkpt>
      <trkpt lat="44.40683" lon="6.38235">
        <ele>2286</ele>
        <time>2015-08-26T10:36:38.1Z</time>
      </trkpt>
      <trkpt lat="44.40684" lon="6.38233">
        <ele>2287</ele>
        <time>2015-08-26T10:36:43.1Z</time>
      </trkpt>
      <trkpt lat="44.40684" lon="6.38231">
        <ele>2287</ele>
        <time>2015-08-26T10:36:49.1Z</time>
      </trkpt>
      <trkpt lat="44.40684" lon="6.38232">
        <ele>2287</ele>
        <time>2015-08-26T10:36:56.1Z</time>
      </trkpt>
      <trkpt lat="44.40684" lon="6.38232">
        <ele>2287</ele>
        <time>2015-08-26T10:37:02.1Z</time>
      </trkpt>
      <trkpt lat="44.40684" lon="6.38232">
        <ele>2287</ele>
        <time>2015-08-26T10:37:07.1Z</time>
      </trkpt>
      <trkpt lat="44.40684" lon="6.38233">
        <ele>2287</ele>
        <time>2015-08-26T10:37:13.1Z</time>
      </trkpt>
      <trkpt lat="44.40685" lon="6.38234">
        <ele>2287</ele>
        <time>2015-08-26T10:37:19.1Z</time>
      </trkpt>
      <trkpt lat="44.40685" lon="6.38235">
        <ele>2287</ele>
        <time>2015-08-26T10:37:24.1Z</time>
      </trkpt>
      <trkpt lat="44.40685" lon="6.38235">
        <ele>2287</ele>
        <time>2015-08-26T10:37:32.1Z</time>
      </trkpt>
      <trkpt lat="44.40685" lon="6.38235">
        <ele>2287</ele>
        <time>2015-08-26T10:37:37.1Z</time>
      </trkpt>
      <trkpt lat="44.40685" lon="6.38234">
        <ele>2288</ele>
        <time>2015-08-26T10:37:43.1Z</time>
      </trkpt>
      <trkpt lat="44.40685" lon="6.38233">
        <ele>2288</ele>
        <time>2015-08-26T10:37:48.1Z</time>
      </trkpt>
      <trkpt lat="44.40684" lon="6.38232">
        <ele>2288</ele>
        <time>2015-08-26T10:37:54.1Z</time>
      </trkpt>
      <trkpt lat="44.40683" lon="6.38234">
        <ele>2287</ele>
        <time>2015-08-26T10:37:59.1Z</time>
      </trkpt>
      <trkpt lat="44.40683" lon="6.38233">
        <ele>2287</ele>
        <time>2015-08-26T10:38:05.1Z</time>
      </trkpt>
      <trkpt lat="44.40683" lon="6.38233">
        <ele>2287</ele>
        <time>2015-08-26T10:38:10.1Z</time>
      </trkpt>
      <trkpt lat="44.40683" lon="6.38233">
        <ele>2287</ele>
        <time>2015-08-26T10:38:15.1Z</time>
      </trkpt>
      <trkpt lat="44.40683" lon="6.38234">
        <ele>2287</ele>
        <time>2015-08-26T10:38:22.1Z</time>
      </trkpt>
      <trkpt lat="44.40683" lon="6.38233">
        <ele>2288</ele>
        <time>2015-08-26T10:38:27.1Z</time>
      </trkpt>
      <trkpt lat="44.40682" lon="6.38233">
        <ele>2288</ele>
        <time>2015-08-26T10:38:33.1Z</time>
      </trkpt>
      <trkpt lat="44.40682" lon="6.38233">
        <ele>2288</ele>
        <time>2015-08-26T10:38:39.1Z</time>
      </trkpt>
      <trkpt lat="44.40682" lon="6.38233">
        <ele>2288</ele>
        <time>2015-08-26T10:38:45.1Z</time>
      </trkpt>
      <trkpt lat="44.40683" lon="6.38233">
        <ele>2287</ele>
        <time>2015-08-26T10:38:50.1Z</time>
      </trkpt>
      <trkpt lat="44.40683" lon="6.38233">
        <ele>2287</ele>
        <time>2015-08-26T10:38:56.1Z</time>
      </trkpt>
      <trkpt lat="44.40684" lon="6.38234">
        <ele>2287</ele>
        <time>2015-08-26T10:39:03.1Z</time>
      </trkpt>
      <trkpt lat="44.40685" lon="6.38235">
        <ele>2287</ele>
        <time>2015-08-26T10:39:09.1Z</time>
      </trkpt>
      <trkpt lat="44.40685" lon="6.38234">
        <ele>2287</ele>
        <time>2015-08-26T10:39:14.1Z</time>
      </trkpt>
      <trkpt lat="44.40685" lon="6.38234">
        <ele>2288</ele>
        <time>2015-08-26T10:39:20.1Z</time>
      </trkpt>
      <trkpt lat="44.40685" lon="6.38234">
        <ele>2287</ele>
        <time>2015-08-26T10:39:28.1Z</time>
      </trkpt>
      <trkpt lat="44.40685" lon="6.38234">
        <ele>2287</ele>
        <time>2015-08-26T10:39:33.1Z</time>
      </trkpt>
      <trkpt lat="44.40684" lon="6.38232">
        <ele>2287</ele>
        <time>2015-08-26T10:39:39.1Z</time>
      </trkpt>
      <trkpt lat="44.40683" lon="6.38231">
        <ele>2287</ele>
        <time>2015-08-26T10:39:46.1Z</time>
      </trkpt>
      <trkpt lat="44.40683" lon="6.3823">
        <ele>2287</ele>
        <time>2015-08-26T10:39:51.1Z</time>
      </trkpt>
      <trkpt lat="44.40683" lon="6.3823">
        <ele>2287</ele>
        <time>2015-08-26T10:39:57.1Z</time>
      </trkpt>
      <trkpt lat="44.40684" lon="6.38231">
        <ele>2287</ele>
        <time>2015-08-26T10:40:02.1Z</time>
      </trkpt>
      <trkpt lat="44.40684" lon="6.38232">
        <ele>2287</ele>
        <time>2015-08-26T10:40:08.1Z</time>
      </trkpt>
      <trkpt lat="44.40685" lon="6.38233">
        <ele>2287</ele>
        <time>2015-08-26T10:40:14.1Z</time>
      </trkpt>
      <trkpt lat="44.40686" lon="6.38234">
        <ele>2288</ele>
        <time>2015-08-26T10:40:20.1Z</time>
      </trkpt>
      <trkpt lat="44.40687" lon="6.38234">
        <ele>2288</ele>
        <time>2015-08-26T10:40:26.1Z</time>
      </trkpt>
      <trkpt lat="44.40686" lon="6.38234">
        <ele>2288</ele>
        <time>2015-08-26T10:40:33.1Z</time>
      </trkpt>
      <trkpt lat="44.40686" lon="6.38233">
        <ele>2287</ele>
        <time>2015-08-26T10:40:38.1Z</time>
      </trkpt>
      <trkpt lat="44.40686" lon="6.38232">
        <ele>2287</ele>
        <time>2015-08-26T10:40:43.1Z</time>
      </trkpt>
      <trkpt lat="44.40685" lon="6.38232">
        <ele>2287</ele>
        <time>2015-08-26T10:40:49.1Z</time>
      </trkpt>
      <trkpt lat="44.40686" lon="6.38232">
        <ele>2287</ele>
        <time>2015-08-26T10:40:55.1Z</time>
      </trkpt>
      <trkpt lat="44.40687" lon="6.38233">
        <ele>2288</ele>
        <time>2015-08-26T10:41:01.1Z</time>
      </trkpt>
      <trkpt lat="44.40687" lon="6.38233">
        <ele>2287</ele>
        <time>2015-08-26T10:41:06.1Z</time>
      </trkpt>
      <trkpt lat="44.40688" lon="6.38234">
        <ele>2287</ele>
        <time>2015-08-26T10:41:12.1Z</time>
      </trkpt>
      <trkpt lat="44.40686" lon="6.38234">
        <ele>2287</ele>
        <time>2015-08-26T10:41:18.1Z</time>
      </trkpt>
      <trkpt lat="44.40685" lon="6.38233">
        <ele>2287</ele>
        <time>2015-08-26T10:41:23.1Z</time>
      </trkpt>
      <trkpt lat="44.40683" lon="6.38232">
        <ele>2287</ele>
        <time>2015-08-26T10:41:29.1Z</time>
      </trkpt>
      <trkpt lat="44.40682" lon="6.3823">
        <ele>2287</ele>
        <time>2015-08-26T10:41:34.1Z</time>
      </trkpt>
      <trkpt lat="44.40682" lon="6.3823">
        <ele>2287</ele>
        <time>2015-08-26T10:41:39.1Z</time>
      </trkpt>
      <trkpt lat="44.40683" lon="6.3823">
        <ele>2287</ele>
        <time>2015-08-26T10:41:45.1Z</time>
      </trkpt>
      <trkpt lat="44.40683" lon="6.3823">
        <ele>2287</ele>
        <time>2015-08-26T10:41:51.1Z</time>
      </trkpt>
      <trkpt lat="44.40682" lon="6.3823">
        <ele>2288</ele>
        <time>2015-08-26T10:41:57.1Z</time>
      </trkpt>
      <trkpt lat="44.40682" lon="6.38229">
        <ele>2287</ele>
        <time>2015-08-26T10:42:02.1Z</time>
      </trkpt>
      <trkpt lat="44.40682" lon="6.38228">
        <ele>2287</ele>
        <time>2015-08-26T10:42:07.1Z</time>
      </trkpt>
      <trkpt lat="44.40681" lon="6.38227">
        <ele>2287</ele>
        <time>2015-08-26T10:42:13.1Z</time>
      </trkpt>
      <trkpt lat="44.40682" lon="6.38227">
        <ele>2288</ele>
        <time>2015-08-26T10:42:18.1Z</time>
      </trkpt>
      <trkpt lat="44.40682" lon="6.38227">
        <ele>2287</ele>
        <time>2015-08-26T10:42:24.1Z</time>
      </trkpt>
      <trkpt lat="44.40683" lon="6.38227">
        <ele>2287</ele>
        <time>2015-08-26T10:42:30.1Z</time>
      </trkpt>
      <trkpt lat="44.40682" lon="6.38227">
        <ele>2287</ele>
        <time>2015-08-26T10:42:35.1Z</time>
      </trkpt>
      <trkpt lat="44.40683" lon="6.38229">
        <ele>2288</ele>
        <time>2015-08-26T10:42:41.1Z</time>
      </trkpt>
      <trkpt lat="44.40683" lon="6.38229">
        <ele>2287</ele>
        <time>2015-08-26T10:42:47.1Z</time>
      </trkpt>
      <trkpt lat="44.40683" lon="6.38228">
        <ele>2287</ele>
        <time>2015-08-26T10:42:52.1Z</time>
      </trkpt>
      <trkpt lat="44.40683" lon="6.38227">
        <ele>2287</ele>
        <time>2015-08-26T10:42:59.1Z</time>
      </trkpt>
      <trkpt lat="44.40684" lon="6.38227">
        <ele>2287</ele>
        <time>2015-08-26T10:43:04.1Z</time>
      </trkpt>
      <trkpt lat="44.40684" lon="6.38227">
        <ele>2287</ele>
        <time>2015-08-26T10:43:09.1Z</time>
      </trkpt>
      <trkpt lat="44.40684" lon="6.38227">
        <ele>2288</ele>
        <time>2015-08-26T10:43:16.1Z</time>
      </trkpt>
      <trkpt lat="44.40684" lon="6.38228">
        <ele>2287</ele>
        <time>2015-08-26T10:43:21.1Z</time>
      </trkpt>
      <trkpt lat="44.40685" lon="6.38231">
        <ele>2287</ele>
        <time>2015-08-26T10:43:26.1Z</time>
      </trkpt>
      <trkpt lat="44.40686" lon="6.38232">
        <ele>2287</ele>
        <time>2015-08-26T10:43:32.1Z</time>
      </trkpt>
      <trkpt lat="44.40686" lon="6.38232">
        <ele>2287</ele>
        <time>2015-08-26T10:43:38.1Z</time>
      </trkpt>
      <trkpt lat="44.40686" lon="6.38233">
        <ele>2287</ele>
        <time>2015-08-26T10:43:43.1Z</time>
      </trkpt>
      <trkpt lat="44.40686" lon="6.38233">
        <ele>2288</ele>
        <time>2015-08-26T10:43:49.1Z</time>
      </trkpt>
      <trkpt lat="44.40687" lon="6.38233">
        <ele>2287</ele>
        <time>2015-08-26T10:43:55.1Z</time>
      </trkpt>
      <trkpt lat="44.40687" lon="6.38234">
        <ele>2288</ele>
        <time>2015-08-26T10:44:01.1Z</time>
      </trkpt>
      <trkpt lat="44.40686" lon="6.38234">
        <ele>2288</ele>
        <time>2015-08-26T10:44:07.1Z</time>
      </trkpt>
      <trkpt lat="44.40686" lon="6.38232">
        <ele>2288</ele>
        <time>2015-08-26T10:44:12.1Z</time>
      </trkpt>
      <trkpt lat="44.40686" lon="6.38233">
        <ele>2288</ele>
        <time>2015-08-26T10:44:18.1Z</time>
      </trkpt>
      <trkpt lat="44.40687" lon="6.38233">
        <ele>2288</ele>
        <time>2015-08-26T10:44:23.1Z</time>
      </trkpt>
      <trkpt lat="44.40687" lon="6.38231">
        <ele>2287</ele>
        <time>2015-08-26T10:44:28.1Z</time>
      </trkpt>
      <trkpt lat="44.40686" lon="6.38228">
        <ele>2288</ele>
        <time>2015-08-26T10:44:34.1Z</time>
      </trkpt>
      <trkpt lat="44.40686" lon="6.38229">
        <ele>2288</ele>
        <time>2015-08-26T10:44:40.1Z</time>
      </trkpt>
      <trkpt lat="44.40685" lon="6.38229">
        <ele>2288</ele>
        <time>2015-08-26T10:44:46.1Z</time>
      </trkpt>
      <trkpt lat="44.40685" lon="6.38228">
        <ele>2288</ele>
        <time>2015-08-26T10:44:51.1Z</time>
      </trkpt>
      <trkpt lat="44.40684" lon="6.38231">
        <ele>2288</ele>
        <time>2015-08-26T10:44:57.1Z</time>
      </trkpt>
      <trkpt lat="44.40684" lon="6.38234">
        <ele>2288</ele>
        <time>2015-08-26T10:45:03.1Z</time>
      </trkpt>
      <trkpt lat="44.40684" lon="6.38235">
        <ele>2288</ele>
        <time>2015-08-26T10:45:09.1Z</time>
      </trkpt>
      <trkpt lat="44.40684" lon="6.38234">
        <ele>2288</ele>
        <time>2015-08-26T10:45:14.1Z</time>
      </trkpt>
      <trkpt lat="44.40683" lon="6.38232">
        <ele>2288</ele>
        <time>2015-08-26T10:45:19.1Z</time>
      </trkpt>
      <trkpt lat="44.40684" lon="6.3823">
        <ele>2288</ele>
        <time>2015-08-26T10:45:25.1Z</time>
      </trkpt>
      <trkpt lat="44.40683" lon="6.38228">
        <ele>2288</ele>
        <time>2015-08-26T10:45:30.1Z</time>
      </trkpt>
      <trkpt lat="44.40683" lon="6.38228">
        <ele>2288</ele>
        <time>2015-08-26T10:45:35.1Z</time>
      </trkpt>
      <trkpt lat="44.40682" lon="6.38231">
        <ele>2288</ele>
        <time>2015-08-26T10:45:40.1Z</time>
      </trkpt>
      <trkpt lat="44.40683" lon="6.38231">
        <ele>2288</ele>
        <time>2015-08-26T10:45:46.1Z</time>
      </trkpt>
      <trkpt lat="44.40683" lon="6.38232">
        <ele>2288</ele>
        <time>2015-08-26T10:45:52.1Z</time>
      </trkpt>
      <trkpt lat="44.40695" lon="6.3822">
        <ele>2288</ele>
        <time>2015-08-26T10:46:05.1Z</time>
      </trkpt>
      <trkpt lat="44.40694" lon="6.3822">
        <ele>2288</ele>
        <time>2015-08-26T10:46:10.1Z</time>
      </trkpt>
      <trkpt lat="44.40691" lon="6.38221">
        <ele>2288</ele>
        <time>2015-08-26T10:46:16.1Z</time>
      </trkpt>
      <trkpt lat="44.40689" lon="6.38225">
        <ele>2287</ele>
        <time>2015-08-26T10:46:22.1Z</time>
      </trkpt>
      <trkpt lat="44.40689" lon="6.38228">
        <ele>2288</ele>
        <time>2015-08-26T10:46:27.1Z</time>
      </trkpt>
      <trkpt lat="44.40688" lon="6.38229">
        <ele>2287</ele>
        <time>2015-08-26T10:46:32.1Z</time>
      </trkpt>
      <trkpt lat="44.40686" lon="6.3823">
        <ele>2288</ele>
        <time>2015-08-26T10:46:38.1Z</time>
      </trkpt>
      <trkpt lat="44.40686" lon="6.38231">
        <ele>2287</ele>
        <time>2015-08-26T10:46:43.1Z</time>
      </trkpt>
      <trkpt lat="44.40685" lon="6.38231">
        <ele>2288</ele>
        <time>2015-08-26T10:46:49.1Z</time>
      </trkpt>
      <trkpt lat="44.40685" lon="6.38232">
        <ele>2287</ele>
        <time>2015-08-26T10:46:57.1Z</time>
      </trkpt>
      <trkpt lat="44.40685" lon="6.38232">
        <ele>2287</ele>
        <time>2015-08-26T10:47:05.1Z</time>
      </trkpt>
      <trkpt lat="44.40684" lon="6.38232">
        <ele>2287</ele>
        <time>2015-08-26T10:47:10.1Z</time>
      </trkpt>
      <trkpt lat="44.40684" lon="6.38233">
        <ele>2287</ele>
        <time>2015-08-26T10:47:15.1Z</time>
      </trkpt>
      <trkpt lat="44.40684" lon="6.38233">
        <ele>2287</ele>
        <time>2015-08-26T10:47:22.1Z</time>
      </trkpt>
      <trkpt lat="44.40684" lon="6.38233">
        <ele>2287</ele>
        <time>2015-08-26T10:47:27.1Z</time>
      </trkpt>
      <trkpt lat="44.40684" lon="6.38233">
        <ele>2288</ele>
        <time>2015-08-26T10:47:34.1Z</time>
      </trkpt>
      <trkpt lat="44.40683" lon="6.38233">
        <ele>2288</ele>
        <time>2015-08-26T10:47:40.1Z</time>
      </trkpt>
      <trkpt lat="44.40683" lon="6.38233">
        <ele>2288</ele>
        <time>2015-08-26T10:47:47.1Z</time>
      </trkpt>
      <trkpt lat="44.40683" lon="6.38233">
        <ele>2287</ele>
        <time>2015-08-26T10:47:52.1Z</time>
      </trkpt>
      <trkpt lat="44.40683" lon="6.38234">
        <ele>2289</ele>
        <time>2015-08-26T10:47:57.1Z</time>
      </trkpt>
      <trkpt lat="44.40683" lon="6.38234">
        <ele>2289</ele>
        <time>2015-08-26T10:48:03.1Z</time>
      </trkpt>
      <trkpt lat="44.40684" lon="6.38234">
        <ele>2287</ele>
        <time>2015-08-26T10:48:08.1Z</time>
      </trkpt>
      <trkpt lat="44.40684" lon="6.38235">
        <ele>2287</ele>
        <time>2015-08-26T10:48:13.1Z</time>
      </trkpt>
      <trkpt lat="44.40683" lon="6.38236">
        <ele>2287</ele>
        <time>2015-08-26T10:48:19.1Z</time>
      </trkpt>
      <trkpt lat="44.40683" lon="6.38237">
        <ele>2287</ele>
        <time>2015-08-26T10:48:24.1Z</time>
      </trkpt>
      <trkpt lat="44.40683" lon="6.38237">
        <ele>2287</ele>
        <time>2015-08-26T10:48:29.1Z</time>
      </trkpt>
      <trkpt lat="44.40683" lon="6.38236">
        <ele>2287</ele>
        <time>2015-08-26T10:48:35.1Z</time>
      </trkpt>
      <trkpt lat="44.40683" lon="6.38237">
        <ele>2288</ele>
        <time>2015-08-26T10:48:42.1Z</time>
      </trkpt>
      <trkpt lat="44.40683" lon="6.38236">
        <ele>2287</ele>
        <time>2015-08-26T10:48:48.1Z</time>
      </trkpt>
      <trkpt lat="44.40684" lon="6.38237">
        <ele>2288</ele>
        <time>2015-08-26T10:48:54.1Z</time>
      </trkpt>
      <trkpt lat="44.40684" lon="6.38236">
        <ele>2288</ele>
        <time>2015-08-26T10:49:00.1Z</time>
      </trkpt>
      <trkpt lat="44.40684" lon="6.38235">
        <ele>2287</ele>
        <time>2015-08-26T10:49:05.1Z</time>
      </trkpt>
      <trkpt lat="44.40685" lon="6.38233">
        <ele>2288</ele>
        <time>2015-08-26T10:49:11.1Z</time>
      </trkpt>
      <trkpt lat="44.40686" lon="6.38233">
        <ele>2288</ele>
        <time>2015-08-26T10:49:16.1Z</time>
      </trkpt>
      <trkpt lat="44.40687" lon="6.38234">
        <ele>2288</ele>
        <time>2015-08-26T10:49:21.1Z</time>
      </trkpt>
      <trkpt lat="44.40686" lon="6.38235">
        <ele>2288</ele>
        <time>2015-08-26T10:49:27.1Z</time>
      </trkpt>
      <trkpt lat="44.40686" lon="6.38234">
        <ele>2287</ele>
        <time>2015-08-26T10:49:33.1Z</time>
      </trkpt>
      <trkpt lat="44.40685" lon="6.38234">
        <ele>2288</ele>
        <time>2015-08-26T10:49:38.1Z</time>
      </trkpt>
      <trkpt lat="44.40685" lon="6.38233">
        <ele>2289</ele>
        <time>2015-08-26T10:49:44.1Z</time>
      </trkpt>
      <trkpt lat="44.40685" lon="6.38233">
        <ele>2288</ele>
        <time>2015-08-26T10:49:50.1Z</time>
      </trkpt>
      <trkpt lat="44.40687" lon="6.38231">
        <ele>2288</ele>
        <time>2015-08-26T10:49:56.1Z</time>
      </trkpt>
      <trkpt lat="44.40688" lon="6.38231">
        <ele>2288</ele>
        <time>2015-08-26T10:50:02.1Z</time>
      </trkpt>
      <trkpt lat="44.40688" lon="6.38232">
        <ele>2288</ele>
        <time>2015-08-26T10:50:08.1Z</time>
      </trkpt>
      <trkpt lat="44.40688" lon="6.38233">
        <ele>2288</ele>
        <time>2015-08-26T10:50:13.1Z</time>
      </trkpt>
      <trkpt lat="44.40688" lon="6.38233">
        <ele>2288</ele>
        <time>2015-08-26T10:50:20.1Z</time>
      </trkpt>
      <trkpt lat="44.40687" lon="6.38233">
        <ele>2288</ele>
        <time>2015-08-26T10:50:26.1Z</time>
      </trkpt>
      <trkpt lat="44.40686" lon="6.38233">
        <ele>2288</ele>
        <time>2015-08-26T10:50:31.1Z</time>
      </trkpt>
      <trkpt lat="44.40685" lon="6.38234">
        <ele>2288</ele>
        <time>2015-08-26T10:50:36.1Z</time>
      </trkpt>
      <trkpt lat="44.40685" lon="6.38235">
        <ele>2288</ele>
        <time>2015-08-26T10:50:41.1Z</time>
      </trkpt>
      <trkpt lat="44.40685" lon="6.38236">
        <ele>2288</ele>
        <time>2015-08-26T10:50:47.1Z</time>
      </trkpt>
      <trkpt lat="44.40684" lon="6.38234">
        <ele>2288</ele>
        <time>2015-08-26T10:50:54.1Z</time>
      </trkpt>
      <trkpt lat="44.40684" lon="6.38234">
        <ele>2288</ele>
        <time>2015-08-26T10:51:00.1Z</time>
      </trkpt>
      <trkpt lat="44.40684" lon="6.38235">
        <ele>2288</ele>
        <time>2015-08-26T10:51:05.1Z</time>
      </trkpt>
      <trkpt lat="44.40683" lon="6.38235">
        <ele>2288</ele>
        <time>2015-08-26T10:51:12.1Z</time>
      </trkpt>
      <trkpt lat="44.40683" lon="6.38235">
        <ele>2288</ele>
        <time>2015-08-26T10:51:18.1Z</time>
      </trkpt>
      <trkpt lat="44.40683" lon="6.38235">
        <ele>2288</ele>
        <time>2015-08-26T10:51:24.1Z</time>
      </trkpt>
      <trkpt lat="44.40685" lon="6.38237">
        <ele>2288</ele>
        <time>2015-08-26T10:51:30.1Z</time>
      </trkpt>
      <trkpt lat="44.40684" lon="6.38239">
        <ele>2288</ele>
        <time>2015-08-26T10:51:35.1Z</time>
      </trkpt>
      <trkpt lat="44.40684" lon="6.38239">
        <ele>2288</ele>
        <time>2015-08-26T10:51:44.1Z</time>
      </trkpt>
      <trkpt lat="44.40684" lon="6.38238">
        <ele>2288</ele>
        <time>2015-08-26T10:51:49.1Z</time>
      </trkpt>
      <trkpt lat="44.40684" lon="6.38238">
        <ele>2287</ele>
        <time>2015-08-26T10:51:54.1Z</time>
      </trkpt>
      <trkpt lat="44.40684" lon="6.38237">
        <ele>2287</ele>
        <time>2015-08-26T10:52:00.1Z</time>
      </trkpt>
      <trkpt lat="44.40684" lon="6.38236">
        <ele>2288</ele>
        <time>2015-08-26T10:52:06.1Z</time>
      </trkpt>
      <trkpt lat="44.40684" lon="6.38236">
        <ele>2288</ele>
        <time>2015-08-26T10:52:14.1Z</time>
      </trkpt>
      <trkpt lat="44.40684" lon="6.38236">
        <ele>2288</ele>
        <time>2015-08-26T10:52:22.1Z</time>
      </trkpt>
      <trkpt lat="44.40684" lon="6.38236">
        <ele>2287</ele>
        <time>2015-08-26T10:52:31.1Z</time>
      </trkpt>
      <trkpt lat="44.40684" lon="6.38235">
        <ele>2287</ele>
        <time>2015-08-26T10:52:41.1Z</time>
      </trkpt>
      <trkpt lat="44.40684" lon="6.38235">
        <ele>2287</ele>
        <time>2015-08-26T10:52:50.1Z</time>
      </trkpt>
      <trkpt lat="44.40684" lon="6.38235">
        <ele>2287</ele>
        <time>2015-08-26T10:52:58.1Z</time>
      </trkpt>
      <trkpt lat="44.40685" lon="6.38235">
        <ele>2288</ele>
        <time>2015-08-26T10:53:05.1Z</time>
      </trkpt>
      <trkpt lat="44.40685" lon="6.38236">
        <ele>2287</ele>
        <time>2015-08-26T10:53:11.1Z</time>
      </trkpt>
      <trkpt lat="44.40685" lon="6.38236">
        <ele>2287</ele>
        <time>2015-08-26T10:53:19.1Z</time>
      </trkpt>
      <trkpt lat="44.40685" lon="6.38236">
        <ele>2288</ele>
        <time>2015-08-26T10:53:27.1Z</time>
      </trkpt>
      <trkpt lat="44.40685" lon="6.38237">
        <ele>2288</ele>
        <time>2015-08-26T10:53:36.1Z</time>
      </trkpt>
      <trkpt lat="44.40685" lon="6.38237">
        <ele>2287</ele>
        <time>2015-08-26T10:53:43.1Z</time>
      </trkpt>
      <trkpt lat="44.40686" lon="6.38237">
        <ele>2288</ele>
        <time>2015-08-26T10:53:50.1Z</time>
      </trkpt>
      <trkpt lat="44.40686" lon="6.38237">
        <ele>2288</ele>
        <time>2015-08-26T10:53:57.1Z</time>
      </trkpt>
      <trkpt lat="44.40686" lon="6.38237">
        <ele>2288</ele>
        <time>2015-08-26T10:54:06.1Z</time>
      </trkpt>
      <trkpt lat="44.40686" lon="6.38237">
        <ele>2288</ele>
        <time>2015-08-26T10:54:17.1Z</time>
      </trkpt>
      <trkpt lat="44.40687" lon="6.38237">
        <ele>2288</ele>
        <time>2015-08-26T10:54:23.1Z</time>
      </trkpt>
      <trkpt lat="44.40687" lon="6.38237">
        <ele>2288</ele>
        <time>2015-08-26T10:54:28.1Z</time>
      </trkpt>
      <trkpt lat="44.40686" lon="6.38237">
        <ele>2288</ele>
        <time>2015-08-26T10:54:34.1Z</time>
      </trkpt>
      <trkpt lat="44.40686" lon="6.38237">
        <ele>2288</ele>
        <time>2015-08-26T10:54:41.1Z</time>
      </trkpt>
      <trkpt lat="44.40686" lon="6.38237">
        <ele>2288</ele>
        <time>2015-08-26T10:54:46.1Z</time>
      </trkpt>
      <trkpt lat="44.40686" lon="6.38237">
        <ele>2287</ele>
        <time>2015-08-26T10:54:59.1Z</time>
      </trkpt>
      <trkpt lat="44.40686" lon="6.38238">
        <ele>2287</ele>
        <time>2015-08-26T10:55:04.1Z</time>
      </trkpt>
      <trkpt lat="44.40687" lon="6.38237">
        <ele>2287</ele>
        <time>2015-08-26T10:55:10.1Z</time>
      </trkpt>
      <trkpt lat="44.40687" lon="6.38237">
        <ele>2288</ele>
        <time>2015-08-26T10:55:18.1Z</time>
      </trkpt>
      <trkpt lat="44.40686" lon="6.38237">
        <ele>2288</ele>
        <time>2015-08-26T10:55:23.1Z</time>
      </trkpt>
      <trkpt lat="44.40686" lon="6.38237">
        <ele>2288</ele>
        <time>2015-08-26T10:55:29.1Z</time>
      </trkpt>
      <trkpt lat="44.40686" lon="6.38236">
        <ele>2288</ele>
        <time>2015-08-26T10:55:34.1Z</time>
      </trkpt>
      <trkpt lat="44.40685" lon="6.38236">
        <ele>2288</ele>
        <time>2015-08-26T10:55:43.1Z</time>
      </trkpt>
      <trkpt lat="44.40685" lon="6.38236">
        <ele>2288</ele>
        <time>2015-08-26T10:55:49.1Z</time>
      </trkpt>
      <trkpt lat="44.40684" lon="6.38236">
        <ele>2287</ele>
        <time>2015-08-26T10:55:54.1Z</time>
      </trkpt>
      <trkpt lat="44.40685" lon="6.38235">
        <ele>2287</ele>
        <time>2015-08-26T10:55:59.1Z</time>
      </trkpt>
      <trkpt lat="44.40685" lon="6.38235">
        <ele>2287</ele>
        <time>2015-08-26T10:56:04.1Z</time>
      </trkpt>
      <trkpt lat="44.40684" lon="6.38236">
        <ele>2288</ele>
        <time>2015-08-26T10:56:13.1Z</time>
      </trkpt>
      <trkpt lat="44.40685" lon="6.38236">
        <ele>2287</ele>
        <time>2015-08-26T10:56:18.1Z</time>
      </trkpt>
      <trkpt lat="44.40685" lon="6.38236">
        <ele>2287</ele>
        <time>2015-08-26T10:56:24.1Z</time>
      </trkpt>
      <trkpt lat="44.40685" lon="6.38236">
        <ele>2287</ele>
        <time>2015-08-26T10:56:29.1Z</time>
      </trkpt>
      <trkpt lat="44.40686" lon="6.38236">
        <ele>2287</ele>
        <time>2015-08-26T10:56:35.1Z</time>
      </trkpt>
      <trkpt lat="44.40686" lon="6.38237">
        <ele>2287</ele>
        <time>2015-08-26T10:56:41.1Z</time>
      </trkpt>
      <trkpt lat="44.40685" lon="6.38237">
        <ele>2287</ele>
        <time>2015-08-26T10:56:46.1Z</time>
      </trkpt>
      <trkpt lat="44.40685" lon="6.38237">
        <ele>2287</ele>
        <time>2015-08-26T10:56:53.1Z</time>
      </trkpt>
      <trkpt lat="44.40684" lon="6.38237">
        <ele>2287</ele>
        <time>2015-08-26T10:56:59.1Z</time>
      </trkpt>
      <trkpt lat="44.40684" lon="6.38237">
        <ele>2287</ele>
        <time>2015-08-26T10:57:06.1Z</time>
      </trkpt>
      <trkpt lat="44.40684" lon="6.38237">
        <ele>2287</ele>
        <time>2015-08-26T10:57:12.1Z</time>
      </trkpt>
      <trkpt lat="44.40684" lon="6.38237">
        <ele>2287</ele>
        <time>2015-08-26T10:57:17.1Z</time>
      </trkpt>
      <trkpt lat="44.40685" lon="6.38237">
        <ele>2287</ele>
        <time>2015-08-26T10:57:22.1Z</time>
      </trkpt>
      <trkpt lat="44.40685" lon="6.38237">
        <ele>2287</ele>
        <time>2015-08-26T10:57:29.1Z</time>
      </trkpt>
      <trkpt lat="44.40686" lon="6.38236">
        <ele>2287</ele>
        <time>2015-08-26T10:57:34.1Z</time>
      </trkpt>
      <trkpt lat="44.40686" lon="6.38236">
        <ele>2287</ele>
        <time>2015-08-26T10:57:40.1Z</time>
      </trkpt>
      <trkpt lat="44.40686" lon="6.38235">
        <ele>2287</ele>
        <time>2015-08-26T10:57:46.1Z</time>
      </trkpt>
      <trkpt lat="44.40686" lon="6.38235">
        <ele>2287</ele>
        <time>2015-08-26T10:57:51.1Z</time>
      </trkpt>
      <trkpt lat="44.40688" lon="6.38235">
        <ele>2287</ele>
        <time>2015-08-26T10:57:56.1Z</time>
      </trkpt>
      <trkpt lat="44.40688" lon="6.38236">
        <ele>2287</ele>
        <time>2015-08-26T10:58:02.1Z</time>
      </trkpt>
      <trkpt lat="44.40688" lon="6.38237">
        <ele>2287</ele>
        <time>2015-08-26T10:58:07.1Z</time>
      </trkpt>
      <trkpt lat="44.40689" lon="6.38238">
        <ele>2287</ele>
        <time>2015-08-26T10:58:12.1Z</time>
      </trkpt>
      <trkpt lat="44.40689" lon="6.38239">
        <ele>2287</ele>
        <time>2015-08-26T10:58:18.1Z</time>
      </trkpt>
      <trkpt lat="44.4069" lon="6.3824">
        <ele>2287</ele>
        <time>2015-08-26T10:58:23.1Z</time>
      </trkpt>
      <trkpt lat="44.40689" lon="6.3824">
        <ele>2287</ele>
        <time>2015-08-26T10:58:28.1Z</time>
      </trkpt>
      <trkpt lat="44.40688" lon="6.3824">
        <ele>2287</ele>
        <time>2015-08-26T10:58:33.1Z</time>
      </trkpt>
      <trkpt lat="44.40686" lon="6.38239">
        <ele>2287</ele>
        <time>2015-08-26T10:58:39.1Z</time>
      </trkpt>
      <trkpt lat="44.40685" lon="6.38239">
        <ele>2287</ele>
        <time>2015-08-26T10:58:44.1Z</time>
      </trkpt>
      <trkpt lat="44.40685" lon="6.3824">
        <ele>2287</ele>
        <time>2015-08-26T10:58:50.1Z</time>
      </trkpt>
      <trkpt lat="44.40687" lon="6.38239">
        <ele>2286</ele>
        <time>2015-08-26T10:58:56.1Z</time>
      </trkpt>
      <trkpt lat="44.40688" lon="6.38239">
        <ele>2287</ele>
        <time>2015-08-26T10:59:02.1Z</time>
      </trkpt>
      <trkpt lat="44.40687" lon="6.38238">
        <ele>2286</ele>
        <time>2015-08-26T10:59:08.1Z</time>
      </trkpt>
      <trkpt lat="44.40687" lon="6.38238">
        <ele>2287</ele>
        <time>2015-08-26T10:59:13.1Z</time>
      </trkpt>
      <trkpt lat="44.40686" lon="6.38237">
        <ele>2287</ele>
        <time>2015-08-26T10:59:18.1Z</time>
      </trkpt>
      <trkpt lat="44.40686" lon="6.38237">
        <ele>2287</ele>
        <time>2015-08-26T10:59:23.1Z</time>
      </trkpt>
      <trkpt lat="44.40687" lon="6.38236">
        <ele>2288</ele>
        <time>2015-08-26T10:59:29.1Z</time>
      </trkpt>
      <trkpt lat="44.40686" lon="6.38235">
        <ele>2288</ele>
        <time>2015-08-26T10:59:34.1Z</time>
      </trkpt>
      <trkpt lat="44.40686" lon="6.38235">
        <ele>2288</ele>
        <time>2015-08-26T10:59:40.1Z</time>
      </trkpt>
      <trkpt lat="44.40686" lon="6.38235">
        <ele>2288</ele>
        <time>2015-08-26T10:59:45.1Z</time>
      </trkpt>
      <trkpt lat="44.40686" lon="6.38235">
        <ele>2288</ele>
        <time>2015-08-26T10:59:51.1Z</time>
      </trkpt>
      <trkpt lat="44.40686" lon="6.38235">
        <ele>2288</ele>
        <time>2015-08-26T10:59:56.1Z</time>
      </trkpt>
      <trkpt lat="44.4069" lon="6.38234">
        <ele>2288</ele>
        <time>2015-08-26T11:00:02.1Z</time>
      </trkpt>
      <trkpt lat="44.40693" lon="6.38235">
        <ele>2288</ele>
        <time>2015-08-26T11:00:08.1Z</time>
      </trkpt>
      <trkpt lat="44.40694" lon="6.38235">
        <ele>2289</ele>
        <time>2015-08-26T11:00:13.1Z</time>
      </trkpt>
      <trkpt lat="44.40693" lon="6.38237">
        <ele>2289</ele>
        <time>2015-08-26T11:00:19.1Z</time>
      </trkpt>
      <trkpt lat="44.40695" lon="6.38238">
        <ele>2289</ele>
        <time>2015-08-26T11:00:24.1Z</time>
      </trkpt>
      <trkpt lat="44.40699" lon="6.38241">
        <ele>2289</ele>
        <time>2015-08-26T11:00:30.1Z</time>
      </trkpt>
      <trkpt lat="44.40702" lon="6.38242">
        <ele>2290</ele>
        <time>2015-08-26T11:00:35.1Z</time>
      </trkpt>
      <trkpt lat="44.40706" lon="6.38245">
        <ele>2291</ele>
        <time>2015-08-26T11:00:41.1Z</time>
      </trkpt>
      <trkpt lat="44.4071" lon="6.38245">
        <ele>2292</ele>
        <time>2015-08-26T11:00:47.1Z</time>
      </trkpt>
      <trkpt lat="44.40714" lon="6.38248">
        <ele>2293</ele>
        <time>2015-08-26T11:00:52.1Z</time>
      </trkpt>
      <trkpt lat="44.40717" lon="6.38249">
        <ele>2294</ele>
        <time>2015-08-26T11:00:58.1Z</time>
      </trkpt>
      <trkpt lat="44.40721" lon="6.38251">
        <ele>2294</ele>
        <time>2015-08-26T11:01:03.1Z</time>
      </trkpt>
      <trkpt lat="44.40726" lon="6.38248">
        <ele>2295</ele>
        <time>2015-08-26T11:01:09.1Z</time>
      </trkpt>
      <trkpt lat="44.4073" lon="6.38245">
        <ele>2295</ele>
        <time>2015-08-26T11:01:14.1Z</time>
      </trkpt>
      <trkpt lat="44.40734" lon="6.38239">
        <ele>2296</ele>
        <time>2015-08-26T11:01:20.1Z</time>
      </trkpt>
      <trkpt lat="44.40738" lon="6.38234">
        <ele>2296</ele>
        <time>2015-08-26T11:01:25.1Z</time>
      </trkpt>
      <trkpt lat="44.40741" lon="6.38229">
        <ele>2298</ele>
        <time>2015-08-26T11:01:31.1Z</time>
      </trkpt>
      <trkpt lat="44.40744" lon="6.38226">
        <ele>2299</ele>
        <time>2015-08-26T11:01:36.1Z</time>
      </trkpt>
      <trkpt lat="44.40745" lon="6.38223">
        <ele>2298</ele>
        <time>2015-08-26T11:01:41.1Z</time>
      </trkpt>
      <trkpt lat="44.40746" lon="6.38224">
        <ele>2299</ele>
        <time>2015-08-26T11:01:46.1Z</time>
      </trkpt>
      <trkpt lat="44.40746" lon="6.38227">
        <ele>2298</ele>
        <time>2015-08-26T11:01:52.1Z</time>
      </trkpt>
      <trkpt lat="44.40749" lon="6.38223">
        <ele>2298</ele>
        <time>2015-08-26T11:01:58.1Z</time>
      </trkpt>
      <trkpt lat="44.40751" lon="6.38218">
        <ele>2298</ele>
        <time>2015-08-26T11:02:03.1Z</time>
      </trkpt>
      <trkpt lat="44.40753" lon="6.38212">
        <ele>2299</ele>
        <time>2015-08-26T11:02:09.1Z</time>
      </trkpt>
      <trkpt lat="44.40754" lon="6.38211">
        <ele>2299</ele>
        <time>2015-08-26T11:02:14.1Z</time>
      </trkpt>
      <trkpt lat="44.40755" lon="6.38209">
        <ele>2300</ele>
        <time>2015-08-26T11:02:19.1Z</time>
      </trkpt>
      <trkpt lat="44.40757" lon="6.38205">
        <ele>2300</ele>
        <time>2015-08-26T11:02:24.1Z</time>
      </trkpt>
      <trkpt lat="44.40759" lon="6.38199">
        <ele>2301</ele>
        <time>2015-08-26T11:02:30.1Z</time>
      </trkpt>
      <trkpt lat="44.4076" lon="6.38191">
        <ele>2301</ele>
        <time>2015-08-26T11:02:36.1Z</time>
      </trkpt>
      <trkpt lat="44.40761" lon="6.38184">
        <ele>2302</ele>
        <time>2015-08-26T11:02:41.1Z</time>
      </trkpt>
      <trkpt lat="44.40763" lon="6.38177">
        <ele>2303</ele>
        <time>2015-08-26T11:02:47.1Z</time>
      </trkpt>
      <trkpt lat="44.40768" lon="6.38175">
        <ele>2303</ele>
        <time>2015-08-26T11:02:53.1Z</time>
      </trkpt>
      <trkpt lat="44.4077" lon="6.38176">
        <ele>2304</ele>
        <time>2015-08-26T11:02:59.1Z</time>
      </trkpt>
      <trkpt lat="44.40774" lon="6.38178">
        <ele>2304</ele>
        <time>2015-08-26T11:03:05.1Z</time>
      </trkpt>
      <trkpt lat="44.4078" lon="6.38182">
        <ele>2305</ele>
        <time>2015-08-26T11:03:11.1Z</time>
      </trkpt>
      <trkpt lat="44.40783" lon="6.38183">
        <ele>2305</ele>
        <time>2015-08-26T11:03:16.1Z</time>
      </trkpt>
      <trkpt lat="44.40788" lon="6.38179">
        <ele>2305</ele>
        <time>2015-08-26T11:03:22.1Z</time>
      </trkpt>
      <trkpt lat="44.40793" lon="6.38179">
        <ele>2306</ele>
        <time>2015-08-26T11:03:27.1Z</time>
      </trkpt>
      <trkpt lat="44.40798" lon="6.38176">
        <ele>2306</ele>
        <time>2015-08-26T11:03:33.1Z</time>
      </trkpt>
      <trkpt lat="44.40802" lon="6.38171">
        <ele>2307</ele>
        <time>2015-08-26T11:03:38.1Z</time>
      </trkpt>
      <trkpt lat="44.40805" lon="6.38165">
        <ele>2308</ele>
        <time>2015-08-26T11:03:44.1Z</time>
      </trkpt>
      <trkpt lat="44.4081" lon="6.38159">
        <ele>2308</ele>
        <time>2015-08-26T11:03:50.1Z</time>
      </trkpt>
      <trkpt lat="44.40813" lon="6.38162">
        <ele>2309</ele>
        <time>2015-08-26T11:03:55.1Z</time>
      </trkpt>
      <trkpt lat="44.40817" lon="6.38167">
        <ele>2310</ele>
        <time>2015-08-26T11:04:01.1Z</time>
      </trkpt>
      <trkpt lat="44.4082" lon="6.38171">
        <ele>2310</ele>
        <time>2015-08-26T11:04:06.1Z</time>
      </trkpt>
      <trkpt lat="44.40824" lon="6.38172">
        <ele>2310</ele>
        <time>2015-08-26T11:04:12.1Z</time>
      </trkpt>
      <trkpt lat="44.40829" lon="6.38167">
        <ele>2311</ele>
        <time>2015-08-26T11:04:18.1Z</time>
      </trkpt>
      <trkpt lat="44.40833" lon="6.38163">
        <ele>2312</ele>
        <time>2015-08-26T11:04:24.1Z</time>
      </trkpt>
      <trkpt lat="44.40836" lon="6.38164">
        <ele>2312</ele>
        <time>2015-08-26T11:04:29.1Z</time>
      </trkpt>
      <trkpt lat="44.40841" lon="6.38167">
        <ele>2312</ele>
        <time>2015-08-26T11:04:34.1Z</time>
      </trkpt>
      <trkpt lat="44.40847" lon="6.38174">
        <ele>2313</ele>
        <time>2015-08-26T11:04:40.1Z</time>
      </trkpt>
      <trkpt lat="44.40852" lon="6.38178">
        <ele>2313</ele>
        <time>2015-08-26T11:04:45.1Z</time>
      </trkpt>
      <trkpt lat="44.40857" lon="6.38178">
        <ele>2314</ele>
        <time>2015-08-26T11:04:50.1Z</time>
      </trkpt>
      <trkpt lat="44.40863" lon="6.38181">
        <ele>2315</ele>
        <time>2015-08-26T11:04:56.1Z</time>
      </trkpt>
      <trkpt lat="44.40868" lon="6.38181">
        <ele>2315</ele>
        <time>2015-08-26T11:05:01.1Z</time>
      </trkpt>
      <trkpt lat="44.40874" lon="6.38179">
        <ele>2316</ele>
        <time>2015-08-26T11:05:07.1Z</time>
      </trkpt>
      <trkpt lat="44.40879" lon="6.38179">
        <ele>2316</ele>
        <time>2015-08-26T11:05:12.1Z</time>
      </trkpt>
      <trkpt lat="44.40884" lon="6.38175">
        <ele>2317</ele>
        <time>2015-08-26T11:05:18.1Z</time>
      </trkpt>
      <trkpt lat="44.40888" lon="6.38169">
        <ele>2318</ele>
        <time>2015-08-26T11:05:24.1Z</time>
      </trkpt>
      <trkpt lat="44.40891" lon="6.38164">
        <ele>2318</ele>
        <time>2015-08-26T11:05:29.1Z</time>
      </trkpt>
      <trkpt lat="44.40895" lon="6.3816">
        <ele>2319</ele>
        <time>2015-08-26T11:05:35.1Z</time>
      </trkpt>
      <trkpt lat="44.40897" lon="6.38159">
        <ele>2319</ele>
        <time>2015-08-26T11:05:41.1Z</time>
      </trkpt>
      <trkpt lat="44.40898" lon="6.38159">
        <ele>2319</ele>
        <time>2015-08-26T11:05:47.1Z</time>
      </trkpt>
      <trkpt lat="44.40898" lon="6.38158">
        <ele>2319</ele>
        <time>2015-08-26T11:05:52.1Z</time>
      </trkpt>
      <trkpt lat="44.40901" lon="6.3816">
        <ele>2318</ele>
        <time>2015-08-26T11:05:58.1Z</time>
      </trkpt>
      <trkpt lat="44.40906" lon="6.38163">
        <ele>2318</ele>
        <time>2015-08-26T11:06:03.1Z</time>
      </trkpt>
      <trkpt lat="44.4091" lon="6.38165">
        <ele>2319</ele>
        <time>2015-08-26T11:06:08.1Z</time>
      </trkpt>
      <trkpt lat="44.40916" lon="6.38165">
        <ele>2319</ele>
        <time>2015-08-26T11:06:14.1Z</time>
      </trkpt>
      <trkpt lat="44.40923" lon="6.38165">
        <ele>2319</ele>
        <time>2015-08-26T11:06:20.1Z</time>
      </trkpt>
      <trkpt lat="44.40929" lon="6.38163">
        <ele>2318</ele>
        <time>2015-08-26T11:06:26.1Z</time>
      </trkpt>
      <trkpt lat="44.40934" lon="6.38161">
        <ele>2318</ele>
        <time>2015-08-26T11:06:33.1Z</time>
      </trkpt>
      <trkpt lat="44.40936" lon="6.3816">
        <ele>2318</ele>
        <time>2015-08-26T11:06:39.1Z</time>
      </trkpt>
      <trkpt lat="44.40936" lon="6.38159">
        <ele>2318</ele>
        <time>2015-08-26T11:06:45.1Z</time>
      </trkpt>
      <trkpt lat="44.40936" lon="6.3816">
        <ele>2318</ele>
        <time>2015-08-26T11:06:50.1Z</time>
      </trkpt>
      <trkpt lat="44.40936" lon="6.3816">
        <ele>2319</ele>
        <time>2015-08-26T11:06:57.1Z</time>
      </trkpt>
      <trkpt lat="44.40936" lon="6.3816">
        <ele>2319</ele>
        <time>2015-08-26T11:07:02.1Z</time>
      </trkpt>
      <trkpt lat="44.40935" lon="6.3816">
        <ele>2319</ele>
        <time>2015-08-26T11:07:07.1Z</time>
      </trkpt>
      <trkpt lat="44.40935" lon="6.3816">
        <ele>2319</ele>
        <time>2015-08-26T11:07:12.1Z</time>
      </trkpt>
      <trkpt lat="44.40935" lon="6.38159">
        <ele>2318</ele>
        <time>2015-08-26T11:07:18.1Z</time>
      </trkpt>
      <trkpt lat="44.40936" lon="6.38159">
        <ele>2319</ele>
        <time>2015-08-26T11:07:23.1Z</time>
      </trkpt>
      <trkpt lat="44.40936" lon="6.38159">
        <ele>2319</ele>
        <time>2015-08-26T11:07:29.1Z</time>
      </trkpt>
      <trkpt lat="44.40936" lon="6.38158">
        <ele>2318</ele>
        <time>2015-08-26T11:07:39.1Z</time>
      </trkpt>
      <trkpt lat="44.40936" lon="6.38158">
        <ele>2318</ele>
        <time>2015-08-26T11:07:46.1Z</time>
      </trkpt>
      <trkpt lat="44.40936" lon="6.38158">
        <ele>2318</ele>
        <time>2015-08-26T11:07:51.1Z</time>
      </trkpt>
      <trkpt lat="44.40936" lon="6.38158">
        <ele>2318</ele>
        <time>2015-08-26T11:07:57.1Z</time>
      </trkpt>
      <trkpt lat="44.40936" lon="6.38158">
        <ele>2318</ele>
        <time>2015-08-26T11:08:06.1Z</time>
      </trkpt>
      <trkpt lat="44.40936" lon="6.38158">
        <ele>2319</ele>
        <time>2015-08-26T11:08:13.1Z</time>
      </trkpt>
      <trkpt lat="44.40936" lon="6.38158">
        <ele>2318</ele>
        <time>2015-08-26T11:08:20.1Z</time>
      </trkpt>
      <trkpt lat="44.40936" lon="6.38157">
        <ele>2319</ele>
        <time>2015-08-26T11:08:26.1Z</time>
      </trkpt>
      <trkpt lat="44.40936" lon="6.38158">
        <ele>2319</ele>
        <time>2015-08-26T11:08:31.1Z</time>
      </trkpt>
      <trkpt lat="44.40935" lon="6.38158">
        <ele>2319</ele>
        <time>2015-08-26T11:08:37.1Z</time>
      </trkpt>
      <trkpt lat="44.40934" lon="6.38158">
        <ele>2319</ele>
        <time>2015-08-26T11:08:42.1Z</time>
      </trkpt>
      <trkpt lat="44.40934" lon="6.3816">
        <ele>2319</ele>
        <time>2015-08-26T11:08:48.1Z</time>
      </trkpt>
      <trkpt lat="44.40934" lon="6.3816">
        <ele>2319</ele>
        <time>2015-08-26T11:08:55.1Z</time>
      </trkpt>
      <trkpt lat="44.40936" lon="6.38164">
        <ele>2319</ele>
        <time>2015-08-26T11:09:01.1Z</time>
      </trkpt>
      <trkpt lat="44.40937" lon="6.38171">
        <ele>2319</ele>
        <time>2015-08-26T11:09:07.1Z</time>
      </trkpt>
      <trkpt lat="44.40938" lon="6.38177">
        <ele>2319</ele>
        <time>2015-08-26T11:09:12.1Z</time>
      </trkpt>
      <trkpt lat="44.40939" lon="6.38186">
        <ele>2320</ele>
        <time>2015-08-26T11:09:18.1Z</time>
      </trkpt>
      <trkpt lat="44.40937" lon="6.38195">
        <ele>2320</ele>
        <time>2015-08-26T11:09:24.1Z</time>
      </trkpt>
      <trkpt lat="44.40936" lon="6.38204">
        <ele>2321</ele>
        <time>2015-08-26T11:09:30.1Z</time>
      </trkpt>
      <trkpt lat="44.40934" lon="6.3821">
        <ele>2321</ele>
        <time>2015-08-26T11:09:35.1Z</time>
      </trkpt>
      <trkpt lat="44.40931" lon="6.38218">
        <ele>2323</ele>
        <time>2015-08-26T11:09:41.1Z</time>
      </trkpt>
      <trkpt lat="44.40929" lon="6.38224">
        <ele>2323</ele>
        <time>2015-08-26T11:09:46.1Z</time>
      </trkpt>
      <trkpt lat="44.40928" lon="6.38228">
        <ele>2324</ele>
        <time>2015-08-26T11:09:51.1Z</time>
      </trkpt>
      <trkpt lat="44.40926" lon="6.38232">
        <ele>2325</ele>
        <time>2015-08-26T11:09:56.1Z</time>
      </trkpt>
      <trkpt lat="44.40924" lon="6.38237">
        <ele>2327</ele>
        <time>2015-08-26T11:10:02.1Z</time>
      </trkpt>
      <trkpt lat="44.40923" lon="6.38241">
        <ele>2328</ele>
        <time>2015-08-26T11:10:07.1Z</time>
      </trkpt>
      <trkpt lat="44.40923" lon="6.38247">
        <ele>2329</ele>
        <time>2015-08-26T11:10:13.1Z</time>
      </trkpt>
      <trkpt lat="44.40921" lon="6.38249">
        <ele>2330</ele>
        <time>2015-08-26T11:10:18.1Z</time>
      </trkpt>
      <trkpt lat="44.4092" lon="6.38255">
        <ele>2332</ele>
        <time>2015-08-26T11:10:24.1Z</time>
      </trkpt>
      <trkpt lat="44.40922" lon="6.3826">
        <ele>2334</ele>
        <time>2015-08-26T11:10:30.1Z</time>
      </trkpt>
      <trkpt lat="44.40922" lon="6.38265">
        <ele>2335</ele>
        <time>2015-08-26T11:10:35.1Z</time>
      </trkpt>
      <trkpt lat="44.4092" lon="6.38269">
        <ele>2336</ele>
        <time>2015-08-26T11:10:41.1Z</time>
      </trkpt>
      <trkpt lat="44.40919" lon="6.38273">
        <ele>2338</ele>
        <time>2015-08-26T11:10:47.1Z</time>
      </trkpt>
      <trkpt lat="44.40918" lon="6.38278">
        <ele>2338</ele>
        <time>2015-08-26T11:10:52.1Z</time>
      </trkpt>
      <trkpt lat="44.40916" lon="6.3828">
        <ele>2340</ele>
        <time>2015-08-26T11:10:58.1Z</time>
      </trkpt>
      <trkpt lat="44.40916" lon="6.38287">
        <ele>2340</ele>
        <time>2015-08-26T11:11:04.1Z</time>
      </trkpt>
      <trkpt lat="44.40917" lon="6.38294">
        <ele>2340</ele>
        <time>2015-08-26T11:11:10.1Z</time>
      </trkpt>
      <trkpt lat="44.40917" lon="6.38299">
        <ele>2341</ele>
        <time>2015-08-26T11:11:15.1Z</time>
      </trkpt>
      <trkpt lat="44.40917" lon="6.38304">
        <ele>2341</ele>
        <time>2015-08-26T11:11:20.1Z</time>
      </trkpt>
      <trkpt lat="44.40918" lon="6.38311">
        <ele>2342</ele>
        <time>2015-08-26T11:11:26.1Z</time>
      </trkpt>
      <trkpt lat="44.40916" lon="6.38315">
        <ele>2342</ele>
        <time>2015-08-26T11:11:31.1Z</time>
      </trkpt>
      <trkpt lat="44.40916" lon="6.38316">
        <ele>2343</ele>
        <time>2015-08-26T11:11:40.1Z</time>
      </trkpt>
      <trkpt lat="44.40915" lon="6.38316">
        <ele>2343</ele>
        <time>2015-08-26T11:11:45.1Z</time>
      </trkpt>
      <trkpt lat="44.40915" lon="6.38315">
        <ele>2343</ele>
        <time>2015-08-26T11:11:50.1Z</time>
      </trkpt>
      <trkpt lat="44.40915" lon="6.38315">
        <ele>2342</ele>
        <time>2015-08-26T11:11:56.1Z</time>
      </trkpt>
      <trkpt lat="44.40915" lon="6.38315">
        <ele>2342</ele>
        <time>2015-08-26T11:12:02.1Z</time>
      </trkpt>
      <trkpt lat="44.40915" lon="6.38314">
        <ele>2342</ele>
        <time>2015-08-26T11:12:07.1Z</time>
      </trkpt>
      <trkpt lat="44.40914" lon="6.38314">
        <ele>2343</ele>
        <time>2015-08-26T11:12:12.1Z</time>
      </trkpt>
      <trkpt lat="44.40915" lon="6.38314">
        <ele>2343</ele>
        <time>2015-08-26T11:12:18.1Z</time>
      </trkpt>
      <trkpt lat="44.40916" lon="6.38318">
        <ele>2342</ele>
        <time>2015-08-26T11:12:25.1Z</time>
      </trkpt>
      <trkpt lat="44.40914" lon="6.38319">
        <ele>2342</ele>
        <time>2015-08-26T11:12:31.1Z</time>
      </trkpt>
      <trkpt lat="44.40917" lon="6.38322">
        <ele>2343</ele>
        <time>2015-08-26T11:12:36.1Z</time>
      </trkpt>
      <trkpt lat="44.40918" lon="6.38325">
        <ele>2344</ele>
        <time>2015-08-26T11:12:42.1Z</time>
      </trkpt>
      <trkpt lat="44.40919" lon="6.38332">
        <ele>2343</ele>
        <time>2015-08-26T11:12:47.1Z</time>
      </trkpt>
      <trkpt lat="44.40916" lon="6.38337">
        <ele>2343</ele>
        <time>2015-08-26T11:12:52.1Z</time>
      </trkpt>
      <trkpt lat="44.40912" lon="6.38345">
        <ele>2343</ele>
        <time>2015-08-26T11:12:58.1Z</time>
      </trkpt>
      <trkpt lat="44.40911" lon="6.38354">
        <ele>2344</ele>
        <time>2015-08-26T11:13:03.1Z</time>
      </trkpt>
      <trkpt lat="44.40909" lon="6.38362">
        <ele>2345</ele>
        <time>2015-08-26T11:13:09.1Z</time>
      </trkpt>
      <trkpt lat="44.40908" lon="6.38371">
        <ele>2345</ele>
        <time>2015-08-26T11:13:15.1Z</time>
      </trkpt>
      <trkpt lat="44.40909" lon="6.3838">
        <ele>2346</ele>
        <time>2015-08-26T11:13:21.1Z</time>
      </trkpt>
      <trkpt lat="44.40908" lon="6.38388">
        <ele>2347</ele>
        <time>2015-08-26T11:13:26.1Z</time>
      </trkpt>
      <trkpt lat="44.40908" lon="6.38395">
        <ele>2348</ele>
        <time>2015-08-26T11:13:31.1Z</time>
      </trkpt>
      <trkpt lat="44.40908" lon="6.38402">
        <ele>2349</ele>
        <time>2015-08-26T11:13:36.1Z</time>
      </trkpt>
      <trkpt lat="44.40908" lon="6.38408">
        <ele>2351</ele>
        <time>2015-08-26T11:13:41.1Z</time>
      </trkpt>
      <trkpt lat="44.4091" lon="6.38416">
        <ele>2352</ele>
        <time>2015-08-26T11:13:47.1Z</time>
      </trkpt>
      <trkpt lat="44.40911" lon="6.38421">
        <ele>2353</ele>
        <time>2015-08-26T11:13:52.1Z</time>
      </trkpt>
      <trkpt lat="44.40913" lon="6.38426">
        <ele>2354</ele>
        <time>2015-08-26T11:13:57.1Z</time>
      </trkpt>
      <trkpt lat="44.40914" lon="6.38431">
        <ele>2356</ele>
        <time>2015-08-26T11:14:02.1Z</time>
      </trkpt>
      <trkpt lat="44.40916" lon="6.38437">
        <ele>2357</ele>
        <time>2015-08-26T11:14:08.1Z</time>
      </trkpt>
      <trkpt lat="44.40918" lon="6.38442">
        <ele>2358</ele>
        <time>2015-08-26T11:14:13.1Z</time>
      </trkpt>
      <trkpt lat="44.40919" lon="6.38447">
        <ele>2359</ele>
        <time>2015-08-26T11:14:18.1Z</time>
      </trkpt>
      <trkpt lat="44.40921" lon="6.38454">
        <ele>2360</ele>
        <time>2015-08-26T11:14:24.1Z</time>
      </trkpt>
      <trkpt lat="44.40922" lon="6.3846">
        <ele>2361</ele>
        <time>2015-08-26T11:14:29.1Z</time>
      </trkpt>
      <trkpt lat="44.40925" lon="6.38464">
        <ele>2362</ele>
        <time>2015-08-26T11:14:34.1Z</time>
      </trkpt>
      <trkpt lat="44.40929" lon="6.38466">
        <ele>2362</ele>
        <time>2015-08-26T11:14:39.1Z</time>
      </trkpt>
      <trkpt lat="44.40934" lon="6.38468">
        <ele>2363</ele>
        <time>2015-08-26T11:14:45.1Z</time>
      </trkpt>
      <trkpt lat="44.40939" lon="6.38468">
        <ele>2363</ele>
        <time>2015-08-26T11:14:50.1Z</time>
      </trkpt>
      <trkpt lat="44.40945" lon="6.38468">
        <ele>2364</ele>
        <time>2015-08-26T11:14:56.1Z</time>
      </trkpt>
      <trkpt lat="44.4095" lon="6.38467">
        <ele>2365</ele>
        <time>2015-08-26T11:15:01.1Z</time>
      </trkpt>
      <trkpt lat="44.40956" lon="6.38465">
        <ele>2365</ele>
        <time>2015-08-26T11:15:07.1Z</time>
      </trkpt>
      <trkpt lat="44.40961" lon="6.38463">
        <ele>2366</ele>
        <time>2015-08-26T11:15:12.1Z</time>
      </trkpt>
      <trkpt lat="44.40966" lon="6.38463">
        <ele>2366</ele>
        <time>2015-08-26T11:15:17.1Z</time>
      </trkpt>
      <trkpt lat="44.40973" lon="6.38462">
        <ele>2367</ele>
        <time>2015-08-26T11:15:23.1Z</time>
      </trkpt>
      <trkpt lat="44.40979" lon="6.38461">
        <ele>2367</ele>
        <time>2015-08-26T11:15:28.1Z</time>
      </trkpt>
      <trkpt lat="44.40985" lon="6.38461">
        <ele>2369</ele>
        <time>2015-08-26T11:15:34.1Z</time>
      </trkpt>
      <trkpt lat="44.4099" lon="6.38459">
        <ele>2369</ele>
        <time>2015-08-26T11:15:39.1Z</time>
      </trkpt>
      <trkpt lat="44.40995" lon="6.38459">
        <ele>2370</ele>
        <time>2015-08-26T11:15:44.1Z</time>
      </trkpt>
      <trkpt lat="44.41001" lon="6.38458">
        <ele>2371</ele>
        <time>2015-08-26T11:15:50.1Z</time>
      </trkpt>
      <trkpt lat="44.41006" lon="6.38455">
        <ele>2371</ele>
        <time>2015-08-26T11:15:55.1Z</time>
      </trkpt>
      <trkpt lat="44.41011" lon="6.38454">
        <ele>2371</ele>
        <time>2015-08-26T11:16:00.1Z</time>
      </trkpt>
      <trkpt lat="44.41017" lon="6.38451">
        <ele>2372</ele>
        <time>2015-08-26T11:16:06.1Z</time>
      </trkpt>
      <trkpt lat="44.41022" lon="6.3845">
        <ele>2372</ele>
        <time>2015-08-26T11:16:11.1Z</time>
      </trkpt>
      <trkpt lat="44.41027" lon="6.38447">
        <ele>2373</ele>
        <time>2015-08-26T11:16:16.1Z</time>
      </trkpt>
      <trkpt lat="44.41033" lon="6.38445">
        <ele>2374</ele>
        <time>2015-08-26T11:16:22.1Z</time>
      </trkpt>
      <trkpt lat="44.41039" lon="6.38445">
        <ele>2374</ele>
        <time>2015-08-26T11:16:27.1Z</time>
      </trkpt>
      <trkpt lat="44.41044" lon="6.38444">
        <ele>2375</ele>
        <time>2015-08-26T11:16:32.1Z</time>
      </trkpt>
      <trkpt lat="44.41049" lon="6.38442">
        <ele>2376</ele>
        <time>2015-08-26T11:16:38.1Z</time>
      </trkpt>
      <trkpt lat="44.41054" lon="6.3844">
        <ele>2376</ele>
        <time>2015-08-26T11:16:43.1Z</time>
      </trkpt>
      <trkpt lat="44.41061" lon="6.38438">
        <ele>2377</ele>
        <time>2015-08-26T11:16:49.1Z</time>
      </trkpt>
      <trkpt lat="44.41065" lon="6.38436">
        <ele>2378</ele>
        <time>2015-08-26T11:16:54.1Z</time>
      </trkpt>
      <trkpt lat="44.4107" lon="6.38434">
        <ele>2378</ele>
        <time>2015-08-26T11:16:59.1Z</time>
      </trkpt>
      <trkpt lat="44.41076" lon="6.38432">
        <ele>2379</ele>
        <time>2015-08-26T11:17:05.1Z</time>
      </trkpt>
      <trkpt lat="44.4108" lon="6.38429">
        <ele>2379</ele>
        <time>2015-08-26T11:17:10.1Z</time>
      </trkpt>
      <trkpt lat="44.41085" lon="6.38426">
        <ele>2379</ele>
        <time>2015-08-26T11:17:15.1Z</time>
      </trkpt>
      <trkpt lat="44.4109" lon="6.38423">
        <ele>2380</ele>
        <time>2015-08-26T11:17:20.1Z</time>
      </trkpt>
      <trkpt lat="44.41095" lon="6.38419">
        <ele>2381</ele>
        <time>2015-08-26T11:17:26.1Z</time>
      </trkpt>
      <trkpt lat="44.41102" lon="6.38416">
        <ele>2382</ele>
        <time>2015-08-26T11:17:32.1Z</time>
      </trkpt>
      <trkpt lat="44.41107" lon="6.38414">
        <ele>2382</ele>
        <time>2015-08-26T11:17:37.1Z</time>
      </trkpt>
      <trkpt lat="44.41111" lon="6.38411">
        <ele>2383</ele>
        <time>2015-08-26T11:17:42.1Z</time>
      </trkpt>
      <trkpt lat="44.41117" lon="6.38409">
        <ele>2383</ele>
        <time>2015-08-26T11:17:48.1Z</time>
      </trkpt>
      <trkpt lat="44.41122" lon="6.38405">
        <ele>2384</ele>
        <time>2015-08-26T11:17:53.1Z</time>
      </trkpt>
      <trkpt lat="44.41127" lon="6.38402">
        <ele>2384</ele>
        <time>2015-08-26T11:17:59.1Z</time>
      </trkpt>
      <trkpt lat="44.41132" lon="6.384">
        <ele>2385</ele>
        <time>2015-08-26T11:18:04.1Z</time>
      </trkpt>
      <trkpt lat="44.41137" lon="6.384">
        <ele>2386</ele>
        <time>2015-08-26T11:18:09.1Z</time>
      </trkpt>
      <trkpt lat="44.41142" lon="6.38399">
        <ele>2386</ele>
        <time>2015-08-26T11:18:14.1Z</time>
      </trkpt>
      <trkpt lat="44.41147" lon="6.38398">
        <ele>2387</ele>
        <time>2015-08-26T11:18:19.1Z</time>
      </trkpt>
      <trkpt lat="44.41152" lon="6.38397">
        <ele>2388</ele>
        <time>2015-08-26T11:18:24.1Z</time>
      </trkpt>
      <trkpt lat="44.41158" lon="6.38395">
        <ele>2388</ele>
        <time>2015-08-26T11:18:30.1Z</time>
      </trkpt>
      <trkpt lat="44.41163" lon="6.38393">
        <ele>2389</ele>
        <time>2015-08-26T11:18:36.1Z</time>
      </trkpt>
      <trkpt lat="44.41168" lon="6.38394">
        <ele>2389</ele>
        <time>2015-08-26T11:18:41.1Z</time>
      </trkpt>
      <trkpt lat="44.41173" lon="6.38394">
        <ele>2389</ele>
        <time>2015-08-26T11:18:47.1Z</time>
      </trkpt>
      <trkpt lat="44.41177" lon="6.38395">
        <ele>2389</ele>
        <time>2015-08-26T11:18:53.1Z</time>
      </trkpt>
      <trkpt lat="44.41178" lon="6.38395">
        <ele>2389</ele>
        <time>2015-08-26T11:18:58.1Z</time>
      </trkpt>
      <trkpt lat="44.41179" lon="6.38395">
        <ele>2389</ele>
        <time>2015-08-26T11:19:04.1Z</time>
      </trkpt>
      <trkpt lat="44.41179" lon="6.38395">
        <ele>2389</ele>
        <time>2015-08-26T11:19:11.1Z</time>
      </trkpt>
      <trkpt lat="44.4118" lon="6.38395">
        <ele>2389</ele>
        <time>2015-08-26T11:19:17.1Z</time>
      </trkpt>
      <trkpt lat="44.4118" lon="6.38395">
        <ele>2389</ele>
        <time>2015-08-26T11:19:23.1Z</time>
      </trkpt>
      <trkpt lat="44.4118" lon="6.38395">
        <ele>2390</ele>
        <time>2015-08-26T11:19:30.1Z</time>
      </trkpt>
      <trkpt lat="44.4118" lon="6.38395">
        <ele>2390</ele>
        <time>2015-08-26T11:19:37.1Z</time>
      </trkpt>
      <trkpt lat="44.4118" lon="6.38396">
        <ele>2390</ele>
        <time>2015-08-26T11:19:43.1Z</time>
      </trkpt>
      <trkpt lat="44.4118" lon="6.38396">
        <ele>2390</ele>
        <time>2015-08-26T11:19:48.1Z</time>
      </trkpt>
      <trkpt lat="44.4118" lon="6.38396">
        <ele>2390</ele>
        <time>2015-08-26T11:20:00.1Z</time>
      </trkpt>
      <trkpt lat="44.4118" lon="6.38396">
        <ele>2390</ele>
        <time>2015-08-26T11:20:07.1Z</time>
      </trkpt>
      <trkpt lat="44.4118" lon="6.38396">
        <ele>2389</ele>
        <time>2015-08-26T11:20:15.1Z</time>
      </trkpt>
      <trkpt lat="44.4118" lon="6.38396">
        <ele>2389</ele>
        <time>2015-08-26T11:20:22.1Z</time>
      </trkpt>
      <trkpt lat="44.41181" lon="6.38396">
        <ele>2389</ele>
        <time>2015-08-26T11:20:27.1Z</time>
      </trkpt>
      <trkpt lat="44.4118" lon="6.38397">
        <ele>2389</ele>
        <time>2015-08-26T11:20:34.1Z</time>
      </trkpt>
      <trkpt lat="44.41179" lon="6.38396">
        <ele>2389</ele>
        <time>2015-08-26T11:20:39.1Z</time>
      </trkpt>
      <trkpt lat="44.41179" lon="6.38396">
        <ele>2390</ele>
        <time>2015-08-26T11:20:45.1Z</time>
      </trkpt>
      <trkpt lat="44.41178" lon="6.38396">
        <ele>2390</ele>
        <time>2015-08-26T11:20:53.1Z</time>
      </trkpt>
      <trkpt lat="44.41179" lon="6.38395">
        <ele>2390</ele>
        <time>2015-08-26T11:20:59.1Z</time>
      </trkpt>
      <trkpt lat="44.41179" lon="6.38396">
        <ele>2390</ele>
        <time>2015-08-26T11:21:05.1Z</time>
      </trkpt>
      <trkpt lat="44.41179" lon="6.38397">
        <ele>2389</ele>
        <time>2015-08-26T11:21:10.1Z</time>
      </trkpt>
      <trkpt lat="44.41179" lon="6.38396">
        <ele>2390</ele>
        <time>2015-08-26T11:21:15.1Z</time>
      </trkpt>
      <trkpt lat="44.41178" lon="6.38397">
        <ele>2390</ele>
        <time>2015-08-26T11:21:20.1Z</time>
      </trkpt>
      <trkpt lat="44.41179" lon="6.38397">
        <ele>2390</ele>
        <time>2015-08-26T11:21:26.1Z</time>
      </trkpt>
      <trkpt lat="44.41179" lon="6.38397">
        <ele>2390</ele>
        <time>2015-08-26T11:21:32.1Z</time>
      </trkpt>
      <trkpt lat="44.4118" lon="6.38396">
        <ele>2390</ele>
        <time>2015-08-26T11:21:38.1Z</time>
      </trkpt>
      <trkpt lat="44.4118" lon="6.38396">
        <ele>2390</ele>
        <time>2015-08-26T11:21:43.1Z</time>
      </trkpt>
      <trkpt lat="44.4118" lon="6.38395">
        <ele>2390</ele>
        <time>2015-08-26T11:21:49.1Z</time>
      </trkpt>
      <trkpt lat="44.41179" lon="6.38396">
        <ele>2389</ele>
        <time>2015-08-26T11:21:55.1Z</time>
      </trkpt>
      <trkpt lat="44.41178" lon="6.38396">
        <ele>2390</ele>
        <time>2015-08-26T11:22:00.1Z</time>
      </trkpt>
      <trkpt lat="44.41178" lon="6.38396">
        <ele>2390</ele>
        <time>2015-08-26T11:22:05.1Z</time>
      </trkpt>
      <trkpt lat="44.41178" lon="6.38396">
        <ele>2390</ele>
        <time>2015-08-26T11:22:11.1Z</time>
      </trkpt>
      <trkpt lat="44.41178" lon="6.38395">
        <ele>2390</ele>
        <time>2015-08-26T11:22:16.1Z</time>
      </trkpt>
      <trkpt lat="44.41177" lon="6.38395">
        <ele>2390</ele>
        <time>2015-08-26T11:22:22.1Z</time>
      </trkpt>
      <trkpt lat="44.41178" lon="6.38393">
        <ele>2389</ele>
        <time>2015-08-26T11:22:28.1Z</time>
      </trkpt>
      <trkpt lat="44.4118" lon="6.38393">
        <ele>2389</ele>
        <time>2015-08-26T11:22:34.1Z</time>
      </trkpt>
      <trkpt lat="44.4118" lon="6.38392">
        <ele>2389</ele>
        <time>2015-08-26T11:22:39.1Z</time>
      </trkpt>
      <trkpt lat="44.4118" lon="6.38392">
        <ele>2390</ele>
        <time>2015-08-26T11:22:45.1Z</time>
      </trkpt>
      <trkpt lat="44.4118" lon="6.38394">
        <ele>2390</ele>
        <time>2015-08-26T11:22:51.1Z</time>
      </trkpt>
      <trkpt lat="44.41179" lon="6.38394">
        <ele>2389</ele>
        <time>2015-08-26T11:22:56.1Z</time>
      </trkpt>
      <trkpt lat="44.41179" lon="6.38394">
        <ele>2389</ele>
        <time>2015-08-26T11:23:02.1Z</time>
      </trkpt>
      <trkpt lat="44.41179" lon="6.38396">
        <ele>2389</ele>
        <time>2015-08-26T11:23:07.1Z</time>
      </trkpt>
      <trkpt lat="44.41179" lon="6.38396">
        <ele>2390</ele>
        <time>2015-08-26T11:23:12.1Z</time>
      </trkpt>
      <trkpt lat="44.41179" lon="6.38398">
        <ele>2390</ele>
        <time>2015-08-26T11:23:18.1Z</time>
      </trkpt>
      <trkpt lat="44.4118" lon="6.38405">
        <ele>2391</ele>
        <time>2015-08-26T11:23:24.1Z</time>
      </trkpt>
      <trkpt lat="44.41179" lon="6.38409">
        <ele>2392</ele>
        <time>2015-08-26T11:23:29.1Z</time>
      </trkpt>
      <trkpt lat="44.4118" lon="6.38416">
        <ele>2394</ele>
        <time>2015-08-26T11:23:35.1Z</time>
      </trkpt>
      <trkpt lat="44.41178" lon="6.38418">
        <ele>2396</ele>
        <time>2015-08-26T11:23:40.1Z</time>
      </trkpt>
      <trkpt lat="44.41175" lon="6.38419">
        <ele>2396</ele>
        <time>2015-08-26T11:23:46.1Z</time>
      </trkpt>
      <trkpt lat="44.41171" lon="6.3842">
        <ele>2397</ele>
        <time>2015-08-26T11:23:52.1Z</time>
      </trkpt>
      <trkpt lat="44.4117" lon="6.38421">
        <ele>2398</ele>
        <time>2015-08-26T11:23:58.1Z</time>
      </trkpt>
      <trkpt lat="44.41169" lon="6.38422">
        <ele>2397</ele>
        <time>2015-08-26T11:24:03.1Z</time>
      </trkpt>
      <trkpt lat="44.41167" lon="6.38422">
        <ele>2397</ele>
        <time>2015-08-26T11:24:09.1Z</time>
      </trkpt>
      <trkpt lat="44.41169" lon="6.38421">
        <ele>2397</ele>
        <time>2015-08-26T11:24:14.1Z</time>
      </trkpt>
      <trkpt lat="44.41169" lon="6.38421">
        <ele>2398</ele>
        <time>2015-08-26T11:24:19.1Z</time>
      </trkpt>
      <trkpt lat="44.41169" lon="6.38421">
        <ele>2398</ele>
        <time>2015-08-26T11:24:25.1Z</time>
      </trkpt>
      <trkpt lat="44.41169" lon="6.3842">
        <ele>2397</ele>
        <time>2015-08-26T11:24:30.1Z</time>
      </trkpt>
      <trkpt lat="44.41169" lon="6.3842">
        <ele>2398</ele>
        <time>2015-08-26T11:24:36.1Z</time>
      </trkpt>
      <trkpt lat="44.41169" lon="6.3842">
        <ele>2397</ele>
        <time>2015-08-26T11:24:43.1Z</time>
      </trkpt>
      <trkpt lat="44.4117" lon="6.3842">
        <ele>2397</ele>
        <time>2015-08-26T11:24:49.1Z</time>
      </trkpt>
      <trkpt lat="44.41171" lon="6.38421">
        <ele>2397</ele>
        <time>2015-08-26T11:24:54.1Z</time>
      </trkpt>
      <trkpt lat="44.41171" lon="6.38421">
        <ele>2398</ele>
        <time>2015-08-26T11:25:00.1Z</time>
      </trkpt>
      <trkpt lat="44.41171" lon="6.38421">
        <ele>2398</ele>
        <time>2015-08-26T11:25:08.1Z</time>
      </trkpt>
      <trkpt lat="44.41169" lon="6.38422">
        <ele>2398</ele>
        <time>2015-08-26T11:25:14.1Z</time>
      </trkpt>
      <trkpt lat="44.41165" lon="6.38424">
        <ele>2398</ele>
        <time>2015-08-26T11:25:19.1Z</time>
      </trkpt>
      <trkpt lat="44.41161" lon="6.38426">
        <ele>2398</ele>
        <time>2015-08-26T11:25:24.1Z</time>
      </trkpt>
      <trkpt lat="44.41155" lon="6.3843">
        <ele>2398</ele>
        <time>2015-08-26T11:25:30.1Z</time>
      </trkpt>
      <trkpt lat="44.4115" lon="6.38434">
        <ele>2399</ele>
        <time>2015-08-26T11:25:35.1Z</time>
      </trkpt>
      <trkpt lat="44.41145" lon="6.38439">
        <ele>2399</ele>
        <time>2015-08-26T11:25:41.1Z</time>
      </trkpt>
      <trkpt lat="44.4114" lon="6.38444">
        <ele>2399</ele>
        <time>2015-08-26T11:25:46.1Z</time>
      </trkpt>
      <trkpt lat="44.41134" lon="6.3845">
        <ele>2399</ele>
        <time>2015-08-26T11:25:51.1Z</time>
      </trkpt>
      <trkpt lat="44.4113" lon="6.38454">
        <ele>2399</ele>
        <time>2015-08-26T11:25:56.1Z</time>
      </trkpt>
      <trkpt lat="44.41124" lon="6.38461">
        <ele>2399</ele>
        <time>2015-08-26T11:26:02.1Z</time>
      </trkpt>
      <trkpt lat="44.41117" lon="6.38468">
        <ele>2399</ele>
        <time>2015-08-26T11:26:08.1Z</time>
      </trkpt>
      <trkpt lat="44.41111" lon="6.38473">
        <ele>2400</ele>
        <time>2015-08-26T11:26:13.1Z</time>
      </trkpt>
      <trkpt lat="44.41104" lon="6.38476">
        <ele>2400</ele>
        <time>2015-08-26T11:26:18.1Z</time>
      </trkpt>
      <trkpt lat="44.41098" lon="6.3848">
        <ele>2399</ele>
        <time>2015-08-26T11:26:23.1Z</time>
      </trkpt>
      <trkpt lat="44.41093" lon="6.38486">
        <ele>2399</ele>
        <time>2015-08-26T11:26:28.1Z</time>
      </trkpt>
      <trkpt lat="44.41087" lon="6.38493">
        <ele>2400</ele>
        <time>2015-08-26T11:26:34.1Z</time>
      </trkpt>
      <trkpt lat="44.41082" lon="6.38497">
        <ele>2402</ele>
        <time>2015-08-26T11:26:39.1Z</time>
      </trkpt>
      <trkpt lat="44.41076" lon="6.38502">
        <ele>2402</ele>
        <time>2015-08-26T11:26:44.1Z</time>
      </trkpt>
      <trkpt lat="44.4107" lon="6.38508">
        <ele>2403</ele>
        <time>2015-08-26T11:26:50.1Z</time>
      </trkpt>
      <trkpt lat="44.41064" lon="6.38515">
        <ele>2403</ele>
        <time>2015-08-26T11:26:56.1Z</time>
      </trkpt>
      <trkpt lat="44.41059" lon="6.38519">
        <ele>2404</ele>
        <time>2015-08-26T11:27:01.1Z</time>
      </trkpt>
      <trkpt lat="44.41053" lon="6.38524">
        <ele>2405</ele>
        <time>2015-08-26T11:27:06.1Z</time>
      </trkpt>
      <trkpt lat="44.41048" lon="6.38529">
        <ele>2405</ele>
        <time>2015-08-26T11:27:11.1Z</time>
      </trkpt>
      <trkpt lat="44.41042" lon="6.38534">
        <ele>2406</ele>
        <time>2015-08-26T11:27:17.1Z</time>
      </trkpt>
      <trkpt lat="44.41036" lon="6.38539">
        <ele>2406</ele>
        <time>2015-08-26T11:27:22.1Z</time>
      </trkpt>
      <trkpt lat="44.41031" lon="6.38543">
        <ele>2407</ele>
        <time>2015-08-26T11:27:27.1Z</time>
      </trkpt>
      <trkpt lat="44.41026" lon="6.38548">
        <ele>2408</ele>
        <time>2015-08-26T11:27:32.1Z</time>
      </trkpt>
      <trkpt lat="44.4102" lon="6.38554">
        <ele>2409</ele>
        <time>2015-08-26T11:27:38.1Z</time>
      </trkpt>
      <trkpt lat="44.41015" lon="6.38558">
        <ele>2410</ele>
        <time>2015-08-26T11:27:43.1Z</time>
      </trkpt>
      <trkpt lat="44.41009" lon="6.38561">
        <ele>2410</ele>
        <time>2015-08-26T11:27:48.1Z</time>
      </trkpt>
      <trkpt lat="44.41003" lon="6.38566">
        <ele>2410</ele>
        <time>2015-08-26T11:27:54.1Z</time>
      </trkpt>
      <trkpt lat="44.40998" lon="6.3857">
        <ele>2411</ele>
        <time>2015-08-26T11:27:59.1Z</time>
      </trkpt>
      <trkpt lat="44.40991" lon="6.38574">
        <ele>2412</ele>
        <time>2015-08-26T11:28:05.1Z</time>
      </trkpt>
      <trkpt lat="44.40986" lon="6.38577">
        <ele>2413</ele>
        <time>2015-08-26T11:28:10.1Z</time>
      </trkpt>
      <trkpt lat="44.40979" lon="6.38581">
        <ele>2414</ele>
        <time>2015-08-26T11:28:16.1Z</time>
      </trkpt>
      <trkpt lat="44.40974" lon="6.38584">
        <ele>2413</ele>
        <time>2015-08-26T11:28:21.1Z</time>
      </trkpt>
      <trkpt lat="44.4097" lon="6.38587">
        <ele>2413</ele>
        <time>2015-08-26T11:28:26.1Z</time>
      </trkpt>
      <trkpt lat="44.40966" lon="6.38591">
        <ele>2414</ele>
        <time>2015-08-26T11:28:32.1Z</time>
      </trkpt>
      <trkpt lat="44.40962" lon="6.38596">
        <ele>2415</ele>
        <time>2015-08-26T11:28:38.1Z</time>
      </trkpt>
      <trkpt lat="44.40957" lon="6.38601">
        <ele>2416</ele>
        <time>2015-08-26T11:28:44.1Z</time>
      </trkpt>
      <trkpt lat="44.40953" lon="6.38604">
        <ele>2417</ele>
        <time>2015-08-26T11:28:49.1Z</time>
      </trkpt>
      <trkpt lat="44.40948" lon="6.38608">
        <ele>2418</ele>
        <time>2015-08-26T11:28:54.1Z</time>
      </trkpt>
      <trkpt lat="44.40942" lon="6.38611">
        <ele>2418</ele>
        <time>2015-08-26T11:29:00.1Z</time>
      </trkpt>
      <trkpt lat="44.40937" lon="6.38614">
        <ele>2419</ele>
        <time>2015-08-26T11:29:05.1Z</time>
      </trkpt>
      <trkpt lat="44.40932" lon="6.38619">
        <ele>2419</ele>
        <time>2015-08-26T11:29:11.1Z</time>
      </trkpt>
      <trkpt lat="44.40927" lon="6.38623">
        <ele>2419</ele>
        <time>2015-08-26T11:29:16.1Z</time>
      </trkpt>
      <trkpt lat="44.40923" lon="6.38626">
        <ele>2419</ele>
        <time>2015-08-26T11:29:21.1Z</time>
      </trkpt>
      <trkpt lat="44.4092" lon="6.38628">
        <ele>2421</ele>
        <time>2015-08-26T11:29:28.1Z</time>
      </trkpt>
      <trkpt lat="44.4092" lon="6.38629">
        <ele>2421</ele>
        <time>2015-08-26T11:29:33.1Z</time>
      </trkpt>
      <trkpt lat="44.40916" lon="6.38633">
        <ele>2421</ele>
        <time>2015-08-26T11:29:39.1Z</time>
      </trkpt>
      <trkpt lat="44.40917" lon="6.38638">
        <ele>2421</ele>
        <time>2015-08-26T11:29:45.1Z</time>
      </trkpt>
      <trkpt lat="44.40921" lon="6.38637">
        <ele>2422</ele>
        <time>2015-08-26T11:29:51.1Z</time>
      </trkpt>
      <trkpt lat="44.40923" lon="6.38636">
        <ele>2422</ele>
        <time>2015-08-26T11:29:56.1Z</time>
      </trkpt>
      <trkpt lat="44.40927" lon="6.38634">
        <ele>2423</ele>
        <time>2015-08-26T11:30:01.1Z</time>
      </trkpt>
      <trkpt lat="44.40929" lon="6.38631">
        <ele>2423</ele>
        <time>2015-08-26T11:30:07.1Z</time>
      </trkpt>
      <trkpt lat="44.40933" lon="6.38628">
        <ele>2423</ele>
        <time>2015-08-26T11:30:13.1Z</time>
      </trkpt>
      <trkpt lat="44.40936" lon="6.38625">
        <ele>2423</ele>
        <time>2015-08-26T11:30:18.1Z</time>
      </trkpt>
      <trkpt lat="44.40939" lon="6.38624">
        <ele>2423</ele>
        <time>2015-08-26T11:30:23.1Z</time>
      </trkpt>
      <trkpt lat="44.40939" lon="6.38626">
        <ele>2424</ele>
        <time>2015-08-26T11:30:29.1Z</time>
      </trkpt>
      <trkpt lat="44.40939" lon="6.38621">
        <ele>2424</ele>
        <time>2015-08-26T11:30:35.1Z</time>
      </trkpt>
      <trkpt lat="44.40789" lon="6.38512">
        <ele>2424</ele>
        <time>2015-08-26T11:36:46.1Z</time>
      </trkpt>
      <trkpt lat="44.40832" lon="6.38549">
        <ele>2424</ele>
        <time>2015-08-26T11:36:52.1Z</time>
      </trkpt>
      <trkpt lat="44.40862" lon="6.38576">
        <ele>2425</ele>
        <time>2015-08-26T11:36:57.1Z</time>
      </trkpt>
      <trkpt lat="44.40888" lon="6.38596">
        <ele>2424</ele>
        <time>2015-08-26T11:37:03.1Z</time>
      </trkpt>
      <trkpt lat="44.40905" lon="6.38609">
        <ele>2424</ele>
        <time>2015-08-26T11:37:09.1Z</time>
      </trkpt>
      <trkpt lat="44.40914" lon="6.38615">
        <ele>2424</ele>
        <time>2015-08-26T11:37:14.1Z</time>
      </trkpt>
      <trkpt lat="44.40922" lon="6.38619">
        <ele>2424</ele>
        <time>2015-08-26T11:37:20.1Z</time>
      </trkpt>
      <trkpt lat="44.40926" lon="6.38622">
        <ele>2424</ele>
        <time>2015-08-26T11:37:25.1Z</time>
      </trkpt>
      <trkpt lat="44.40928" lon="6.38624">
        <ele>2424</ele>
        <time>2015-08-26T11:37:30.1Z</time>
      </trkpt>
      <trkpt lat="44.40929" lon="6.38624">
        <ele>2423</ele>
        <time>2015-08-26T11:37:36.1Z</time>
      </trkpt>
      <trkpt lat="44.4093" lon="6.38624">
        <ele>2423</ele>
        <time>2015-08-26T11:37:42.1Z</time>
      </trkpt>
      <trkpt lat="44.4093" lon="6.38625">
        <ele>2424</ele>
        <time>2015-08-26T11:37:49.1Z</time>
      </trkpt>
      <trkpt lat="44.40931" lon="6.38625">
        <ele>2423</ele>
        <time>2015-08-26T11:37:56.1Z</time>
      </trkpt>
      <trkpt lat="44.40931" lon="6.38625">
        <ele>2423</ele>
        <time>2015-08-26T11:38:02.1Z</time>
      </trkpt>
      <trkpt lat="44.40931" lon="6.38625">
        <ele>2423</ele>
        <time>2015-08-26T11:38:12.1Z</time>
      </trkpt>
      <trkpt lat="44.40931" lon="6.38625">
        <ele>2424</ele>
        <time>2015-08-26T11:38:17.1Z</time>
      </trkpt>
      <trkpt lat="44.40931" lon="6.38624">
        <ele>2424</ele>
        <time>2015-08-26T11:38:22.1Z</time>
      </trkpt>
      <trkpt lat="44.4093" lon="6.38624">
        <ele>2423</ele>
        <time>2015-08-26T11:38:27.1Z</time>
      </trkpt>
      <trkpt lat="44.40929" lon="6.38623">
        <ele>2423</ele>
        <time>2015-08-26T11:38:33.1Z</time>
      </trkpt>
      <trkpt lat="44.40929" lon="6.38622">
        <ele>2424</ele>
        <time>2015-08-26T11:38:39.1Z</time>
      </trkpt>
      <trkpt lat="44.40929" lon="6.38622">
        <ele>2424</ele>
        <time>2015-08-26T11:38:44.1Z</time>
      </trkpt>
      <trkpt lat="44.40929" lon="6.38622">
        <ele>2424</ele>
        <time>2015-08-26T11:38:49.1Z</time>
      </trkpt>
      <trkpt lat="44.40929" lon="6.38622">
        <ele>2424</ele>
        <time>2015-08-26T11:38:56.1Z</time>
      </trkpt>
      <trkpt lat="44.40929" lon="6.38622">
        <ele>2423</ele>
        <time>2015-08-26T11:39:06.1Z</time>
      </trkpt>
      <trkpt lat="44.4093" lon="6.38622">
        <ele>2423</ele>
        <time>2015-08-26T11:39:11.1Z</time>
      </trkpt>
      <trkpt lat="44.40931" lon="6.38622">
        <ele>2424</ele>
        <time>2015-08-26T11:39:18.1Z</time>
      </trkpt>
      <trkpt lat="44.40931" lon="6.38623">
        <ele>2424</ele>
        <time>2015-08-26T11:39:23.1Z</time>
      </trkpt>
      <trkpt lat="44.40931" lon="6.38624">
        <ele>2423</ele>
        <time>2015-08-26T11:39:30.1Z</time>
      </trkpt>
      <trkpt lat="44.40931" lon="6.38624">
        <ele>2423</ele>
        <time>2015-08-26T11:39:35.1Z</time>
      </trkpt>
      <trkpt lat="44.4093" lon="6.38623">
        <ele>2423</ele>
        <time>2015-08-26T11:39:40.1Z</time>
      </trkpt>
      <trkpt lat="44.4093" lon="6.38623">
        <ele>2422</ele>
        <time>2015-08-26T11:39:46.1Z</time>
      </trkpt>
      <trkpt lat="44.40929" lon="6.38624">
        <ele>2422</ele>
        <time>2015-08-26T11:39:51.1Z</time>
      </trkpt>
      <trkpt lat="44.40929" lon="6.38624">
        <ele>2423</ele>
        <time>2015-08-26T11:39:57.1Z</time>
      </trkpt>
      <trkpt lat="44.40929" lon="6.38625">
        <ele>2423</ele>
        <time>2015-08-26T11:40:02.1Z</time>
      </trkpt>
      <trkpt lat="44.40929" lon="6.38625">
        <ele>2423</ele>
        <time>2015-08-26T11:40:07.1Z</time>
      </trkpt>
      <trkpt lat="44.40929" lon="6.38625">
        <ele>2423</ele>
        <time>2015-08-26T11:40:14.1Z</time>
      </trkpt>
      <trkpt lat="44.40928" lon="6.38625">
        <ele>2423</ele>
        <time>2015-08-26T11:40:20.1Z</time>
      </trkpt>
      <trkpt lat="44.40928" lon="6.38624">
        <ele>2423</ele>
        <time>2015-08-26T11:40:25.1Z</time>
      </trkpt>
      <trkpt lat="44.40928" lon="6.38624">
        <ele>2423</ele>
        <time>2015-08-26T11:40:31.1Z</time>
      </trkpt>
      <trkpt lat="44.40927" lon="6.38623">
        <ele>2423</ele>
        <time>2015-08-26T11:40:37.1Z</time>
      </trkpt>
      <trkpt lat="44.40927" lon="6.38624">
        <ele>2423</ele>
        <time>2015-08-26T11:40:42.1Z</time>
      </trkpt>
      <trkpt lat="44.40927" lon="6.38624">
        <ele>2424</ele>
        <time>2015-08-26T11:40:47.1Z</time>
      </trkpt>
      <trkpt lat="44.40927" lon="6.38623">
        <ele>2424</ele>
        <time>2015-08-26T11:40:52.1Z</time>
      </trkpt>
      <trkpt lat="44.40927" lon="6.38623">
        <ele>2424</ele>
        <time>2015-08-26T11:40:57.1Z</time>
      </trkpt>
      <trkpt lat="44.40927" lon="6.38623">
        <ele>2423</ele>
        <time>2015-08-26T11:41:04.1Z</time>
      </trkpt>
      <trkpt lat="44.40927" lon="6.38624">
        <ele>2423</ele>
        <time>2015-08-26T11:41:09.1Z</time>
      </trkpt>
      <trkpt lat="44.40926" lon="6.38623">
        <ele>2423</ele>
        <time>2015-08-26T11:41:15.1Z</time>
      </trkpt>
      <trkpt lat="44.40925" lon="6.38622">
        <ele>2423</ele>
        <time>2015-08-26T11:41:20.1Z</time>
      </trkpt>
      <trkpt lat="44.40925" lon="6.38621">
        <ele>2424</ele>
        <time>2015-08-26T11:41:26.1Z</time>
      </trkpt>
      <trkpt lat="44.40924" lon="6.38621">
        <ele>2424</ele>
        <time>2015-08-26T11:41:32.1Z</time>
      </trkpt>
      <trkpt lat="44.40924" lon="6.3862">
        <ele>2423</ele>
        <time>2015-08-26T11:41:37.1Z</time>
      </trkpt>
      <trkpt lat="44.40923" lon="6.38621">
        <ele>2423</ele>
        <time>2015-08-26T11:41:45.1Z</time>
      </trkpt>
      <trkpt lat="44.40923" lon="6.38621">
        <ele>2423</ele>
        <time>2015-08-26T11:41:52.1Z</time>
      </trkpt>
      <trkpt lat="44.40924" lon="6.38621">
        <ele>2424</ele>
        <time>2015-08-26T11:41:58.1Z</time>
      </trkpt>
      <trkpt lat="44.40924" lon="6.38621">
        <ele>2424</ele>
        <time>2015-08-26T11:42:03.1Z</time>
      </trkpt>
      <trkpt lat="44.40924" lon="6.38622">
        <ele>2424</ele>
        <time>2015-08-26T11:42:09.1Z</time>
      </trkpt>
      <trkpt lat="44.40924" lon="6.38622">
        <ele>2424</ele>
        <time>2015-08-26T11:42:15.1Z</time>
      </trkpt>
      <trkpt lat="44.40925" lon="6.38624">
        <ele>2423</ele>
        <time>2015-08-26T11:42:20.1Z</time>
      </trkpt>
      <trkpt lat="44.40926" lon="6.38624">
        <ele>2423</ele>
        <time>2015-08-26T11:42:25.1Z</time>
      </trkpt>
      <trkpt lat="44.40927" lon="6.38624">
        <ele>2423</ele>
        <time>2015-08-26T11:42:32.1Z</time>
      </trkpt>
      <trkpt lat="44.40927" lon="6.38623">
        <ele>2423</ele>
        <time>2015-08-26T11:42:39.1Z</time>
      </trkpt>
      <trkpt lat="44.40927" lon="6.38623">
        <ele>2423</ele>
        <time>2015-08-26T11:42:44.1Z</time>
      </trkpt>
      <trkpt lat="44.40928" lon="6.38623">
        <ele>2423</ele>
        <time>2015-08-26T11:42:55.1Z</time>
      </trkpt>
      <trkpt lat="44.40928" lon="6.38623">
        <ele>2423</ele>
        <time>2015-08-26T11:43:02.1Z</time>
      </trkpt>
      <trkpt lat="44.40928" lon="6.38624">
        <ele>2424</ele>
        <time>2015-08-26T11:43:08.1Z</time>
      </trkpt>
      <trkpt lat="44.40928" lon="6.38624">
        <ele>2424</ele>
        <time>2015-08-26T11:43:14.1Z</time>
      </trkpt>
      <trkpt lat="44.40927" lon="6.38623">
        <ele>2425</ele>
        <time>2015-08-26T11:43:20.1Z</time>
      </trkpt>
      <trkpt lat="44.40927" lon="6.38623">
        <ele>2424</ele>
        <time>2015-08-26T11:43:25.1Z</time>
      </trkpt>
      <trkpt lat="44.40927" lon="6.38622">
        <ele>2424</ele>
        <time>2015-08-26T11:43:30.1Z</time>
      </trkpt>
      <trkpt lat="44.40926" lon="6.38622">
        <ele>2424</ele>
        <time>2015-08-26T11:43:38.1Z</time>
      </trkpt>
      <trkpt lat="44.40927" lon="6.38621">
        <ele>2424</ele>
        <time>2015-08-26T11:43:45.1Z</time>
      </trkpt>
      <trkpt lat="44.40926" lon="6.3862">
        <ele>2423</ele>
        <time>2015-08-26T11:43:51.1Z</time>
      </trkpt>
      <trkpt lat="44.40926" lon="6.3862">
        <ele>2424</ele>
        <time>2015-08-26T11:43:59.1Z</time>
      </trkpt>
      <trkpt lat="44.40926" lon="6.3862">
        <ele>2424</ele>
        <time>2015-08-26T11:44:05.1Z</time>
      </trkpt>
      <trkpt lat="44.40926" lon="6.3862">
        <ele>2423</ele>
        <time>2015-08-26T11:44:11.1Z</time>
      </trkpt>
      <trkpt lat="44.40926" lon="6.38621">
        <ele>2424</ele>
        <time>2015-08-26T11:44:16.1Z</time>
      </trkpt>
      <trkpt lat="44.40926" lon="6.38622">
        <ele>2424</ele>
        <time>2015-08-26T11:44:22.1Z</time>
      </trkpt>
      <trkpt lat="44.40927" lon="6.38622">
        <ele>2423</ele>
        <time>2015-08-26T11:44:28.1Z</time>
      </trkpt>
      <trkpt lat="44.40927" lon="6.38622">
        <ele>2424</ele>
        <time>2015-08-26T11:44:35.1Z</time>
      </trkpt>
      <trkpt lat="44.40926" lon="6.38621">
        <ele>2424</ele>
        <time>2015-08-26T11:44:40.1Z</time>
      </trkpt>
      <trkpt lat="44.40926" lon="6.38619">
        <ele>2423</ele>
        <time>2015-08-26T11:44:45.1Z</time>
      </trkpt>
      <trkpt lat="44.40925" lon="6.38617">
        <ele>2423</ele>
        <time>2015-08-26T11:44:51.1Z</time>
      </trkpt>
      <trkpt lat="44.40925" lon="6.38615">
        <ele>2423</ele>
        <time>2015-08-26T11:44:56.1Z</time>
      </trkpt>
      <trkpt lat="44.40924" lon="6.38614">
        <ele>2423</ele>
        <time>2015-08-26T11:45:02.1Z</time>
      </trkpt>
      <trkpt lat="44.40924" lon="6.38614">
        <ele>2424</ele>
        <time>2015-08-26T11:45:07.1Z</time>
      </trkpt>
      <trkpt lat="44.40925" lon="6.38613">
        <ele>2424</ele>
        <time>2015-08-26T11:45:20.1Z</time>
      </trkpt>
      <trkpt lat="44.40927" lon="6.38616">
        <ele>2424</ele>
        <time>2015-08-26T11:45:26.1Z</time>
      </trkpt>
      <trkpt lat="44.40934" lon="6.38616">
        <ele>2424</ele>
        <time>2015-08-26T11:45:32.1Z</time>
      </trkpt>
      <trkpt lat="44.4094" lon="6.38623">
        <ele>2425</ele>
        <time>2015-08-26T11:46:18.1Z</time>
      </trkpt>
      <trkpt lat="44.40939" lon="6.3862">
        <ele>2425</ele>
        <time>2015-08-26T11:46:23.1Z</time>
      </trkpt>
      <trkpt lat="44.40932" lon="6.38622">
        <ele>2425</ele>
        <time>2015-08-26T11:46:29.1Z</time>
      </trkpt>
      <trkpt lat="44.40931" lon="6.38622">
        <ele>2424</ele>
        <time>2015-08-26T11:46:34.1Z</time>
      </trkpt>
      <trkpt lat="44.4093" lon="6.38623">
        <ele>2425</ele>
        <time>2015-08-26T11:46:40.1Z</time>
      </trkpt>
      <trkpt lat="44.4093" lon="6.38623">
        <ele>2425</ele>
        <time>2015-08-26T11:46:46.1Z</time>
      </trkpt>
      <trkpt lat="44.4093" lon="6.38623">
        <ele>2425</ele>
        <time>2015-08-26T11:46:52.1Z</time>
      </trkpt>
      <trkpt lat="44.40929" lon="6.38624">
        <ele>2425</ele>
        <time>2015-08-26T11:46:57.1Z</time>
      </trkpt>
      <trkpt lat="44.40926" lon="6.38626">
        <ele>2425</ele>
        <time>2015-08-26T11:47:03.1Z</time>
      </trkpt>
      <trkpt lat="44.40922" lon="6.38631">
        <ele>2425</ele>
        <time>2015-08-26T11:47:08.1Z</time>
      </trkpt>
      <trkpt lat="44.40919" lon="6.38637">
        <ele>2426</ele>
        <time>2015-08-26T11:47:13.1Z</time>
      </trkpt>
      <trkpt lat="44.40917" lon="6.38643">
        <ele>2426</ele>
        <time>2015-08-26T11:47:18.1Z</time>
      </trkpt>
      <trkpt lat="44.40917" lon="6.38649">
        <ele>2427</ele>
        <time>2015-08-26T11:47:23.1Z</time>
      </trkpt>
      <trkpt lat="44.40916" lon="6.38657">
        <ele>2427</ele>
        <time>2015-08-26T11:47:29.1Z</time>
      </trkpt>
      <trkpt lat="44.40914" lon="6.38662">
        <ele>2427</ele>
        <time>2015-08-26T11:47:34.1Z</time>
      </trkpt>
      <trkpt lat="44.40913" lon="6.38663">
        <ele>2427</ele>
        <time>2015-08-26T11:47:40.1Z</time>
      </trkpt>
      <trkpt lat="44.40912" lon="6.38663">
        <ele>2428</ele>
        <time>2015-08-26T11:47:45.1Z</time>
      </trkpt>
      <trkpt lat="44.40911" lon="6.38662">
        <ele>2428</ele>
        <time>2015-08-26T11:47:51.1Z</time>
      </trkpt>
      <trkpt lat="44.40909" lon="6.38662">
        <ele>2427</ele>
        <time>2015-08-26T11:47:57.1Z</time>
      </trkpt>
      <trkpt lat="44.40907" lon="6.38662">
        <ele>2427</ele>
        <time>2015-08-26T11:48:03.1Z</time>
      </trkpt>
      <trkpt lat="44.40904" lon="6.38661">
        <ele>2428</ele>
        <time>2015-08-26T11:48:09.1Z</time>
      </trkpt>
      <trkpt lat="44.409" lon="6.38661">
        <ele>2427</ele>
        <time>2015-08-26T11:48:15.1Z</time>
      </trkpt>
      <trkpt lat="44.40898" lon="6.3866">
        <ele>2427</ele>
        <time>2015-08-26T11:48:20.1Z</time>
      </trkpt>
      <trkpt lat="44.40897" lon="6.3866">
        <ele>2428</ele>
        <time>2015-08-26T11:48:26.1Z</time>
      </trkpt>
      <trkpt lat="44.40898" lon="6.38659">
        <ele>2428</ele>
        <time>2015-08-26T11:48:31.1Z</time>
      </trkpt>
      <trkpt lat="44.40905" lon="6.38652">
        <ele>2427</ele>
        <time>2015-08-26T11:48:37.1Z</time>
      </trkpt>
      <trkpt lat="44.4091" lon="6.38646">
        <ele>2427</ele>
        <time>2015-08-26T11:48:42.1Z</time>
      </trkpt>
      <trkpt lat="44.40919" lon="6.38637">
        <ele>2426</ele>
        <time>2015-08-26T11:48:48.1Z</time>
      </trkpt>
      <trkpt lat="44.40921" lon="6.38634">
        <ele>2425</ele>
        <time>2015-08-26T11:48:54.1Z</time>
      </trkpt>
      <trkpt lat="44.40916" lon="6.38633">
        <ele>2425</ele>
        <time>2015-08-26T11:49:00.1Z</time>
      </trkpt>
      <trkpt lat="44.40921" lon="6.38629">
        <ele>2423</ele>
        <time>2015-08-26T11:49:06.1Z</time>
      </trkpt>
      <trkpt lat="44.40923" lon="6.38625">
        <ele>2422</ele>
        <time>2015-08-26T11:49:12.1Z</time>
      </trkpt>
      <trkpt lat="44.40927" lon="6.38621">
        <ele>2421</ele>
        <time>2015-08-26T11:49:17.1Z</time>
      </trkpt>
      <trkpt lat="44.40931" lon="6.38615">
        <ele>2421</ele>
        <time>2015-08-26T11:49:23.1Z</time>
      </trkpt>
      <trkpt lat="44.40935" lon="6.38611">
        <ele>2421</ele>
        <time>2015-08-26T11:49:28.1Z</time>
      </trkpt>
      <trkpt lat="44.4094" lon="6.38608">
        <ele>2421</ele>
        <time>2015-08-26T11:49:33.1Z</time>
      </trkpt>
      <trkpt lat="44.40945" lon="6.38604">
        <ele>2421</ele>
        <time>2015-08-26T11:49:38.1Z</time>
      </trkpt>
      <trkpt lat="44.4095" lon="6.386">
        <ele>2420</ele>
        <time>2015-08-26T11:49:44.1Z</time>
      </trkpt>
      <trkpt lat="44.40955" lon="6.38596">
        <ele>2419</ele>
        <time>2015-08-26T11:49:49.1Z</time>
      </trkpt>
      <trkpt lat="44.40962" lon="6.38592">
        <ele>2418</ele>
        <time>2015-08-26T11:49:55.1Z</time>
      </trkpt>
      <trkpt lat="44.40968" lon="6.3859">
        <ele>2418</ele>
        <time>2015-08-26T11:50:01.1Z</time>
      </trkpt>
      <trkpt lat="44.40975" lon="6.38586">
        <ele>2417</ele>
        <time>2015-08-26T11:50:06.1Z</time>
      </trkpt>
      <trkpt lat="44.40981" lon="6.38582">
        <ele>2416</ele>
        <time>2015-08-26T11:50:11.1Z</time>
      </trkpt>
      <trkpt lat="44.40987" lon="6.38578">
        <ele>2415</ele>
        <time>2015-08-26T11:50:17.1Z</time>
      </trkpt>
      <trkpt lat="44.40994" lon="6.38576">
        <ele>2414</ele>
        <time>2015-08-26T11:50:22.1Z</time>
      </trkpt>
      <trkpt lat="44.41" lon="6.3857">
        <ele>2414</ele>
        <time>2015-08-26T11:50:28.1Z</time>
      </trkpt>
      <trkpt lat="44.41003" lon="6.38564">
        <ele>2414</ele>
        <time>2015-08-26T11:50:34.1Z</time>
      </trkpt>
      <trkpt lat="44.41008" lon="6.38558">
        <ele>2413</ele>
        <time>2015-08-26T11:50:40.1Z</time>
      </trkpt>
      <trkpt lat="44.41015" lon="6.38555">
        <ele>2412</ele>
        <time>2015-08-26T11:50:46.1Z</time>
      </trkpt>
      <trkpt lat="44.4102" lon="6.38551">
        <ele>2411</ele>
        <time>2015-08-26T11:50:51.1Z</time>
      </trkpt>
      <trkpt lat="44.41025" lon="6.38546">
        <ele>2410</ele>
        <time>2015-08-26T11:50:56.1Z</time>
      </trkpt>
      <trkpt lat="44.41032" lon="6.38542">
        <ele>2409</ele>
        <time>2015-08-26T11:51:02.1Z</time>
      </trkpt>
      <trkpt lat="44.41039" lon="6.3854">
        <ele>2408</ele>
        <time>2015-08-26T11:51:07.1Z</time>
      </trkpt>
      <trkpt lat="44.41043" lon="6.38533">
        <ele>2409</ele>
        <time>2015-08-26T11:51:13.1Z</time>
      </trkpt>
      <trkpt lat="44.41046" lon="6.3853">
        <ele>2408</ele>
        <time>2015-08-26T11:51:19.1Z</time>
      </trkpt>
      <trkpt lat="44.41051" lon="6.38526">
        <ele>2407</ele>
        <time>2015-08-26T11:51:24.1Z</time>
      </trkpt>
      <trkpt lat="44.41056" lon="6.3852">
        <ele>2407</ele>
        <time>2015-08-26T11:51:30.1Z</time>
      </trkpt>
      <trkpt lat="44.4106" lon="6.38514">
        <ele>2406</ele>
        <time>2015-08-26T11:51:35.1Z</time>
      </trkpt>
      <trkpt lat="44.41064" lon="6.38509">
        <ele>2405</ele>
        <time>2015-08-26T11:51:40.1Z</time>
      </trkpt>
      <trkpt lat="44.41069" lon="6.38504">
        <ele>2404</ele>
        <time>2015-08-26T11:51:46.1Z</time>
      </trkpt>
      <trkpt lat="44.41074" lon="6.385">
        <ele>2404</ele>
        <time>2015-08-26T11:51:51.1Z</time>
      </trkpt>
      <trkpt lat="44.41078" lon="6.38496">
        <ele>2404</ele>
        <time>2015-08-26T11:51:56.1Z</time>
      </trkpt>
      <trkpt lat="44.41083" lon="6.38491">
        <ele>2403</ele>
        <time>2015-08-26T11:52:01.1Z</time>
      </trkpt>
      <trkpt lat="44.41088" lon="6.38486">
        <ele>2402</ele>
        <time>2015-08-26T11:52:07.1Z</time>
      </trkpt>
      <trkpt lat="44.41093" lon="6.38482">
        <ele>2402</ele>
        <time>2015-08-26T11:52:12.1Z</time>
      </trkpt>
      <trkpt lat="44.41098" lon="6.38475">
        <ele>2401</ele>
        <time>2015-08-26T11:52:18.1Z</time>
      </trkpt>
      <trkpt lat="44.41102" lon="6.3847">
        <ele>2400</ele>
        <time>2015-08-26T11:52:23.1Z</time>
      </trkpt>
      <trkpt lat="44.41104" lon="6.3847">
        <ele>2400</ele>
        <time>2015-08-26T11:52:28.1Z</time>
      </trkpt>
      <trkpt lat="44.41105" lon="6.38467">
        <ele>2400</ele>
        <time>2015-08-26T11:52:34.1Z</time>
      </trkpt>
      <trkpt lat="44.4111" lon="6.38461">
        <ele>2398</ele>
        <time>2015-08-26T11:52:40.1Z</time>
      </trkpt>
      <trkpt lat="44.41115" lon="6.38455">
        <ele>2398</ele>
        <time>2015-08-26T11:52:45.1Z</time>
      </trkpt>
      <trkpt lat="44.41119" lon="6.38452">
        <ele>2398</ele>
        <time>2015-08-26T11:52:51.1Z</time>
      </trkpt>
      <trkpt lat="44.41121" lon="6.38451">
        <ele>2398</ele>
        <time>2015-08-26T11:52:56.1Z</time>
      </trkpt>
      <trkpt lat="44.41127" lon="6.38456">
        <ele>2398</ele>
        <time>2015-08-26T11:53:02.1Z</time>
      </trkpt>
      <trkpt lat="44.4113" lon="6.38459">
        <ele>2398</ele>
        <time>2015-08-26T11:53:07.1Z</time>
      </trkpt>
      <trkpt lat="44.41129" lon="6.38457">
        <ele>2399</ele>
        <time>2015-08-26T11:53:13.1Z</time>
      </trkpt>
      <trkpt lat="44.41128" lon="6.38451">
        <ele>2398</ele>
        <time>2015-08-26T11:53:19.1Z</time>
      </trkpt>
      <trkpt lat="44.4113" lon="6.38445">
        <ele>2397</ele>
        <time>2015-08-26T11:53:24.1Z</time>
      </trkpt>
      <trkpt lat="44.41132" lon="6.38438">
        <ele>2397</ele>
        <time>2015-08-26T11:53:29.1Z</time>
      </trkpt>
      <trkpt lat="44.41133" lon="6.38431">
        <ele>2395</ele>
        <time>2015-08-26T11:53:34.1Z</time>
      </trkpt>
      <trkpt lat="44.41135" lon="6.38421">
        <ele>2394</ele>
        <time>2015-08-26T11:53:40.1Z</time>
      </trkpt>
      <trkpt lat="44.41139" lon="6.38416">
        <ele>2394</ele>
        <time>2015-08-26T11:53:45.1Z</time>
      </trkpt>
      <trkpt lat="44.41143" lon="6.38411">
        <ele>2393</ele>
        <time>2015-08-26T11:53:50.1Z</time>
      </trkpt>
      <trkpt lat="44.41146" lon="6.38407">
        <ele>2392</ele>
        <time>2015-08-26T11:53:56.1Z</time>
      </trkpt>
      <trkpt lat="44.41152" lon="6.38401">
        <ele>2392</ele>
        <time>2015-08-26T11:54:02.1Z</time>
      </trkpt>
      <trkpt lat="44.41156" lon="6.38396">
        <ele>2390</ele>
        <time>2015-08-26T11:54:07.1Z</time>
      </trkpt>
      <trkpt lat="44.41162" lon="6.38391">
        <ele>2391</ele>
        <time>2015-08-26T11:54:13.1Z</time>
      </trkpt>
      <trkpt lat="44.41167" lon="6.38387">
        <ele>2391</ele>
        <time>2015-08-26T11:54:18.1Z</time>
      </trkpt>
      <trkpt lat="44.41174" lon="6.38386">
        <ele>2391</ele>
        <time>2015-08-26T11:54:24.1Z</time>
      </trkpt>
      <trkpt lat="44.41179" lon="6.38387">
        <ele>2390</ele>
        <time>2015-08-26T11:54:29.1Z</time>
      </trkpt>
      <trkpt lat="44.4118" lon="6.38387">
        <ele>2388</ele>
        <time>2015-08-26T11:54:34.1Z</time>
      </trkpt>
      <trkpt lat="44.41182" lon="6.3839">
        <ele>2388</ele>
        <time>2015-08-26T11:54:40.1Z</time>
      </trkpt>
      <trkpt lat="44.41186" lon="6.38394">
        <ele>2386</ele>
        <time>2015-08-26T11:54:46.1Z</time>
      </trkpt>
      <trkpt lat="44.4119" lon="6.38397">
        <ele>2385</ele>
        <time>2015-08-26T11:54:52.1Z</time>
      </trkpt>
      <trkpt lat="44.41191" lon="6.38397">
        <ele>2385</ele>
        <time>2015-08-26T11:54:57.1Z</time>
      </trkpt>
      <trkpt lat="44.41193" lon="6.38398">
        <ele>2385</ele>
        <time>2015-08-26T11:55:02.1Z</time>
      </trkpt>
      <trkpt lat="44.41192" lon="6.38398">
        <ele>2385</ele>
        <time>2015-08-26T11:55:08.1Z</time>
      </trkpt>
      <trkpt lat="44.41191" lon="6.38399">
        <ele>2385</ele>
        <time>2015-08-26T11:55:13.1Z</time>
      </trkpt>
      <trkpt lat="44.41188" lon="6.38399">
        <ele>2385</ele>
        <time>2015-08-26T11:55:19.1Z</time>
      </trkpt>
      <trkpt lat="44.41188" lon="6.384">
        <ele>2385</ele>
        <time>2015-08-26T11:55:24.1Z</time>
      </trkpt>
      <trkpt lat="44.41189" lon="6.38403">
        <ele>2386</ele>
        <time>2015-08-26T11:55:29.1Z</time>
      </trkpt>
      <trkpt lat="44.41189" lon="6.38403">
        <ele>2386</ele>
        <time>2015-08-26T11:55:35.1Z</time>
      </trkpt>
      <trkpt lat="44.4119" lon="6.38403">
        <ele>2387</ele>
        <time>2015-08-26T11:55:41.1Z</time>
      </trkpt>
      <trkpt lat="44.4119" lon="6.38403">
        <ele>2387</ele>
        <time>2015-08-26T11:55:46.1Z</time>
      </trkpt>
      <trkpt lat="44.41191" lon="6.38402">
        <ele>2387</ele>
        <time>2015-08-26T11:55:51.1Z</time>
      </trkpt>
      <trkpt lat="44.4119" lon="6.38402">
        <ele>2387</ele>
        <time>2015-08-26T11:55:57.1Z</time>
      </trkpt>
      <trkpt lat="44.4119" lon="6.38399">
        <ele>2387</ele>
        <time>2015-08-26T11:56:02.1Z</time>
      </trkpt>
      <trkpt lat="44.4119" lon="6.38398">
        <ele>2386</ele>
        <time>2015-08-26T11:56:08.1Z</time>
      </trkpt>
      <trkpt lat="44.41193" lon="6.38399">
        <ele>2385</ele>
        <time>2015-08-26T11:56:13.1Z</time>
      </trkpt>
      <trkpt lat="44.41197" lon="6.38402">
        <ele>2384</ele>
        <time>2015-08-26T11:56:19.1Z</time>
      </trkpt>
      <trkpt lat="44.412" lon="6.38405">
        <ele>2382</ele>
        <time>2015-08-26T11:56:24.1Z</time>
      </trkpt>
      <trkpt lat="44.41202" lon="6.38407">
        <ele>2381</ele>
        <time>2015-08-26T11:56:29.1Z</time>
      </trkpt>
      <trkpt lat="44.41206" lon="6.3841">
        <ele>2379</ele>
        <time>2015-08-26T11:56:35.1Z</time>
      </trkpt>
      <trkpt lat="44.4121" lon="6.38412">
        <ele>2378</ele>
        <time>2015-08-26T11:56:40.1Z</time>
      </trkpt>
      <trkpt lat="44.41212" lon="6.38413">
        <ele>2377</ele>
        <time>2015-08-26T11:56:46.1Z</time>
      </trkpt>
      <trkpt lat="44.41215" lon="6.38415">
        <ele>2377</ele>
        <time>2015-08-26T11:56:52.1Z</time>
      </trkpt>
      <trkpt lat="44.41215" lon="6.38417">
        <ele>2376</ele>
        <time>2015-08-26T11:56:57.1Z</time>
      </trkpt>
      <trkpt lat="44.41215" lon="6.38418">
        <ele>2375</ele>
        <time>2015-08-26T11:57:02.1Z</time>
      </trkpt>
      <trkpt lat="44.41214" lon="6.38418">
        <ele>2375</ele>
        <time>2015-08-26T11:57:08.1Z</time>
      </trkpt>
      <trkpt lat="44.41215" lon="6.38417">
        <ele>2374</ele>
        <time>2015-08-26T11:57:13.1Z</time>
      </trkpt>
      <trkpt lat="44.41212" lon="6.38418">
        <ele>2374</ele>
        <time>2015-08-26T11:57:19.1Z</time>
      </trkpt>
      <trkpt lat="44.41214" lon="6.38418">
        <ele>2374</ele>
        <time>2015-08-26T11:57:24.1Z</time>
      </trkpt>
      <trkpt lat="44.41215" lon="6.38416">
        <ele>2373</ele>
        <time>2015-08-26T11:57:29.1Z</time>
      </trkpt>
      <trkpt lat="44.41218" lon="6.38415">
        <ele>2373</ele>
        <time>2015-08-26T11:57:34.1Z</time>
      </trkpt>
      <trkpt lat="44.4122" lon="6.38414">
        <ele>2372</ele>
        <time>2015-08-26T11:57:40.1Z</time>
      </trkpt>
      <trkpt lat="44.41221" lon="6.38416">
        <ele>2371</ele>
        <time>2015-08-26T11:57:46.1Z</time>
      </trkpt>
      <trkpt lat="44.41222" lon="6.38417">
        <ele>2370</ele>
        <time>2015-08-26T11:57:51.1Z</time>
      </trkpt>
      <trkpt lat="44.41222" lon="6.38418">
        <ele>2368</ele>
        <time>2015-08-26T11:57:56.1Z</time>
      </trkpt>
      <trkpt lat="44.41224" lon="6.38418">
        <ele>2367</ele>
        <time>2015-08-26T11:58:01.1Z</time>
      </trkpt>
      <trkpt lat="44.41225" lon="6.38415">
        <ele>2366</ele>
        <time>2015-08-26T11:58:06.1Z</time>
      </trkpt>
      <trkpt lat="44.41228" lon="6.38414">
        <ele>2365</ele>
        <time>2015-08-26T11:58:11.1Z</time>
      </trkpt>
      <trkpt lat="44.41231" lon="6.38412">
        <ele>2363</ele>
        <time>2015-08-26T11:58:17.1Z</time>
      </trkpt>
      <trkpt lat="44.41233" lon="6.38411">
        <ele>2362</ele>
        <time>2015-08-26T11:58:23.1Z</time>
      </trkpt>
      <trkpt lat="44.41236" lon="6.38411">
        <ele>2360</ele>
        <time>2015-08-26T11:58:28.1Z</time>
      </trkpt>
      <trkpt lat="44.4124" lon="6.38408">
        <ele>2360</ele>
        <time>2015-08-26T11:58:34.1Z</time>
      </trkpt>
      <trkpt lat="44.41245" lon="6.38408">
        <ele>2358</ele>
        <time>2015-08-26T11:58:39.1Z</time>
      </trkpt>
      <trkpt lat="44.41247" lon="6.38406">
        <ele>2357</ele>
        <time>2015-08-26T11:58:44.1Z</time>
      </trkpt>
      <trkpt lat="44.41248" lon="6.38405">
        <ele>2356</ele>
        <time>2015-08-26T11:58:49.1Z</time>
      </trkpt>
      <trkpt lat="44.41248" lon="6.38406">
        <ele>2356</ele>
        <time>2015-08-26T11:58:55.1Z</time>
      </trkpt>
      <trkpt lat="44.41253" lon="6.38404">
        <ele>2355</ele>
        <time>2015-08-26T11:59:01.1Z</time>
      </trkpt>
      <trkpt lat="44.41255" lon="6.38403">
        <ele>2353</ele>
        <time>2015-08-26T11:59:06.1Z</time>
      </trkpt>
      <trkpt lat="44.41257" lon="6.38402">
        <ele>2352</ele>
        <time>2015-08-26T11:59:12.1Z</time>
      </trkpt>
      <trkpt lat="44.41259" lon="6.38401">
        <ele>2351</ele>
        <time>2015-08-26T11:59:18.1Z</time>
      </trkpt>
      <trkpt lat="44.41262" lon="6.38399">
        <ele>2350</ele>
        <time>2015-08-26T11:59:23.1Z</time>
      </trkpt>
      <trkpt lat="44.41265" lon="6.38396">
        <ele>2349</ele>
        <time>2015-08-26T11:59:29.1Z</time>
      </trkpt>
      <trkpt lat="44.41266" lon="6.38395">
        <ele>2348</ele>
        <time>2015-08-26T11:59:35.1Z</time>
      </trkpt>
      <trkpt lat="44.41264" lon="6.3839">
        <ele>2347</ele>
        <time>2015-08-26T11:59:40.1Z</time>
      </trkpt>
      <trkpt lat="44.41265" lon="6.38388">
        <ele>2346</ele>
        <time>2015-08-26T11:59:46.1Z</time>
      </trkpt>
      <trkpt lat="44.41267" lon="6.38385">
        <ele>2345</ele>
        <time>2015-08-26T11:59:51.1Z</time>
      </trkpt>
      <trkpt lat="44.41269" lon="6.38384">
        <ele>2343</ele>
        <time>2015-08-26T11:59:56.1Z</time>
      </trkpt>
      <trkpt lat="44.41269" lon="6.38384">
        <ele>2342</ele>
        <time>2015-08-26T12:00:02.1Z</time>
      </trkpt>
      <trkpt lat="44.41269" lon="6.38382">
        <ele>2341</ele>
        <time>2015-08-26T12:00:08.1Z</time>
      </trkpt>
      <trkpt lat="44.41273" lon="6.38381">
        <ele>2339</ele>
        <time>2015-08-26T12:00:14.1Z</time>
      </trkpt>
      <trkpt lat="44.41277" lon="6.38379">
        <ele>2339</ele>
        <time>2015-08-26T12:00:20.1Z</time>
      </trkpt>
      <trkpt lat="44.41278" lon="6.38377">
        <ele>2338</ele>
        <time>2015-08-26T12:00:25.1Z</time>
      </trkpt>
      <trkpt lat="44.4128" lon="6.38375">
        <ele>2337</ele>
        <time>2015-08-26T12:00:30.1Z</time>
      </trkpt>
      <trkpt lat="44.41279" lon="6.38374">
        <ele>2337</ele>
        <time>2015-08-26T12:00:39.1Z</time>
      </trkpt>
      <trkpt lat="44.41279" lon="6.38374">
        <ele>2337</ele>
        <time>2015-08-26T12:00:44.1Z</time>
      </trkpt>
      <trkpt lat="44.4128" lon="6.38374">
        <ele>2337</ele>
        <time>2015-08-26T12:00:51.1Z</time>
      </trkpt>
      <trkpt lat="44.4128" lon="6.3837">
        <ele>2336</ele>
        <time>2015-08-26T12:00:56.1Z</time>
      </trkpt>
      <trkpt lat="44.41284" lon="6.38369">
        <ele>2336</ele>
        <time>2015-08-26T12:01:02.1Z</time>
      </trkpt>
      <trkpt lat="44.41286" lon="6.38369">
        <ele>2335</ele>
        <time>2015-08-26T12:01:08.1Z</time>
      </trkpt>
      <trkpt lat="44.41288" lon="6.38368">
        <ele>2334</ele>
        <time>2015-08-26T12:01:14.1Z</time>
      </trkpt>
      <trkpt lat="44.4129" lon="6.38367">
        <ele>2333</ele>
        <time>2015-08-26T12:01:20.1Z</time>
      </trkpt>
      <trkpt lat="44.41293" lon="6.38367">
        <ele>2333</ele>
        <time>2015-08-26T12:01:26.1Z</time>
      </trkpt>
      <trkpt lat="44.41292" lon="6.38365">
        <ele>2332</ele>
        <time>2015-08-26T12:01:31.1Z</time>
      </trkpt>
      <trkpt lat="44.41294" lon="6.38362">
        <ele>2329</ele>
        <time>2015-08-26T12:01:37.1Z</time>
      </trkpt>
      <trkpt lat="44.41297" lon="6.38361">
        <ele>2328</ele>
        <time>2015-08-26T12:01:42.1Z</time>
      </trkpt>
      <trkpt lat="44.41297" lon="6.38361">
        <ele>2328</ele>
        <time>2015-08-26T12:01:47.1Z</time>
      </trkpt>
      <trkpt lat="44.41297" lon="6.38358">
        <ele>2327</ele>
        <time>2015-08-26T12:01:52.1Z</time>
      </trkpt>
      <trkpt lat="44.41299" lon="6.38359">
        <ele>2326</ele>
        <time>2015-08-26T12:01:58.1Z</time>
      </trkpt>
      <trkpt lat="44.41301" lon="6.38357">
        <ele>2325</ele>
        <time>2015-08-26T12:02:03.1Z</time>
      </trkpt>
      <trkpt lat="44.41301" lon="6.38356">
        <ele>2325</ele>
        <time>2015-08-26T12:02:08.1Z</time>
      </trkpt>
      <trkpt lat="44.41304" lon="6.38357">
        <ele>2324</ele>
        <time>2015-08-26T12:02:14.1Z</time>
      </trkpt>
      <trkpt lat="44.41306" lon="6.38357">
        <ele>2322</ele>
        <time>2015-08-26T12:02:19.1Z</time>
      </trkpt>
      <trkpt lat="44.41307" lon="6.38356">
        <ele>2321</ele>
        <time>2015-08-26T12:02:26.1Z</time>
      </trkpt>
      <trkpt lat="44.4131" lon="6.38358">
        <ele>2319</ele>
        <time>2015-08-26T12:02:31.1Z</time>
      </trkpt>
      <trkpt lat="44.41312" lon="6.38359">
        <ele>2319</ele>
        <time>2015-08-26T12:02:36.1Z</time>
      </trkpt>
      <trkpt lat="44.41314" lon="6.38359">
        <ele>2318</ele>
        <time>2015-08-26T12:02:42.1Z</time>
      </trkpt>
      <trkpt lat="44.41318" lon="6.38358">
        <ele>2316</ele>
        <time>2015-08-26T12:02:47.1Z</time>
      </trkpt>
      <trkpt lat="44.41321" lon="6.38356">
        <ele>2315</ele>
        <time>2015-08-26T12:02:53.1Z</time>
      </trkpt>
      <trkpt lat="44.4133" lon="6.38356">
        <ele>2314</ele>
        <time>2015-08-26T12:02:59.1Z</time>
      </trkpt>
      <trkpt lat="44.41337" lon="6.38357">
        <ele>2314</ele>
        <time>2015-08-26T12:03:05.1Z</time>
      </trkpt>
      <trkpt lat="44.41344" lon="6.38357">
        <ele>2314</ele>
        <time>2015-08-26T12:03:10.1Z</time>
      </trkpt>
      <trkpt lat="44.41351" lon="6.38356">
        <ele>2312</ele>
        <time>2015-08-26T12:03:15.1Z</time>
      </trkpt>
      <trkpt lat="44.41357" lon="6.38356">
        <ele>2310</ele>
        <time>2015-08-26T12:03:20.1Z</time>
      </trkpt>
      <trkpt lat="44.41363" lon="6.38356">
        <ele>2309</ele>
        <time>2015-08-26T12:03:26.1Z</time>
      </trkpt>
      <trkpt lat="44.41372" lon="6.38358">
        <ele>2309</ele>
        <time>2015-08-26T12:03:31.1Z</time>
      </trkpt>
      <trkpt lat="44.4138" lon="6.38366">
        <ele>2307</ele>
        <time>2015-08-26T12:03:37.1Z</time>
      </trkpt>
      <trkpt lat="44.41385" lon="6.38369">
        <ele>2307</ele>
        <time>2015-08-26T12:03:42.1Z</time>
      </trkpt>
      <trkpt lat="44.41393" lon="6.38372">
        <ele>2305</ele>
        <time>2015-08-26T12:03:47.1Z</time>
      </trkpt>
      <trkpt lat="44.41396" lon="6.38376">
        <ele>2304</ele>
        <time>2015-08-26T12:03:53.1Z</time>
      </trkpt>
      <trkpt lat="44.41402" lon="6.38381">
        <ele>2304</ele>
        <time>2015-08-26T12:03:58.1Z</time>
      </trkpt>
      <trkpt lat="44.41407" lon="6.38385">
        <ele>2303</ele>
        <time>2015-08-26T12:04:04.1Z</time>
      </trkpt>
      <trkpt lat="44.41409" lon="6.38392">
        <ele>2301</ele>
        <time>2015-08-26T12:04:09.1Z</time>
      </trkpt>
      <trkpt lat="44.41409" lon="6.38392">
        <ele>2301</ele>
        <time>2015-08-26T12:04:16.1Z</time>
      </trkpt>
      <trkpt lat="44.41409" lon="6.38392">
        <ele>2301</ele>
        <time>2015-08-26T12:04:21.1Z</time>
      </trkpt>
      <trkpt lat="44.41409" lon="6.38393">
        <ele>2301</ele>
        <time>2015-08-26T12:04:27.1Z</time>
      </trkpt>
      <trkpt lat="44.41409" lon="6.38394">
        <ele>2301</ele>
        <time>2015-08-26T12:04:33.1Z</time>
      </trkpt>
      <trkpt lat="44.41411" lon="6.38396">
        <ele>2301</ele>
        <time>2015-08-26T12:04:38.1Z</time>
      </trkpt>
      <trkpt lat="44.41415" lon="6.38397">
        <ele>2299</ele>
        <time>2015-08-26T12:04:44.1Z</time>
      </trkpt>
      <trkpt lat="44.41419" lon="6.384">
        <ele>2298</ele>
        <time>2015-08-26T12:04:49.1Z</time>
      </trkpt>
      <trkpt lat="44.41424" lon="6.384">
        <ele>2297</ele>
        <time>2015-08-26T12:04:54.1Z</time>
      </trkpt>
      <trkpt lat="44.41429" lon="6.38403">
        <ele>2296</ele>
        <time>2015-08-26T12:04:59.1Z</time>
      </trkpt>
      <trkpt lat="44.41431" lon="6.38407">
        <ele>2295</ele>
        <time>2015-08-26T12:05:05.1Z</time>
      </trkpt>
      <trkpt lat="44.41434" lon="6.38412">
        <ele>2294</ele>
        <time>2015-08-26T12:05:10.1Z</time>
      </trkpt>
      <trkpt lat="44.41438" lon="6.38416">
        <ele>2293</ele>
        <time>2015-08-26T12:05:16.1Z</time>
      </trkpt>
      <trkpt lat="44.41443" lon="6.38416">
        <ele>2291</ele>
        <time>2015-08-26T12:05:21.1Z</time>
      </trkpt>
      <trkpt lat="44.41449" lon="6.38419">
        <ele>2290</ele>
        <time>2015-08-26T12:05:27.1Z</time>
      </trkpt>
      <trkpt lat="44.41454" lon="6.38421">
        <ele>2288</ele>
        <time>2015-08-26T12:05:32.1Z</time>
      </trkpt>
      <trkpt lat="44.41457" lon="6.38426">
        <ele>2287</ele>
        <time>2015-08-26T12:05:37.1Z</time>
      </trkpt>
      <trkpt lat="44.41458" lon="6.3843">
        <ele>2284</ele>
        <time>2015-08-26T12:05:44.1Z</time>
      </trkpt>
      <trkpt lat="44.41462" lon="6.38433">
        <ele>2282</ele>
        <time>2015-08-26T12:05:49.1Z</time>
      </trkpt>
      <trkpt lat="44.41466" lon="6.38436">
        <ele>2281</ele>
        <time>2015-08-26T12:05:55.1Z</time>
      </trkpt>
      <trkpt lat="44.4147" lon="6.38437">
        <ele>2280</ele>
        <time>2015-08-26T12:06:00.1Z</time>
      </trkpt>
      <trkpt lat="44.41476" lon="6.38435">
        <ele>2278</ele>
        <time>2015-08-26T12:06:05.1Z</time>
      </trkpt>
      <trkpt lat="44.41481" lon="6.38436">
        <ele>2276</ele>
        <time>2015-08-26T12:06:11.1Z</time>
      </trkpt>
      <trkpt lat="44.41486" lon="6.38442">
        <ele>2274</ele>
        <time>2015-08-26T12:06:16.1Z</time>
      </trkpt>
      <trkpt lat="44.41491" lon="6.38447">
        <ele>2273</ele>
        <time>2015-08-26T12:06:22.1Z</time>
      </trkpt>
      <trkpt lat="44.41496" lon="6.38453">
        <ele>2271</ele>
        <time>2015-08-26T12:06:27.1Z</time>
      </trkpt>
      <trkpt lat="44.41502" lon="6.38453">
        <ele>2270</ele>
        <time>2015-08-26T12:06:32.1Z</time>
      </trkpt>
      <trkpt lat="44.41509" lon="6.38459">
        <ele>2269</ele>
        <time>2015-08-26T12:06:38.1Z</time>
      </trkpt>
      <trkpt lat="44.41514" lon="6.38465">
        <ele>2268</ele>
        <time>2015-08-26T12:06:44.1Z</time>
      </trkpt>
      <trkpt lat="44.41517" lon="6.38468">
        <ele>2267</ele>
        <time>2015-08-26T12:06:49.1Z</time>
      </trkpt>
      <trkpt lat="44.41517" lon="6.38473">
        <ele>2265</ele>
        <time>2015-08-26T12:06:55.1Z</time>
      </trkpt>
      <trkpt lat="44.41517" lon="6.38474">
        <ele>2265</ele>
        <time>2015-08-26T12:07:01.1Z</time>
      </trkpt>
      <trkpt lat="44.41517" lon="6.38475">
        <ele>2265</ele>
        <time>2015-08-26T12:07:06.1Z</time>
      </trkpt>
      <trkpt lat="44.41517" lon="6.38476">
        <ele>2265</ele>
        <time>2015-08-26T12:07:13.1Z</time>
      </trkpt>
      <trkpt lat="44.41518" lon="6.38476">
        <ele>2265</ele>
        <time>2015-08-26T12:07:19.1Z</time>
      </trkpt>
      <trkpt lat="44.41518" lon="6.38477">
        <ele>2265</ele>
        <time>2015-08-26T12:07:24.1Z</time>
      </trkpt>
      <trkpt lat="44.41518" lon="6.38477">
        <ele>2265</ele>
        <time>2015-08-26T12:07:30.1Z</time>
      </trkpt>
      <trkpt lat="44.4152" lon="6.38478">
        <ele>2265</ele>
        <time>2015-08-26T12:07:35.1Z</time>
      </trkpt>
      <trkpt lat="44.4152" lon="6.38475">
        <ele>2264</ele>
        <time>2015-08-26T12:07:41.1Z</time>
      </trkpt>
      <trkpt lat="44.41523" lon="6.38478">
        <ele>2262</ele>
        <time>2015-08-26T12:07:46.1Z</time>
      </trkpt>
      <trkpt lat="44.41526" lon="6.3848">
        <ele>2261</ele>
        <time>2015-08-26T12:07:51.1Z</time>
      </trkpt>
      <trkpt lat="44.41532" lon="6.3848">
        <ele>2259</ele>
        <time>2015-08-26T12:07:58.1Z</time>
      </trkpt>
      <trkpt lat="44.41537" lon="6.3848">
        <ele>2257</ele>
        <time>2015-08-26T12:08:03.1Z</time>
      </trkpt>
      <trkpt lat="44.41545" lon="6.38479">
        <ele>2256</ele>
        <time>2015-08-26T12:08:08.1Z</time>
      </trkpt>
      <trkpt lat="44.41552" lon="6.3848">
        <ele>2255</ele>
        <time>2015-08-26T12:08:13.1Z</time>
      </trkpt>
      <trkpt lat="44.4156" lon="6.38481">
        <ele>2255</ele>
        <time>2015-08-26T12:08:19.1Z</time>
      </trkpt>
      <trkpt lat="44.41565" lon="6.38485">
        <ele>2257</ele>
        <time>2015-08-26T12:08:24.1Z</time>
      </trkpt>
      <trkpt lat="44.4157" lon="6.38489">
        <ele>2258</ele>
        <time>2015-08-26T12:08:29.1Z</time>
      </trkpt>
      <trkpt lat="44.41575" lon="6.3849">
        <ele>2259</ele>
        <time>2015-08-26T12:08:35.1Z</time>
      </trkpt>
      <trkpt lat="44.41574" lon="6.3849">
        <ele>2260</ele>
        <time>2015-08-26T12:08:40.1Z</time>
      </trkpt>
      <trkpt lat="44.41574" lon="6.3849">
        <ele>2260</ele>
        <time>2015-08-26T12:08:47.1Z</time>
      </trkpt>
      <trkpt lat="44.41574" lon="6.3849">
        <ele>2260</ele>
        <time>2015-08-26T12:08:53.1Z</time>
      </trkpt>
      <trkpt lat="44.41578" lon="6.38492">
        <ele>2260</ele>
        <time>2015-08-26T12:08:58.1Z</time>
      </trkpt>
      <trkpt lat="44.41585" lon="6.38496">
        <ele>2261</ele>
        <time>2015-08-26T12:09:03.1Z</time>
      </trkpt>
      <trkpt lat="44.41591" lon="6.38499">
        <ele>2260</ele>
        <time>2015-08-26T12:09:08.1Z</time>
      </trkpt>
      <trkpt lat="44.41596" lon="6.385">
        <ele>2260</ele>
        <time>2015-08-26T12:09:14.1Z</time>
      </trkpt>
      <trkpt lat="44.41603" lon="6.38503">
        <ele>2261</ele>
        <time>2015-08-26T12:09:19.1Z</time>
      </trkpt>
      <trkpt lat="44.41609" lon="6.38507">
        <ele>2261</ele>
        <time>2015-08-26T12:09:25.1Z</time>
      </trkpt>
      <trkpt lat="44.41615" lon="6.38507">
        <ele>2262</ele>
        <time>2015-08-26T12:09:30.1Z</time>
      </trkpt>
      <trkpt lat="44.41623" lon="6.38505">
        <ele>2262</ele>
        <time>2015-08-26T12:09:35.1Z</time>
      </trkpt>
      <trkpt lat="44.41632" lon="6.38508">
        <ele>2262</ele>
        <time>2015-08-26T12:09:41.1Z</time>
      </trkpt>
      <trkpt lat="44.41638" lon="6.38511">
        <ele>2263</ele>
        <time>2015-08-26T12:09:46.1Z</time>
      </trkpt>
      <trkpt lat="44.41645" lon="6.38513">
        <ele>2263</ele>
        <time>2015-08-26T12:09:53.1Z</time>
      </trkpt>
      <trkpt lat="44.41651" lon="6.38513">
        <ele>2263</ele>
        <time>2015-08-26T12:09:59.1Z</time>
      </trkpt>
      <trkpt lat="44.41656" lon="6.38513">
        <ele>2264</ele>
        <time>2015-08-26T12:10:04.1Z</time>
      </trkpt>
      <trkpt lat="44.4166" lon="6.38511">
        <ele>2266</ele>
        <time>2015-08-26T12:10:10.1Z</time>
      </trkpt>
      <trkpt lat="44.41663" lon="6.38506">
        <ele>2266</ele>
        <time>2015-08-26T12:10:15.1Z</time>
      </trkpt>
      <trkpt lat="44.41665" lon="6.38504">
        <ele>2265</ele>
        <time>2015-08-26T12:10:21.1Z</time>
      </trkpt>
      <trkpt lat="44.41667" lon="6.38505">
        <ele>2265</ele>
        <time>2015-08-26T12:10:26.1Z</time>
      </trkpt>
      <trkpt lat="44.41667" lon="6.38505">
        <ele>2265</ele>
        <time>2015-08-26T12:10:31.1Z</time>
      </trkpt>
      <trkpt lat="44.41667" lon="6.38505">
        <ele>2265</ele>
        <time>2015-08-26T12:10:37.1Z</time>
      </trkpt>
      <trkpt lat="44.41667" lon="6.38505">
        <ele>2265</ele>
        <time>2015-08-26T12:10:42.1Z</time>
      </trkpt>
      <trkpt lat="44.41667" lon="6.38505">
        <ele>2264</ele>
        <time>2015-08-26T12:10:47.1Z</time>
      </trkpt>
      <trkpt lat="44.41665" lon="6.38503">
        <ele>2265</ele>
        <time>2015-08-26T12:10:54.1Z</time>
      </trkpt>
      <trkpt lat="44.41665" lon="6.38499">
        <ele>2264</ele>
        <time>2015-08-26T12:11:00.1Z</time>
      </trkpt>
      <trkpt lat="44.41668" lon="6.38498">
        <ele>2263</ele>
        <time>2015-08-26T12:11:05.1Z</time>
      </trkpt>
      <trkpt lat="44.41672" lon="6.38497">
        <ele>2262</ele>
        <time>2015-08-26T12:11:10.1Z</time>
      </trkpt>
      <trkpt lat="44.41673" lon="6.38501">
        <ele>2261</ele>
        <time>2015-08-26T12:11:16.1Z</time>
      </trkpt>
      <trkpt lat="44.41675" lon="6.38509">
        <ele>2260</ele>
        <time>2015-08-26T12:11:21.1Z</time>
      </trkpt>
      <trkpt lat="44.41673" lon="6.38514">
        <ele>2260</ele>
        <time>2015-08-26T12:11:27.1Z</time>
      </trkpt>
      <trkpt lat="44.41673" lon="6.38514">
        <ele>2261</ele>
        <time>2015-08-26T12:11:32.1Z</time>
      </trkpt>
      <trkpt lat="44.41673" lon="6.38519">
        <ele>2261</ele>
        <time>2015-08-26T12:11:37.1Z</time>
      </trkpt>
      <trkpt lat="44.41671" lon="6.38519">
        <ele>2261</ele>
        <time>2015-08-26T12:11:43.1Z</time>
      </trkpt>
      <trkpt lat="44.41671" lon="6.3852">
        <ele>2261</ele>
        <time>2015-08-26T12:11:48.1Z</time>
      </trkpt>
      <trkpt lat="44.41672" lon="6.38526">
        <ele>2260</ele>
        <time>2015-08-26T12:11:54.1Z</time>
      </trkpt>
      <trkpt lat="44.41674" lon="6.38531">
        <ele>2260</ele>
        <time>2015-08-26T12:11:59.1Z</time>
      </trkpt>
      <trkpt lat="44.41673" lon="6.38538">
        <ele>2259</ele>
        <time>2015-08-26T12:12:05.1Z</time>
      </trkpt>
      <trkpt lat="44.41674" lon="6.38539">
        <ele>2258</ele>
        <time>2015-08-26T12:12:11.1Z</time>
      </trkpt>
      <trkpt lat="44.41676" lon="6.38538">
        <ele>2258</ele>
        <time>2015-08-26T12:12:16.1Z</time>
      </trkpt>
      <trkpt lat="44.41676" lon="6.3854">
        <ele>2256</ele>
        <time>2015-08-26T12:12:22.1Z</time>
      </trkpt>
      <trkpt lat="44.41677" lon="6.38547">
        <ele>2255</ele>
        <time>2015-08-26T12:12:27.1Z</time>
      </trkpt>
      <trkpt lat="44.41679" lon="6.38552">
        <ele>2253</ele>
        <time>2015-08-26T12:12:33.1Z</time>
      </trkpt>
      <trkpt lat="44.41679" lon="6.38558">
        <ele>2252</ele>
        <time>2015-08-26T12:12:38.1Z</time>
      </trkpt>
      <trkpt lat="44.4168" lon="6.38562">
        <ele>2252</ele>
        <time>2015-08-26T12:12:43.1Z</time>
      </trkpt>
      <trkpt lat="44.41681" lon="6.38566">
        <ele>2251</ele>
        <time>2015-08-26T12:12:48.1Z</time>
      </trkpt>
      <trkpt lat="44.41682" lon="6.38566">
        <ele>2251</ele>
        <time>2015-08-26T12:12:55.1Z</time>
      </trkpt>
      <trkpt lat="44.41682" lon="6.38566">
        <ele>2250</ele>
        <time>2015-08-26T12:13:01.1Z</time>
      </trkpt>
      <trkpt lat="44.41683" lon="6.38564">
        <ele>2249</ele>
        <time>2015-08-26T12:13:07.1Z</time>
      </trkpt>
      <trkpt lat="44.41683" lon="6.38563">
        <ele>2247</ele>
        <time>2015-08-26T12:13:12.1Z</time>
      </trkpt>
      <trkpt lat="44.41684" lon="6.38563">
        <ele>2247</ele>
        <time>2015-08-26T12:13:17.1Z</time>
      </trkpt>
      <trkpt lat="44.41684" lon="6.38563">
        <ele>2246</ele>
        <time>2015-08-26T12:13:22.1Z</time>
      </trkpt>
      <trkpt lat="44.41685" lon="6.38565">
        <ele>2247</ele>
        <time>2015-08-26T12:13:28.1Z</time>
      </trkpt>
      <trkpt lat="44.41686" lon="6.38573">
        <ele>2247</ele>
        <time>2015-08-26T12:13:33.1Z</time>
      </trkpt>
      <trkpt lat="44.41688" lon="6.38577">
        <ele>2246</ele>
        <time>2015-08-26T12:13:39.1Z</time>
      </trkpt>
      <trkpt lat="44.4169" lon="6.38581">
        <ele>2245</ele>
        <time>2015-08-26T12:13:45.1Z</time>
      </trkpt>
      <trkpt lat="44.41692" lon="6.38587">
        <ele>2243</ele>
        <time>2015-08-26T12:13:51.1Z</time>
      </trkpt>
      <trkpt lat="44.41697" lon="6.38594">
        <ele>2241</ele>
        <time>2015-08-26T12:13:57.1Z</time>
      </trkpt>
      <trkpt lat="44.417" lon="6.38603">
        <ele>2241</ele>
        <time>2015-08-26T12:14:03.1Z</time>
      </trkpt>
      <trkpt lat="44.41702" lon="6.38609">
        <ele>2240</ele>
        <time>2015-08-26T12:14:08.1Z</time>
      </trkpt>
      <trkpt lat="44.41702" lon="6.38615">
        <ele>2239</ele>
        <time>2015-08-26T12:14:13.1Z</time>
      </trkpt>
      <trkpt lat="44.41705" lon="6.38623">
        <ele>2238</ele>
        <time>2015-08-26T12:14:20.1Z</time>
      </trkpt>
      <trkpt lat="44.41704" lon="6.38629">
        <ele>2237</ele>
        <time>2015-08-26T12:14:25.1Z</time>
      </trkpt>
      <trkpt lat="44.41703" lon="6.38629">
        <ele>2236</ele>
        <time>2015-08-26T12:14:31.1Z</time>
      </trkpt>
      <trkpt lat="44.41702" lon="6.3863">
        <ele>2236</ele>
        <time>2015-08-26T12:14:36.1Z</time>
      </trkpt>
      <trkpt lat="44.41704" lon="6.38637">
        <ele>2236</ele>
        <time>2015-08-26T12:14:41.1Z</time>
      </trkpt>
      <trkpt lat="44.41705" lon="6.38641">
        <ele>2236</ele>
        <time>2015-08-26T12:14:47.1Z</time>
      </trkpt>
      <trkpt lat="44.41705" lon="6.38642">
        <ele>2235</ele>
        <time>2015-08-26T12:14:53.1Z</time>
      </trkpt>
      <trkpt lat="44.41706" lon="6.38644">
        <ele>2235</ele>
        <time>2015-08-26T12:14:59.1Z</time>
      </trkpt>
      <trkpt lat="44.41713" lon="6.38645">
        <ele>2235</ele>
        <time>2015-08-26T12:15:05.1Z</time>
      </trkpt>
      <trkpt lat="44.41715" lon="6.38642">
        <ele>2234</ele>
        <time>2015-08-26T12:15:10.1Z</time>
      </trkpt>
      <trkpt lat="44.41719" lon="6.38646">
        <ele>2234</ele>
        <time>2015-08-26T12:15:15.1Z</time>
      </trkpt>
      <trkpt lat="44.41721" lon="6.38652">
        <ele>2233</ele>
        <time>2015-08-26T12:15:20.1Z</time>
      </trkpt>
      <trkpt lat="44.4172" lon="6.38658">
        <ele>2232</ele>
        <time>2015-08-26T12:15:25.1Z</time>
      </trkpt>
      <trkpt lat="44.4172" lon="6.38663">
        <ele>2231</ele>
        <time>2015-08-26T12:15:31.1Z</time>
      </trkpt>
      <trkpt lat="44.41721" lon="6.3867">
        <ele>2230</ele>
        <time>2015-08-26T12:15:36.1Z</time>
      </trkpt>
      <trkpt lat="44.41722" lon="6.38673">
        <ele>2229</ele>
        <time>2015-08-26T12:15:41.1Z</time>
      </trkpt>
      <trkpt lat="44.41722" lon="6.38674">
        <ele>2228</ele>
        <time>2015-08-26T12:15:47.1Z</time>
      </trkpt>
      <trkpt lat="44.41722" lon="6.38674">
        <ele>2227</ele>
        <time>2015-08-26T12:15:52.1Z</time>
      </trkpt>
      <trkpt lat="44.41723" lon="6.38673">
        <ele>2227</ele>
        <time>2015-08-26T12:15:59.1Z</time>
      </trkpt>
      <trkpt lat="44.41724" lon="6.38673">
        <ele>2227</ele>
        <time>2015-08-26T12:16:05.1Z</time>
      </trkpt>
      <trkpt lat="44.41725" lon="6.38672">
        <ele>2226</ele>
        <time>2015-08-26T12:16:10.1Z</time>
      </trkpt>
      <trkpt lat="44.41724" lon="6.38672">
        <ele>2226</ele>
        <time>2015-08-26T12:16:15.1Z</time>
      </trkpt>
      <trkpt lat="44.41724" lon="6.38671">
        <ele>2226</ele>
        <time>2015-08-26T12:16:20.1Z</time>
      </trkpt>
      <trkpt lat="44.41726" lon="6.38672">
        <ele>2225</ele>
        <time>2015-08-26T12:16:26.1Z</time>
      </trkpt>
      <trkpt lat="44.41727" lon="6.38672">
        <ele>2224</ele>
        <time>2015-08-26T12:16:32.1Z</time>
      </trkpt>
      <trkpt lat="44.41727" lon="6.3867">
        <ele>2224</ele>
        <time>2015-08-26T12:16:38.1Z</time>
      </trkpt>
      <trkpt lat="44.41727" lon="6.38672">
        <ele>2224</ele>
        <time>2015-08-26T12:16:43.1Z</time>
      </trkpt>
      <trkpt lat="44.41726" lon="6.38672">
        <ele>2223</ele>
        <time>2015-08-26T12:16:48.1Z</time>
      </trkpt>
      <trkpt lat="44.41725" lon="6.38672">
        <ele>2224</ele>
        <time>2015-08-26T12:16:54.1Z</time>
      </trkpt>
      <trkpt lat="44.41724" lon="6.38672">
        <ele>2224</ele>
        <time>2015-08-26T12:16:59.1Z</time>
      </trkpt>
      <trkpt lat="44.41725" lon="6.38673">
        <ele>2224</ele>
        <time>2015-08-26T12:17:04.1Z</time>
      </trkpt>
      <trkpt lat="44.41725" lon="6.38672">
        <ele>2224</ele>
        <time>2015-08-26T12:17:10.1Z</time>
      </trkpt>
      <trkpt lat="44.41725" lon="6.38673">
        <ele>2224</ele>
        <time>2015-08-26T12:17:15.1Z</time>
      </trkpt>
      <trkpt lat="44.41725" lon="6.38674">
        <ele>2224</ele>
        <time>2015-08-26T12:17:20.1Z</time>
      </trkpt>
      <trkpt lat="44.41725" lon="6.38674">
        <ele>2224</ele>
        <time>2015-08-26T12:17:25.1Z</time>
      </trkpt>
      <trkpt lat="44.41725" lon="6.38674">
        <ele>2224</ele>
        <time>2015-08-26T12:17:32.1Z</time>
      </trkpt>
      <trkpt lat="44.41725" lon="6.38675">
        <ele>2223</ele>
        <time>2015-08-26T12:17:37.1Z</time>
      </trkpt>
      <trkpt lat="44.41725" lon="6.38677">
        <ele>2223</ele>
        <time>2015-08-26T12:17:43.1Z</time>
      </trkpt>
      <trkpt lat="44.41724" lon="6.38678">
        <ele>2222</ele>
        <time>2015-08-26T12:17:48.1Z</time>
      </trkpt>
      <trkpt lat="44.41725" lon="6.38679">
        <ele>2222</ele>
        <time>2015-08-26T12:17:53.1Z</time>
      </trkpt>
      <trkpt lat="44.41726" lon="6.38679">
        <ele>2221</ele>
        <time>2015-08-26T12:17:59.1Z</time>
      </trkpt>
      <trkpt lat="44.41727" lon="6.38679">
        <ele>2221</ele>
        <time>2015-08-26T12:18:05.1Z</time>
      </trkpt>
      <trkpt lat="44.41729" lon="6.38679">
        <ele>2221</ele>
        <time>2015-08-26T12:18:10.1Z</time>
      </trkpt>
      <trkpt lat="44.41729" lon="6.38681">
        <ele>2220</ele>
        <time>2015-08-26T12:18:16.1Z</time>
      </trkpt>
      <trkpt lat="44.41729" lon="6.38682">
        <ele>2220</ele>
        <time>2015-08-26T12:18:22.1Z</time>
      </trkpt>
      <trkpt lat="44.41729" lon="6.38681">
        <ele>2220</ele>
        <time>2015-08-26T12:18:29.1Z</time>
      </trkpt>
      <trkpt lat="44.41729" lon="6.38681">
        <ele>2220</ele>
        <time>2015-08-26T12:18:34.1Z</time>
      </trkpt>
      <trkpt lat="44.41728" lon="6.38682">
        <ele>2220</ele>
        <time>2015-08-26T12:18:40.1Z</time>
      </trkpt>
      <trkpt lat="44.41728" lon="6.38682">
        <ele>2220</ele>
        <time>2015-08-26T12:18:47.1Z</time>
      </trkpt>
      <trkpt lat="44.41728" lon="6.38682">
        <ele>2220</ele>
        <time>2015-08-26T12:18:54.1Z</time>
      </trkpt>
      <trkpt lat="44.41727" lon="6.38682">
        <ele>2221</ele>
        <time>2015-08-26T12:18:59.1Z</time>
      </trkpt>
      <trkpt lat="44.41727" lon="6.38683">
        <ele>2221</ele>
        <time>2015-08-26T12:19:05.1Z</time>
      </trkpt>
      <trkpt lat="44.41727" lon="6.38684">
        <ele>2221</ele>
        <time>2015-08-26T12:19:10.1Z</time>
      </trkpt>
      <trkpt lat="44.41727" lon="6.38683">
        <ele>2220</ele>
        <time>2015-08-26T12:19:18.1Z</time>
      </trkpt>
      <trkpt lat="44.41727" lon="6.38683">
        <ele>2220</ele>
        <time>2015-08-26T12:19:25.1Z</time>
      </trkpt>
      <trkpt lat="44.41727" lon="6.38684">
        <ele>2220</ele>
        <time>2015-08-26T12:19:30.1Z</time>
      </trkpt>
      <trkpt lat="44.41728" lon="6.38686">
        <ele>2220</ele>
        <time>2015-08-26T12:19:36.1Z</time>
      </trkpt>
      <trkpt lat="44.4173" lon="6.38689">
        <ele>2219</ele>
        <time>2015-08-26T12:19:42.1Z</time>
      </trkpt>
      <trkpt lat="44.4173" lon="6.38694">
        <ele>2218</ele>
        <time>2015-08-26T12:19:47.1Z</time>
      </trkpt>
      <trkpt lat="44.41734" lon="6.38697">
        <ele>2217</ele>
        <time>2015-08-26T12:19:53.1Z</time>
      </trkpt>
      <trkpt lat="44.41738" lon="6.38703">
        <ele>2216</ele>
        <time>2015-08-26T12:19:59.1Z</time>
      </trkpt>
      <trkpt lat="44.41742" lon="6.38707">
        <ele>2215</ele>
        <time>2015-08-26T12:20:04.1Z</time>
      </trkpt>
      <trkpt lat="44.41745" lon="6.38711">
        <ele>2215</ele>
        <time>2015-08-26T12:20:11.1Z</time>
      </trkpt>
      <trkpt lat="44.41747" lon="6.38714">
        <ele>2213</ele>
        <time>2015-08-26T12:20:17.1Z</time>
      </trkpt>
      <trkpt lat="44.4175" lon="6.38716">
        <ele>2213</ele>
        <time>2015-08-26T12:20:22.1Z</time>
      </trkpt>
      <trkpt lat="44.41752" lon="6.38716">
        <ele>2212</ele>
        <time>2015-08-26T12:20:27.1Z</time>
      </trkpt>
      <trkpt lat="44.41756" lon="6.38721">
        <ele>2211</ele>
        <time>2015-08-26T12:20:33.1Z</time>
      </trkpt>
      <trkpt lat="44.41759" lon="6.38725">
        <ele>2210</ele>
        <time>2015-08-26T12:20:39.1Z</time>
      </trkpt>
      <trkpt lat="44.4176" lon="6.38726">
        <ele>2210</ele>
        <time>2015-08-26T12:20:45.1Z</time>
      </trkpt>
      <trkpt lat="44.41762" lon="6.38729">
        <ele>2209</ele>
        <time>2015-08-26T12:20:50.1Z</time>
      </trkpt>
      <trkpt lat="44.41767" lon="6.38734">
        <ele>2208</ele>
        <time>2015-08-26T12:20:55.1Z</time>
      </trkpt>
      <trkpt lat="44.41773" lon="6.38737">
        <ele>2206</ele>
        <time>2015-08-26T12:21:01.1Z</time>
      </trkpt>
      <trkpt lat="44.41782" lon="6.3874">
        <ele>2205</ele>
        <time>2015-08-26T12:21:06.1Z</time>
      </trkpt>
      <trkpt lat="44.41788" lon="6.3874">
        <ele>2205</ele>
        <time>2015-08-26T12:21:11.1Z</time>
      </trkpt>
      <trkpt lat="44.41789" lon="6.38741">
        <ele>2205</ele>
        <time>2015-08-26T12:21:18.1Z</time>
      </trkpt>
      <trkpt lat="44.41789" lon="6.38742">
        <ele>2205</ele>
        <time>2015-08-26T12:21:26.1Z</time>
      </trkpt>
      <trkpt lat="44.41789" lon="6.38742">
        <ele>2204</ele>
        <time>2015-08-26T12:21:32.1Z</time>
      </trkpt>
      <trkpt lat="44.4179" lon="6.38738">
        <ele>2205</ele>
        <time>2015-08-26T12:21:37.1Z</time>
      </trkpt>
      <trkpt lat="44.41787" lon="6.3873">
        <ele>2204</ele>
        <time>2015-08-26T12:21:43.1Z</time>
      </trkpt>
      <trkpt lat="44.41787" lon="6.3872">
        <ele>2202</ele>
        <time>2015-08-26T12:21:49.1Z</time>
      </trkpt>
      <trkpt lat="44.41785" lon="6.38715">
        <ele>2202</ele>
        <time>2015-08-26T12:21:54.1Z</time>
      </trkpt>
      <trkpt lat="44.41786" lon="6.38715">
        <ele>2202</ele>
        <time>2015-08-26T12:21:59.1Z</time>
      </trkpt>
      <trkpt lat="44.41787" lon="6.38716">
        <ele>2201</ele>
        <time>2015-08-26T12:22:05.1Z</time>
      </trkpt>
      <trkpt lat="44.41784" lon="6.38713">
        <ele>2200</ele>
        <time>2015-08-26T12:22:11.1Z</time>
      </trkpt>
      <trkpt lat="44.41783" lon="6.38704">
        <ele>2199</ele>
        <time>2015-08-26T12:22:17.1Z</time>
      </trkpt>
      <trkpt lat="44.41779" lon="6.38695">
        <ele>2197</ele>
        <time>2015-08-26T12:22:23.1Z</time>
      </trkpt>
      <trkpt lat="44.41774" lon="6.38685">
        <ele>2196</ele>
        <time>2015-08-26T12:22:28.1Z</time>
      </trkpt>
      <trkpt lat="44.4177" lon="6.38676">
        <ele>2194</ele>
        <time>2015-08-26T12:22:34.1Z</time>
      </trkpt>
      <trkpt lat="44.41766" lon="6.38669">
        <ele>2193</ele>
        <time>2015-08-26T12:22:39.1Z</time>
      </trkpt>
      <trkpt lat="44.41765" lon="6.38659">
        <ele>2193</ele>
        <time>2015-08-26T12:22:45.1Z</time>
      </trkpt>
      <trkpt lat="44.41763" lon="6.38649">
        <ele>2191</ele>
        <time>2015-08-26T12:22:51.1Z</time>
      </trkpt>
      <trkpt lat="44.41763" lon="6.38637">
        <ele>2190</ele>
        <time>2015-08-26T12:22:57.1Z</time>
      </trkpt>
      <trkpt lat="44.41763" lon="6.38632">
        <ele>2188</ele>
        <time>2015-08-26T12:23:03.1Z</time>
      </trkpt>
      <trkpt lat="44.41764" lon="6.38634">
        <ele>2188</ele>
        <time>2015-08-26T12:23:08.1Z</time>
      </trkpt>
      <trkpt lat="44.41764" lon="6.38634">
        <ele>2188</ele>
        <time>2015-08-26T12:23:13.1Z</time>
      </trkpt>
      <trkpt lat="44.41762" lon="6.38627">
        <ele>2188</ele>
        <time>2015-08-26T12:23:18.1Z</time>
      </trkpt>
      <trkpt lat="44.4176" lon="6.38615">
        <ele>2188</ele>
        <time>2015-08-26T12:23:24.1Z</time>
      </trkpt>
      <trkpt lat="44.41758" lon="6.38605">
        <ele>2187</ele>
        <time>2015-08-26T12:23:29.1Z</time>
      </trkpt>
      <trkpt lat="44.41756" lon="6.38593">
        <ele>2187</ele>
        <time>2015-08-26T12:23:35.1Z</time>
      </trkpt>
      <trkpt lat="44.41754" lon="6.38586">
        <ele>2186</ele>
        <time>2015-08-26T12:23:40.1Z</time>
      </trkpt>
      <trkpt lat="44.41753" lon="6.38578">
        <ele>2186</ele>
        <time>2015-08-26T12:23:45.1Z</time>
      </trkpt>
      <trkpt lat="44.41751" lon="6.38568">
        <ele>2186</ele>
        <time>2015-08-26T12:23:51.1Z</time>
      </trkpt>
      <trkpt lat="44.41752" lon="6.38557">
        <ele>2185</ele>
        <time>2015-08-26T12:23:57.1Z</time>
      </trkpt>
      <trkpt lat="44.41753" lon="6.38547">
        <ele>2184</ele>
        <time>2015-08-26T12:24:02.1Z</time>
      </trkpt>
      <trkpt lat="44.41753" lon="6.38538">
        <ele>2183</ele>
        <time>2015-08-26T12:24:08.1Z</time>
      </trkpt>
      <trkpt lat="44.41754" lon="6.38531">
        <ele>2183</ele>
        <time>2015-08-26T12:24:14.1Z</time>
      </trkpt>
      <trkpt lat="44.41753" lon="6.38525">
        <ele>2183</ele>
        <time>2015-08-26T12:24:19.1Z</time>
      </trkpt>
      <trkpt lat="44.41754" lon="6.38523">
        <ele>2182</ele>
        <time>2015-08-26T12:24:24.1Z</time>
      </trkpt>
      <trkpt lat="44.41754" lon="6.38522">
        <ele>2182</ele>
        <time>2015-08-26T12:24:30.1Z</time>
      </trkpt>
      <trkpt lat="44.41754" lon="6.38513">
        <ele>2182</ele>
        <time>2015-08-26T12:24:36.1Z</time>
      </trkpt>
      <trkpt lat="44.41754" lon="6.38506">
        <ele>2182</ele>
        <time>2015-08-26T12:24:41.1Z</time>
      </trkpt>
      <trkpt lat="44.41754" lon="6.38499">
        <ele>2181</ele>
        <time>2015-08-26T12:24:47.1Z</time>
      </trkpt>
      <trkpt lat="44.41755" lon="6.3849">
        <ele>2180</ele>
        <time>2015-08-26T12:24:53.1Z</time>
      </trkpt>
      <trkpt lat="44.41753" lon="6.38484">
        <ele>2180</ele>
        <time>2015-08-26T12:24:58.1Z</time>
      </trkpt>
      <trkpt lat="44.41753" lon="6.38477">
        <ele>2180</ele>
        <time>2015-08-26T12:25:03.1Z</time>
      </trkpt>
      <trkpt lat="44.41754" lon="6.38476">
        <ele>2180</ele>
        <time>2015-08-26T12:25:09.1Z</time>
      </trkpt>
      <trkpt lat="44.41754" lon="6.3847">
        <ele>2179</ele>
        <time>2015-08-26T12:25:15.1Z</time>
      </trkpt>
      <trkpt lat="44.41755" lon="6.38464">
        <ele>2178</ele>
        <time>2015-08-26T12:25:21.1Z</time>
      </trkpt>
      <trkpt lat="44.41756" lon="6.38458">
        <ele>2177</ele>
        <time>2015-08-26T12:25:27.1Z</time>
      </trkpt>
      <trkpt lat="44.41757" lon="6.38454">
        <ele>2176</ele>
        <time>2015-08-26T12:25:33.1Z</time>
      </trkpt>
      <trkpt lat="44.41759" lon="6.38453">
        <ele>2175</ele>
        <time>2015-08-26T12:25:38.1Z</time>
      </trkpt>
      <trkpt lat="44.41758" lon="6.38453">
        <ele>2175</ele>
        <time>2015-08-26T12:25:44.1Z</time>
      </trkpt>
      <trkpt lat="44.41757" lon="6.38451">
        <ele>2175</ele>
        <time>2015-08-26T12:25:49.1Z</time>
      </trkpt>
      <trkpt lat="44.41755" lon="6.3845">
        <ele>2175</ele>
        <time>2015-08-26T12:25:55.1Z</time>
      </trkpt>
      <trkpt lat="44.41756" lon="6.38444">
        <ele>2175</ele>
        <time>2015-08-26T12:26:00.1Z</time>
      </trkpt>
      <trkpt lat="44.41756" lon="6.38437">
        <ele>2174</ele>
        <time>2015-08-26T12:26:05.1Z</time>
      </trkpt>
      <trkpt lat="44.41756" lon="6.38427">
        <ele>2174</ele>
        <time>2015-08-26T12:26:11.1Z</time>
      </trkpt>
      <trkpt lat="44.41756" lon="6.38419">
        <ele>2174</ele>
        <time>2015-08-26T12:26:17.1Z</time>
      </trkpt>
      <trkpt lat="44.41756" lon="6.3841">
        <ele>2174</ele>
        <time>2015-08-26T12:26:22.1Z</time>
      </trkpt>
      <trkpt lat="44.41758" lon="6.38402">
        <ele>2174</ele>
        <time>2015-08-26T12:26:27.1Z</time>
      </trkpt>
      <trkpt lat="44.4176" lon="6.38391">
        <ele>2172</ele>
        <time>2015-08-26T12:26:33.1Z</time>
      </trkpt>
      <trkpt lat="44.4176" lon="6.38383">
        <ele>2171</ele>
        <time>2015-08-26T12:26:38.1Z</time>
      </trkpt>
      <trkpt lat="44.41763" lon="6.38374">
        <ele>2170</ele>
        <time>2015-08-26T12:26:43.1Z</time>
      </trkpt>
      <trkpt lat="44.41763" lon="6.3837">
        <ele>2169</ele>
        <time>2015-08-26T12:26:49.1Z</time>
      </trkpt>
      <trkpt lat="44.41765" lon="6.3837">
        <ele>2168</ele>
        <time>2015-08-26T12:26:54.1Z</time>
      </trkpt>
      <trkpt lat="44.41767" lon="6.38368">
        <ele>2167</ele>
        <time>2015-08-26T12:26:59.1Z</time>
      </trkpt>
      <trkpt lat="44.41769" lon="6.38364">
        <ele>2165</ele>
        <time>2015-08-26T12:27:05.1Z</time>
      </trkpt>
      <trkpt lat="44.41772" lon="6.38355">
        <ele>2164</ele>
        <time>2015-08-26T12:27:11.1Z</time>
      </trkpt>
      <trkpt lat="44.41775" lon="6.38351">
        <ele>2162</ele>
        <time>2015-08-26T12:27:16.1Z</time>
      </trkpt>
      <trkpt lat="44.41778" lon="6.38346">
        <ele>2160</ele>
        <time>2015-08-26T12:27:21.1Z</time>
      </trkpt>
      <trkpt lat="44.4178" lon="6.38342">
        <ele>2158</ele>
        <time>2015-08-26T12:27:26.1Z</time>
      </trkpt>
      <trkpt lat="44.41783" lon="6.38338">
        <ele>2157</ele>
        <time>2015-08-26T12:27:31.1Z</time>
      </trkpt>
      <trkpt lat="44.41784" lon="6.38331">
        <ele>2155</ele>
        <time>2015-08-26T12:27:36.1Z</time>
      </trkpt>
      <trkpt lat="44.41787" lon="6.38322">
        <ele>2154</ele>
        <time>2015-08-26T12:27:42.1Z</time>
      </trkpt>
      <trkpt lat="44.41789" lon="6.38313">
        <ele>2151</ele>
        <time>2015-08-26T12:27:48.1Z</time>
      </trkpt>
      <trkpt lat="44.41792" lon="6.38307">
        <ele>2149</ele>
        <time>2015-08-26T12:27:53.1Z</time>
      </trkpt>
      <trkpt lat="44.41795" lon="6.383">
        <ele>2148</ele>
        <time>2015-08-26T12:27:58.1Z</time>
      </trkpt>
      <trkpt lat="44.41796" lon="6.38299">
        <ele>2146</ele>
        <time>2015-08-26T12:28:03.1Z</time>
      </trkpt>
      <trkpt lat="44.41795" lon="6.38298">
        <ele>2146</ele>
        <time>2015-08-26T12:28:09.1Z</time>
      </trkpt>
      <trkpt lat="44.41795" lon="6.38297">
        <ele>2145</ele>
        <time>2015-08-26T12:28:15.1Z</time>
      </trkpt>
      <trkpt lat="44.41795" lon="6.38297">
        <ele>2146</ele>
        <time>2015-08-26T12:28:21.1Z</time>
      </trkpt>
      <trkpt lat="44.41794" lon="6.38297">
        <ele>2146</ele>
        <time>2015-08-26T12:28:29.1Z</time>
      </trkpt>
      <trkpt lat="44.41794" lon="6.38298">
        <ele>2146</ele>
        <time>2015-08-26T12:28:35.1Z</time>
      </trkpt>
      <trkpt lat="44.41794" lon="6.383">
        <ele>2145</ele>
        <time>2015-08-26T12:28:41.1Z</time>
      </trkpt>
      <trkpt lat="44.41795" lon="6.38301">
        <ele>2145</ele>
        <time>2015-08-26T12:28:47.1Z</time>
      </trkpt>
      <trkpt lat="44.41797" lon="6.38304">
        <ele>2144</ele>
        <time>2015-08-26T12:28:52.1Z</time>
      </trkpt>
      <trkpt lat="44.418" lon="6.38309">
        <ele>2143</ele>
        <time>2015-08-26T12:28:58.1Z</time>
      </trkpt>
      <trkpt lat="44.41803" lon="6.38314">
        <ele>2141</ele>
        <time>2015-08-26T12:29:03.1Z</time>
      </trkpt>
      <trkpt lat="44.41806" lon="6.38318">
        <ele>2139</ele>
        <time>2015-08-26T12:29:08.1Z</time>
      </trkpt>
      <trkpt lat="44.4181" lon="6.38322">
        <ele>2138</ele>
        <time>2015-08-26T12:29:13.1Z</time>
      </trkpt>
      <trkpt lat="44.41814" lon="6.38319">
        <ele>2136</ele>
        <time>2015-08-26T12:29:19.1Z</time>
      </trkpt>
      <trkpt lat="44.41814" lon="6.3831">
        <ele>2134</ele>
        <time>2015-08-26T12:29:25.1Z</time>
      </trkpt>
      <trkpt lat="44.41815" lon="6.38306">
        <ele>2133</ele>
        <time>2015-08-26T12:29:30.1Z</time>
      </trkpt>
      <trkpt lat="44.41815" lon="6.38305">
        <ele>2132</ele>
        <time>2015-08-26T12:29:36.1Z</time>
      </trkpt>
      <trkpt lat="44.41814" lon="6.38308">
        <ele>2132</ele>
        <time>2015-08-26T12:29:41.1Z</time>
      </trkpt>
      <trkpt lat="44.41815" lon="6.38309">
        <ele>2131</ele>
        <time>2015-08-26T12:29:46.1Z</time>
      </trkpt>
      <trkpt lat="44.41817" lon="6.38307">
        <ele>2130</ele>
        <time>2015-08-26T12:29:52.1Z</time>
      </trkpt>
      <trkpt lat="44.4182" lon="6.38305">
        <ele>2128</ele>
        <time>2015-08-26T12:29:57.1Z</time>
      </trkpt>
      <trkpt lat="44.41821" lon="6.38305">
        <ele>2128</ele>
        <time>2015-08-26T12:30:04.1Z</time>
      </trkpt>
      <trkpt lat="44.41819" lon="6.38308">
        <ele>2127</ele>
        <time>2015-08-26T12:30:10.1Z</time>
      </trkpt>
      <trkpt lat="44.4182" lon="6.38308">
        <ele>2126</ele>
        <time>2015-08-26T12:30:16.1Z</time>
      </trkpt>
      <trkpt lat="44.41822" lon="6.38308">
        <ele>2124</ele>
        <time>2015-08-26T12:30:22.1Z</time>
      </trkpt>
      <trkpt lat="44.41823" lon="6.3831">
        <ele>2123</ele>
        <time>2015-08-26T12:30:28.1Z</time>
      </trkpt>
      <trkpt lat="44.41824" lon="6.3831">
        <ele>2122</ele>
        <time>2015-08-26T12:30:33.1Z</time>
      </trkpt>
      <trkpt lat="44.41827" lon="6.38309">
        <ele>2122</ele>
        <time>2015-08-26T12:30:38.1Z</time>
      </trkpt>
      <trkpt lat="44.41828" lon="6.38308">
        <ele>2122</ele>
        <time>2015-08-26T12:30:44.1Z</time>
      </trkpt>
      <trkpt lat="44.4183" lon="6.38308">
        <ele>2123</ele>
        <time>2015-08-26T12:30:50.1Z</time>
      </trkpt>
      <trkpt lat="44.4183" lon="6.38308">
        <ele>2122</ele>
        <time>2015-08-26T12:30:55.1Z</time>
      </trkpt>
      <trkpt lat="44.4183" lon="6.38308">
        <ele>2123</ele>
        <time>2015-08-26T12:31:01.1Z</time>
      </trkpt>
      <trkpt lat="44.4183" lon="6.38307">
        <ele>2123</ele>
        <time>2015-08-26T12:31:07.1Z</time>
      </trkpt>
      <trkpt lat="44.41831" lon="6.38305">
        <ele>2122</ele>
        <time>2015-08-26T12:31:12.1Z</time>
      </trkpt>
      <trkpt lat="44.41831" lon="6.38308">
        <ele>2121</ele>
        <time>2015-08-26T12:31:17.1Z</time>
      </trkpt>
      <trkpt lat="44.41833" lon="6.38306">
        <ele>2119</ele>
        <time>2015-08-26T12:31:23.1Z</time>
      </trkpt>
      <trkpt lat="44.41833" lon="6.38303">
        <ele>2118</ele>
        <time>2015-08-26T12:31:28.1Z</time>
      </trkpt>
      <trkpt lat="44.41833" lon="6.383">
        <ele>2116</ele>
        <time>2015-08-26T12:31:34.1Z</time>
      </trkpt>
      <trkpt lat="44.41834" lon="6.38301">
        <ele>2115</ele>
        <time>2015-08-26T12:31:40.1Z</time>
      </trkpt>
      <trkpt lat="44.41833" lon="6.38301">
        <ele>2115</ele>
        <time>2015-08-26T12:31:45.1Z</time>
      </trkpt>
      <trkpt lat="44.41835" lon="6.38302">
        <ele>2114</ele>
        <time>2015-08-26T12:31:51.1Z</time>
      </trkpt>
      <trkpt lat="44.41834" lon="6.383">
        <ele>2113</ele>
        <time>2015-08-26T12:31:57.1Z</time>
      </trkpt>
      <trkpt lat="44.41829" lon="6.38292">
        <ele>2112</ele>
        <time>2015-08-26T12:32:03.1Z</time>
      </trkpt>
      <trkpt lat="44.41829" lon="6.38286">
        <ele>2111</ele>
        <time>2015-08-26T12:32:08.1Z</time>
      </trkpt>
      <trkpt lat="44.41827" lon="6.38281">
        <ele>2112</ele>
        <time>2015-08-26T12:32:14.1Z</time>
      </trkpt>
      <trkpt lat="44.41828" lon="6.3828">
        <ele>2113</ele>
        <time>2015-08-26T12:32:19.1Z</time>
      </trkpt>
      <trkpt lat="44.41833" lon="6.38278">
        <ele>2113</ele>
        <time>2015-08-26T12:32:25.1Z</time>
      </trkpt>
      <trkpt lat="44.41835" lon="6.38276">
        <ele>2112</ele>
        <time>2015-08-26T12:32:30.1Z</time>
      </trkpt>
      <trkpt lat="44.4184" lon="6.38276">
        <ele>2110</ele>
        <time>2015-08-26T12:32:35.1Z</time>
      </trkpt>
      <trkpt lat="44.41842" lon="6.38274">
        <ele>2111</ele>
        <time>2015-08-26T12:32:41.1Z</time>
      </trkpt>
      <trkpt lat="44.41843" lon="6.38273">
        <ele>2111</ele>
        <time>2015-08-26T12:32:48.1Z</time>
      </trkpt>
      <trkpt lat="44.41843" lon="6.38272">
        <ele>2111</ele>
        <time>2015-08-26T12:32:55.1Z</time>
      </trkpt>
      <trkpt lat="44.41844" lon="6.38272">
        <ele>2111</ele>
        <time>2015-08-26T12:33:01.1Z</time>
      </trkpt>
      <trkpt lat="44.41845" lon="6.38272">
        <ele>2110</ele>
        <time>2015-08-26T12:33:06.1Z</time>
      </trkpt>
      <trkpt lat="44.41846" lon="6.38271">
        <ele>2110</ele>
        <time>2015-08-26T12:33:12.1Z</time>
      </trkpt>
      <trkpt lat="44.41849" lon="6.38269">
        <ele>2108</ele>
        <time>2015-08-26T12:33:18.1Z</time>
      </trkpt>
      <trkpt lat="44.41852" lon="6.3827">
        <ele>2107</ele>
        <time>2015-08-26T12:33:25.1Z</time>
      </trkpt>
      <trkpt lat="44.41853" lon="6.3827">
        <ele>2106</ele>
        <time>2015-08-26T12:33:30.1Z</time>
      </trkpt>
      <trkpt lat="44.41854" lon="6.38272">
        <ele>2105</ele>
        <time>2015-08-26T12:33:35.1Z</time>
      </trkpt>
      <trkpt lat="44.41854" lon="6.38271">
        <ele>2104</ele>
        <time>2015-08-26T12:33:41.1Z</time>
      </trkpt>
      <trkpt lat="44.41856" lon="6.3827">
        <ele>2104</ele>
        <time>2015-08-26T12:33:47.1Z</time>
      </trkpt>
      <trkpt lat="44.41859" lon="6.38269">
        <ele>2102</ele>
        <time>2015-08-26T12:33:53.1Z</time>
      </trkpt>
      <trkpt lat="44.41859" lon="6.38268">
        <ele>2100</ele>
        <time>2015-08-26T12:33:58.1Z</time>
      </trkpt>
      <trkpt lat="44.41863" lon="6.38263">
        <ele>2098</ele>
        <time>2015-08-26T12:34:04.1Z</time>
      </trkpt>
      <trkpt lat="44.41864" lon="6.3826">
        <ele>2097</ele>
        <time>2015-08-26T12:34:09.1Z</time>
      </trkpt>
      <trkpt lat="44.41865" lon="6.38257">
        <ele>2096</ele>
        <time>2015-08-26T12:34:15.1Z</time>
      </trkpt>
      <trkpt lat="44.41866" lon="6.38257">
        <ele>2095</ele>
        <time>2015-08-26T12:34:20.1Z</time>
      </trkpt>
      <trkpt lat="44.41866" lon="6.38256">
        <ele>2095</ele>
        <time>2015-08-26T12:34:26.1Z</time>
      </trkpt>
      <trkpt lat="44.41867" lon="6.38255">
        <ele>2095</ele>
        <time>2015-08-26T12:34:32.1Z</time>
      </trkpt>
      <trkpt lat="44.41869" lon="6.38256">
        <ele>2094</ele>
        <time>2015-08-26T12:34:37.1Z</time>
      </trkpt>
      <trkpt lat="44.41869" lon="6.38256">
        <ele>2093</ele>
        <time>2015-08-26T12:34:43.1Z</time>
      </trkpt>
      <trkpt lat="44.41869" lon="6.38255">
        <ele>2092</ele>
        <time>2015-08-26T12:34:48.1Z</time>
      </trkpt>
      <trkpt lat="44.4187" lon="6.38253">
        <ele>2092</ele>
        <time>2015-08-26T12:34:54.1Z</time>
      </trkpt>
      <trkpt lat="44.41872" lon="6.38254">
        <ele>2091</ele>
        <time>2015-08-26T12:35:00.1Z</time>
      </trkpt>
      <trkpt lat="44.41873" lon="6.38254">
        <ele>2090</ele>
        <time>2015-08-26T12:35:06.1Z</time>
      </trkpt>
      <trkpt lat="44.41874" lon="6.38252">
        <ele>2089</ele>
        <time>2015-08-26T12:35:11.1Z</time>
      </trkpt>
      <trkpt lat="44.41875" lon="6.38252">
        <ele>2088</ele>
        <time>2015-08-26T12:35:18.1Z</time>
      </trkpt>
      <trkpt lat="44.41876" lon="6.38252">
        <ele>2087</ele>
        <time>2015-08-26T12:35:24.1Z</time>
      </trkpt>
      <trkpt lat="44.41877" lon="6.3825">
        <ele>2086</ele>
        <time>2015-08-26T12:35:29.1Z</time>
      </trkpt>
      <trkpt lat="44.41876" lon="6.38248">
        <ele>2085</ele>
        <time>2015-08-26T12:35:34.1Z</time>
      </trkpt>
      <trkpt lat="44.41874" lon="6.38244">
        <ele>2084</ele>
        <time>2015-08-26T12:35:40.1Z</time>
      </trkpt>
      <trkpt lat="44.41876" lon="6.38243">
        <ele>2081</ele>
        <time>2015-08-26T12:35:46.1Z</time>
      </trkpt>
      <trkpt lat="44.41877" lon="6.38241">
        <ele>2080</ele>
        <time>2015-08-26T12:35:52.1Z</time>
      </trkpt>
      <trkpt lat="44.41877" lon="6.3824">
        <ele>2079</ele>
        <time>2015-08-26T12:35:58.1Z</time>
      </trkpt>
      <trkpt lat="44.41881" lon="6.38241">
        <ele>2078</ele>
        <time>2015-08-26T12:36:04.1Z</time>
      </trkpt>
      <trkpt lat="44.41883" lon="6.38238">
        <ele>2077</ele>
        <time>2015-08-26T12:36:09.1Z</time>
      </trkpt>
      <trkpt lat="44.41883" lon="6.38237">
        <ele>2076</ele>
        <time>2015-08-26T12:36:15.1Z</time>
      </trkpt>
      <trkpt lat="44.41885" lon="6.38236">
        <ele>2075</ele>
        <time>2015-08-26T12:36:20.1Z</time>
      </trkpt>
      <trkpt lat="44.41885" lon="6.38235">
        <ele>2074</ele>
        <time>2015-08-26T12:36:25.1Z</time>
      </trkpt>
      <trkpt lat="44.41885" lon="6.38233">
        <ele>2072</ele>
        <time>2015-08-26T12:36:31.1Z</time>
      </trkpt>
      <trkpt lat="44.41888" lon="6.38231">
        <ele>2071</ele>
        <time>2015-08-26T12:36:36.1Z</time>
      </trkpt>
      <trkpt lat="44.41892" lon="6.38228">
        <ele>2070</ele>
        <time>2015-08-26T12:36:42.1Z</time>
      </trkpt>
      <trkpt lat="44.41897" lon="6.38225">
        <ele>2069</ele>
        <time>2015-08-26T12:36:47.1Z</time>
      </trkpt>
      <trkpt lat="44.41901" lon="6.38223">
        <ele>2067</ele>
        <time>2015-08-26T12:36:52.1Z</time>
      </trkpt>
      <trkpt lat="44.41904" lon="6.38221">
        <ele>2066</ele>
        <time>2015-08-26T12:36:57.1Z</time>
      </trkpt>
      <trkpt lat="44.41907" lon="6.38219">
        <ele>2064</ele>
        <time>2015-08-26T12:37:03.1Z</time>
      </trkpt>
      <trkpt lat="44.41907" lon="6.38219">
        <ele>2063</ele>
        <time>2015-08-26T12:37:09.1Z</time>
      </trkpt>
      <trkpt lat="44.41908" lon="6.3822">
        <ele>2063</ele>
        <time>2015-08-26T12:37:14.1Z</time>
      </trkpt>
      <trkpt lat="44.41908" lon="6.38221">
        <ele>2063</ele>
        <time>2015-08-26T12:37:19.1Z</time>
      </trkpt>
      <trkpt lat="44.41909" lon="6.38222">
        <ele>2063</ele>
        <time>2015-08-26T12:37:25.1Z</time>
      </trkpt>
      <trkpt lat="44.4191" lon="6.38222">
        <ele>2062</ele>
        <time>2015-08-26T12:37:30.1Z</time>
      </trkpt>
      <trkpt lat="44.4191" lon="6.38222">
        <ele>2062</ele>
        <time>2015-08-26T12:37:35.1Z</time>
      </trkpt>
      <trkpt lat="44.41912" lon="6.3822">
        <ele>2061</ele>
        <time>2015-08-26T12:37:40.1Z</time>
      </trkpt>
      <trkpt lat="44.41914" lon="6.38216">
        <ele>2059</ele>
        <time>2015-08-26T12:37:46.1Z</time>
      </trkpt>
      <trkpt lat="44.41915" lon="6.38216">
        <ele>2057</ele>
        <time>2015-08-26T12:37:51.1Z</time>
      </trkpt>
      <trkpt lat="44.41916" lon="6.38215">
        <ele>2056</ele>
        <time>2015-08-26T12:37:56.1Z</time>
      </trkpt>
      <trkpt lat="44.41917" lon="6.38216">
        <ele>2055</ele>
        <time>2015-08-26T12:38:01.1Z</time>
      </trkpt>
      <trkpt lat="44.4192" lon="6.38215">
        <ele>2055</ele>
        <time>2015-08-26T12:38:07.1Z</time>
      </trkpt>
      <trkpt lat="44.41924" lon="6.38212">
        <ele>2053</ele>
        <time>2015-08-26T12:38:13.1Z</time>
      </trkpt>
      <trkpt lat="44.41927" lon="6.38212">
        <ele>2051</ele>
        <time>2015-08-26T12:38:18.1Z</time>
      </trkpt>
      <trkpt lat="44.4193" lon="6.3821">
        <ele>2049</ele>
        <time>2015-08-26T12:38:23.1Z</time>
      </trkpt>
      <trkpt lat="44.4193" lon="6.38209">
        <ele>2048</ele>
        <time>2015-08-26T12:38:28.1Z</time>
      </trkpt>
      <trkpt lat="44.41931" lon="6.38209">
        <ele>2048</ele>
        <time>2015-08-26T12:38:34.1Z</time>
      </trkpt>
      <trkpt lat="44.41932" lon="6.38208">
        <ele>2048</ele>
        <time>2015-08-26T12:38:39.1Z</time>
      </trkpt>
      <trkpt lat="44.41934" lon="6.38207">
        <ele>2047</ele>
        <time>2015-08-26T12:38:44.1Z</time>
      </trkpt>
      <trkpt lat="44.41938" lon="6.38206">
        <ele>2045</ele>
        <time>2015-08-26T12:38:50.1Z</time>
      </trkpt>
      <trkpt lat="44.4194" lon="6.38203">
        <ele>2044</ele>
        <time>2015-08-26T12:38:56.1Z</time>
      </trkpt>
      <trkpt lat="44.41942" lon="6.38201">
        <ele>2042</ele>
        <time>2015-08-26T12:39:02.1Z</time>
      </trkpt>
      <trkpt lat="44.41944" lon="6.38199">
        <ele>2040</ele>
        <time>2015-08-26T12:39:07.1Z</time>
      </trkpt>
      <trkpt lat="44.41947" lon="6.38197">
        <ele>2038</ele>
        <time>2015-08-26T12:39:12.1Z</time>
      </trkpt>
      <trkpt lat="44.41948" lon="6.38198">
        <ele>2037</ele>
        <time>2015-08-26T12:39:17.1Z</time>
      </trkpt>
      <trkpt lat="44.4195" lon="6.38197">
        <ele>2035</ele>
        <time>2015-08-26T12:39:23.1Z</time>
      </trkpt>
      <trkpt lat="44.41951" lon="6.38197">
        <ele>2034</ele>
        <time>2015-08-26T12:39:28.1Z</time>
      </trkpt>
      <trkpt lat="44.41952" lon="6.38197">
        <ele>2033</ele>
        <time>2015-08-26T12:39:33.1Z</time>
      </trkpt>
      <trkpt lat="44.41953" lon="6.38196">
        <ele>2033</ele>
        <time>2015-08-26T12:39:39.1Z</time>
      </trkpt>
      <trkpt lat="44.41953" lon="6.38197">
        <ele>2033</ele>
        <time>2015-08-26T12:39:44.1Z</time>
      </trkpt>
      <trkpt lat="44.41955" lon="6.38198">
        <ele>2033</ele>
        <time>2015-08-26T12:39:50.1Z</time>
      </trkpt>
      <trkpt lat="44.41957" lon="6.38196">
        <ele>2031</ele>
        <time>2015-08-26T12:39:55.1Z</time>
      </trkpt>
      <trkpt lat="44.41959" lon="6.38193">
        <ele>2030</ele>
        <time>2015-08-26T12:40:01.1Z</time>
      </trkpt>
      <trkpt lat="44.4196" lon="6.38192">
        <ele>2028</ele>
        <time>2015-08-26T12:40:06.1Z</time>
      </trkpt>
      <trkpt lat="44.41962" lon="6.38191">
        <ele>2027</ele>
        <time>2015-08-26T12:40:11.1Z</time>
      </trkpt>
      <trkpt lat="44.41966" lon="6.38189">
        <ele>2025</ele>
        <time>2015-08-26T12:40:17.1Z</time>
      </trkpt>
      <trkpt lat="44.41969" lon="6.38186">
        <ele>2023</ele>
        <time>2015-08-26T12:40:22.1Z</time>
      </trkpt>
      <trkpt lat="44.41974" lon="6.38182">
        <ele>2022</ele>
        <time>2015-08-26T12:40:28.1Z</time>
      </trkpt>
      <trkpt lat="44.41977" lon="6.38178">
        <ele>2020</ele>
        <time>2015-08-26T12:40:33.1Z</time>
      </trkpt>
      <trkpt lat="44.41982" lon="6.38173">
        <ele>2018</ele>
        <time>2015-08-26T12:40:38.1Z</time>
      </trkpt>
      <trkpt lat="44.41987" lon="6.38171">
        <ele>2016</ele>
        <time>2015-08-26T12:40:43.1Z</time>
      </trkpt>
      <trkpt lat="44.4199" lon="6.38164">
        <ele>2014</ele>
        <time>2015-08-26T12:40:49.1Z</time>
      </trkpt>
      <trkpt lat="44.41991" lon="6.38164">
        <ele>2013</ele>
        <time>2015-08-26T12:40:55.1Z</time>
      </trkpt>
      <trkpt lat="44.41992" lon="6.38164">
        <ele>2013</ele>
        <time>2015-08-26T12:41:00.1Z</time>
      </trkpt>
      <trkpt lat="44.41992" lon="6.38164">
        <ele>2013</ele>
        <time>2015-08-26T12:41:06.1Z</time>
      </trkpt>
      <trkpt lat="44.41992" lon="6.38163">
        <ele>2013</ele>
        <time>2015-08-26T12:41:11.1Z</time>
      </trkpt>
      <trkpt lat="44.41991" lon="6.38162">
        <ele>2013</ele>
        <time>2015-08-26T12:41:16.1Z</time>
      </trkpt>
      <trkpt lat="44.41991" lon="6.38161">
        <ele>2013</ele>
        <time>2015-08-26T12:41:22.1Z</time>
      </trkpt>
      <trkpt lat="44.41991" lon="6.38161">
        <ele>2013</ele>
        <time>2015-08-26T12:41:28.1Z</time>
      </trkpt>
      <trkpt lat="44.41991" lon="6.38161">
        <ele>2013</ele>
        <time>2015-08-26T12:41:35.1Z</time>
      </trkpt>
      <trkpt lat="44.41993" lon="6.38161">
        <ele>2013</ele>
        <time>2015-08-26T12:41:42.1Z</time>
      </trkpt>
      <trkpt lat="44.41997" lon="6.38161">
        <ele>2012</ele>
        <time>2015-08-26T12:41:48.1Z</time>
      </trkpt>
      <trkpt lat="44.42002" lon="6.3816">
        <ele>2010</ele>
        <time>2015-08-26T12:41:53.1Z</time>
      </trkpt>
      <trkpt lat="44.42006" lon="6.38158">
        <ele>2008</ele>
        <time>2015-08-26T12:41:59.1Z</time>
      </trkpt>
      <trkpt lat="44.4201" lon="6.3816">
        <ele>2005</ele>
        <time>2015-08-26T12:42:04.1Z</time>
      </trkpt>
      <trkpt lat="44.42014" lon="6.38158">
        <ele>2004</ele>
        <time>2015-08-26T12:42:09.1Z</time>
      </trkpt>
      <trkpt lat="44.4202" lon="6.38156">
        <ele>2002</ele>
        <time>2015-08-26T12:42:15.1Z</time>
      </trkpt>
      <trkpt lat="44.42024" lon="6.38154">
        <ele>2000</ele>
        <time>2015-08-26T12:42:20.1Z</time>
      </trkpt>
      <trkpt lat="44.42028" lon="6.38154">
        <ele>1998</ele>
        <time>2015-08-26T12:42:25.1Z</time>
      </trkpt>
      <trkpt lat="44.42033" lon="6.38151">
        <ele>1995</ele>
        <time>2015-08-26T12:42:31.1Z</time>
      </trkpt>
      <trkpt lat="44.42037" lon="6.3815">
        <ele>1992</ele>
        <time>2015-08-26T12:42:36.1Z</time>
      </trkpt>
      <trkpt lat="44.4204" lon="6.38145">
        <ele>1990</ele>
        <time>2015-08-26T12:42:42.1Z</time>
      </trkpt>
      <trkpt lat="44.42041" lon="6.38138">
        <ele>1988</ele>
        <time>2015-08-26T12:42:48.1Z</time>
      </trkpt>
      <trkpt lat="44.42043" lon="6.38135">
        <ele>1986</ele>
        <time>2015-08-26T12:42:53.1Z</time>
      </trkpt>
      <trkpt lat="44.42046" lon="6.38134">
        <ele>1983</ele>
        <time>2015-08-26T12:42:58.1Z</time>
      </trkpt>
      <trkpt lat="44.42051" lon="6.38131">
        <ele>1981</ele>
        <time>2015-08-26T12:43:04.1Z</time>
      </trkpt>
      <trkpt lat="44.42054" lon="6.3813">
        <ele>1979</ele>
        <time>2015-08-26T12:43:09.1Z</time>
      </trkpt>
      <trkpt lat="44.42057" lon="6.38127">
        <ele>1977</ele>
        <time>2015-08-26T12:43:14.1Z</time>
      </trkpt>
      <trkpt lat="44.42065" lon="6.38127">
        <ele>1975</ele>
        <time>2015-08-26T12:43:20.1Z</time>
      </trkpt>
      <trkpt lat="44.42071" lon="6.38124">
        <ele>1973</ele>
        <time>2015-08-26T12:43:26.1Z</time>
      </trkpt>
      <trkpt lat="44.42075" lon="6.38122">
        <ele>1972</ele>
        <time>2015-08-26T12:43:31.1Z</time>
      </trkpt>
      <trkpt lat="44.4208" lon="6.3812">
        <ele>1970</ele>
        <time>2015-08-26T12:43:37.1Z</time>
      </trkpt>
      <trkpt lat="44.42083" lon="6.38119">
        <ele>1968</ele>
        <time>2015-08-26T12:43:42.1Z</time>
      </trkpt>
      <trkpt lat="44.42083" lon="6.38119">
        <ele>1966</ele>
        <time>2015-08-26T12:43:48.1Z</time>
      </trkpt>
      <trkpt lat="44.42084" lon="6.3812">
        <ele>1966</ele>
        <time>2015-08-26T12:43:54.1Z</time>
      </trkpt>
      <trkpt lat="44.42085" lon="6.3812">
        <ele>1966</ele>
        <time>2015-08-26T12:44:00.1Z</time>
      </trkpt>
      <trkpt lat="44.42086" lon="6.3812">
        <ele>1967</ele>
        <time>2015-08-26T12:44:07.1Z</time>
      </trkpt>
      <trkpt lat="44.42087" lon="6.38121">
        <ele>1966</ele>
        <time>2015-08-26T12:44:13.1Z</time>
      </trkpt>
      <trkpt lat="44.42086" lon="6.38122">
        <ele>1966</ele>
        <time>2015-08-26T12:44:19.1Z</time>
      </trkpt>
      <trkpt lat="44.42086" lon="6.38122">
        <ele>1966</ele>
        <time>2015-08-26T12:44:24.1Z</time>
      </trkpt>
      <trkpt lat="44.42085" lon="6.38123">
        <ele>1966</ele>
        <time>2015-08-26T12:44:29.1Z</time>
      </trkpt>
      <trkpt lat="44.42084" lon="6.38123">
        <ele>1966</ele>
        <time>2015-08-26T12:44:35.1Z</time>
      </trkpt>
      <trkpt lat="44.42084" lon="6.38124">
        <ele>1966</ele>
        <time>2015-08-26T12:44:41.1Z</time>
      </trkpt>
      <trkpt lat="44.42083" lon="6.38124">
        <ele>1966</ele>
        <time>2015-08-26T12:44:47.1Z</time>
      </trkpt>
      <trkpt lat="44.42083" lon="6.38123">
        <ele>1966</ele>
        <time>2015-08-26T12:44:52.1Z</time>
      </trkpt>
      <trkpt lat="44.42082" lon="6.3812">
        <ele>1966</ele>
        <time>2015-08-26T12:44:58.1Z</time>
      </trkpt>
      <trkpt lat="44.42083" lon="6.3812">
        <ele>1966</ele>
        <time>2015-08-26T12:45:04.1Z</time>
      </trkpt>
      <trkpt lat="44.42085" lon="6.38117">
        <ele>1965</ele>
        <time>2015-08-26T12:45:10.1Z</time>
      </trkpt>
      <trkpt lat="44.42084" lon="6.38111">
        <ele>1962</ele>
        <time>2015-08-26T12:45:16.1Z</time>
      </trkpt>
      <trkpt lat="44.4209" lon="6.38111">
        <ele>1961</ele>
        <time>2015-08-26T12:45:22.1Z</time>
      </trkpt>
      <trkpt lat="44.42092" lon="6.38106">
        <ele>1959</ele>
        <time>2015-08-26T12:45:27.1Z</time>
      </trkpt>
      <trkpt lat="44.42094" lon="6.38103">
        <ele>1957</ele>
        <time>2015-08-26T12:45:32.1Z</time>
      </trkpt>
      <trkpt lat="44.42098" lon="6.38102">
        <ele>1955</ele>
        <time>2015-08-26T12:45:38.1Z</time>
      </trkpt>
      <trkpt lat="44.42102" lon="6.381">
        <ele>1953</ele>
        <time>2015-08-26T12:45:44.1Z</time>
      </trkpt>
      <trkpt lat="44.42104" lon="6.38095">
        <ele>1951</ele>
        <time>2015-08-26T12:45:49.1Z</time>
      </trkpt>
      <trkpt lat="44.42109" lon="6.38092">
        <ele>1949</ele>
        <time>2015-08-26T12:45:55.1Z</time>
      </trkpt>
      <trkpt lat="44.42115" lon="6.38088">
        <ele>1947</ele>
        <time>2015-08-26T12:46:00.1Z</time>
      </trkpt>
      <trkpt lat="44.42119" lon="6.38085">
        <ele>1945</ele>
        <time>2015-08-26T12:46:05.1Z</time>
      </trkpt>
      <trkpt lat="44.42122" lon="6.38083">
        <ele>1942</ele>
        <time>2015-08-26T12:46:11.1Z</time>
      </trkpt>
      <trkpt lat="44.42125" lon="6.3808">
        <ele>1940</ele>
        <time>2015-08-26T12:46:16.1Z</time>
      </trkpt>
      <trkpt lat="44.42129" lon="6.38078">
        <ele>1938</ele>
        <time>2015-08-26T12:46:22.1Z</time>
      </trkpt>
      <trkpt lat="44.42134" lon="6.38075">
        <ele>1935</ele>
        <time>2015-08-26T12:46:27.1Z</time>
      </trkpt>
      <trkpt lat="44.4214" lon="6.38073">
        <ele>1933</ele>
        <time>2015-08-26T12:46:33.1Z</time>
      </trkpt>
      <trkpt lat="44.42144" lon="6.3807">
        <ele>1931</ele>
        <time>2015-08-26T12:46:38.1Z</time>
      </trkpt>
      <trkpt lat="44.42147" lon="6.38067">
        <ele>1931</ele>
        <time>2015-08-26T12:46:44.1Z</time>
      </trkpt>
      <trkpt lat="44.42152" lon="6.38063">
        <ele>1929</ele>
        <time>2015-08-26T12:46:50.1Z</time>
      </trkpt>
      <trkpt lat="44.42153" lon="6.38061">
        <ele>1929</ele>
        <time>2015-08-26T12:46:56.1Z</time>
      </trkpt>
      <trkpt lat="44.42154" lon="6.38061">
        <ele>1929</ele>
        <time>2015-08-26T12:47:01.1Z</time>
      </trkpt>
      <trkpt lat="44.42153" lon="6.38062">
        <ele>1929</ele>
        <time>2015-08-26T12:47:07.1Z</time>
      </trkpt>
      <trkpt lat="44.42154" lon="6.38061">
        <ele>1929</ele>
        <time>2015-08-26T12:47:13.1Z</time>
      </trkpt>
      <trkpt lat="44.42154" lon="6.3806">
        <ele>1929</ele>
        <time>2015-08-26T12:47:18.1Z</time>
      </trkpt>
      <trkpt lat="44.42155" lon="6.38056">
        <ele>1929</ele>
        <time>2015-08-26T12:47:24.1Z</time>
      </trkpt>
      <trkpt lat="44.42157" lon="6.38057">
        <ele>1929</ele>
        <time>2015-08-26T12:47:30.1Z</time>
      </trkpt>
      <trkpt lat="44.42157" lon="6.38058">
        <ele>1929</ele>
        <time>2015-08-26T12:47:35.1Z</time>
      </trkpt>
      <trkpt lat="44.42159" lon="6.3806">
        <ele>1929</ele>
        <time>2015-08-26T12:47:41.1Z</time>
      </trkpt>
      <trkpt lat="44.42159" lon="6.38061">
        <ele>1929</ele>
        <time>2015-08-26T12:47:46.1Z</time>
      </trkpt>
      <trkpt lat="44.42162" lon="6.38061">
        <ele>1928</ele>
        <time>2015-08-26T12:47:52.1Z</time>
      </trkpt>
      <trkpt lat="44.42165" lon="6.3806">
        <ele>1926</ele>
        <time>2015-08-26T12:47:57.1Z</time>
      </trkpt>
      <trkpt lat="44.42168" lon="6.3806">
        <ele>1925</ele>
        <time>2015-08-26T12:48:03.1Z</time>
      </trkpt>
      <trkpt lat="44.42171" lon="6.38061">
        <ele>1924</ele>
        <time>2015-08-26T12:48:08.1Z</time>
      </trkpt>
      <trkpt lat="44.42177" lon="6.38061">
        <ele>1924</ele>
        <time>2015-08-26T12:48:14.1Z</time>
      </trkpt>
      <trkpt lat="44.42183" lon="6.38061">
        <ele>1922</ele>
        <time>2015-08-26T12:48:19.1Z</time>
      </trkpt>
      <trkpt lat="44.42186" lon="6.3806">
        <ele>1922</ele>
        <time>2015-08-26T12:48:24.1Z</time>
      </trkpt>
      <trkpt lat="44.42189" lon="6.38059">
        <ele>1921</ele>
        <time>2015-08-26T12:48:29.1Z</time>
      </trkpt>
      <trkpt lat="44.42191" lon="6.38059">
        <ele>1918</ele>
        <time>2015-08-26T12:48:35.1Z</time>
      </trkpt>
      <trkpt lat="44.42195" lon="6.38058">
        <ele>1917</ele>
        <time>2015-08-26T12:48:40.1Z</time>
      </trkpt>
      <trkpt lat="44.42199" lon="6.38058">
        <ele>1916</ele>
        <time>2015-08-26T12:48:46.1Z</time>
      </trkpt>
      <trkpt lat="44.42202" lon="6.38057">
        <ele>1915</ele>
        <time>2015-08-26T12:48:51.1Z</time>
      </trkpt>
      <trkpt lat="44.42205" lon="6.38055">
        <ele>1913</ele>
        <time>2015-08-26T12:48:56.1Z</time>
      </trkpt>
      <trkpt lat="44.42211" lon="6.38054">
        <ele>1911</ele>
        <time>2015-08-26T12:49:02.1Z</time>
      </trkpt>
      <trkpt lat="44.42214" lon="6.3805">
        <ele>1909</ele>
        <time>2015-08-26T12:49:07.1Z</time>
      </trkpt>
      <trkpt lat="44.42215" lon="6.38047">
        <ele>1907</ele>
        <time>2015-08-26T12:49:13.1Z</time>
      </trkpt>
      <trkpt lat="44.4222" lon="6.38043">
        <ele>1905</ele>
        <time>2015-08-26T12:49:19.1Z</time>
      </trkpt>
      <trkpt lat="44.42224" lon="6.38041">
        <ele>1903</ele>
        <time>2015-08-26T12:49:25.1Z</time>
      </trkpt>
      <trkpt lat="44.42226" lon="6.38038">
        <ele>1900</ele>
        <time>2015-08-26T12:49:31.1Z</time>
      </trkpt>
      <trkpt lat="44.42225" lon="6.38035">
        <ele>1900</ele>
        <time>2015-08-26T12:49:36.1Z</time>
      </trkpt>
      <trkpt lat="44.42222" lon="6.38029">
        <ele>1899</ele>
        <time>2015-08-26T12:49:42.1Z</time>
      </trkpt>
      <trkpt lat="44.42218" lon="6.38027">
        <ele>1898</ele>
        <time>2015-08-26T12:49:47.1Z</time>
      </trkpt>
      <trkpt lat="44.42216" lon="6.38026">
        <ele>1896</ele>
        <time>2015-08-26T12:49:53.1Z</time>
      </trkpt>
      <trkpt lat="44.42214" lon="6.38022">
        <ele>1896</ele>
        <time>2015-08-26T12:49:59.1Z</time>
      </trkpt>
      <trkpt lat="44.4221" lon="6.38019">
        <ele>1894</ele>
        <time>2015-08-26T12:50:04.1Z</time>
      </trkpt>
      <trkpt lat="44.42205" lon="6.38016">
        <ele>1893</ele>
        <time>2015-08-26T12:50:09.1Z</time>
      </trkpt>
      <trkpt lat="44.42201" lon="6.38015">
        <ele>1891</ele>
        <time>2015-08-26T12:50:15.1Z</time>
      </trkpt>
      <trkpt lat="44.42194" lon="6.38014">
        <ele>1890</ele>
        <time>2015-08-26T12:50:21.1Z</time>
      </trkpt>
      <trkpt lat="44.42188" lon="6.38013">
        <ele>1890</ele>
        <time>2015-08-26T12:50:26.1Z</time>
      </trkpt>
      <trkpt lat="44.42182" lon="6.38009">
        <ele>1889</ele>
        <time>2015-08-26T12:50:31.1Z</time>
      </trkpt>
      <trkpt lat="44.42176" lon="6.38007">
        <ele>1889</ele>
        <time>2015-08-26T12:50:37.1Z</time>
      </trkpt>
      <trkpt lat="44.42169" lon="6.38003">
        <ele>1888</ele>
        <time>2015-08-26T12:50:43.1Z</time>
      </trkpt>
      <trkpt lat="44.42162" lon="6.37999">
        <ele>1888</ele>
        <time>2015-08-26T12:50:49.1Z</time>
      </trkpt>
      <trkpt lat="44.42159" lon="6.37998">
        <ele>1889</ele>
        <time>2015-08-26T12:50:54.1Z</time>
      </trkpt>
      <trkpt lat="44.42158" lon="6.37997">
        <ele>1889</ele>
        <time>2015-08-26T12:50:59.1Z</time>
      </trkpt>
      <trkpt lat="44.4216" lon="6.37995">
        <ele>1889</ele>
        <time>2015-08-26T12:51:05.1Z</time>
      </trkpt>
      <trkpt lat="44.42163" lon="6.37996">
        <ele>1889</ele>
        <time>2015-08-26T12:51:10.1Z</time>
      </trkpt>
      <trkpt lat="44.42166" lon="6.37995">
        <ele>1889</ele>
        <time>2015-08-26T12:51:15.1Z</time>
      </trkpt>
      <trkpt lat="44.42167" lon="6.37994">
        <ele>1889</ele>
        <time>2015-08-26T12:51:21.1Z</time>
      </trkpt>
      <trkpt lat="44.42166" lon="6.37992">
        <ele>1889</ele>
        <time>2015-08-26T12:51:27.1Z</time>
      </trkpt>
      <trkpt lat="44.42163" lon="6.37989">
        <ele>1889</ele>
        <time>2015-08-26T12:51:32.1Z</time>
      </trkpt>
      <trkpt lat="44.42157" lon="6.37988">
        <ele>1889</ele>
        <time>2015-08-26T12:51:37.1Z</time>
      </trkpt>
      <trkpt lat="44.4215" lon="6.37985">
        <ele>1888</ele>
        <time>2015-08-26T12:51:43.1Z</time>
      </trkpt>
      <trkpt lat="44.42144" lon="6.37981">
        <ele>1886</ele>
        <time>2015-08-26T12:51:49.1Z</time>
      </trkpt>
      <trkpt lat="44.42137" lon="6.37978">
        <ele>1885</ele>
        <time>2015-08-26T12:51:54.1Z</time>
      </trkpt>
      <trkpt lat="44.42129" lon="6.37976">
        <ele>1885</ele>
        <time>2015-08-26T12:51:59.1Z</time>
      </trkpt>
      <trkpt lat="44.42121" lon="6.37973">
        <ele>1884</ele>
        <time>2015-08-26T12:52:05.1Z</time>
      </trkpt>
      <trkpt lat="44.42117" lon="6.37971">
        <ele>1883</ele>
        <time>2015-08-26T12:52:11.1Z</time>
      </trkpt>
      <trkpt lat="44.42111" lon="6.37967">
        <ele>1881</ele>
        <time>2015-08-26T12:52:17.1Z</time>
      </trkpt>
      <trkpt lat="44.42107" lon="6.37966">
        <ele>1880</ele>
        <time>2015-08-26T12:52:23.1Z</time>
      </trkpt>
      <trkpt lat="44.42101" lon="6.37963">
        <ele>1879</ele>
        <time>2015-08-26T12:52:28.1Z</time>
      </trkpt>
      <trkpt lat="44.42094" lon="6.37959">
        <ele>1877</ele>
        <time>2015-08-26T12:52:34.1Z</time>
      </trkpt>
      <trkpt lat="44.42088" lon="6.37958">
        <ele>1875</ele>
        <time>2015-08-26T12:52:39.1Z</time>
      </trkpt>
      <trkpt lat="44.42081" lon="6.37957">
        <ele>1874</ele>
        <time>2015-08-26T12:52:44.1Z</time>
      </trkpt>
      <trkpt lat="44.42074" lon="6.37953">
        <ele>1873</ele>
        <time>2015-08-26T12:52:50.1Z</time>
      </trkpt>
      <trkpt lat="44.4207" lon="6.37947">
        <ele>1872</ele>
        <time>2015-08-26T12:52:55.1Z</time>
      </trkpt>
      <trkpt lat="44.42064" lon="6.37939">
        <ele>1870</ele>
        <time>2015-08-26T12:53:01.1Z</time>
      </trkpt>
      <trkpt lat="44.42058" lon="6.37932">
        <ele>1869</ele>
        <time>2015-08-26T12:53:07.1Z</time>
      </trkpt>
      <trkpt lat="44.42055" lon="6.37931">
        <ele>1868</ele>
        <time>2015-08-26T12:53:16.1Z</time>
      </trkpt>
      <trkpt lat="44.42052" lon="6.37928">
        <ele>1867</ele>
        <time>2015-08-26T12:53:22.1Z</time>
      </trkpt>
      <trkpt lat="44.42045" lon="6.37924">
        <ele>1867</ele>
        <time>2015-08-26T12:53:28.1Z</time>
      </trkpt>
      <trkpt lat="44.42039" lon="6.37921">
        <ele>1867</ele>
        <time>2015-08-26T12:53:33.1Z</time>
      </trkpt>
      <trkpt lat="44.42033" lon="6.37916">
        <ele>1867</ele>
        <time>2015-08-26T12:53:39.1Z</time>
      </trkpt>
      <trkpt lat="44.42027" lon="6.37913">
        <ele>1867</ele>
        <time>2015-08-26T12:53:44.1Z</time>
      </trkpt>
      <trkpt lat="44.42019" lon="6.3791">
        <ele>1867</ele>
        <time>2015-08-26T12:53:50.1Z</time>
      </trkpt>
      <trkpt lat="44.42012" lon="6.37907">
        <ele>1866</ele>
        <time>2015-08-26T12:53:56.1Z</time>
      </trkpt>
      <trkpt lat="44.42006" lon="6.37906">
        <ele>1866</ele>
        <time>2015-08-26T12:54:01.1Z</time>
      </trkpt>
      <trkpt lat="44.41999" lon="6.37906">
        <ele>1865</ele>
        <time>2015-08-26T12:54:07.1Z</time>
      </trkpt>
      <trkpt lat="44.41991" lon="6.37906">
        <ele>1866</ele>
        <time>2015-08-26T12:54:13.1Z</time>
      </trkpt>
      <trkpt lat="44.41984" lon="6.37904">
        <ele>1866</ele>
        <time>2015-08-26T12:54:18.1Z</time>
      </trkpt>
      <trkpt lat="44.41979" lon="6.37902">
        <ele>1866</ele>
        <time>2015-08-26T12:54:24.1Z</time>
      </trkpt>
      <trkpt lat="44.41978" lon="6.37901">
        <ele>1867</ele>
        <time>2015-08-26T12:54:29.1Z</time>
      </trkpt>
      <trkpt lat="44.41978" lon="6.37899">
        <ele>1867</ele>
        <time>2015-08-26T12:54:34.1Z</time>
      </trkpt>
      <trkpt lat="44.41978" lon="6.37899">
        <ele>1867</ele>
        <time>2015-08-26T12:54:40.1Z</time>
      </trkpt>
      <trkpt lat="44.4198" lon="6.37899">
        <ele>1868</ele>
        <time>2015-08-26T12:54:46.1Z</time>
      </trkpt>
      <trkpt lat="44.41977" lon="6.37896">
        <ele>1867</ele>
        <time>2015-08-26T12:54:51.1Z</time>
      </trkpt>
      <trkpt lat="44.4197" lon="6.37892">
        <ele>1867</ele>
        <time>2015-08-26T12:54:57.1Z</time>
      </trkpt>
      <trkpt lat="44.41963" lon="6.37889">
        <ele>1866</ele>
        <time>2015-08-26T12:55:03.1Z</time>
      </trkpt>
      <trkpt lat="44.41956" lon="6.37886">
        <ele>1867</ele>
        <time>2015-08-26T12:55:08.1Z</time>
      </trkpt>
      <trkpt lat="44.41949" lon="6.37883">
        <ele>1866</ele>
        <time>2015-08-26T12:55:14.1Z</time>
      </trkpt>
      <trkpt lat="44.41943" lon="6.37879">
        <ele>1867</ele>
        <time>2015-08-26T12:55:19.1Z</time>
      </trkpt>
      <trkpt lat="44.41936" lon="6.37873">
        <ele>1866</ele>
        <time>2015-08-26T12:55:25.1Z</time>
      </trkpt>
      <trkpt lat="44.41935" lon="6.37871">
        <ele>1865</ele>
        <time>2015-08-26T12:55:30.1Z</time>
      </trkpt>
      <trkpt lat="44.41933" lon="6.3787">
        <ele>1865</ele>
        <time>2015-08-26T12:55:35.1Z</time>
      </trkpt>
      <trkpt lat="44.41926" lon="6.37865">
        <ele>1865</ele>
        <time>2015-08-26T12:55:41.1Z</time>
      </trkpt>
      <trkpt lat="44.41922" lon="6.37861">
        <ele>1866</ele>
        <time>2015-08-26T12:55:46.1Z</time>
      </trkpt>
      <trkpt lat="44.41916" lon="6.37856">
        <ele>1865</ele>
        <time>2015-08-26T12:55:51.1Z</time>
      </trkpt>
      <trkpt lat="44.4191" lon="6.37851">
        <ele>1864</ele>
        <time>2015-08-26T12:55:56.1Z</time>
      </trkpt>
      <trkpt lat="44.41903" lon="6.37847">
        <ele>1863</ele>
        <time>2015-08-26T12:56:02.1Z</time>
      </trkpt>
      <trkpt lat="44.41896" lon="6.37842">
        <ele>1861</ele>
        <time>2015-08-26T12:56:08.1Z</time>
      </trkpt>
      <trkpt lat="44.4189" lon="6.37837">
        <ele>1860</ele>
        <time>2015-08-26T12:56:13.1Z</time>
      </trkpt>
      <trkpt lat="44.41885" lon="6.3783">
        <ele>1859</ele>
        <time>2015-08-26T12:56:18.1Z</time>
      </trkpt>
      <trkpt lat="44.41879" lon="6.37822">
        <ele>1857</ele>
        <time>2015-08-26T12:56:24.1Z</time>
      </trkpt>
      <trkpt lat="44.41873" lon="6.37814">
        <ele>1855</ele>
        <time>2015-08-26T12:56:30.1Z</time>
      </trkpt>
      <trkpt lat="44.41866" lon="6.37808">
        <ele>1854</ele>
        <time>2015-08-26T12:56:36.1Z</time>
      </trkpt>
      <trkpt lat="44.41861" lon="6.37801">
        <ele>1853</ele>
        <time>2015-08-26T12:56:41.1Z</time>
      </trkpt>
      <trkpt lat="44.41856" lon="6.37792">
        <ele>1852</ele>
        <time>2015-08-26T12:56:46.1Z</time>
      </trkpt>
      <trkpt lat="44.41851" lon="6.37787">
        <ele>1851</ele>
        <time>2015-08-26T12:56:51.1Z</time>
      </trkpt>
      <trkpt lat="44.41844" lon="6.37784">
        <ele>1850</ele>
        <time>2015-08-26T12:56:57.1Z</time>
      </trkpt>
      <trkpt lat="44.41837" lon="6.37785">
        <ele>1849</ele>
        <time>2015-08-26T12:57:03.1Z</time>
      </trkpt>
      <trkpt lat="44.4183" lon="6.37784">
        <ele>1847</ele>
        <time>2015-08-26T12:57:09.1Z</time>
      </trkpt>
      <trkpt lat="44.41825" lon="6.37781">
        <ele>1846</ele>
        <time>2015-08-26T12:57:14.1Z</time>
      </trkpt>
      <trkpt lat="44.41825" lon="6.37773">
        <ele>1847</ele>
        <time>2015-08-26T12:57:20.1Z</time>
      </trkpt>
      <trkpt lat="44.41828" lon="6.37766">
        <ele>1846</ele>
        <time>2015-08-26T12:57:26.1Z</time>
      </trkpt>
      <trkpt lat="44.41827" lon="6.37759">
        <ele>1846</ele>
        <time>2015-08-26T12:57:32.1Z</time>
      </trkpt>
      <trkpt lat="44.41824" lon="6.37753">
        <ele>1846</ele>
        <time>2015-08-26T12:57:37.1Z</time>
      </trkpt>
      <trkpt lat="44.41821" lon="6.37744">
        <ele>1845</ele>
        <time>2015-08-26T12:57:43.1Z</time>
      </trkpt>
      <trkpt lat="44.41819" lon="6.37736">
        <ele>1845</ele>
        <time>2015-08-26T12:57:49.1Z</time>
      </trkpt>
      <trkpt lat="44.41818" lon="6.37725">
        <ele>1846</ele>
        <time>2015-08-26T12:57:55.1Z</time>
      </trkpt>
      <trkpt lat="44.41819" lon="6.37718">
        <ele>1845</ele>
        <time>2015-08-26T12:58:00.1Z</time>
      </trkpt>
      <trkpt lat="44.41818" lon="6.3771">
        <ele>1845</ele>
        <time>2015-08-26T12:58:05.1Z</time>
      </trkpt>
      <trkpt lat="44.41816" lon="6.37702">
        <ele>1845</ele>
        <time>2015-08-26T12:58:11.1Z</time>
      </trkpt>
      <trkpt lat="44.41814" lon="6.37693">
        <ele>1844</ele>
        <time>2015-08-26T12:58:16.1Z</time>
      </trkpt>
      <trkpt lat="44.41812" lon="6.37684">
        <ele>1844</ele>
        <time>2015-08-26T12:58:22.1Z</time>
      </trkpt>
      <trkpt lat="44.41808" lon="6.37677">
        <ele>1843</ele>
        <time>2015-08-26T12:58:27.1Z</time>
      </trkpt>
      <trkpt lat="44.41805" lon="6.37671">
        <ele>1841</ele>
        <time>2015-08-26T12:58:32.1Z</time>
      </trkpt>
      <trkpt lat="44.41798" lon="6.37664">
        <ele>1841</ele>
        <time>2015-08-26T12:58:38.1Z</time>
      </trkpt>
      <trkpt lat="44.41794" lon="6.37656">
        <ele>1840</ele>
        <time>2015-08-26T12:58:43.1Z</time>
      </trkpt>
      <trkpt lat="44.4179" lon="6.37649">
        <ele>1838</ele>
        <time>2015-08-26T12:58:48.1Z</time>
      </trkpt>
      <trkpt lat="44.41784" lon="6.3764">
        <ele>1836</ele>
        <time>2015-08-26T12:58:54.1Z</time>
      </trkpt>
      <trkpt lat="44.4178" lon="6.37632">
        <ele>1834</ele>
        <time>2015-08-26T12:59:00.1Z</time>
      </trkpt>
      <trkpt lat="44.41777" lon="6.37627">
        <ele>1833</ele>
        <time>2015-08-26T12:59:05.1Z</time>
      </trkpt>
      <trkpt lat="44.41774" lon="6.37622">
        <ele>1832</ele>
        <time>2015-08-26T12:59:10.1Z</time>
      </trkpt>
      <trkpt lat="44.41771" lon="6.37614">
        <ele>1831</ele>
        <time>2015-08-26T12:59:16.1Z</time>
      </trkpt>
      <trkpt lat="44.41767" lon="6.37609">
        <ele>1830</ele>
        <time>2015-08-26T12:59:21.1Z</time>
      </trkpt>
      <trkpt lat="44.41761" lon="6.37601">
        <ele>1828</ele>
        <time>2015-08-26T12:59:26.1Z</time>
      </trkpt>
      <trkpt lat="44.41757" lon="6.37593">
        <ele>1827</ele>
        <time>2015-08-26T12:59:31.1Z</time>
      </trkpt>
      <trkpt lat="44.41751" lon="6.37583">
        <ele>1825</ele>
        <time>2015-08-26T12:59:37.1Z</time>
      </trkpt>
      <trkpt lat="44.41751" lon="6.3758">
        <ele>1824</ele>
        <time>2015-08-26T12:59:42.1Z</time>
      </trkpt>
      <trkpt lat="44.41751" lon="6.37578">
        <ele>1823</ele>
        <time>2015-08-26T12:59:47.1Z</time>
      </trkpt>
      <trkpt lat="44.41751" lon="6.37575">
        <ele>1824</ele>
        <time>2015-08-26T12:59:53.1Z</time>
      </trkpt>
      <trkpt lat="44.41748" lon="6.37568">
        <ele>1823</ele>
        <time>2015-08-26T12:59:58.1Z</time>
      </trkpt>
      <trkpt lat="44.41746" lon="6.37564">
        <ele>1823</ele>
        <time>2015-08-26T13:00:04.1Z</time>
      </trkpt>
      <trkpt lat="44.41747" lon="6.37564">
        <ele>1823</ele>
        <time>2015-08-26T13:00:09.1Z</time>
      </trkpt>
      <trkpt lat="44.41748" lon="6.37563">
        <ele>1823</ele>
        <time>2015-08-26T13:00:14.1Z</time>
      </trkpt>
      <trkpt lat="44.41748" lon="6.37561">
        <ele>1823</ele>
        <time>2015-08-26T13:00:20.1Z</time>
      </trkpt>
      <trkpt lat="44.41748" lon="6.37559">
        <ele>1822</ele>
        <time>2015-08-26T13:00:26.1Z</time>
      </trkpt>
      <trkpt lat="44.41748" lon="6.37556">
        <ele>1822</ele>
        <time>2015-08-26T13:00:32.1Z</time>
      </trkpt>
      <trkpt lat="44.41747" lon="6.37551">
        <ele>1823</ele>
        <time>2015-08-26T13:00:37.1Z</time>
      </trkpt>
      <trkpt lat="44.41743" lon="6.37543">
        <ele>1821</ele>
        <time>2015-08-26T13:00:43.1Z</time>
      </trkpt>
      <trkpt lat="44.41742" lon="6.37535">
        <ele>1821</ele>
        <time>2015-08-26T13:00:48.1Z</time>
      </trkpt>
      <trkpt lat="44.41738" lon="6.37527">
        <ele>1821</ele>
        <time>2015-08-26T13:00:54.1Z</time>
      </trkpt>
      <trkpt lat="44.41735" lon="6.37518">
        <ele>1820</ele>
        <time>2015-08-26T13:01:00.1Z</time>
      </trkpt>
      <trkpt lat="44.41734" lon="6.37515">
        <ele>1819</ele>
        <time>2015-08-26T13:01:05.1Z</time>
      </trkpt>
      <trkpt lat="44.41732" lon="6.3752">
        <ele>1819</ele>
        <time>2015-08-26T13:01:11.1Z</time>
      </trkpt>
      <trkpt lat="44.41732" lon="6.37512">
        <ele>1819</ele>
        <time>2015-08-26T13:01:17.1Z</time>
      </trkpt>
      <trkpt lat="44.41727" lon="6.37507">
        <ele>1820</ele>
        <time>2015-08-26T13:01:22.1Z</time>
      </trkpt>
      <trkpt lat="44.4172" lon="6.37501">
        <ele>1819</ele>
        <time>2015-08-26T13:01:28.1Z</time>
      </trkpt>
      <trkpt lat="44.41713" lon="6.37495">
        <ele>1819</ele>
        <time>2015-08-26T13:01:34.1Z</time>
      </trkpt>
      <trkpt lat="44.41706" lon="6.37489">
        <ele>1818</ele>
        <time>2015-08-26T13:01:40.1Z</time>
      </trkpt>
      <trkpt lat="44.41701" lon="6.37485">
        <ele>1818</ele>
        <time>2015-08-26T13:01:45.1Z</time>
      </trkpt>
      <trkpt lat="44.41697" lon="6.37477">
        <ele>1818</ele>
        <time>2015-08-26T13:01:51.1Z</time>
      </trkpt>
      <trkpt lat="44.41692" lon="6.37474">
        <ele>1814</ele>
        <time>2015-08-26T13:01:56.1Z</time>
      </trkpt>
      <trkpt lat="44.41688" lon="6.37468">
        <ele>1814</ele>
        <time>2015-08-26T13:02:02.1Z</time>
      </trkpt>
      <trkpt lat="44.41683" lon="6.37464">
        <ele>1816</ele>
        <time>2015-08-26T13:02:07.1Z</time>
      </trkpt>
      <trkpt lat="44.41676" lon="6.37458">
        <ele>1815</ele>
        <time>2015-08-26T13:02:13.1Z</time>
      </trkpt>
      <trkpt lat="44.41668" lon="6.37452">
        <ele>1816</ele>
        <time>2015-08-26T13:02:19.1Z</time>
      </trkpt>
      <trkpt lat="44.41663" lon="6.37444">
        <ele>1816</ele>
        <time>2015-08-26T13:02:24.1Z</time>
      </trkpt>
      <trkpt lat="44.41656" lon="6.37438">
        <ele>1815</ele>
        <time>2015-08-26T13:02:29.1Z</time>
      </trkpt>
      <trkpt lat="44.41652" lon="6.37435">
        <ele>1814</ele>
        <time>2015-08-26T13:02:34.1Z</time>
      </trkpt>
      <trkpt lat="44.41644" lon="6.3743">
        <ele>1814</ele>
        <time>2015-08-26T13:02:40.1Z</time>
      </trkpt>
      <trkpt lat="44.41635" lon="6.37424">
        <ele>1814</ele>
        <time>2015-08-26T13:02:46.1Z</time>
      </trkpt>
      <trkpt lat="44.41627" lon="6.37418">
        <ele>1814</ele>
        <time>2015-08-26T13:02:52.1Z</time>
      </trkpt>
      <trkpt lat="44.4162" lon="6.37411">
        <ele>1813</ele>
        <time>2015-08-26T13:02:58.1Z</time>
      </trkpt>
      <trkpt lat="44.41614" lon="6.37403">
        <ele>1814</ele>
        <time>2015-08-26T13:03:04.1Z</time>
      </trkpt>
      <trkpt lat="44.41608" lon="6.37394">
        <ele>1814</ele>
        <time>2015-08-26T13:03:10.1Z</time>
      </trkpt>
      <trkpt lat="44.41603" lon="6.37386">
        <ele>1815</ele>
        <time>2015-08-26T13:03:15.1Z</time>
      </trkpt>
      <trkpt lat="44.416" lon="6.37378">
        <ele>1815</ele>
        <time>2015-08-26T13:03:20.1Z</time>
      </trkpt>
      <trkpt lat="44.41595" lon="6.3737">
        <ele>1815</ele>
        <time>2015-08-26T13:03:25.1Z</time>
      </trkpt>
      <trkpt lat="44.4159" lon="6.3736">
        <ele>1814</ele>
        <time>2015-08-26T13:03:31.1Z</time>
      </trkpt>
      <trkpt lat="44.41584" lon="6.37352">
        <ele>1814</ele>
        <time>2015-08-26T13:03:37.1Z</time>
      </trkpt>
      <trkpt lat="44.41579" lon="6.37344">
        <ele>1813</ele>
        <time>2015-08-26T13:03:42.1Z</time>
      </trkpt>
      <trkpt lat="44.41574" lon="6.37347">
        <ele>1813</ele>
        <time>2015-08-26T13:03:48.1Z</time>
      </trkpt>
      <trkpt lat="44.41568" lon="6.3735">
        <ele>1814</ele>
        <time>2015-08-26T13:03:53.1Z</time>
      </trkpt>
      <trkpt lat="44.41562" lon="6.37347">
        <ele>1814</ele>
        <time>2015-08-26T13:03:58.1Z</time>
      </trkpt>
      <trkpt lat="44.41555" lon="6.37345">
        <ele>1815</ele>
        <time>2015-08-26T13:04:03.1Z</time>
      </trkpt>
      <trkpt lat="44.41546" lon="6.37343">
        <ele>1815</ele>
        <time>2015-08-26T13:04:09.1Z</time>
      </trkpt>
      <trkpt lat="44.41539" lon="6.37344">
        <ele>1815</ele>
        <time>2015-08-26T13:04:15.1Z</time>
      </trkpt>
      <trkpt lat="44.41532" lon="6.37346">
        <ele>1816</ele>
        <time>2015-08-26T13:04:20.1Z</time>
      </trkpt>
      <trkpt lat="44.41525" lon="6.37351">
        <ele>1816</ele>
        <time>2015-08-26T13:04:26.1Z</time>
      </trkpt>
      <trkpt lat="44.41519" lon="6.37354">
        <ele>1816</ele>
        <time>2015-08-26T13:04:31.1Z</time>
      </trkpt>
      <trkpt lat="44.41513" lon="6.37357">
        <ele>1816</ele>
        <time>2015-08-26T13:04:36.1Z</time>
      </trkpt>
      <trkpt lat="44.41507" lon="6.37362">
        <ele>1816</ele>
        <time>2015-08-26T13:04:42.1Z</time>
      </trkpt>
      <trkpt lat="44.41501" lon="6.37368">
        <ele>1816</ele>
        <time>2015-08-26T13:04:47.1Z</time>
      </trkpt>
      <trkpt lat="44.41496" lon="6.37375">
        <ele>1816</ele>
        <time>2015-08-26T13:04:52.1Z</time>
      </trkpt>
      <trkpt lat="44.41491" lon="6.37382">
        <ele>1817</ele>
        <time>2015-08-26T13:04:57.1Z</time>
      </trkpt>
      <trkpt lat="44.41485" lon="6.37389">
        <ele>1817</ele>
        <time>2015-08-26T13:05:03.1Z</time>
      </trkpt>
      <trkpt lat="44.41479" lon="6.37391">
        <ele>1817</ele>
        <time>2015-08-26T13:05:08.1Z</time>
      </trkpt>
      <trkpt lat="44.41471" lon="6.37391">
        <ele>1818</ele>
        <time>2015-08-26T13:05:14.1Z</time>
      </trkpt>
      <trkpt lat="44.41464" lon="6.37391">
        <ele>1818</ele>
        <time>2015-08-26T13:05:19.1Z</time>
      </trkpt>
      <trkpt lat="44.41457" lon="6.3739">
        <ele>1818</ele>
        <time>2015-08-26T13:05:25.1Z</time>
      </trkpt>
      <trkpt lat="44.4145" lon="6.37391">
        <ele>1818</ele>
        <time>2015-08-26T13:05:30.1Z</time>
      </trkpt>
      <trkpt lat="44.41443" lon="6.37389">
        <ele>1818</ele>
        <time>2015-08-26T13:05:36.1Z</time>
      </trkpt>
      <trkpt lat="44.41438" lon="6.37388">
        <ele>1818</ele>
        <time>2015-08-26T13:05:41.1Z</time>
      </trkpt>
      <trkpt lat="44.4143" lon="6.37387">
        <ele>1819</ele>
        <time>2015-08-26T13:05:47.1Z</time>
      </trkpt>
      <trkpt lat="44.41424" lon="6.37387">
        <ele>1819</ele>
        <time>2015-08-26T13:05:52.1Z</time>
      </trkpt>
      <trkpt lat="44.41417" lon="6.37385">
        <ele>1820</ele>
        <time>2015-08-26T13:05:57.1Z</time>
      </trkpt>
      <trkpt lat="44.4141" lon="6.37385">
        <ele>1820</ele>
        <time>2015-08-26T13:06:03.1Z</time>
      </trkpt>
      <trkpt lat="44.41404" lon="6.37385">
        <ele>1820</ele>
        <time>2015-08-26T13:06:09.1Z</time>
      </trkpt>
      <trkpt lat="44.41399" lon="6.3738">
        <ele>1820</ele>
        <time>2015-08-26T13:06:14.1Z</time>
      </trkpt>
      <trkpt lat="44.41393" lon="6.37374">
        <ele>1821</ele>
        <time>2015-08-26T13:06:19.1Z</time>
      </trkpt>
      <trkpt lat="44.4139" lon="6.37374">
        <ele>1821</ele>
        <time>2015-08-26T13:06:25.1Z</time>
      </trkpt>
      <trkpt lat="44.41388" lon="6.37373">
        <ele>1821</ele>
        <time>2015-08-26T13:06:31.1Z</time>
      </trkpt>
      <trkpt lat="44.41382" lon="6.37371">
        <ele>1821</ele>
        <time>2015-08-26T13:06:36.1Z</time>
      </trkpt>
      <trkpt lat="44.41376" lon="6.37372">
        <ele>1822</ele>
        <time>2015-08-26T13:06:41.1Z</time>
      </trkpt>
      <trkpt lat="44.41371" lon="6.37373">
        <ele>1821</ele>
        <time>2015-08-26T13:06:46.1Z</time>
      </trkpt>
      <trkpt lat="44.41366" lon="6.37375">
        <ele>1821</ele>
        <time>2015-08-26T13:06:52.1Z</time>
      </trkpt>
      <trkpt lat="44.41364" lon="6.37374">
        <ele>1821</ele>
        <time>2015-08-26T13:06:58.1Z</time>
      </trkpt>
      <trkpt lat="44.41362" lon="6.37372">
        <ele>1821</ele>
        <time>2015-08-26T13:07:03.1Z</time>
      </trkpt>
      <trkpt lat="44.4136" lon="6.37379">
        <ele>1821</ele>
        <time>2015-08-26T13:07:08.1Z</time>
      </trkpt>
      <trkpt lat="44.41357" lon="6.37387">
        <ele>1821</ele>
        <time>2015-08-26T13:07:14.1Z</time>
      </trkpt>
      <trkpt lat="44.41357" lon="6.37394">
        <ele>1823</ele>
        <time>2015-08-26T13:07:19.1Z</time>
      </trkpt>
      <trkpt lat="44.41358" lon="6.37403">
        <ele>1824</ele>
        <time>2015-08-26T13:07:24.1Z</time>
      </trkpt>
      <trkpt lat="44.41357" lon="6.3741">
        <ele>1825</ele>
        <time>2015-08-26T13:07:29.1Z</time>
      </trkpt>
      <trkpt lat="44.41354" lon="6.37418">
        <ele>1825</ele>
        <time>2015-08-26T13:07:35.1Z</time>
      </trkpt>
      <trkpt lat="44.41348" lon="6.37413">
        <ele>1825</ele>
        <time>2015-08-26T13:07:41.1Z</time>
      </trkpt>
      <trkpt lat="44.41343" lon="6.37408">
        <ele>1824</ele>
        <time>2015-08-26T13:07:46.1Z</time>
      </trkpt>
      <trkpt lat="44.41337" lon="6.37404">
        <ele>1823</ele>
        <time>2015-08-26T13:07:51.1Z</time>
      </trkpt>
      <trkpt lat="44.41331" lon="6.37405">
        <ele>1824</ele>
        <time>2015-08-26T13:07:57.1Z</time>
      </trkpt>
      <trkpt lat="44.41325" lon="6.37408">
        <ele>1824</ele>
        <time>2015-08-26T13:08:03.1Z</time>
      </trkpt>
      <trkpt lat="44.41319" lon="6.37408">
        <ele>1825</ele>
        <time>2015-08-26T13:08:08.1Z</time>
      </trkpt>
      <trkpt lat="44.41314" lon="6.37407">
        <ele>1825</ele>
        <time>2015-08-26T13:08:13.1Z</time>
      </trkpt>
      <trkpt lat="44.41307" lon="6.37403">
        <ele>1826</ele>
        <time>2015-08-26T13:08:19.1Z</time>
      </trkpt>
      <trkpt lat="44.41302" lon="6.37396">
        <ele>1827</ele>
        <time>2015-08-26T13:08:24.1Z</time>
      </trkpt>
      <trkpt lat="44.41297" lon="6.3739">
        <ele>1827</ele>
        <time>2015-08-26T13:08:30.1Z</time>
      </trkpt>
      <trkpt lat="44.4129" lon="6.37384">
        <ele>1828</ele>
        <time>2015-08-26T13:08:36.1Z</time>
      </trkpt>
      <trkpt lat="44.41286" lon="6.3738">
        <ele>1828</ele>
        <time>2015-08-26T13:08:41.1Z</time>
      </trkpt>
      <trkpt lat="44.41282" lon="6.37376">
        <ele>1829</ele>
        <time>2015-08-26T13:08:46.1Z</time>
      </trkpt>
      <trkpt lat="44.41278" lon="6.37374">
        <ele>1829</ele>
        <time>2015-08-26T13:08:51.1Z</time>
      </trkpt>
      <trkpt lat="44.41273" lon="6.37373">
        <ele>1830</ele>
        <time>2015-08-26T13:08:57.1Z</time>
      </trkpt>
      <trkpt lat="44.41268" lon="6.37372">
        <ele>1831</ele>
        <time>2015-08-26T13:09:02.1Z</time>
      </trkpt>
      <trkpt lat="44.41264" lon="6.3737">
        <ele>1831</ele>
        <time>2015-08-26T13:09:07.1Z</time>
      </trkpt>
      <trkpt lat="44.41256" lon="6.3737">
        <ele>1831</ele>
        <time>2015-08-26T13:09:13.1Z</time>
      </trkpt>
      <trkpt lat="44.41251" lon="6.37369">
        <ele>1832</ele>
        <time>2015-08-26T13:09:19.1Z</time>
      </trkpt>
      <trkpt lat="44.41247" lon="6.37369">
        <ele>1832</ele>
        <time>2015-08-26T13:09:24.1Z</time>
      </trkpt>
      <trkpt lat="44.41242" lon="6.37368">
        <ele>1832</ele>
        <time>2015-08-26T13:09:30.1Z</time>
      </trkpt>
      <trkpt lat="44.41236" lon="6.37364">
        <ele>1831</ele>
        <time>2015-08-26T13:09:36.1Z</time>
      </trkpt>
      <trkpt lat="44.41229" lon="6.3736">
        <ele>1829</ele>
        <time>2015-08-26T13:09:42.1Z</time>
      </trkpt>
      <trkpt lat="44.41224" lon="6.37358">
        <ele>1829</ele>
        <time>2015-08-26T13:09:47.1Z</time>
      </trkpt>
      <trkpt lat="44.41218" lon="6.37353">
        <ele>1829</ele>
        <time>2015-08-26T13:09:53.1Z</time>
      </trkpt>
      <trkpt lat="44.41214" lon="6.3735">
        <ele>1829</ele>
        <time>2015-08-26T13:09:58.1Z</time>
      </trkpt>
      <trkpt lat="44.41207" lon="6.37346">
        <ele>1827</ele>
        <time>2015-08-26T13:10:03.1Z</time>
      </trkpt>
      <trkpt lat="44.41198" lon="6.37344">
        <ele>1827</ele>
        <time>2015-08-26T13:10:09.1Z</time>
      </trkpt>
      <trkpt lat="44.41191" lon="6.37341">
        <ele>1826</ele>
        <time>2015-08-26T13:10:14.1Z</time>
      </trkpt>
      <trkpt lat="44.41184" lon="6.37338">
        <ele>1825</ele>
        <time>2015-08-26T13:10:19.1Z</time>
      </trkpt>
      <trkpt lat="44.41177" lon="6.37337">
        <ele>1824</ele>
        <time>2015-08-26T13:10:25.1Z</time>
      </trkpt>
      <trkpt lat="44.41169" lon="6.37333">
        <ele>1823</ele>
        <time>2015-08-26T13:10:31.1Z</time>
      </trkpt>
      <trkpt lat="44.41161" lon="6.3733">
        <ele>1822</ele>
        <time>2015-08-26T13:10:37.1Z</time>
      </trkpt>
      <trkpt lat="44.41154" lon="6.37327">
        <ele>1822</ele>
        <time>2015-08-26T13:10:42.1Z</time>
      </trkpt>
      <trkpt lat="44.41146" lon="6.37323">
        <ele>1821</ele>
        <time>2015-08-26T13:10:48.1Z</time>
      </trkpt>
      <trkpt lat="44.41137" lon="6.37318">
        <ele>1820</ele>
        <time>2015-08-26T13:10:54.1Z</time>
      </trkpt>
      <trkpt lat="44.41132" lon="6.37316">
        <ele>1819</ele>
        <time>2015-08-26T13:10:59.1Z</time>
      </trkpt>
      <trkpt lat="44.41126" lon="6.37312">
        <ele>1818</ele>
        <time>2015-08-26T13:11:04.1Z</time>
      </trkpt>
      <trkpt lat="44.41118" lon="6.37309">
        <ele>1818</ele>
        <time>2015-08-26T13:11:10.1Z</time>
      </trkpt>
      <trkpt lat="44.41112" lon="6.37306">
        <ele>1817</ele>
        <time>2015-08-26T13:11:15.1Z</time>
      </trkpt>
      <trkpt lat="44.41107" lon="6.37299">
        <ele>1816</ele>
        <time>2015-08-26T13:11:21.1Z</time>
      </trkpt>
      <trkpt lat="44.41102" lon="6.37291">
        <ele>1814</ele>
        <time>2015-08-26T13:11:26.1Z</time>
      </trkpt>
      <trkpt lat="44.41095" lon="6.37285">
        <ele>1814</ele>
        <time>2015-08-26T13:11:31.1Z</time>
      </trkpt>
      <trkpt lat="44.41089" lon="6.37279">
        <ele>1813</ele>
        <time>2015-08-26T13:11:37.1Z</time>
      </trkpt>
      <trkpt lat="44.41084" lon="6.37274">
        <ele>1812</ele>
        <time>2015-08-26T13:11:43.1Z</time>
      </trkpt>
      <trkpt lat="44.41077" lon="6.3727">
        <ele>1812</ele>
        <time>2015-08-26T13:11:48.1Z</time>
      </trkpt>
      <trkpt lat="44.41068" lon="6.37266">
        <ele>1810</ele>
        <time>2015-08-26T13:11:54.1Z</time>
      </trkpt>
      <trkpt lat="44.41061" lon="6.37263">
        <ele>1810</ele>
        <time>2015-08-26T13:11:59.1Z</time>
      </trkpt>
      <trkpt lat="44.41054" lon="6.3726">
        <ele>1809</ele>
        <time>2015-08-26T13:12:05.1Z</time>
      </trkpt>
      <trkpt lat="44.41045" lon="6.37258">
        <ele>1807</ele>
        <time>2015-08-26T13:12:11.1Z</time>
      </trkpt>
      <trkpt lat="44.41035" lon="6.37255">
        <ele>1806</ele>
        <time>2015-08-26T13:12:17.1Z</time>
      </trkpt>
      <trkpt lat="44.41027" lon="6.37257">
        <ele>1806</ele>
        <time>2015-08-26T13:12:22.1Z</time>
      </trkpt>
      <trkpt lat="44.4102" lon="6.37252">
        <ele>1805</ele>
        <time>2015-08-26T13:12:28.1Z</time>
      </trkpt>
      <trkpt lat="44.41017" lon="6.37245">
        <ele>1804</ele>
        <time>2015-08-26T13:12:33.1Z</time>
      </trkpt>
      <trkpt lat="44.41012" lon="6.37241">
        <ele>1803</ele>
        <time>2015-08-26T13:12:38.1Z</time>
      </trkpt>
      <trkpt lat="44.41003" lon="6.37241">
        <ele>1802</ele>
        <time>2015-08-26T13:12:44.1Z</time>
      </trkpt>
      <trkpt lat="44.40996" lon="6.37244">
        <ele>1801</ele>
        <time>2015-08-26T13:12:50.1Z</time>
      </trkpt>
      <trkpt lat="44.40992" lon="6.37246">
        <ele>1801</ele>
        <time>2015-08-26T13:12:55.1Z</time>
      </trkpt>
      <trkpt lat="44.40985" lon="6.37242">
        <ele>1800</ele>
        <time>2015-08-26T13:13:01.1Z</time>
      </trkpt>
      <trkpt lat="44.4098" lon="6.37234">
        <ele>1800</ele>
        <time>2015-08-26T13:13:06.1Z</time>
      </trkpt>
      <trkpt lat="44.40976" lon="6.37225">
        <ele>1800</ele>
        <time>2015-08-26T13:13:12.1Z</time>
      </trkpt>
      <trkpt lat="44.40973" lon="6.37217">
        <ele>1799</ele>
        <time>2015-08-26T13:13:17.1Z</time>
      </trkpt>
      <trkpt lat="44.40969" lon="6.37211">
        <ele>1799</ele>
        <time>2015-08-26T13:13:22.1Z</time>
      </trkpt>
      <trkpt lat="44.40964" lon="6.37204">
        <ele>1799</ele>
        <time>2015-08-26T13:13:28.1Z</time>
      </trkpt>
      <trkpt lat="44.40958" lon="6.372">
        <ele>1798</ele>
        <time>2015-08-26T13:13:33.1Z</time>
      </trkpt>
      <trkpt lat="44.40951" lon="6.37196">
        <ele>1796</ele>
        <time>2015-08-26T13:13:38.1Z</time>
      </trkpt>
      <trkpt lat="44.40944" lon="6.37191">
        <ele>1796</ele>
        <time>2015-08-26T13:13:44.1Z</time>
      </trkpt>
      <trkpt lat="44.40937" lon="6.37187">
        <ele>1794</ele>
        <time>2015-08-26T13:13:50.1Z</time>
      </trkpt>
      <trkpt lat="44.40928" lon="6.37182">
        <ele>1794</ele>
        <time>2015-08-26T13:13:56.1Z</time>
      </trkpt>
      <trkpt lat="44.40922" lon="6.37176">
        <ele>1793</ele>
        <time>2015-08-26T13:14:01.1Z</time>
      </trkpt>
      <trkpt lat="44.40917" lon="6.37174">
        <ele>1791</ele>
        <time>2015-08-26T13:14:06.1Z</time>
      </trkpt>
      <trkpt lat="44.40909" lon="6.37169">
        <ele>1790</ele>
        <time>2015-08-26T13:14:12.1Z</time>
      </trkpt>
      <trkpt lat="44.40901" lon="6.37163">
        <ele>1788</ele>
        <time>2015-08-26T13:14:18.1Z</time>
      </trkpt>
      <trkpt lat="44.40895" lon="6.3716">
        <ele>1788</ele>
        <time>2015-08-26T13:14:23.1Z</time>
      </trkpt>
      <trkpt lat="44.40888" lon="6.37157">
        <ele>1787</ele>
        <time>2015-08-26T13:14:28.1Z</time>
      </trkpt>
      <trkpt lat="44.40882" lon="6.37154">
        <ele>1785</ele>
        <time>2015-08-26T13:14:34.1Z</time>
      </trkpt>
      <trkpt lat="44.40875" lon="6.37151">
        <ele>1784</ele>
        <time>2015-08-26T13:14:39.1Z</time>
      </trkpt>
      <trkpt lat="44.40868" lon="6.37149">
        <ele>1784</ele>
        <time>2015-08-26T13:14:45.1Z</time>
      </trkpt>
      <trkpt lat="44.40861" lon="6.37148">
        <ele>1784</ele>
        <time>2015-08-26T13:14:51.1Z</time>
      </trkpt>
      <trkpt lat="44.40854" lon="6.37148">
        <ele>1783</ele>
        <time>2015-08-26T13:14:56.1Z</time>
      </trkpt>
      <trkpt lat="44.40846" lon="6.37149">
        <ele>1782</ele>
        <time>2015-08-26T13:15:02.1Z</time>
      </trkpt>
      <trkpt lat="44.40839" lon="6.37154">
        <ele>1781</ele>
        <time>2015-08-26T13:15:08.1Z</time>
      </trkpt>
      <trkpt lat="44.40834" lon="6.37161">
        <ele>1780</ele>
        <time>2015-08-26T13:15:14.1Z</time>
      </trkpt>
      <trkpt lat="44.40831" lon="6.37167">
        <ele>1780</ele>
        <time>2015-08-26T13:15:19.1Z</time>
      </trkpt>
      <trkpt lat="44.40829" lon="6.37174">
        <ele>1781</ele>
        <time>2015-08-26T13:15:25.1Z</time>
      </trkpt>
      <trkpt lat="44.40823" lon="6.37176">
        <ele>1780</ele>
        <time>2015-08-26T13:15:30.1Z</time>
      </trkpt>
      <trkpt lat="44.40819" lon="6.37171">
        <ele>1779</ele>
        <time>2015-08-26T13:15:36.1Z</time>
      </trkpt>
      <trkpt lat="44.40816" lon="6.37164">
        <ele>1778</ele>
        <time>2015-08-26T13:15:41.1Z</time>
      </trkpt>
      <trkpt lat="44.40812" lon="6.37156">
        <ele>1777</ele>
        <time>2015-08-26T13:15:47.1Z</time>
      </trkpt>
      <trkpt lat="44.40807" lon="6.37149">
        <ele>1776</ele>
        <time>2015-08-26T13:15:52.1Z</time>
      </trkpt>
      <trkpt lat="44.40799" lon="6.37143">
        <ele>1775</ele>
        <time>2015-08-26T13:15:58.1Z</time>
      </trkpt>
      <trkpt lat="44.40791" lon="6.37139">
        <ele>1774</ele>
        <time>2015-08-26T13:16:03.1Z</time>
      </trkpt>
      <trkpt lat="44.40785" lon="6.37135">
        <ele>1774</ele>
        <time>2015-08-26T13:16:09.1Z</time>
      </trkpt>
      <trkpt lat="44.40776" lon="6.37134">
        <ele>1773</ele>
        <time>2015-08-26T13:16:15.1Z</time>
      </trkpt>
      <trkpt lat="44.40768" lon="6.37133">
        <ele>1772</ele>
        <time>2015-08-26T13:16:20.1Z</time>
      </trkpt>
      <trkpt lat="44.40759" lon="6.3713">
        <ele>1771</ele>
        <time>2015-08-26T13:16:26.1Z</time>
      </trkpt>
      <trkpt lat="44.40753" lon="6.37128">
        <ele>1770</ele>
        <time>2015-08-26T13:16:31.1Z</time>
      </trkpt>
      <trkpt lat="44.40743" lon="6.37126">
        <ele>1769</ele>
        <time>2015-08-26T13:16:37.1Z</time>
      </trkpt>
      <trkpt lat="44.40733" lon="6.37124">
        <ele>1768</ele>
        <time>2015-08-26T13:16:43.1Z</time>
      </trkpt>
      <trkpt lat="44.40727" lon="6.37124">
        <ele>1768</ele>
        <time>2015-08-26T13:16:48.1Z</time>
      </trkpt>
      <trkpt lat="44.40722" lon="6.37122">
        <ele>1767</ele>
        <time>2015-08-26T13:16:53.1Z</time>
      </trkpt>
      <trkpt lat="44.40715" lon="6.3712">
        <ele>1766</ele>
        <time>2015-08-26T13:16:59.1Z</time>
      </trkpt>
      <trkpt lat="44.40706" lon="6.37118">
        <ele>1764</ele>
        <time>2015-08-26T13:17:05.1Z</time>
      </trkpt>
      <trkpt lat="44.40696" lon="6.37119">
        <ele>1763</ele>
        <time>2015-08-26T13:17:11.1Z</time>
      </trkpt>
      <trkpt lat="44.40689" lon="6.37117">
        <ele>1762</ele>
        <time>2015-08-26T13:17:16.1Z</time>
      </trkpt>
      <trkpt lat="44.40684" lon="6.37116">
        <ele>1761</ele>
        <time>2015-08-26T13:17:21.1Z</time>
      </trkpt>
      <trkpt lat="44.40677" lon="6.37113">
        <ele>1760</ele>
        <time>2015-08-26T13:17:27.1Z</time>
      </trkpt>
      <trkpt lat="44.4067" lon="6.37111">
        <ele>1760</ele>
        <time>2015-08-26T13:17:32.1Z</time>
      </trkpt>
      <trkpt lat="44.40662" lon="6.3711">
        <ele>1759</ele>
        <time>2015-08-26T13:17:37.1Z</time>
      </trkpt>
      <trkpt lat="44.40657" lon="6.37113">
        <ele>1758</ele>
        <time>2015-08-26T13:17:42.1Z</time>
      </trkpt>
      <trkpt lat="44.40651" lon="6.37117">
        <ele>1758</ele>
        <time>2015-08-26T13:17:48.1Z</time>
      </trkpt>
      <trkpt lat="44.40649" lon="6.37121">
        <ele>1757</ele>
        <time>2015-08-26T13:17:53.1Z</time>
      </trkpt>
      <trkpt lat="44.40647" lon="6.37125">
        <ele>1755</ele>
        <time>2015-08-26T13:17:58.1Z</time>
      </trkpt>
      <trkpt lat="44.40642" lon="6.37129">
        <ele>1753</ele>
        <time>2015-08-26T13:18:04.1Z</time>
      </trkpt>
      <trkpt lat="44.40634" lon="6.37128">
        <ele>1751</ele>
        <time>2015-08-26T13:18:10.1Z</time>
      </trkpt>
      <trkpt lat="44.40626" lon="6.37127">
        <ele>1751</ele>
        <time>2015-08-26T13:18:16.1Z</time>
      </trkpt>
      <trkpt lat="44.40619" lon="6.37124">
        <ele>1751</ele>
        <time>2015-08-26T13:18:21.1Z</time>
      </trkpt>
      <trkpt lat="44.4061" lon="6.37125">
        <ele>1751</ele>
        <time>2015-08-26T13:18:26.1Z</time>
      </trkpt>
      <trkpt lat="44.40602" lon="6.37125">
        <ele>1750</ele>
        <time>2015-08-26T13:18:32.1Z</time>
      </trkpt>
      <trkpt lat="44.40595" lon="6.37126">
        <ele>1750</ele>
        <time>2015-08-26T13:18:38.1Z</time>
      </trkpt>
      <trkpt lat="44.40592" lon="6.37127">
        <ele>1749</ele>
        <time>2015-08-26T13:18:44.1Z</time>
      </trkpt>
      <trkpt lat="44.40586" lon="6.37127">
        <ele>1748</ele>
        <time>2015-08-26T13:18:49.1Z</time>
      </trkpt>
      <trkpt lat="44.40579" lon="6.37128">
        <ele>1747</ele>
        <time>2015-08-26T13:18:55.1Z</time>
      </trkpt>
      <trkpt lat="44.40575" lon="6.37127">
        <ele>1747</ele>
        <time>2015-08-26T13:19:00.1Z</time>
      </trkpt>
      <trkpt lat="44.40571" lon="6.37124">
        <ele>1747</ele>
        <time>2015-08-26T13:19:06.1Z</time>
      </trkpt>
      <trkpt lat="44.40568" lon="6.3712">
        <ele>1747</ele>
        <time>2015-08-26T13:19:11.1Z</time>
      </trkpt>
      <trkpt lat="44.40566" lon="6.37115">
        <ele>1748</ele>
        <time>2015-08-26T13:19:16.1Z</time>
      </trkpt>
      <trkpt lat="44.40563" lon="6.37116">
        <ele>1749</ele>
        <time>2015-08-26T13:19:22.1Z</time>
      </trkpt>
      <trkpt lat="44.40559" lon="6.37114">
        <ele>1750</ele>
        <time>2015-08-26T13:19:27.1Z</time>
      </trkpt>
      <trkpt lat="44.40552" lon="6.37114">
        <ele>1750</ele>
        <time>2015-08-26T13:19:33.1Z</time>
      </trkpt>
      <trkpt lat="44.40549" lon="6.37112">
        <ele>1750</ele>
        <time>2015-08-26T13:19:38.1Z</time>
      </trkpt>
      <trkpt lat="44.40546" lon="6.37113">
        <ele>1751</ele>
        <time>2015-08-26T13:19:44.1Z</time>
      </trkpt>
      <trkpt lat="44.4054" lon="6.37111">
        <ele>1750</ele>
        <time>2015-08-26T13:19:49.1Z</time>
      </trkpt>
      <trkpt lat="44.40537" lon="6.3711">
        <ele>1749</ele>
        <time>2015-08-26T13:19:54.1Z</time>
      </trkpt>
      <trkpt lat="44.40531" lon="6.37108">
        <ele>1748</ele>
        <time>2015-08-26T13:20:00.1Z</time>
      </trkpt>
      <trkpt lat="44.40527" lon="6.37102">
        <ele>1748</ele>
        <time>2015-08-26T13:20:06.1Z</time>
      </trkpt>
      <trkpt lat="44.40526" lon="6.371">
        <ele>1747</ele>
        <time>2015-08-26T13:20:11.1Z</time>
      </trkpt>
      <trkpt lat="44.40525" lon="6.37095">
        <ele>1747</ele>
        <time>2015-08-26T13:20:16.1Z</time>
      </trkpt>
      <trkpt lat="44.40522" lon="6.37084">
        <ele>1746</ele>
        <time>2015-08-26T13:20:22.1Z</time>
      </trkpt>
      <trkpt lat="44.40519" lon="6.37074">
        <ele>1745</ele>
        <time>2015-08-26T13:20:27.1Z</time>
      </trkpt>
      <trkpt lat="44.40517" lon="6.37064">
        <ele>1743</ele>
        <time>2015-08-26T13:20:32.1Z</time>
      </trkpt>
      <trkpt lat="44.40518" lon="6.37053">
        <ele>1741</ele>
        <time>2015-08-26T13:20:38.1Z</time>
      </trkpt>
      <trkpt lat="44.40518" lon="6.3704">
        <ele>1740</ele>
        <time>2015-08-26T13:20:44.1Z</time>
      </trkpt>
      <trkpt lat="44.40519" lon="6.3703">
        <ele>1740</ele>
        <time>2015-08-26T13:20:49.1Z</time>
      </trkpt>
      <trkpt lat="44.4052" lon="6.37017">
        <ele>1737</ele>
        <time>2015-08-26T13:20:55.1Z</time>
      </trkpt>
      <trkpt lat="44.40522" lon="6.37006">
        <ele>1735</ele>
        <time>2015-08-26T13:21:01.1Z</time>
      </trkpt>
      <trkpt lat="44.40527" lon="6.36996">
        <ele>1734</ele>
        <time>2015-08-26T13:21:06.1Z</time>
      </trkpt>
      <trkpt lat="44.4053" lon="6.36984">
        <ele>1734</ele>
        <time>2015-08-26T13:21:12.1Z</time>
      </trkpt>
      <trkpt lat="44.40535" lon="6.36973">
        <ele>1734</ele>
        <time>2015-08-26T13:21:18.1Z</time>
      </trkpt>
      <trkpt lat="44.40537" lon="6.36964">
        <ele>1734</ele>
        <time>2015-08-26T13:21:23.1Z</time>
      </trkpt>
      <trkpt lat="44.40537" lon="6.36955">
        <ele>1732</ele>
        <time>2015-08-26T13:21:29.1Z</time>
      </trkpt>
      <trkpt lat="44.40531" lon="6.36952">
        <ele>1729</ele>
        <time>2015-08-26T13:21:35.1Z</time>
      </trkpt>
      <trkpt lat="44.40527" lon="6.36949">
        <ele>1729</ele>
        <time>2015-08-26T13:21:40.1Z</time>
      </trkpt>
      <trkpt lat="44.40523" lon="6.36941">
        <ele>1727</ele>
        <time>2015-08-26T13:21:46.1Z</time>
      </trkpt>
      <trkpt lat="44.40522" lon="6.36934">
        <ele>1725</ele>
        <time>2015-08-26T13:21:51.1Z</time>
      </trkpt>
      <trkpt lat="44.40518" lon="6.36927">
        <ele>1724</ele>
        <time>2015-08-26T13:21:56.1Z</time>
      </trkpt>
      <trkpt lat="44.40519" lon="6.36916">
        <ele>1722</ele>
        <time>2015-08-26T13:22:02.1Z</time>
      </trkpt>
      <trkpt lat="44.4052" lon="6.3691">
        <ele>1720</ele>
        <time>2015-08-26T13:22:07.1Z</time>
      </trkpt>
      <trkpt lat="44.40516" lon="6.36904">
        <ele>1718</ele>
        <time>2015-08-26T13:22:13.1Z</time>
      </trkpt>
      <trkpt lat="44.40514" lon="6.36897">
        <ele>1717</ele>
        <time>2015-08-26T13:22:18.1Z</time>
      </trkpt>
      <trkpt lat="44.40513" lon="6.36886">
        <ele>1714</ele>
        <time>2015-08-26T13:22:24.1Z</time>
      </trkpt>
      <trkpt lat="44.40513" lon="6.36877">
        <ele>1713</ele>
        <time>2015-08-26T13:22:30.1Z</time>
      </trkpt>
      <trkpt lat="44.40514" lon="6.36876">
        <ele>1712</ele>
        <time>2015-08-26T13:22:36.1Z</time>
      </trkpt>
      <trkpt lat="44.40516" lon="6.36874">
        <ele>1711</ele>
        <time>2015-08-26T13:22:41.1Z</time>
      </trkpt>
      <trkpt lat="44.40518" lon="6.36867">
        <ele>1710</ele>
        <time>2015-08-26T13:22:46.1Z</time>
      </trkpt>
      <trkpt lat="44.40518" lon="6.36858">
        <ele>1709</ele>
        <time>2015-08-26T13:22:52.1Z</time>
      </trkpt>
      <trkpt lat="44.40517" lon="6.36853">
        <ele>1707</ele>
        <time>2015-08-26T13:22:57.1Z</time>
      </trkpt>
      <trkpt lat="44.40514" lon="6.36852">
        <ele>1705</ele>
        <time>2015-08-26T13:23:03.1Z</time>
      </trkpt>
      <trkpt lat="44.40515" lon="6.36846">
        <ele>1704</ele>
        <time>2015-08-26T13:23:08.1Z</time>
      </trkpt>
      <trkpt lat="44.40514" lon="6.36837">
        <ele>1703</ele>
        <time>2015-08-26T13:23:14.1Z</time>
      </trkpt>
      <trkpt lat="44.40514" lon="6.36835">
        <ele>1702</ele>
        <time>2015-08-26T13:23:19.1Z</time>
      </trkpt>
      <trkpt lat="44.40514" lon="6.36832">
        <ele>1701</ele>
        <time>2015-08-26T13:23:24.1Z</time>
      </trkpt>
      <trkpt lat="44.40516" lon="6.36825">
        <ele>1701</ele>
        <time>2015-08-26T13:23:30.1Z</time>
      </trkpt>
      <trkpt lat="44.40515" lon="6.36818">
        <ele>1699</ele>
        <time>2015-08-26T13:23:35.1Z</time>
      </trkpt>
      <trkpt lat="44.40513" lon="6.36809">
        <ele>1697</ele>
        <time>2015-08-26T13:23:41.1Z</time>
      </trkpt>
      <trkpt lat="44.4051" lon="6.36801">
        <ele>1695</ele>
        <time>2015-08-26T13:23:47.1Z</time>
      </trkpt>
      <trkpt lat="44.40509" lon="6.36792">
        <ele>1692</ele>
        <time>2015-08-26T13:23:53.1Z</time>
      </trkpt>
      <trkpt lat="44.40507" lon="6.36785">
        <ele>1691</ele>
        <time>2015-08-26T13:23:59.1Z</time>
      </trkpt>
      <trkpt lat="44.40509" lon="6.36776">
        <ele>1689</ele>
        <time>2015-08-26T13:24:05.1Z</time>
      </trkpt>
      <trkpt lat="44.40511" lon="6.36768">
        <ele>1688</ele>
        <time>2015-08-26T13:24:10.1Z</time>
      </trkpt>
      <trkpt lat="44.4051" lon="6.36761">
        <ele>1686</ele>
        <time>2015-08-26T13:24:15.1Z</time>
      </trkpt>
      <trkpt lat="44.40512" lon="6.36752">
        <ele>1685</ele>
        <time>2015-08-26T13:24:21.1Z</time>
      </trkpt>
      <trkpt lat="44.40512" lon="6.36746">
        <ele>1683</ele>
        <time>2015-08-26T13:24:26.1Z</time>
      </trkpt>
      <trkpt lat="44.40508" lon="6.36739">
        <ele>1681</ele>
        <time>2015-08-26T13:24:32.1Z</time>
      </trkpt>
      <trkpt lat="44.40505" lon="6.36736">
        <ele>1680</ele>
        <time>2015-08-26T13:24:38.1Z</time>
      </trkpt>
      <trkpt lat="44.40501" lon="6.36729">
        <ele>1678</ele>
        <time>2015-08-26T13:24:44.1Z</time>
      </trkpt>
      <trkpt lat="44.40498" lon="6.36727">
        <ele>1677</ele>
        <time>2015-08-26T13:24:50.1Z</time>
      </trkpt>
      <trkpt lat="44.40498" lon="6.36725">
        <ele>1677</ele>
        <time>2015-08-26T13:24:55.1Z</time>
      </trkpt>
      <trkpt lat="44.40497" lon="6.36722">
        <ele>1676</ele>
        <time>2015-08-26T13:25:00.1Z</time>
      </trkpt>
      <trkpt lat="44.40494" lon="6.36714">
        <ele>1675</ele>
        <time>2015-08-26T13:25:06.1Z</time>
      </trkpt>
      <trkpt lat="44.40491" lon="6.36705">
        <ele>1673</ele>
        <time>2015-08-26T13:25:12.1Z</time>
      </trkpt>
      <trkpt lat="44.40488" lon="6.36697">
        <ele>1671</ele>
        <time>2015-08-26T13:25:18.1Z</time>
      </trkpt>
      <trkpt lat="44.40486" lon="6.3669">
        <ele>1670</ele>
        <time>2015-08-26T13:25:23.1Z</time>
      </trkpt>
      <trkpt lat="44.40483" lon="6.36679">
        <ele>1669</ele>
        <time>2015-08-26T13:25:29.1Z</time>
      </trkpt>
      <trkpt lat="44.4048" lon="6.36671">
        <ele>1667</ele>
        <time>2015-08-26T13:25:34.1Z</time>
      </trkpt>
      <trkpt lat="44.40476" lon="6.36662">
        <ele>1665</ele>
        <time>2015-08-26T13:25:40.1Z</time>
      </trkpt>
      <trkpt lat="44.40472" lon="6.36653">
        <ele>1664</ele>
        <time>2015-08-26T13:25:45.1Z</time>
      </trkpt>
      <trkpt lat="44.40469" lon="6.36646">
        <ele>1662</ele>
        <time>2015-08-26T13:25:50.1Z</time>
      </trkpt>
      <trkpt lat="44.40467" lon="6.36638">
        <ele>1660</ele>
        <time>2015-08-26T13:25:55.1Z</time>
      </trkpt>
      <trkpt lat="44.40466" lon="6.36627">
        <ele>1658</ele>
        <time>2015-08-26T13:26:01.1Z</time>
      </trkpt>
      <trkpt lat="44.40464" lon="6.36619">
        <ele>1657</ele>
        <time>2015-08-26T13:26:06.1Z</time>
      </trkpt>
      <trkpt lat="44.40461" lon="6.36609">
        <ele>1655</ele>
        <time>2015-08-26T13:26:11.1Z</time>
      </trkpt>
      <trkpt lat="44.40459" lon="6.36599">
        <ele>1654</ele>
        <time>2015-08-26T13:26:16.1Z</time>
      </trkpt>
      <trkpt lat="44.40457" lon="6.3659">
        <ele>1653</ele>
        <time>2015-08-26T13:26:22.1Z</time>
      </trkpt>
      <trkpt lat="44.40454" lon="6.3658">
        <ele>1651</ele>
        <time>2015-08-26T13:26:28.1Z</time>
      </trkpt>
      <trkpt lat="44.40451" lon="6.36572">
        <ele>1650</ele>
        <time>2015-08-26T13:26:33.1Z</time>
      </trkpt>
      <trkpt lat="44.40446" lon="6.36563">
        <ele>1648</ele>
        <time>2015-08-26T13:26:39.1Z</time>
      </trkpt>
      <trkpt lat="44.40442" lon="6.36555">
        <ele>1647</ele>
        <time>2015-08-26T13:26:45.1Z</time>
      </trkpt>
      <trkpt lat="44.40437" lon="6.36547">
        <ele>1645</ele>
        <time>2015-08-26T13:26:50.1Z</time>
      </trkpt>
      <trkpt lat="44.40434" lon="6.36539">
        <ele>1644</ele>
        <time>2015-08-26T13:26:56.1Z</time>
      </trkpt>
      <trkpt lat="44.40431" lon="6.36533">
        <ele>1643</ele>
        <time>2015-08-26T13:27:02.1Z</time>
      </trkpt>
      <trkpt lat="44.40427" lon="6.36526">
        <ele>1642</ele>
        <time>2015-08-26T13:27:07.1Z</time>
      </trkpt>
      <trkpt lat="44.40425" lon="6.36519">
        <ele>1641</ele>
        <time>2015-08-26T13:27:12.1Z</time>
      </trkpt>
      <trkpt lat="44.40421" lon="6.36515">
        <ele>1640</ele>
        <time>2015-08-26T13:27:18.1Z</time>
      </trkpt>
      <trkpt lat="44.4042" lon="6.36515">
        <ele>1638</ele>
        <time>2015-08-26T13:27:24.1Z</time>
      </trkpt>
      <trkpt lat="44.4042" lon="6.36512">
        <ele>1638</ele>
        <time>2015-08-26T13:27:30.1Z</time>
      </trkpt>
      <trkpt lat="44.40418" lon="6.36507">
        <ele>1638</ele>
        <time>2015-08-26T13:27:36.1Z</time>
      </trkpt>
      <trkpt lat="44.40416" lon="6.36499">
        <ele>1637</ele>
        <time>2015-08-26T13:27:42.1Z</time>
      </trkpt>
      <trkpt lat="44.40412" lon="6.36492">
        <ele>1635</ele>
        <time>2015-08-26T13:27:47.1Z</time>
      </trkpt>
      <trkpt lat="44.40409" lon="6.36483">
        <ele>1634</ele>
        <time>2015-08-26T13:27:53.1Z</time>
      </trkpt>
      <trkpt lat="44.40406" lon="6.36474">
        <ele>1632</ele>
        <time>2015-08-26T13:27:59.1Z</time>
      </trkpt>
      <trkpt lat="44.40403" lon="6.36465">
        <ele>1631</ele>
        <time>2015-08-26T13:28:04.1Z</time>
      </trkpt>
      <trkpt lat="44.40401" lon="6.36457">
        <ele>1629</ele>
        <time>2015-08-26T13:28:09.1Z</time>
      </trkpt>
      <trkpt lat="44.404" lon="6.36445">
        <ele>1627</ele>
        <time>2015-08-26T13:28:15.1Z</time>
      </trkpt>
      <trkpt lat="44.40398" lon="6.36434">
        <ele>1626</ele>
        <time>2015-08-26T13:28:21.1Z</time>
      </trkpt>
      <trkpt lat="44.40396" lon="6.36425">
        <ele>1625</ele>
        <time>2015-08-26T13:28:27.1Z</time>
      </trkpt>
      <trkpt lat="44.40392" lon="6.36416">
        <ele>1623</ele>
        <time>2015-08-26T13:28:32.1Z</time>
      </trkpt>
      <trkpt lat="44.40389" lon="6.36407">
        <ele>1622</ele>
        <time>2015-08-26T13:28:37.1Z</time>
      </trkpt>
      <trkpt lat="44.40386" lon="6.36397">
        <ele>1621</ele>
        <time>2015-08-26T13:28:43.1Z</time>
      </trkpt>
      <trkpt lat="44.40384" lon="6.36387">
        <ele>1620</ele>
        <time>2015-08-26T13:28:49.1Z</time>
      </trkpt>
      <trkpt lat="44.40382" lon="6.36379">
        <ele>1620</ele>
        <time>2015-08-26T13:28:54.1Z</time>
      </trkpt>
      <trkpt lat="44.40379" lon="6.3637">
        <ele>1619</ele>
        <time>2015-08-26T13:29:00.1Z</time>
      </trkpt>
      <trkpt lat="44.40376" lon="6.36362">
        <ele>1619</ele>
        <time>2015-08-26T13:29:05.1Z</time>
      </trkpt>
      <trkpt lat="44.40372" lon="6.36354">
        <ele>1618</ele>
        <time>2015-08-26T13:29:11.1Z</time>
      </trkpt>
      <trkpt lat="44.40367" lon="6.36346">
        <ele>1617</ele>
        <time>2015-08-26T13:29:16.1Z</time>
      </trkpt>
      <trkpt lat="44.40362" lon="6.36339">
        <ele>1617</ele>
        <time>2015-08-26T13:29:21.1Z</time>
      </trkpt>
      <trkpt lat="44.40354" lon="6.3633">
        <ele>1616</ele>
        <time>2015-08-26T13:29:27.1Z</time>
      </trkpt>
      <trkpt lat="44.40348" lon="6.36323">
        <ele>1615</ele>
        <time>2015-08-26T13:29:32.1Z</time>
      </trkpt>
      <trkpt lat="44.40342" lon="6.36315">
        <ele>1614</ele>
        <time>2015-08-26T13:29:38.1Z</time>
      </trkpt>
      <trkpt lat="44.40334" lon="6.36308">
        <ele>1613</ele>
        <time>2015-08-26T13:29:44.1Z</time>
      </trkpt>
      <trkpt lat="44.40331" lon="6.36302">
        <ele>1613</ele>
        <time>2015-08-26T13:29:50.1Z</time>
      </trkpt>
      <trkpt lat="44.4033" lon="6.36299">
        <ele>1612</ele>
        <time>2015-08-26T13:29:56.1Z</time>
      </trkpt>
      <trkpt lat="44.40328" lon="6.36295">
        <ele>1613</ele>
        <time>2015-08-26T13:30:01.1Z</time>
      </trkpt>
      <trkpt lat="44.40324" lon="6.36284">
        <ele>1612</ele>
        <time>2015-08-26T13:30:07.1Z</time>
      </trkpt>
      <trkpt lat="44.40325" lon="6.36278">
        <ele>1612</ele>
        <time>2015-08-26T13:30:12.1Z</time>
      </trkpt>
      <trkpt lat="44.4033" lon="6.36274">
        <ele>1610</ele>
        <time>2015-08-26T13:30:18.1Z</time>
      </trkpt>
      <trkpt lat="44.40334" lon="6.36268">
        <ele>1609</ele>
        <time>2015-08-26T13:30:23.1Z</time>
      </trkpt>
      <trkpt lat="44.40338" lon="6.36261">
        <ele>1607</ele>
        <time>2015-08-26T13:30:29.1Z</time>
      </trkpt>
      <trkpt lat="44.40341" lon="6.36251">
        <ele>1604</ele>
        <time>2015-08-26T13:30:35.1Z</time>
      </trkpt>
      <trkpt lat="44.40345" lon="6.36241">
        <ele>1603</ele>
        <time>2015-08-26T13:30:41.1Z</time>
      </trkpt>
      <trkpt lat="44.40349" lon="6.36233">
        <ele>1600</ele>
        <time>2015-08-26T13:30:47.1Z</time>
      </trkpt>
      <trkpt lat="44.40354" lon="6.36226">
        <ele>1598</ele>
        <time>2015-08-26T13:30:52.1Z</time>
      </trkpt>
      <trkpt lat="44.4036" lon="6.3622">
        <ele>1596</ele>
        <time>2015-08-26T13:30:58.1Z</time>
      </trkpt>
      <trkpt lat="44.40365" lon="6.36213">
        <ele>1593</ele>
        <time>2015-08-26T13:31:04.1Z</time>
      </trkpt>
      <trkpt lat="44.40367" lon="6.36205">
        <ele>1591</ele>
        <time>2015-08-26T13:31:10.1Z</time>
      </trkpt>
      <trkpt lat="44.40366" lon="6.36197">
        <ele>1590</ele>
        <time>2015-08-26T13:31:16.1Z</time>
      </trkpt>
      <trkpt lat="44.40365" lon="6.36192">
        <ele>1588</ele>
        <time>2015-08-26T13:31:22.1Z</time>
      </trkpt>
      <trkpt lat="44.40366" lon="6.36188">
        <ele>1586</ele>
        <time>2015-08-26T13:31:28.1Z</time>
      </trkpt>
      <trkpt lat="44.40367" lon="6.36182">
        <ele>1585</ele>
        <time>2015-08-26T13:31:34.1Z</time>
      </trkpt>
      <trkpt lat="44.40364" lon="6.36178">
        <ele>1583</ele>
        <time>2015-08-26T13:31:39.1Z</time>
      </trkpt>
      <trkpt lat="44.40361" lon="6.3617">
        <ele>1583</ele>
        <time>2015-08-26T13:31:45.1Z</time>
      </trkpt>
      <trkpt lat="44.40356" lon="6.36161">
        <ele>1582</ele>
        <time>2015-08-26T13:31:51.1Z</time>
      </trkpt>
      <trkpt lat="44.40353" lon="6.36152">
        <ele>1582</ele>
        <time>2015-08-26T13:31:56.1Z</time>
      </trkpt>
      <trkpt lat="44.40351" lon="6.36144">
        <ele>1581</ele>
        <time>2015-08-26T13:32:02.1Z</time>
      </trkpt>
      <trkpt lat="44.40348" lon="6.36137">
        <ele>1580</ele>
        <time>2015-08-26T13:32:08.1Z</time>
      </trkpt>
      <trkpt lat="44.40345" lon="6.36127">
        <ele>1579</ele>
        <time>2015-08-26T13:32:14.1Z</time>
      </trkpt>
      <trkpt lat="44.40342" lon="6.3612">
        <ele>1578</ele>
        <time>2015-08-26T13:32:19.1Z</time>
      </trkpt>
      <trkpt lat="44.40338" lon="6.36113">
        <ele>1576</ele>
        <time>2015-08-26T13:32:24.1Z</time>
      </trkpt>
      <trkpt lat="44.40332" lon="6.36105">
        <ele>1574</ele>
        <time>2015-08-26T13:32:30.1Z</time>
      </trkpt>
      <trkpt lat="44.40327" lon="6.36096">
        <ele>1574</ele>
        <time>2015-08-26T13:32:36.1Z</time>
      </trkpt>
      <trkpt lat="44.40322" lon="6.36088">
        <ele>1573</ele>
        <time>2015-08-26T13:32:42.1Z</time>
      </trkpt>
      <trkpt lat="44.40316" lon="6.3608">
        <ele>1573</ele>
        <time>2015-08-26T13:32:48.1Z</time>
      </trkpt>
      <trkpt lat="44.40311" lon="6.36071">
        <ele>1572</ele>
        <time>2015-08-26T13:32:54.1Z</time>
      </trkpt>
      <trkpt lat="44.40306" lon="6.36067">
        <ele>1571</ele>
        <time>2015-08-26T13:32:59.1Z</time>
      </trkpt>
      <trkpt lat="44.403" lon="6.3606">
        <ele>1570</ele>
        <time>2015-08-26T13:33:05.1Z</time>
      </trkpt>
      <trkpt lat="44.40294" lon="6.36052">
        <ele>1569</ele>
        <time>2015-08-26T13:33:10.1Z</time>
      </trkpt>
      <trkpt lat="44.40287" lon="6.36041">
        <ele>1568</ele>
        <time>2015-08-26T13:33:16.1Z</time>
      </trkpt>
      <trkpt lat="44.40283" lon="6.36031">
        <ele>1567</ele>
        <time>2015-08-26T13:33:21.1Z</time>
      </trkpt>
      <trkpt lat="44.40278" lon="6.36023">
        <ele>1567</ele>
        <time>2015-08-26T13:33:26.1Z</time>
      </trkpt>
      <trkpt lat="44.40273" lon="6.36012">
        <ele>1566</ele>
        <time>2015-08-26T13:33:32.1Z</time>
      </trkpt>
      <trkpt lat="44.40269" lon="6.36005">
        <ele>1566</ele>
        <time>2015-08-26T13:33:37.1Z</time>
      </trkpt>
      <trkpt lat="44.40264" lon="6.36001">
        <ele>1565</ele>
        <time>2015-08-26T13:33:42.1Z</time>
      </trkpt>
      <trkpt lat="44.40257" lon="6.36001">
        <ele>1565</ele>
        <time>2015-08-26T13:33:48.1Z</time>
      </trkpt>
      <trkpt lat="44.4025" lon="6.36004">
        <ele>1564</ele>
        <time>2015-08-26T13:33:53.1Z</time>
      </trkpt>
      <trkpt lat="44.40245" lon="6.36006">
        <ele>1563</ele>
        <time>2015-08-26T13:33:59.1Z</time>
      </trkpt>
      <trkpt lat="44.40242" lon="6.35999">
        <ele>1562</ele>
        <time>2015-08-26T13:34:05.1Z</time>
      </trkpt>
      <trkpt lat="44.40242" lon="6.35995">
        <ele>1560</ele>
        <time>2015-08-26T13:34:10.1Z</time>
      </trkpt>
      <trkpt lat="44.40244" lon="6.35989">
        <ele>1558</ele>
        <time>2015-08-26T13:34:16.1Z</time>
      </trkpt>
      <trkpt lat="44.40245" lon="6.35979">
        <ele>1557</ele>
        <time>2015-08-26T13:34:22.1Z</time>
      </trkpt>
      <trkpt lat="44.40243" lon="6.35966">
        <ele>1556</ele>
        <time>2015-08-26T13:34:28.1Z</time>
      </trkpt>
      <trkpt lat="44.40244" lon="6.35959">
        <ele>1554</ele>
        <time>2015-08-26T13:34:33.1Z</time>
      </trkpt>
      <trkpt lat="44.40245" lon="6.35952">
        <ele>1553</ele>
        <time>2015-08-26T13:34:38.1Z</time>
      </trkpt>
      <trkpt lat="44.40245" lon="6.35946">
        <ele>1551</ele>
        <time>2015-08-26T13:34:44.1Z</time>
      </trkpt>
      <trkpt lat="44.40245" lon="6.3594">
        <ele>1549</ele>
        <time>2015-08-26T13:34:49.1Z</time>
      </trkpt>
      <trkpt lat="44.40246" lon="6.35932">
        <ele>1546</ele>
        <time>2015-08-26T13:34:54.1Z</time>
      </trkpt>
      <trkpt lat="44.40244" lon="6.35923">
        <ele>1543</ele>
        <time>2015-08-26T13:35:00.1Z</time>
      </trkpt>
      <trkpt lat="44.40242" lon="6.35915">
        <ele>1541</ele>
        <time>2015-08-26T13:35:06.1Z</time>
      </trkpt>
      <trkpt lat="44.40242" lon="6.35908">
        <ele>1539</ele>
        <time>2015-08-26T13:35:11.1Z</time>
      </trkpt>
      <trkpt lat="44.40241" lon="6.35899">
        <ele>1537</ele>
        <time>2015-08-26T13:35:16.1Z</time>
      </trkpt>
      <trkpt lat="44.4024" lon="6.35891">
        <ele>1536</ele>
        <time>2015-08-26T13:35:22.1Z</time>
      </trkpt>
      <trkpt lat="44.40241" lon="6.35886">
        <ele>1535</ele>
        <time>2015-08-26T13:35:27.1Z</time>
      </trkpt>
      <trkpt lat="44.40242" lon="6.35885">
        <ele>1535</ele>
        <time>2015-08-26T13:35:32.1Z</time>
      </trkpt>
      <trkpt lat="44.40243" lon="6.35887">
        <ele>1535</ele>
        <time>2015-08-26T13:35:38.1Z</time>
      </trkpt>
      <trkpt lat="44.40243" lon="6.35888">
        <ele>1535</ele>
        <time>2015-08-26T13:35:43.1Z</time>
      </trkpt>
      <trkpt lat="44.40242" lon="6.35887">
        <ele>1535</ele>
        <time>2015-08-26T13:35:48.1Z</time>
      </trkpt>
      <trkpt lat="44.40243" lon="6.35887">
        <ele>1535</ele>
        <time>2015-08-26T13:35:54.1Z</time>
      </trkpt>
      <trkpt lat="44.40244" lon="6.35887">
        <ele>1535</ele>
        <time>2015-08-26T13:35:59.1Z</time>
      </trkpt>
      <trkpt lat="44.40245" lon="6.35885">
        <ele>1535</ele>
        <time>2015-08-26T13:36:05.1Z</time>
      </trkpt>
      <trkpt lat="44.40246" lon="6.35881">
        <ele>1535</ele>
        <time>2015-08-26T13:36:10.1Z</time>
      </trkpt>
      <trkpt lat="44.40246" lon="6.35874">
        <ele>1533</ele>
        <time>2015-08-26T13:36:16.1Z</time>
      </trkpt>
      <trkpt lat="44.4025" lon="6.35866">
        <ele>1531</ele>
        <time>2015-08-26T13:36:22.1Z</time>
      </trkpt>
      <trkpt lat="44.40253" lon="6.35858">
        <ele>1530</ele>
        <time>2015-08-26T13:36:28.1Z</time>
      </trkpt>
      <trkpt lat="44.40256" lon="6.35848">
        <ele>1529</ele>
        <time>2015-08-26T13:36:34.1Z</time>
      </trkpt>
      <trkpt lat="44.40259" lon="6.35841">
        <ele>1528</ele>
        <time>2015-08-26T13:36:39.1Z</time>
      </trkpt>
      <trkpt lat="44.40263" lon="6.35834">
        <ele>1527</ele>
        <time>2015-08-26T13:36:44.1Z</time>
      </trkpt>
      <trkpt lat="44.40269" lon="6.35827">
        <ele>1526</ele>
        <time>2015-08-26T13:36:50.1Z</time>
      </trkpt>
      <trkpt lat="44.40273" lon="6.3582">
        <ele>1525</ele>
        <time>2015-08-26T13:36:55.1Z</time>
      </trkpt>
      <trkpt lat="44.40278" lon="6.35812">
        <ele>1524</ele>
        <time>2015-08-26T13:37:01.1Z</time>
      </trkpt>
      <trkpt lat="44.40282" lon="6.35803">
        <ele>1523</ele>
        <time>2015-08-26T13:37:06.1Z</time>
      </trkpt>
      <trkpt lat="44.40288" lon="6.35798">
        <ele>1522</ele>
        <time>2015-08-26T13:37:11.1Z</time>
      </trkpt>
      <trkpt lat="44.40295" lon="6.35794">
        <ele>1522</ele>
        <time>2015-08-26T13:37:17.1Z</time>
      </trkpt>
      <trkpt lat="44.40302" lon="6.35792">
        <ele>1521</ele>
        <time>2015-08-26T13:37:22.1Z</time>
      </trkpt>
      <trkpt lat="44.40309" lon="6.3579">
        <ele>1520</ele>
        <time>2015-08-26T13:37:28.1Z</time>
      </trkpt>
      <trkpt lat="44.40316" lon="6.35789">
        <ele>1520</ele>
        <time>2015-08-26T13:37:33.1Z</time>
      </trkpt>
      <trkpt lat="44.40324" lon="6.35788">
        <ele>1518</ele>
        <time>2015-08-26T13:37:39.1Z</time>
      </trkpt>
      <trkpt lat="44.40332" lon="6.35786">
        <ele>1517</ele>
        <time>2015-08-26T13:37:45.1Z</time>
      </trkpt>
      <trkpt lat="44.40337" lon="6.3578">
        <ele>1514</ele>
        <time>2015-08-26T13:37:51.1Z</time>
      </trkpt>
      <trkpt lat="44.40341" lon="6.35772">
        <ele>1512</ele>
        <time>2015-08-26T13:37:57.1Z</time>
      </trkpt>
      <trkpt lat="44.40346" lon="6.35769">
        <ele>1510</ele>
        <time>2015-08-26T13:38:02.1Z</time>
      </trkpt>
      <trkpt lat="44.40351" lon="6.35762">
        <ele>1509</ele>
        <time>2015-08-26T13:38:08.1Z</time>
      </trkpt>
      <trkpt lat="44.40357" lon="6.35757">
        <ele>1507</ele>
        <time>2015-08-26T13:38:13.1Z</time>
      </trkpt>
      <trkpt lat="44.40365" lon="6.3575">
        <ele>1506</ele>
        <time>2015-08-26T13:38:19.1Z</time>
      </trkpt>
      <trkpt lat="44.40372" lon="6.35746">
        <ele>1505</ele>
        <time>2015-08-26T13:38:25.1Z</time>
      </trkpt>
      <trkpt lat="44.40377" lon="6.35743">
        <ele>1504</ele>
        <time>2015-08-26T13:38:30.1Z</time>
      </trkpt>
      <trkpt lat="44.40382" lon="6.35738">
        <ele>1502</ele>
        <time>2015-08-26T13:38:35.1Z</time>
      </trkpt>
      <trkpt lat="44.40387" lon="6.35734">
        <ele>1500</ele>
        <time>2015-08-26T13:38:41.1Z</time>
      </trkpt>
      <trkpt lat="44.40388" lon="6.35725">
        <ele>1498</ele>
        <time>2015-08-26T13:38:47.1Z</time>
      </trkpt>
      <trkpt lat="44.4039" lon="6.3572">
        <ele>1497</ele>
        <time>2015-08-26T13:38:52.1Z</time>
      </trkpt>
      <trkpt lat="44.40389" lon="6.35715">
        <ele>1495</ele>
        <time>2015-08-26T13:38:57.1Z</time>
      </trkpt>
      <trkpt lat="44.40389" lon="6.35709">
        <ele>1494</ele>
        <time>2015-08-26T13:39:03.1Z</time>
      </trkpt>
      <trkpt lat="44.40388" lon="6.35705">
        <ele>1492</ele>
        <time>2015-08-26T13:39:08.1Z</time>
      </trkpt>
      <trkpt lat="44.40385" lon="6.357">
        <ele>1491</ele>
        <time>2015-08-26T13:39:13.1Z</time>
      </trkpt>
      <trkpt lat="44.40379" lon="6.35694">
        <ele>1490</ele>
        <time>2015-08-26T13:39:19.1Z</time>
      </trkpt>
      <trkpt lat="44.40374" lon="6.3569">
        <ele>1489</ele>
        <time>2015-08-26T13:39:24.1Z</time>
      </trkpt>
      <trkpt lat="44.40371" lon="6.35684">
        <ele>1487</ele>
        <time>2015-08-26T13:39:30.1Z</time>
      </trkpt>
      <trkpt lat="44.40371" lon="6.35675">
        <ele>1485</ele>
        <time>2015-08-26T13:39:36.1Z</time>
      </trkpt>
      <trkpt lat="44.40372" lon="6.35669">
        <ele>1484</ele>
        <time>2015-08-26T13:39:41.1Z</time>
      </trkpt>
      <trkpt lat="44.40372" lon="6.35662">
        <ele>1482</ele>
        <time>2015-08-26T13:39:46.1Z</time>
      </trkpt>
      <trkpt lat="44.40374" lon="6.35655">
        <ele>1481</ele>
        <time>2015-08-26T13:39:52.1Z</time>
      </trkpt>
      <trkpt lat="44.40379" lon="6.3565">
        <ele>1479</ele>
        <time>2015-08-26T13:39:58.1Z</time>
      </trkpt>
      <trkpt lat="44.40383" lon="6.35644">
        <ele>1477</ele>
        <time>2015-08-26T13:40:04.1Z</time>
      </trkpt>
      <trkpt lat="44.40385" lon="6.35637">
        <ele>1475</ele>
        <time>2015-08-26T13:40:09.1Z</time>
      </trkpt>
      <trkpt lat="44.4039" lon="6.35632">
        <ele>1473</ele>
        <time>2015-08-26T13:40:15.1Z</time>
      </trkpt>
      <trkpt lat="44.40394" lon="6.35634">
        <ele>1472</ele>
        <time>2015-08-26T13:40:21.1Z</time>
      </trkpt>
      <trkpt lat="44.404" lon="6.35634">
        <ele>1471</ele>
        <time>2015-08-26T13:40:27.1Z</time>
      </trkpt>
      <trkpt lat="44.40405" lon="6.35632">
        <ele>1470</ele>
        <time>2015-08-26T13:40:33.1Z</time>
      </trkpt>
      <trkpt lat="44.40404" lon="6.3563">
        <ele>1468</ele>
        <time>2015-08-26T13:40:38.1Z</time>
      </trkpt>
      <trkpt lat="44.40402" lon="6.35623">
        <ele>1467</ele>
        <time>2015-08-26T13:40:44.1Z</time>
      </trkpt>
      <trkpt lat="44.40398" lon="6.35615">
        <ele>1467</ele>
        <time>2015-08-26T13:40:50.1Z</time>
      </trkpt>
      <trkpt lat="44.40397" lon="6.35605">
        <ele>1467</ele>
        <time>2015-08-26T13:40:56.1Z</time>
      </trkpt>
      <trkpt lat="44.40401" lon="6.35601">
        <ele>1466</ele>
        <time>2015-08-26T13:41:01.1Z</time>
      </trkpt>
      <trkpt lat="44.40404" lon="6.356">
        <ele>1464</ele>
        <time>2015-08-26T13:41:07.1Z</time>
      </trkpt>
      <trkpt lat="44.40407" lon="6.35601">
        <ele>1462</ele>
        <time>2015-08-26T13:41:12.1Z</time>
      </trkpt>
      <trkpt lat="44.40413" lon="6.356">
        <ele>1460</ele>
        <time>2015-08-26T13:41:18.1Z</time>
      </trkpt>
      <trkpt lat="44.40416" lon="6.35594">
        <ele>1460</ele>
        <time>2015-08-26T13:41:23.1Z</time>
      </trkpt>
      <trkpt lat="44.40424" lon="6.35588">
        <ele>1458</ele>
        <time>2015-08-26T13:41:29.1Z</time>
      </trkpt>
      <trkpt lat="44.40428" lon="6.35581">
        <ele>1457</ele>
        <time>2015-08-26T13:41:35.1Z</time>
      </trkpt>
      <trkpt lat="44.40428" lon="6.35575">
        <ele>1457</ele>
        <time>2015-08-26T13:41:40.1Z</time>
      </trkpt>
      <trkpt lat="44.40428" lon="6.35569">
        <ele>1455</ele>
        <time>2015-08-26T13:41:45.1Z</time>
      </trkpt>
      <trkpt lat="44.40426" lon="6.35562">
        <ele>1454</ele>
        <time>2015-08-26T13:41:51.1Z</time>
      </trkpt>
      <trkpt lat="44.40422" lon="6.35557">
        <ele>1454</ele>
        <time>2015-08-26T13:41:57.1Z</time>
      </trkpt>
      <trkpt lat="44.40422" lon="6.35555">
        <ele>1454</ele>
        <time>2015-08-26T13:42:03.1Z</time>
      </trkpt>
      <trkpt lat="44.40424" lon="6.35555">
        <ele>1454</ele>
        <time>2015-08-26T13:42:08.1Z</time>
      </trkpt>
      <trkpt lat="44.40424" lon="6.35555">
        <ele>1453</ele>
        <time>2015-08-26T13:42:13.1Z</time>
      </trkpt>
      <trkpt lat="44.40426" lon="6.35556">
        <ele>1453</ele>
        <time>2015-08-26T13:42:19.1Z</time>
      </trkpt>
      <trkpt lat="44.40427" lon="6.35556">
        <ele>1454</ele>
        <time>2015-08-26T13:42:25.1Z</time>
      </trkpt>
      <trkpt lat="44.40428" lon="6.35557">
        <ele>1454</ele>
        <time>2015-08-26T13:42:30.1Z</time>
      </trkpt>
      <trkpt lat="44.40428" lon="6.35556">
        <ele>1454</ele>
        <time>2015-08-26T13:42:36.1Z</time>
      </trkpt>
      <trkpt lat="44.40428" lon="6.35557">
        <ele>1454</ele>
        <time>2015-08-26T13:42:42.1Z</time>
      </trkpt>
      <trkpt lat="44.40428" lon="6.35556">
        <ele>1454</ele>
        <time>2015-08-26T13:42:48.1Z</time>
      </trkpt>
      <trkpt lat="44.40429" lon="6.35556">
        <ele>1454</ele>
        <time>2015-08-26T13:42:54.1Z</time>
      </trkpt>
      <trkpt lat="44.40429" lon="6.35555">
        <ele>1454</ele>
        <time>2015-08-26T13:42:59.1Z</time>
      </trkpt>
      <trkpt lat="44.40427" lon="6.35552">
        <ele>1454</ele>
        <time>2015-08-26T13:43:05.1Z</time>
      </trkpt>
      <trkpt lat="44.40424" lon="6.35549">
        <ele>1454</ele>
        <time>2015-08-26T13:43:10.1Z</time>
      </trkpt>
      <trkpt lat="44.40422" lon="6.35547">
        <ele>1454</ele>
        <time>2015-08-26T13:43:16.1Z</time>
      </trkpt>
      <trkpt lat="44.40419" lon="6.35544">
        <ele>1453</ele>
        <time>2015-08-26T13:43:21.1Z</time>
      </trkpt>
      <trkpt lat="44.40416" lon="6.35539">
        <ele>1453</ele>
        <time>2015-08-26T13:43:26.1Z</time>
      </trkpt>
      <trkpt lat="44.40411" lon="6.35532">
        <ele>1452</ele>
        <time>2015-08-26T13:43:32.1Z</time>
      </trkpt>
      <trkpt lat="44.40406" lon="6.35528">
        <ele>1450</ele>
        <time>2015-08-26T13:43:38.1Z</time>
      </trkpt>
      <trkpt lat="44.40405" lon="6.35524">
        <ele>1449</ele>
        <time>2015-08-26T13:43:44.1Z</time>
      </trkpt>
      <trkpt lat="44.40408" lon="6.35519">
        <ele>1448</ele>
        <time>2015-08-26T13:43:50.1Z</time>
      </trkpt>
      <trkpt lat="44.40409" lon="6.35514">
        <ele>1447</ele>
        <time>2015-08-26T13:43:55.1Z</time>
      </trkpt>
      <trkpt lat="44.40411" lon="6.35509">
        <ele>1445</ele>
        <time>2015-08-26T13:44:00.1Z</time>
      </trkpt>
      <trkpt lat="44.40413" lon="6.35502">
        <ele>1444</ele>
        <time>2015-08-26T13:44:06.1Z</time>
      </trkpt>
      <trkpt lat="44.40417" lon="6.35496">
        <ele>1442</ele>
        <time>2015-08-26T13:44:12.1Z</time>
      </trkpt>
      <trkpt lat="44.40417" lon="6.35492">
        <ele>1441</ele>
        <time>2015-08-26T13:44:18.1Z</time>
      </trkpt>
      <trkpt lat="44.40422" lon="6.35487">
        <ele>1441</ele>
        <time>2015-08-26T13:44:24.1Z</time>
      </trkpt>
      <trkpt lat="44.40427" lon="6.35483">
        <ele>1440</ele>
        <time>2015-08-26T13:44:29.1Z</time>
      </trkpt>
      <trkpt lat="44.40432" lon="6.35478">
        <ele>1438</ele>
        <time>2015-08-26T13:44:35.1Z</time>
      </trkpt>
      <trkpt lat="44.40437" lon="6.35472">
        <ele>1436</ele>
        <time>2015-08-26T13:44:40.1Z</time>
      </trkpt>
      <trkpt lat="44.40442" lon="6.35465">
        <ele>1433</ele>
        <time>2015-08-26T13:44:45.1Z</time>
      </trkpt>
      <trkpt lat="44.40444" lon="6.35458">
        <ele>1431</ele>
        <time>2015-08-26T13:44:50.1Z</time>
      </trkpt>
      <trkpt lat="44.40446" lon="6.3545">
        <ele>1430</ele>
        <time>2015-08-26T13:44:56.1Z</time>
      </trkpt>
      <trkpt lat="44.40449" lon="6.35444">
        <ele>1429</ele>
        <time>2015-08-26T13:45:01.1Z</time>
      </trkpt>
      <trkpt lat="44.40453" lon="6.35436">
        <ele>1428</ele>
        <time>2015-08-26T13:45:07.1Z</time>
      </trkpt>
      <trkpt lat="44.40454" lon="6.35431">
        <ele>1428</ele>
        <time>2015-08-26T13:45:12.1Z</time>
      </trkpt>
      <trkpt lat="44.40455" lon="6.35428">
        <ele>1428</ele>
        <time>2015-08-26T13:45:18.1Z</time>
      </trkpt>
      <trkpt lat="44.40456" lon="6.35424">
        <ele>1428</ele>
        <time>2015-08-26T13:45:23.1Z</time>
      </trkpt>
      <trkpt lat="44.4046" lon="6.3542">
        <ele>1428</ele>
        <time>2015-08-26T13:45:28.1Z</time>
      </trkpt>
      <trkpt lat="44.40465" lon="6.35416">
        <ele>1428</ele>
        <time>2015-08-26T13:45:33.1Z</time>
      </trkpt>
      <trkpt lat="44.40469" lon="6.35407">
        <ele>1426</ele>
        <time>2015-08-26T13:45:39.1Z</time>
      </trkpt>
      <trkpt lat="44.40474" lon="6.35398">
        <ele>1426</ele>
        <time>2015-08-26T13:45:45.1Z</time>
      </trkpt>
      <trkpt lat="44.40478" lon="6.35393">
        <ele>1426</ele>
        <time>2015-08-26T13:45:50.1Z</time>
      </trkpt>
      <trkpt lat="44.40483" lon="6.35386">
        <ele>1425</ele>
        <time>2015-08-26T13:45:56.1Z</time>
      </trkpt>
      <trkpt lat="44.40488" lon="6.35381">
        <ele>1424</ele>
        <time>2015-08-26T13:46:02.1Z</time>
      </trkpt>
      <trkpt lat="44.40494" lon="6.35374">
        <ele>1423</ele>
        <time>2015-08-26T13:46:08.1Z</time>
      </trkpt>
      <trkpt lat="44.40498" lon="6.35369">
        <ele>1422</ele>
        <time>2015-08-26T13:46:13.1Z</time>
      </trkpt>
      <trkpt lat="44.40503" lon="6.35363">
        <ele>1421</ele>
        <time>2015-08-26T13:46:19.1Z</time>
      </trkpt>
      <trkpt lat="44.40506" lon="6.35357">
        <ele>1420</ele>
        <time>2015-08-26T13:46:25.1Z</time>
      </trkpt>
      <trkpt lat="44.40506" lon="6.35355">
        <ele>1419</ele>
        <time>2015-08-26T13:46:31.1Z</time>
      </trkpt>
      <trkpt lat="44.40505" lon="6.35352">
        <ele>1419</ele>
        <time>2015-08-26T13:46:37.1Z</time>
      </trkpt>
      <trkpt lat="44.40505" lon="6.3535">
        <ele>1419</ele>
        <time>2015-08-26T13:46:42.1Z</time>
      </trkpt>
      <trkpt lat="44.40507" lon="6.35344">
        <ele>1418</ele>
        <time>2015-08-26T13:46:48.1Z</time>
      </trkpt>
      <trkpt lat="44.40509" lon="6.35336">
        <ele>1417</ele>
        <time>2015-08-26T13:46:54.1Z</time>
      </trkpt>
      <trkpt lat="44.40511" lon="6.3533">
        <ele>1415</ele>
        <time>2015-08-26T13:46:59.1Z</time>
      </trkpt>
      <trkpt lat="44.40512" lon="6.35324">
        <ele>1413</ele>
        <time>2015-08-26T13:47:04.1Z</time>
      </trkpt>
      <trkpt lat="44.40513" lon="6.35316">
        <ele>1412</ele>
        <time>2015-08-26T13:47:09.1Z</time>
      </trkpt>
      <trkpt lat="44.40515" lon="6.35304">
        <ele>1411</ele>
        <time>2015-08-26T13:47:15.1Z</time>
      </trkpt>
      <trkpt lat="44.40517" lon="6.35294">
        <ele>1410</ele>
        <time>2015-08-26T13:47:20.1Z</time>
      </trkpt>
      <trkpt lat="44.40514" lon="6.35284">
        <ele>1409</ele>
        <time>2015-08-26T13:47:26.1Z</time>
      </trkpt>
      <trkpt lat="44.40513" lon="6.35275">
        <ele>1407</ele>
        <time>2015-08-26T13:47:31.1Z</time>
      </trkpt>
      <trkpt lat="44.40516" lon="6.35266">
        <ele>1406</ele>
        <time>2015-08-26T13:47:36.1Z</time>
      </trkpt>
      <trkpt lat="44.40522" lon="6.35256">
        <ele>1404</ele>
        <time>2015-08-26T13:47:42.1Z</time>
      </trkpt>
      <trkpt lat="44.40523" lon="6.35243">
        <ele>1402</ele>
        <time>2015-08-26T13:47:48.1Z</time>
      </trkpt>
      <trkpt lat="44.40524" lon="6.35233">
        <ele>1400</ele>
        <time>2015-08-26T13:47:53.1Z</time>
      </trkpt>
      <trkpt lat="44.40523" lon="6.35227">
        <ele>1399</ele>
        <time>2015-08-26T13:47:59.1Z</time>
      </trkpt>
      <trkpt lat="44.40519" lon="6.35224">
        <ele>1398</ele>
        <time>2015-08-26T13:48:05.1Z</time>
      </trkpt>
      <trkpt lat="44.40517" lon="6.35223">
        <ele>1399</ele>
        <time>2015-08-26T13:48:10.1Z</time>
      </trkpt>
      <trkpt lat="44.40517" lon="6.35223">
        <ele>1398</ele>
        <time>2015-08-26T13:48:15.1Z</time>
      </trkpt>
      <trkpt lat="44.40516" lon="6.35217">
        <ele>1397</ele>
        <time>2015-08-26T13:48:20.1Z</time>
      </trkpt>
      <trkpt lat="44.40517" lon="6.3521">
        <ele>1396</ele>
        <time>2015-08-26T13:48:26.1Z</time>
      </trkpt>
      <trkpt lat="44.40519" lon="6.35202">
        <ele>1395</ele>
        <time>2015-08-26T13:48:32.1Z</time>
      </trkpt>
      <trkpt lat="44.40524" lon="6.35194">
        <ele>1392</ele>
        <time>2015-08-26T13:48:38.1Z</time>
      </trkpt>
      <trkpt lat="44.40528" lon="6.35188">
        <ele>1391</ele>
        <time>2015-08-26T13:48:43.1Z</time>
      </trkpt>
      <trkpt lat="44.40533" lon="6.35184">
        <ele>1390</ele>
        <time>2015-08-26T13:48:48.1Z</time>
      </trkpt>
      <trkpt lat="44.40537" lon="6.35177">
        <ele>1388</ele>
        <time>2015-08-26T13:48:54.1Z</time>
      </trkpt>
      <trkpt lat="44.40541" lon="6.35172">
        <ele>1386</ele>
        <time>2015-08-26T13:48:59.1Z</time>
      </trkpt>
      <trkpt lat="44.40543" lon="6.35166">
        <ele>1384</ele>
        <time>2015-08-26T13:49:05.1Z</time>
      </trkpt>
      <trkpt lat="44.40548" lon="6.3516">
        <ele>1383</ele>
        <time>2015-08-26T13:49:11.1Z</time>
      </trkpt>
      <trkpt lat="44.40554" lon="6.35157">
        <ele>1382</ele>
        <time>2015-08-26T13:49:16.1Z</time>
      </trkpt>
      <trkpt lat="44.40559" lon="6.35156">
        <ele>1380</ele>
        <time>2015-08-26T13:49:21.1Z</time>
      </trkpt>
      <trkpt lat="44.40567" lon="6.35156">
        <ele>1379</ele>
        <time>2015-08-26T13:49:27.1Z</time>
      </trkpt>
      <trkpt lat="44.40576" lon="6.35158">
        <ele>1377</ele>
        <time>2015-08-26T13:49:32.1Z</time>
      </trkpt>
      <trkpt lat="44.40585" lon="6.35155">
        <ele>1376</ele>
        <time>2015-08-26T13:49:38.1Z</time>
      </trkpt>
      <trkpt lat="44.40587" lon="6.35153">
        <ele>1374</ele>
        <time>2015-08-26T13:49:43.1Z</time>
      </trkpt>
      <trkpt lat="44.40588" lon="6.35151">
        <ele>1373</ele>
        <time>2015-08-26T13:49:49.1Z</time>
      </trkpt>
      <trkpt lat="44.40587" lon="6.35148">
        <ele>1372</ele>
        <time>2015-08-26T13:49:54.1Z</time>
      </trkpt>
      <trkpt lat="44.40586" lon="6.35143">
        <ele>1371</ele>
        <time>2015-08-26T13:49:59.1Z</time>
      </trkpt>
      <trkpt lat="44.40587" lon="6.35138">
        <ele>1370</ele>
        <time>2015-08-26T13:50:05.1Z</time>
      </trkpt>
      <trkpt lat="44.40589" lon="6.35132">
        <ele>1369</ele>
        <time>2015-08-26T13:50:10.1Z</time>
      </trkpt>
      <trkpt lat="44.40592" lon="6.35124">
        <ele>1367</ele>
        <time>2015-08-26T13:50:16.1Z</time>
      </trkpt>
      <trkpt lat="44.40593" lon="6.35117">
        <ele>1366</ele>
        <time>2015-08-26T13:50:21.1Z</time>
      </trkpt>
      <trkpt lat="44.40594" lon="6.3511">
        <ele>1365</ele>
        <time>2015-08-26T13:50:27.1Z</time>
      </trkpt>
      <trkpt lat="44.40593" lon="6.35102">
        <ele>1363</ele>
        <time>2015-08-26T13:50:32.1Z</time>
      </trkpt>
      <trkpt lat="44.40591" lon="6.35093">
        <ele>1361</ele>
        <time>2015-08-26T13:50:38.1Z</time>
      </trkpt>
      <trkpt lat="44.4059" lon="6.35083">
        <ele>1360</ele>
        <time>2015-08-26T13:50:43.1Z</time>
      </trkpt>
      <trkpt lat="44.40589" lon="6.35075">
        <ele>1358</ele>
        <time>2015-08-26T13:50:49.1Z</time>
      </trkpt>
      <trkpt lat="44.40588" lon="6.35068">
        <ele>1357</ele>
        <time>2015-08-26T13:50:54.1Z</time>
      </trkpt>
      <trkpt lat="44.40587" lon="6.35058">
        <ele>1356</ele>
        <time>2015-08-26T13:51:00.1Z</time>
      </trkpt>
      <trkpt lat="44.40586" lon="6.35049">
        <ele>1355</ele>
        <time>2015-08-26T13:51:06.1Z</time>
      </trkpt>
      <trkpt lat="44.40588" lon="6.35041">
        <ele>1352</ele>
        <time>2015-08-26T13:51:12.1Z</time>
      </trkpt>
      <trkpt lat="44.40592" lon="6.35032">
        <ele>1351</ele>
        <time>2015-08-26T13:51:18.1Z</time>
      </trkpt>
      <trkpt lat="44.40597" lon="6.35024">
        <ele>1349</ele>
        <time>2015-08-26T13:51:24.1Z</time>
      </trkpt>
      <trkpt lat="44.40601" lon="6.35018">
        <ele>1347</ele>
        <time>2015-08-26T13:51:29.1Z</time>
      </trkpt>
      <trkpt lat="44.40605" lon="6.35011">
        <ele>1346</ele>
        <time>2015-08-26T13:51:35.1Z</time>
      </trkpt>
      <trkpt lat="44.40611" lon="6.35002">
        <ele>1344</ele>
        <time>2015-08-26T13:51:41.1Z</time>
      </trkpt>
      <trkpt lat="44.40617" lon="6.34999">
        <ele>1344</ele>
        <time>2015-08-26T13:51:46.1Z</time>
      </trkpt>
      <trkpt lat="44.4062" lon="6.34994">
        <ele>1342</ele>
        <time>2015-08-26T13:51:51.1Z</time>
      </trkpt>
      <trkpt lat="44.40626" lon="6.34989">
        <ele>1341</ele>
        <time>2015-08-26T13:51:57.1Z</time>
      </trkpt>
      <trkpt lat="44.40632" lon="6.34986">
        <ele>1340</ele>
        <time>2015-08-26T13:52:03.1Z</time>
      </trkpt>
      <trkpt lat="44.40637" lon="6.34982">
        <ele>1339</ele>
        <time>2015-08-26T13:52:08.1Z</time>
      </trkpt>
      <trkpt lat="44.40644" lon="6.3498">
        <ele>1338</ele>
        <time>2015-08-26T13:52:14.1Z</time>
      </trkpt>
      <trkpt lat="44.40651" lon="6.34976">
        <ele>1337</ele>
        <time>2015-08-26T13:52:19.1Z</time>
      </trkpt>
      <trkpt lat="44.40657" lon="6.34973">
        <ele>1335</ele>
        <time>2015-08-26T13:52:25.1Z</time>
      </trkpt>
      <trkpt lat="44.40664" lon="6.34968">
        <ele>1334</ele>
        <time>2015-08-26T13:52:31.1Z</time>
      </trkpt>
      <trkpt lat="44.40672" lon="6.34962">
        <ele>1332</ele>
        <time>2015-08-26T13:52:37.1Z</time>
      </trkpt>
      <trkpt lat="44.40675" lon="6.34957">
        <ele>1332</ele>
        <time>2015-08-26T13:52:42.1Z</time>
      </trkpt>
      <trkpt lat="44.40682" lon="6.34951">
        <ele>1329</ele>
        <time>2015-08-26T13:52:48.1Z</time>
      </trkpt>
      <trkpt lat="44.40686" lon="6.34946">
        <ele>1329</ele>
        <time>2015-08-26T13:52:53.1Z</time>
      </trkpt>
      <trkpt lat="44.4069" lon="6.34943">
        <ele>1329</ele>
        <time>2015-08-26T13:52:59.1Z</time>
      </trkpt>
      <trkpt lat="44.40693" lon="6.34944">
        <ele>1328</ele>
        <time>2015-08-26T13:53:05.1Z</time>
      </trkpt>
      <trkpt lat="44.40694" lon="6.34948">
        <ele>1329</ele>
        <time>2015-08-26T13:53:11.1Z</time>
      </trkpt>
      <trkpt lat="44.40695" lon="6.34952">
        <ele>1329</ele>
        <time>2015-08-26T13:53:17.1Z</time>
      </trkpt>
      <trkpt lat="44.40697" lon="6.34956">
        <ele>1329</ele>
        <time>2015-08-26T13:53:22.1Z</time>
      </trkpt>
      <trkpt lat="44.40698" lon="6.3496">
        <ele>1329</ele>
        <time>2015-08-26T13:53:28.1Z</time>
      </trkpt>
      <trkpt lat="44.407" lon="6.34962">
        <ele>1329</ele>
        <time>2015-08-26T13:53:33.1Z</time>
      </trkpt>
      <trkpt lat="44.407" lon="6.34965">
        <ele>1329</ele>
        <time>2015-08-26T13:53:38.1Z</time>
      </trkpt>
      <trkpt lat="44.40701" lon="6.34966">
        <ele>1329</ele>
        <time>2015-08-26T13:53:44.1Z</time>
      </trkpt>
      <trkpt lat="44.40702" lon="6.34965">
        <ele>1329</ele>
        <time>2015-08-26T13:53:49.1Z</time>
      </trkpt>
      <trkpt lat="44.40702" lon="6.34963">
        <ele>1329</ele>
        <time>2015-08-26T13:53:55.1Z</time>
      </trkpt>
      <trkpt lat="44.40703" lon="6.34962">
        <ele>1329</ele>
        <time>2015-08-26T13:54:01.1Z</time>
      </trkpt>
      <trkpt lat="44.40703" lon="6.34959">
        <ele>1329</ele>
        <time>2015-08-26T13:54:07.1Z</time>
      </trkpt>
      <trkpt lat="44.40703" lon="6.34958">
        <ele>1329</ele>
        <time>2015-08-26T13:54:12.1Z</time>
      </trkpt>
      <trkpt lat="44.40703" lon="6.34958">
        <ele>1330</ele>
        <time>2015-08-26T13:54:19.1Z</time>
      </trkpt>
      <trkpt lat="44.40701" lon="6.34959">
        <ele>1330</ele>
        <time>2015-08-26T13:54:25.1Z</time>
      </trkpt>
      <trkpt lat="44.40698" lon="6.3496">
        <ele>1330</ele>
        <time>2015-08-26T13:54:31.1Z</time>
      </trkpt>
      <trkpt lat="44.40689" lon="6.34938">
        <ele>1329</ele>
        <time>2015-08-26T13:54:36.1Z</time>
      </trkpt>
      <trkpt lat="44.40698" lon="6.34929">
        <ele>1328</ele>
        <time>2015-08-26T13:54:41.1Z</time>
      </trkpt>
      <trkpt lat="44.40718" lon="6.34951">
        <ele>1327</ele>
        <time>2015-08-26T13:54:46.1Z</time>
      </trkpt>
      <trkpt lat="44.40746" lon="6.35001">
        <ele>1326</ele>
        <time>2015-08-26T13:54:52.1Z</time>
      </trkpt>
      <trkpt lat="44.40785" lon="6.3505">
        <ele>1325</ele>
        <time>2015-08-26T13:54:58.1Z</time>
      </trkpt>
      <trkpt lat="44.40831" lon="6.35087">
        <ele>1322</ele>
        <time>2015-08-26T13:55:03.1Z</time>
      </trkpt>
      <trkpt lat="44.40871" lon="6.35125">
        <ele>1319</ele>
        <time>2015-08-26T13:55:09.1Z</time>
      </trkpt>
      <trkpt lat="44.4092" lon="6.35137">
        <ele>1316</ele>
        <time>2015-08-26T13:55:15.1Z</time>
      </trkpt>
      <trkpt lat="44.4096" lon="6.3512">
        <ele>1313</ele>
        <time>2015-08-26T13:55:20.1Z</time>
      </trkpt>
      <trkpt lat="44.40992" lon="6.35077">
        <ele>1311</ele>
        <time>2015-08-26T13:55:25.1Z</time>
      </trkpt>
      <trkpt lat="44.41043" lon="6.35045">
        <ele>1309</ele>
        <time>2015-08-26T13:55:31.1Z</time>
      </trkpt>
      <trkpt lat="44.41087" lon="6.35051">
        <ele>1308</ele>
        <time>2015-08-26T13:55:36.1Z</time>
      </trkpt>
      <trkpt lat="44.41138" lon="6.35042">
        <ele>1310</ele>
        <time>2015-08-26T13:55:42.1Z</time>
      </trkpt>
      <trkpt lat="44.41164" lon="6.34982">
        <ele>1313</ele>
        <time>2015-08-26T13:55:48.1Z</time>
      </trkpt>
      <trkpt lat="44.41182" lon="6.34928">
        <ele>1313</ele>
        <time>2015-08-26T13:55:53.1Z</time>
      </trkpt>
      <trkpt lat="44.41244" lon="6.34926">
        <ele>1314</ele>
        <time>2015-08-26T13:55:59.1Z</time>
      </trkpt>
      <trkpt lat="44.41257" lon="6.34934">
        <ele>1313</ele>
        <time>2015-08-26T13:56:05.1Z</time>
      </trkpt>
    </trkseg>
  </trk>
</gpx>